<?xml version="1.0" encoding="UTF-8" standalone="no" ?>
<gpx xmlns="http://www.topografix.com/GPX/1/1" xmlns:xsi="http://www.w3.org/2001/XMLSchema-instance" xsi:schemaLocation="http://www.topografix.com/GPX/1/1 http://www.topografix.com/GPX/1/1/gpx.xsd" version="1.1" creator="VisuGPX - https://www.visugpx.com">
  <metadata>
    <name>La Combe de Morbier-Chapelle des Bois-Les Prés Hauts</name>
  </metadata>
  <trk>
    <name><![CDATA[La Combe de Morbier-Chapelle des Bois-Les Prés Hauts_1]]></name>
    <extensions>
      <line xmlns="http://www.topografix.com/GPX/gpx_style/0/2">
        <color>0000FF</color>
        <width>4</width>
      </line>
    </extensions>
    <trkseg>
      <trkpt lat="46.57797" lon="6.0502">
        <ele>1010.1</ele>
        <time>2021-10-26T06:38:04Z</time>
      </trkpt>
      <trkpt lat="46.57801" lon="6.05024">
        <ele>1017.7</ele>
        <time>2021-10-26T06:38:40Z</time>
      </trkpt>
      <trkpt lat="46.57805" lon="6.05028">
        <ele>1035.4</ele>
        <time>2021-10-26T06:39:10Z</time>
      </trkpt>
      <trkpt lat="46.57802" lon="6.05033">
        <ele>1036.8</ele>
        <time>2021-10-26T06:40:25Z</time>
      </trkpt>
      <trkpt lat="46.57801" lon="6.0504">
        <ele>1038.7</ele>
        <time>2021-10-26T06:42:29Z</time>
      </trkpt>
      <trkpt lat="46.57801" lon="6.05047">
        <ele>1039.2</ele>
        <time>2021-10-26T06:42:35Z</time>
      </trkpt>
      <trkpt lat="46.57803" lon="6.05055">
        <ele>1039.7</ele>
        <time>2021-10-26T06:42:41Z</time>
      </trkpt>
      <trkpt lat="46.57805" lon="6.05061">
        <ele>1039.4</ele>
        <time>2021-10-26T06:42:46Z</time>
      </trkpt>
      <trkpt lat="46.57806" lon="6.05069">
        <ele>1039.2</ele>
        <time>2021-10-26T06:42:51Z</time>
      </trkpt>
      <trkpt lat="46.57805" lon="6.05076">
        <ele>1039.5</ele>
        <time>2021-10-26T06:42:56Z</time>
      </trkpt>
      <trkpt lat="46.57805" lon="6.05083">
        <ele>1039.9</ele>
        <time>2021-10-26T06:43:01Z</time>
      </trkpt>
      <trkpt lat="46.57804" lon="6.0509">
        <ele>1040.2</ele>
        <time>2021-10-26T06:43:06Z</time>
      </trkpt>
      <trkpt lat="46.57803" lon="6.05097">
        <ele>1040.2</ele>
        <time>2021-10-26T06:43:12Z</time>
      </trkpt>
      <trkpt lat="46.57803" lon="6.05104">
        <ele>1040</ele>
        <time>2021-10-26T06:43:16Z</time>
      </trkpt>
      <trkpt lat="46.57801" lon="6.0511">
        <ele>1040.1</ele>
        <time>2021-10-26T06:43:21Z</time>
      </trkpt>
      <trkpt lat="46.578" lon="6.05118">
        <ele>1040.1</ele>
        <time>2021-10-26T06:43:26Z</time>
      </trkpt>
      <trkpt lat="46.57799" lon="6.05124">
        <ele>1041</ele>
        <time>2021-10-26T06:43:31Z</time>
      </trkpt>
      <trkpt lat="46.57798" lon="6.05131">
        <ele>1041.9</ele>
        <time>2021-10-26T06:43:36Z</time>
      </trkpt>
      <trkpt lat="46.57796" lon="6.05137">
        <ele>1042.7</ele>
        <time>2021-10-26T06:43:41Z</time>
      </trkpt>
      <trkpt lat="46.57795" lon="6.05145">
        <ele>1043.4</ele>
        <time>2021-10-26T06:43:46Z</time>
      </trkpt>
      <trkpt lat="46.57795" lon="6.05152">
        <ele>1043.7</ele>
        <time>2021-10-26T06:43:50Z</time>
      </trkpt>
      <trkpt lat="46.57796" lon="6.05159">
        <ele>1044</ele>
        <time>2021-10-26T06:43:54Z</time>
      </trkpt>
      <trkpt lat="46.57795" lon="6.05166">
        <ele>1044.2</ele>
        <time>2021-10-26T06:43:59Z</time>
      </trkpt>
      <trkpt lat="46.57796" lon="6.05174">
        <ele>1044.2</ele>
        <time>2021-10-26T06:44:04Z</time>
      </trkpt>
      <trkpt lat="46.57798" lon="6.05182">
        <ele>1044.4</ele>
        <time>2021-10-26T06:44:08Z</time>
      </trkpt>
      <trkpt lat="46.578" lon="6.05188">
        <ele>1044.9</ele>
        <time>2021-10-26T06:44:12Z</time>
      </trkpt>
      <trkpt lat="46.57802" lon="6.05194">
        <ele>1046</ele>
        <time>2021-10-26T06:44:17Z</time>
      </trkpt>
      <trkpt lat="46.57805" lon="6.052">
        <ele>1047</ele>
        <time>2021-10-26T06:44:22Z</time>
      </trkpt>
      <trkpt lat="46.57807" lon="6.05207">
        <ele>1046.9</ele>
        <time>2021-10-26T06:44:27Z</time>
      </trkpt>
      <trkpt lat="46.5781" lon="6.05213">
        <ele>1046.8</ele>
        <time>2021-10-26T06:44:32Z</time>
      </trkpt>
      <trkpt lat="46.57812" lon="6.0522">
        <ele>1046.7</ele>
        <time>2021-10-26T06:44:37Z</time>
      </trkpt>
      <trkpt lat="46.57815" lon="6.05226">
        <ele>1046.5</ele>
        <time>2021-10-26T06:44:43Z</time>
      </trkpt>
      <trkpt lat="46.5782" lon="6.0523">
        <ele>1046.3</ele>
        <time>2021-10-26T06:44:47Z</time>
      </trkpt>
      <trkpt lat="46.57826" lon="6.05233">
        <ele>1046.2</ele>
        <time>2021-10-26T06:44:51Z</time>
      </trkpt>
      <trkpt lat="46.57831" lon="6.05234">
        <ele>1046.3</ele>
        <time>2021-10-26T06:44:55Z</time>
      </trkpt>
      <trkpt lat="46.57836" lon="6.05236">
        <ele>1045.8</ele>
        <time>2021-10-26T06:45:00Z</time>
      </trkpt>
      <trkpt lat="46.57841" lon="6.05237">
        <ele>1045.3</ele>
        <time>2021-10-26T06:45:05Z</time>
      </trkpt>
      <trkpt lat="46.57846" lon="6.05238">
        <ele>1045.2</ele>
        <time>2021-10-26T06:45:09Z</time>
      </trkpt>
      <trkpt lat="46.5785" lon="6.05238">
        <ele>1045.3</ele>
        <time>2021-10-26T06:45:14Z</time>
      </trkpt>
      <trkpt lat="46.57855" lon="6.05239">
        <ele>1045.2</ele>
        <time>2021-10-26T06:45:19Z</time>
      </trkpt>
      <trkpt lat="46.5786" lon="6.05242">
        <ele>1044.8</ele>
        <time>2021-10-26T06:45:24Z</time>
      </trkpt>
      <trkpt lat="46.57864" lon="6.05246">
        <ele>1044.4</ele>
        <time>2021-10-26T06:45:28Z</time>
      </trkpt>
      <trkpt lat="46.57868" lon="6.05249">
        <ele>1043.9</ele>
        <time>2021-10-26T06:45:32Z</time>
      </trkpt>
      <trkpt lat="46.57872" lon="6.05253">
        <ele>1043.4</ele>
        <time>2021-10-26T06:45:36Z</time>
      </trkpt>
      <trkpt lat="46.57876" lon="6.05258">
        <ele>1043</ele>
        <time>2021-10-26T06:45:40Z</time>
      </trkpt>
      <trkpt lat="46.57879" lon="6.05263">
        <ele>1042.8</ele>
        <time>2021-10-26T06:45:45Z</time>
      </trkpt>
      <trkpt lat="46.57881" lon="6.0527">
        <ele>1042.6</ele>
        <time>2021-10-26T06:45:50Z</time>
      </trkpt>
      <trkpt lat="46.57881" lon="6.05278">
        <ele>1042.9</ele>
        <time>2021-10-26T06:45:55Z</time>
      </trkpt>
      <trkpt lat="46.57885" lon="6.05274">
        <ele>1044.1</ele>
        <time>2021-10-26T06:46:10Z</time>
      </trkpt>
      <trkpt lat="46.57889" lon="6.05278">
        <ele>1043.6</ele>
        <time>2021-10-26T06:46:21Z</time>
      </trkpt>
      <trkpt lat="46.57891" lon="6.05285">
        <ele>1043.1</ele>
        <time>2021-10-26T06:46:27Z</time>
      </trkpt>
      <trkpt lat="46.5789" lon="6.05292">
        <ele>1043.1</ele>
        <time>2021-10-26T06:46:33Z</time>
      </trkpt>
      <trkpt lat="46.57891" lon="6.05298">
        <ele>1043.9</ele>
        <time>2021-10-26T06:46:42Z</time>
      </trkpt>
      <trkpt lat="46.57891" lon="6.05305">
        <ele>1044.3</ele>
        <time>2021-10-26T06:46:49Z</time>
      </trkpt>
      <trkpt lat="46.57891" lon="6.05312">
        <ele>1044.5</ele>
        <time>2021-10-26T06:46:55Z</time>
      </trkpt>
      <trkpt lat="46.57891" lon="6.05319">
        <ele>1044.6</ele>
        <time>2021-10-26T06:47:01Z</time>
      </trkpt>
      <trkpt lat="46.57893" lon="6.05327">
        <ele>1045.3</ele>
        <time>2021-10-26T06:47:07Z</time>
      </trkpt>
      <trkpt lat="46.57895" lon="6.05333">
        <ele>1046.7</ele>
        <time>2021-10-26T06:47:12Z</time>
      </trkpt>
      <trkpt lat="46.57896" lon="6.0534">
        <ele>1048.3</ele>
        <time>2021-10-26T06:47:17Z</time>
      </trkpt>
      <trkpt lat="46.57895" lon="6.05347">
        <ele>1049.2</ele>
        <time>2021-10-26T06:47:23Z</time>
      </trkpt>
      <trkpt lat="46.57896" lon="6.05354">
        <ele>1048.8</ele>
        <time>2021-10-26T06:47:28Z</time>
      </trkpt>
      <trkpt lat="46.57897" lon="6.05361">
        <ele>1048.2</ele>
        <time>2021-10-26T06:47:33Z</time>
      </trkpt>
      <trkpt lat="46.57896" lon="6.05369">
        <ele>1047.3</ele>
        <time>2021-10-26T06:47:39Z</time>
      </trkpt>
      <trkpt lat="46.57895" lon="6.05376">
        <ele>1046.4</ele>
        <time>2021-10-26T06:47:46Z</time>
      </trkpt>
      <trkpt lat="46.57895" lon="6.05383">
        <ele>1045.6</ele>
        <time>2021-10-26T06:47:53Z</time>
      </trkpt>
      <trkpt lat="46.57897" lon="6.0539">
        <ele>1045.2</ele>
        <time>2021-10-26T06:47:57Z</time>
      </trkpt>
      <trkpt lat="46.57898" lon="6.05397">
        <ele>1044.5</ele>
        <time>2021-10-26T06:48:03Z</time>
      </trkpt>
      <trkpt lat="46.57896" lon="6.05405">
        <ele>1044</ele>
        <time>2021-10-26T06:48:09Z</time>
      </trkpt>
      <trkpt lat="46.57895" lon="6.05412">
        <ele>1043.8</ele>
        <time>2021-10-26T06:48:15Z</time>
      </trkpt>
      <trkpt lat="46.57892" lon="6.05419">
        <ele>1045.1</ele>
        <time>2021-10-26T06:48:20Z</time>
      </trkpt>
      <trkpt lat="46.57891" lon="6.05426">
        <ele>1046.4</ele>
        <time>2021-10-26T06:48:24Z</time>
      </trkpt>
      <trkpt lat="46.57891" lon="6.05433">
        <ele>1047.7</ele>
        <time>2021-10-26T06:48:28Z</time>
      </trkpt>
      <trkpt lat="46.57891" lon="6.05441">
        <ele>1049.4</ele>
        <time>2021-10-26T06:48:33Z</time>
      </trkpt>
      <trkpt lat="46.5789" lon="6.05447">
        <ele>1051.2</ele>
        <time>2021-10-26T06:48:37Z</time>
      </trkpt>
      <trkpt lat="46.57891" lon="6.05455">
        <ele>1053.1</ele>
        <time>2021-10-26T06:48:43Z</time>
      </trkpt>
      <trkpt lat="46.57893" lon="6.05462">
        <ele>1054.5</ele>
        <time>2021-10-26T06:48:48Z</time>
      </trkpt>
      <trkpt lat="46.57895" lon="6.05468">
        <ele>1055.2</ele>
        <time>2021-10-26T06:48:53Z</time>
      </trkpt>
      <trkpt lat="46.57896" lon="6.05476">
        <ele>1055.8</ele>
        <time>2021-10-26T06:48:59Z</time>
      </trkpt>
      <trkpt lat="46.57897" lon="6.05483">
        <ele>1056.7</ele>
        <time>2021-10-26T06:49:05Z</time>
      </trkpt>
      <trkpt lat="46.57901" lon="6.05488">
        <ele>1057.4</ele>
        <time>2021-10-26T06:49:10Z</time>
      </trkpt>
      <trkpt lat="46.57904" lon="6.05494">
        <ele>1058.5</ele>
        <time>2021-10-26T06:49:18Z</time>
      </trkpt>
      <trkpt lat="46.57907" lon="6.055">
        <ele>1058.9</ele>
        <time>2021-10-26T06:49:24Z</time>
      </trkpt>
      <trkpt lat="46.57909" lon="6.05507">
        <ele>1059.6</ele>
        <time>2021-10-26T06:49:29Z</time>
      </trkpt>
      <trkpt lat="46.57913" lon="6.05513">
        <ele>1060.5</ele>
        <time>2021-10-26T06:49:34Z</time>
      </trkpt>
      <trkpt lat="46.57917" lon="6.05514">
        <ele>1061.1</ele>
        <time>2021-10-26T06:49:39Z</time>
      </trkpt>
      <trkpt lat="46.5792" lon="6.05521">
        <ele>1061.3</ele>
        <time>2021-10-26T06:49:45Z</time>
      </trkpt>
      <trkpt lat="46.57923" lon="6.05525">
        <ele>1060.3</ele>
        <time>2021-10-26T06:49:52Z</time>
      </trkpt>
      <trkpt lat="46.57927" lon="6.0553">
        <ele>1059.3</ele>
        <time>2021-10-26T06:49:57Z</time>
      </trkpt>
      <trkpt lat="46.57931" lon="6.05534">
        <ele>1059</ele>
        <time>2021-10-26T06:50:02Z</time>
      </trkpt>
      <trkpt lat="46.57935" lon="6.05538">
        <ele>1058.9</ele>
        <time>2021-10-26T06:50:08Z</time>
      </trkpt>
      <trkpt lat="46.57938" lon="6.05544">
        <ele>1058.6</ele>
        <time>2021-10-26T06:50:14Z</time>
      </trkpt>
      <trkpt lat="46.5794" lon="6.05551">
        <ele>1058.3</ele>
        <time>2021-10-26T06:50:19Z</time>
      </trkpt>
      <trkpt lat="46.57945" lon="6.05556">
        <ele>1058.1</ele>
        <time>2021-10-26T06:50:23Z</time>
      </trkpt>
      <trkpt lat="46.57948" lon="6.05561">
        <ele>1058.1</ele>
        <time>2021-10-26T06:50:27Z</time>
      </trkpt>
      <trkpt lat="46.57951" lon="6.05568">
        <ele>1059.1</ele>
        <time>2021-10-26T06:50:33Z</time>
      </trkpt>
      <trkpt lat="46.57954" lon="6.05574">
        <ele>1060.6</ele>
        <time>2021-10-26T06:50:38Z</time>
      </trkpt>
      <trkpt lat="46.57956" lon="6.05579">
        <ele>1062.4</ele>
        <time>2021-10-26T06:50:43Z</time>
      </trkpt>
      <trkpt lat="46.57959" lon="6.05586">
        <ele>1064.5</ele>
        <time>2021-10-26T06:50:48Z</time>
      </trkpt>
      <trkpt lat="46.5796" lon="6.05594">
        <ele>1066.3</ele>
        <time>2021-10-26T06:50:53Z</time>
      </trkpt>
      <trkpt lat="46.57961" lon="6.05601">
        <ele>1067.7</ele>
        <time>2021-10-26T06:50:59Z</time>
      </trkpt>
      <trkpt lat="46.57961" lon="6.05608">
        <ele>1068.5</ele>
        <time>2021-10-26T06:51:04Z</time>
      </trkpt>
      <trkpt lat="46.57962" lon="6.05615">
        <ele>1068.7</ele>
        <time>2021-10-26T06:51:08Z</time>
      </trkpt>
      <trkpt lat="46.57963" lon="6.05622">
        <ele>1068.8</ele>
        <time>2021-10-26T06:51:13Z</time>
      </trkpt>
      <trkpt lat="46.57963" lon="6.0563">
        <ele>1068.6</ele>
        <time>2021-10-26T06:51:19Z</time>
      </trkpt>
      <trkpt lat="46.57963" lon="6.05637">
        <ele>1069</ele>
        <time>2021-10-26T06:51:24Z</time>
      </trkpt>
      <trkpt lat="46.57965" lon="6.05644">
        <ele>1069.4</ele>
        <time>2021-10-26T06:51:28Z</time>
      </trkpt>
      <trkpt lat="46.57966" lon="6.0565">
        <ele>1069.3</ele>
        <time>2021-10-26T06:51:33Z</time>
      </trkpt>
      <trkpt lat="46.5797" lon="6.05654">
        <ele>1069.1</ele>
        <time>2021-10-26T06:51:38Z</time>
      </trkpt>
      <trkpt lat="46.57973" lon="6.0566">
        <ele>1069.8</ele>
        <time>2021-10-26T06:51:43Z</time>
      </trkpt>
      <trkpt lat="46.57976" lon="6.05665">
        <ele>1070.2</ele>
        <time>2021-10-26T06:51:47Z</time>
      </trkpt>
      <trkpt lat="46.57979" lon="6.0567">
        <ele>1070.3</ele>
        <time>2021-10-26T06:51:51Z</time>
      </trkpt>
      <trkpt lat="46.57981" lon="6.05676">
        <ele>1070.1</ele>
        <time>2021-10-26T06:51:56Z</time>
      </trkpt>
      <trkpt lat="46.57984" lon="6.05682">
        <ele>1069.6</ele>
        <time>2021-10-26T06:52:01Z</time>
      </trkpt>
      <trkpt lat="46.57987" lon="6.05688">
        <ele>1068.4</ele>
        <time>2021-10-26T06:52:06Z</time>
      </trkpt>
      <trkpt lat="46.5799" lon="6.05694">
        <ele>1067.8</ele>
        <time>2021-10-26T06:52:11Z</time>
      </trkpt>
      <trkpt lat="46.57993" lon="6.05698">
        <ele>1067.5</ele>
        <time>2021-10-26T06:52:16Z</time>
      </trkpt>
      <trkpt lat="46.57995" lon="6.05704">
        <ele>1067.1</ele>
        <time>2021-10-26T06:52:22Z</time>
      </trkpt>
      <trkpt lat="46.57996" lon="6.05712">
        <ele>1066.6</ele>
        <time>2021-10-26T06:52:29Z</time>
      </trkpt>
      <trkpt lat="46.57997" lon="6.05719">
        <ele>1066.8</ele>
        <time>2021-10-26T06:52:33Z</time>
      </trkpt>
      <trkpt lat="46.57997" lon="6.05727">
        <ele>1067</ele>
        <time>2021-10-26T06:52:38Z</time>
      </trkpt>
      <trkpt lat="46.57998" lon="6.05735">
        <ele>1067.5</ele>
        <time>2021-10-26T06:52:42Z</time>
      </trkpt>
      <trkpt lat="46.57997" lon="6.05742">
        <ele>1068.4</ele>
        <time>2021-10-26T06:52:46Z</time>
      </trkpt>
      <trkpt lat="46.57994" lon="6.05748">
        <ele>1069.5</ele>
        <time>2021-10-26T06:52:50Z</time>
      </trkpt>
      <trkpt lat="46.57992" lon="6.05755">
        <ele>1070.8</ele>
        <time>2021-10-26T06:52:54Z</time>
      </trkpt>
      <trkpt lat="46.57991" lon="6.05761">
        <ele>1072.3</ele>
        <time>2021-10-26T06:52:58Z</time>
      </trkpt>
      <trkpt lat="46.57989" lon="6.05768">
        <ele>1073.7</ele>
        <time>2021-10-26T06:53:02Z</time>
      </trkpt>
      <trkpt lat="46.57988" lon="6.05775">
        <ele>1075</ele>
        <time>2021-10-26T06:53:07Z</time>
      </trkpt>
      <trkpt lat="46.57986" lon="6.05782">
        <ele>1075.7</ele>
        <time>2021-10-26T06:53:12Z</time>
      </trkpt>
      <trkpt lat="46.57985" lon="6.05788">
        <ele>1076</ele>
        <time>2021-10-26T06:53:18Z</time>
      </trkpt>
      <trkpt lat="46.57985" lon="6.05796">
        <ele>1075.5</ele>
        <time>2021-10-26T06:53:24Z</time>
      </trkpt>
      <trkpt lat="46.57984" lon="6.05802">
        <ele>1074.9</ele>
        <time>2021-10-26T06:53:29Z</time>
      </trkpt>
      <trkpt lat="46.57984" lon="6.05809">
        <ele>1074.2</ele>
        <time>2021-10-26T06:53:34Z</time>
      </trkpt>
      <trkpt lat="46.57984" lon="6.05817">
        <ele>1073.5</ele>
        <time>2021-10-26T06:53:41Z</time>
      </trkpt>
      <trkpt lat="46.57982" lon="6.05824">
        <ele>1073.6</ele>
        <time>2021-10-26T06:53:46Z</time>
      </trkpt>
      <trkpt lat="46.57984" lon="6.05832">
        <ele>1073.9</ele>
        <time>2021-10-26T06:53:50Z</time>
      </trkpt>
      <trkpt lat="46.57986" lon="6.05838">
        <ele>1074.4</ele>
        <time>2021-10-26T06:53:55Z</time>
      </trkpt>
      <trkpt lat="46.57988" lon="6.05846">
        <ele>1074.8</ele>
        <time>2021-10-26T06:53:59Z</time>
      </trkpt>
      <trkpt lat="46.57989" lon="6.05854">
        <ele>1075.1</ele>
        <time>2021-10-26T06:54:03Z</time>
      </trkpt>
      <trkpt lat="46.57991" lon="6.05861">
        <ele>1075.4</ele>
        <time>2021-10-26T06:54:09Z</time>
      </trkpt>
      <trkpt lat="46.57989" lon="6.05868">
        <ele>1074.9</ele>
        <time>2021-10-26T06:54:16Z</time>
      </trkpt>
      <trkpt lat="46.57987" lon="6.05875">
        <ele>1074.5</ele>
        <time>2021-10-26T06:54:21Z</time>
      </trkpt>
      <trkpt lat="46.57985" lon="6.05882">
        <ele>1074.6</ele>
        <time>2021-10-26T06:54:25Z</time>
      </trkpt>
      <trkpt lat="46.57985" lon="6.05889">
        <ele>1074</ele>
        <time>2021-10-26T06:54:31Z</time>
      </trkpt>
      <trkpt lat="46.57985" lon="6.05896">
        <ele>1073.2</ele>
        <time>2021-10-26T06:54:35Z</time>
      </trkpt>
      <trkpt lat="46.57985" lon="6.05904">
        <ele>1072.3</ele>
        <time>2021-10-26T06:54:39Z</time>
      </trkpt>
      <trkpt lat="46.57983" lon="6.05911">
        <ele>1071.4</ele>
        <time>2021-10-26T06:54:42Z</time>
      </trkpt>
      <trkpt lat="46.5798" lon="6.05918">
        <ele>1069.7</ele>
        <time>2021-10-26T06:54:46Z</time>
      </trkpt>
      <trkpt lat="46.57977" lon="6.05925">
        <ele>1068.6</ele>
        <time>2021-10-26T06:54:51Z</time>
      </trkpt>
      <trkpt lat="46.57974" lon="6.05931">
        <ele>1066.9</ele>
        <time>2021-10-26T06:54:57Z</time>
      </trkpt>
      <trkpt lat="46.57972" lon="6.05937">
        <ele>1065.7</ele>
        <time>2021-10-26T06:55:02Z</time>
      </trkpt>
      <trkpt lat="46.5797" lon="6.05943">
        <ele>1065.1</ele>
        <time>2021-10-26T06:55:08Z</time>
      </trkpt>
      <trkpt lat="46.57969" lon="6.0595">
        <ele>1064.6</ele>
        <time>2021-10-26T06:55:15Z</time>
      </trkpt>
      <trkpt lat="46.57967" lon="6.05955">
        <ele>1063.8</ele>
        <time>2021-10-26T06:55:20Z</time>
      </trkpt>
      <trkpt lat="46.57966" lon="6.05962">
        <ele>1063.7</ele>
        <time>2021-10-26T06:55:25Z</time>
      </trkpt>
      <trkpt lat="46.57966" lon="6.05969">
        <ele>1063.9</ele>
        <time>2021-10-26T06:55:30Z</time>
      </trkpt>
      <trkpt lat="46.57965" lon="6.05976">
        <ele>1064.5</ele>
        <time>2021-10-26T06:55:35Z</time>
      </trkpt>
      <trkpt lat="46.57967" lon="6.05983">
        <ele>1065.6</ele>
        <time>2021-10-26T06:55:42Z</time>
      </trkpt>
      <trkpt lat="46.57967" lon="6.05991">
        <ele>1066.2</ele>
        <time>2021-10-26T06:55:47Z</time>
      </trkpt>
      <trkpt lat="46.57969" lon="6.05997">
        <ele>1066.9</ele>
        <time>2021-10-26T06:55:53Z</time>
      </trkpt>
      <trkpt lat="46.57971" lon="6.06005">
        <ele>1067.1</ele>
        <time>2021-10-26T06:55:58Z</time>
      </trkpt>
      <trkpt lat="46.57973" lon="6.06012">
        <ele>1067.5</ele>
        <time>2021-10-26T06:56:03Z</time>
      </trkpt>
      <trkpt lat="46.57976" lon="6.06018">
        <ele>1067.8</ele>
        <time>2021-10-26T06:56:09Z</time>
      </trkpt>
      <trkpt lat="46.57979" lon="6.06024">
        <ele>1068</ele>
        <time>2021-10-26T06:56:14Z</time>
      </trkpt>
      <trkpt lat="46.5798" lon="6.0603">
        <ele>1069.1</ele>
        <time>2021-10-26T06:56:22Z</time>
      </trkpt>
      <trkpt lat="46.57984" lon="6.06036">
        <ele>1069.1</ele>
        <time>2021-10-26T06:56:28Z</time>
      </trkpt>
      <trkpt lat="46.57987" lon="6.06041">
        <ele>1069.2</ele>
        <time>2021-10-26T06:56:33Z</time>
      </trkpt>
      <trkpt lat="46.57989" lon="6.06048">
        <ele>1069.5</ele>
        <time>2021-10-26T06:56:38Z</time>
      </trkpt>
      <trkpt lat="46.57989" lon="6.06054">
        <ele>1070.4</ele>
        <time>2021-10-26T06:56:43Z</time>
      </trkpt>
      <trkpt lat="46.57988" lon="6.06062">
        <ele>1072.3</ele>
        <time>2021-10-26T06:56:48Z</time>
      </trkpt>
      <trkpt lat="46.57987" lon="6.06069">
        <ele>1073.9</ele>
        <time>2021-10-26T06:56:53Z</time>
      </trkpt>
      <trkpt lat="46.57986" lon="6.06076">
        <ele>1075.4</ele>
        <time>2021-10-26T06:57:02Z</time>
      </trkpt>
      <trkpt lat="46.57985" lon="6.06084">
        <ele>1076.2</ele>
        <time>2021-10-26T06:57:07Z</time>
      </trkpt>
      <trkpt lat="46.57985" lon="6.06092">
        <ele>1076.8</ele>
        <time>2021-10-26T06:57:10Z</time>
      </trkpt>
      <trkpt lat="46.57987" lon="6.06098">
        <ele>1077.5</ele>
        <time>2021-10-26T06:57:13Z</time>
      </trkpt>
      <trkpt lat="46.5799" lon="6.06106">
        <ele>1078.2</ele>
        <time>2021-10-26T06:57:17Z</time>
      </trkpt>
      <trkpt lat="46.57992" lon="6.06112">
        <ele>1078.6</ele>
        <time>2021-10-26T06:57:22Z</time>
      </trkpt>
      <trkpt lat="46.57993" lon="6.06119">
        <ele>1078.6</ele>
        <time>2021-10-26T06:57:28Z</time>
      </trkpt>
      <trkpt lat="46.5799" lon="6.06126">
        <ele>1078.1</ele>
        <time>2021-10-26T06:57:36Z</time>
      </trkpt>
      <trkpt lat="46.57989" lon="6.06133">
        <ele>1078.7</ele>
        <time>2021-10-26T06:57:40Z</time>
      </trkpt>
      <trkpt lat="46.57988" lon="6.0614">
        <ele>1079.8</ele>
        <time>2021-10-26T06:57:43Z</time>
      </trkpt>
      <trkpt lat="46.57988" lon="6.06147">
        <ele>1083.1</ele>
        <time>2021-10-26T06:57:49Z</time>
      </trkpt>
      <trkpt lat="46.57989" lon="6.06153">
        <ele>1086</ele>
        <time>2021-10-26T06:57:55Z</time>
      </trkpt>
      <trkpt lat="46.57987" lon="6.0616">
        <ele>1088.7</ele>
        <time>2021-10-26T06:58:02Z</time>
      </trkpt>
      <trkpt lat="46.57988" lon="6.06167">
        <ele>1090.2</ele>
        <time>2021-10-26T06:58:09Z</time>
      </trkpt>
      <trkpt lat="46.57989" lon="6.06174">
        <ele>1090</ele>
        <time>2021-10-26T06:58:14Z</time>
      </trkpt>
      <trkpt lat="46.57988" lon="6.06181">
        <ele>1089.4</ele>
        <time>2021-10-26T06:58:20Z</time>
      </trkpt>
      <trkpt lat="46.57984" lon="6.06186">
        <ele>1088.8</ele>
        <time>2021-10-26T06:58:24Z</time>
      </trkpt>
      <trkpt lat="46.57979" lon="6.06189">
        <ele>1088.3</ele>
        <time>2021-10-26T06:58:28Z</time>
      </trkpt>
      <trkpt lat="46.57977" lon="6.06196">
        <ele>1087.9</ele>
        <time>2021-10-26T06:58:34Z</time>
      </trkpt>
      <trkpt lat="46.57973" lon="6.06201">
        <ele>1087.4</ele>
        <time>2021-10-26T06:58:39Z</time>
      </trkpt>
      <trkpt lat="46.5797" lon="6.06206">
        <ele>1086.1</ele>
        <time>2021-10-26T06:58:45Z</time>
      </trkpt>
      <trkpt lat="46.57969" lon="6.06212">
        <ele>1085</ele>
        <time>2021-10-26T06:58:50Z</time>
      </trkpt>
      <trkpt lat="46.57966" lon="6.0622">
        <ele>1084.9</ele>
        <time>2021-10-26T06:58:54Z</time>
      </trkpt>
      <trkpt lat="46.57962" lon="6.06225">
        <ele>1086</ele>
        <time>2021-10-26T06:59:00Z</time>
      </trkpt>
      <trkpt lat="46.5796" lon="6.06231">
        <ele>1087</ele>
        <time>2021-10-26T06:59:04Z</time>
      </trkpt>
      <trkpt lat="46.57956" lon="6.06236">
        <ele>1088.1</ele>
        <time>2021-10-26T06:59:08Z</time>
      </trkpt>
      <trkpt lat="46.57954" lon="6.06242">
        <ele>1089.2</ele>
        <time>2021-10-26T06:59:14Z</time>
      </trkpt>
      <trkpt lat="46.57954" lon="6.06249">
        <ele>1089.4</ele>
        <time>2021-10-26T06:59:20Z</time>
      </trkpt>
      <trkpt lat="46.57954" lon="6.06256">
        <ele>1088.7</ele>
        <time>2021-10-26T06:59:25Z</time>
      </trkpt>
      <trkpt lat="46.57953" lon="6.06264">
        <ele>1088</ele>
        <time>2021-10-26T06:59:30Z</time>
      </trkpt>
      <trkpt lat="46.57954" lon="6.06271">
        <ele>1087.1</ele>
        <time>2021-10-26T06:59:35Z</time>
      </trkpt>
      <trkpt lat="46.57955" lon="6.06278">
        <ele>1085.9</ele>
        <time>2021-10-26T06:59:41Z</time>
      </trkpt>
      <trkpt lat="46.57955" lon="6.06285">
        <ele>1085.9</ele>
        <time>2021-10-26T06:59:46Z</time>
      </trkpt>
      <trkpt lat="46.57956" lon="6.06292">
        <ele>1086</ele>
        <time>2021-10-26T06:59:51Z</time>
      </trkpt>
      <trkpt lat="46.57958" lon="6.06298">
        <ele>1086.3</ele>
        <time>2021-10-26T06:59:55Z</time>
      </trkpt>
      <trkpt lat="46.5796" lon="6.06304">
        <ele>1087</ele>
        <time>2021-10-26T06:59:59Z</time>
      </trkpt>
      <trkpt lat="46.5796" lon="6.06311">
        <ele>1087.4</ele>
        <time>2021-10-26T07:00:04Z</time>
      </trkpt>
      <trkpt lat="46.57963" lon="6.06317">
        <ele>1087.8</ele>
        <time>2021-10-26T07:00:08Z</time>
      </trkpt>
      <trkpt lat="46.57965" lon="6.06323">
        <ele>1087.6</ele>
        <time>2021-10-26T07:00:14Z</time>
      </trkpt>
      <trkpt lat="46.57968" lon="6.06329">
        <ele>1087.6</ele>
        <time>2021-10-26T07:00:18Z</time>
      </trkpt>
      <trkpt lat="46.57971" lon="6.06334">
        <ele>1087.6</ele>
        <time>2021-10-26T07:00:23Z</time>
      </trkpt>
      <trkpt lat="46.57973" lon="6.0634">
        <ele>1087.7</ele>
        <time>2021-10-26T07:00:29Z</time>
      </trkpt>
      <trkpt lat="46.57976" lon="6.06346">
        <ele>1087.7</ele>
        <time>2021-10-26T07:00:34Z</time>
      </trkpt>
      <trkpt lat="46.57978" lon="6.06352">
        <ele>1087.8</ele>
        <time>2021-10-26T07:00:38Z</time>
      </trkpt>
      <trkpt lat="46.57981" lon="6.06358">
        <ele>1088.1</ele>
        <time>2021-10-26T07:00:42Z</time>
      </trkpt>
      <trkpt lat="46.57985" lon="6.06361">
        <ele>1088.5</ele>
        <time>2021-10-26T07:00:47Z</time>
      </trkpt>
      <trkpt lat="46.57989" lon="6.06367">
        <ele>1089.1</ele>
        <time>2021-10-26T07:00:53Z</time>
      </trkpt>
      <trkpt lat="46.57991" lon="6.06374">
        <ele>1089.2</ele>
        <time>2021-10-26T07:00:58Z</time>
      </trkpt>
      <trkpt lat="46.57994" lon="6.06379">
        <ele>1090.1</ele>
        <time>2021-10-26T07:01:03Z</time>
      </trkpt>
      <trkpt lat="46.57997" lon="6.06385">
        <ele>1090.8</ele>
        <time>2021-10-26T07:01:08Z</time>
      </trkpt>
      <trkpt lat="46.58001" lon="6.0639">
        <ele>1091.2</ele>
        <time>2021-10-26T07:01:12Z</time>
      </trkpt>
      <trkpt lat="46.58004" lon="6.06396">
        <ele>1091.4</ele>
        <time>2021-10-26T07:01:16Z</time>
      </trkpt>
      <trkpt lat="46.58007" lon="6.06401">
        <ele>1091.7</ele>
        <time>2021-10-26T07:01:20Z</time>
      </trkpt>
      <trkpt lat="46.5801" lon="6.06407">
        <ele>1092.1</ele>
        <time>2021-10-26T07:01:24Z</time>
      </trkpt>
      <trkpt lat="46.58013" lon="6.06412">
        <ele>1092.5</ele>
        <time>2021-10-26T07:01:29Z</time>
      </trkpt>
      <trkpt lat="46.58015" lon="6.06419">
        <ele>1092.6</ele>
        <time>2021-10-26T07:01:34Z</time>
      </trkpt>
      <trkpt lat="46.58016" lon="6.06426">
        <ele>1092.7</ele>
        <time>2021-10-26T07:01:39Z</time>
      </trkpt>
      <trkpt lat="46.58019" lon="6.06432">
        <ele>1093</ele>
        <time>2021-10-26T07:01:44Z</time>
      </trkpt>
      <trkpt lat="46.58021" lon="6.06439">
        <ele>1093.8</ele>
        <time>2021-10-26T07:01:50Z</time>
      </trkpt>
      <trkpt lat="46.58025" lon="6.06444">
        <ele>1093.7</ele>
        <time>2021-10-26T07:01:57Z</time>
      </trkpt>
      <trkpt lat="46.58027" lon="6.06449">
        <ele>1092.3</ele>
        <time>2021-10-26T07:02:03Z</time>
      </trkpt>
      <trkpt lat="46.5803" lon="6.06455">
        <ele>1091.3</ele>
        <time>2021-10-26T07:02:09Z</time>
      </trkpt>
      <trkpt lat="46.58034" lon="6.06458">
        <ele>1090.7</ele>
        <time>2021-10-26T07:02:13Z</time>
      </trkpt>
      <trkpt lat="46.58037" lon="6.06465">
        <ele>1090.1</ele>
        <time>2021-10-26T07:02:18Z</time>
      </trkpt>
      <trkpt lat="46.58039" lon="6.06471">
        <ele>1090.2</ele>
        <time>2021-10-26T07:02:22Z</time>
      </trkpt>
      <trkpt lat="46.58041" lon="6.06478">
        <ele>1090.7</ele>
        <time>2021-10-26T07:02:27Z</time>
      </trkpt>
      <trkpt lat="46.58043" lon="6.06486">
        <ele>1091.2</ele>
        <time>2021-10-26T07:02:32Z</time>
      </trkpt>
      <trkpt lat="46.58045" lon="6.06492">
        <ele>1091.5</ele>
        <time>2021-10-26T07:02:36Z</time>
      </trkpt>
      <trkpt lat="46.58047" lon="6.065">
        <ele>1092.2</ele>
        <time>2021-10-26T07:02:41Z</time>
      </trkpt>
      <trkpt lat="46.58049" lon="6.06506">
        <ele>1093.3</ele>
        <time>2021-10-26T07:02:45Z</time>
      </trkpt>
      <trkpt lat="46.58054" lon="6.06507">
        <ele>1095.9</ele>
        <time>2021-10-26T07:03:12Z</time>
      </trkpt>
      <trkpt lat="46.58059" lon="6.06512">
        <ele>1093.6</ele>
        <time>2021-10-26T07:03:17Z</time>
      </trkpt>
      <trkpt lat="46.58061" lon="6.06519">
        <ele>1092.2</ele>
        <time>2021-10-26T07:03:21Z</time>
      </trkpt>
      <trkpt lat="46.58061" lon="6.06526">
        <ele>1092</ele>
        <time>2021-10-26T07:03:25Z</time>
      </trkpt>
      <trkpt lat="46.58062" lon="6.06533">
        <ele>1092.5</ele>
        <time>2021-10-26T07:03:28Z</time>
      </trkpt>
      <trkpt lat="46.58063" lon="6.06541">
        <ele>1093.5</ele>
        <time>2021-10-26T07:03:32Z</time>
      </trkpt>
      <trkpt lat="46.58064" lon="6.06548">
        <ele>1094.7</ele>
        <time>2021-10-26T07:03:37Z</time>
      </trkpt>
      <trkpt lat="46.58068" lon="6.06552">
        <ele>1096</ele>
        <time>2021-10-26T07:03:42Z</time>
      </trkpt>
      <trkpt lat="46.58073" lon="6.06554">
        <ele>1097.7</ele>
        <time>2021-10-26T07:03:47Z</time>
      </trkpt>
      <trkpt lat="46.58078" lon="6.06558">
        <ele>1099.2</ele>
        <time>2021-10-26T07:03:51Z</time>
      </trkpt>
      <trkpt lat="46.58082" lon="6.06564">
        <ele>1100.6</ele>
        <time>2021-10-26T07:03:55Z</time>
      </trkpt>
      <trkpt lat="46.58087" lon="6.06568">
        <ele>1101.5</ele>
        <time>2021-10-26T07:03:59Z</time>
      </trkpt>
      <trkpt lat="46.5809" lon="6.06572">
        <ele>1102.3</ele>
        <time>2021-10-26T07:04:03Z</time>
      </trkpt>
      <trkpt lat="46.58095" lon="6.06575">
        <ele>1103.9</ele>
        <time>2021-10-26T07:04:09Z</time>
      </trkpt>
      <trkpt lat="46.58098" lon="6.06581">
        <ele>1103.4</ele>
        <time>2021-10-26T07:04:17Z</time>
      </trkpt>
      <trkpt lat="46.58101" lon="6.06586">
        <ele>1103.6</ele>
        <time>2021-10-26T07:04:22Z</time>
      </trkpt>
      <trkpt lat="46.58105" lon="6.0659">
        <ele>1103.8</ele>
        <time>2021-10-26T07:04:28Z</time>
      </trkpt>
      <trkpt lat="46.58109" lon="6.06594">
        <ele>1103.1</ele>
        <time>2021-10-26T07:04:34Z</time>
      </trkpt>
      <trkpt lat="46.58113" lon="6.06598">
        <ele>1102.6</ele>
        <time>2021-10-26T07:04:40Z</time>
      </trkpt>
      <trkpt lat="46.58117" lon="6.06604">
        <ele>1102</ele>
        <time>2021-10-26T07:04:45Z</time>
      </trkpt>
      <trkpt lat="46.58119" lon="6.0661">
        <ele>1101.3</ele>
        <time>2021-10-26T07:04:50Z</time>
      </trkpt>
      <trkpt lat="46.58122" lon="6.06617">
        <ele>1100.7</ele>
        <time>2021-10-26T07:04:56Z</time>
      </trkpt>
      <trkpt lat="46.58122" lon="6.06624">
        <ele>1099.8</ele>
        <time>2021-10-26T07:05:02Z</time>
      </trkpt>
      <trkpt lat="46.58124" lon="6.0663">
        <ele>1099.3</ele>
        <time>2021-10-26T07:05:06Z</time>
      </trkpt>
      <trkpt lat="46.58124" lon="6.06637">
        <ele>1098.5</ele>
        <time>2021-10-26T07:05:10Z</time>
      </trkpt>
      <trkpt lat="46.58127" lon="6.06644">
        <ele>1098.4</ele>
        <time>2021-10-26T07:05:15Z</time>
      </trkpt>
      <trkpt lat="46.58129" lon="6.0665">
        <ele>1098.8</ele>
        <time>2021-10-26T07:05:19Z</time>
      </trkpt>
      <trkpt lat="46.58132" lon="6.06655">
        <ele>1098.5</ele>
        <time>2021-10-26T07:05:26Z</time>
      </trkpt>
      <trkpt lat="46.58134" lon="6.06662">
        <ele>1098.3</ele>
        <time>2021-10-26T07:05:33Z</time>
      </trkpt>
      <trkpt lat="46.58137" lon="6.06667">
        <ele>1098.8</ele>
        <time>2021-10-26T07:05:39Z</time>
      </trkpt>
      <trkpt lat="46.58139" lon="6.06674">
        <ele>1099.6</ele>
        <time>2021-10-26T07:05:46Z</time>
      </trkpt>
      <trkpt lat="46.5814" lon="6.06682">
        <ele>1099.6</ele>
        <time>2021-10-26T07:05:52Z</time>
      </trkpt>
      <trkpt lat="46.58139" lon="6.06689">
        <ele>1099.7</ele>
        <time>2021-10-26T07:05:56Z</time>
      </trkpt>
      <trkpt lat="46.58139" lon="6.06696">
        <ele>1100.3</ele>
        <time>2021-10-26T07:06:01Z</time>
      </trkpt>
      <trkpt lat="46.58139" lon="6.06704">
        <ele>1101.5</ele>
        <time>2021-10-26T07:06:06Z</time>
      </trkpt>
      <trkpt lat="46.58142" lon="6.06709">
        <ele>1102.1</ele>
        <time>2021-10-26T07:06:10Z</time>
      </trkpt>
      <trkpt lat="46.58146" lon="6.06714">
        <ele>1102.2</ele>
        <time>2021-10-26T07:06:15Z</time>
      </trkpt>
      <trkpt lat="46.58149" lon="6.0672">
        <ele>1101.4</ele>
        <time>2021-10-26T07:06:21Z</time>
      </trkpt>
      <trkpt lat="46.5815" lon="6.06728">
        <ele>1100.8</ele>
        <time>2021-10-26T07:06:26Z</time>
      </trkpt>
      <trkpt lat="46.58152" lon="6.06736">
        <ele>1100.8</ele>
        <time>2021-10-26T07:06:31Z</time>
      </trkpt>
      <trkpt lat="46.58153" lon="6.06743">
        <ele>1101.1</ele>
        <time>2021-10-26T07:06:36Z</time>
      </trkpt>
      <trkpt lat="46.58157" lon="6.06748">
        <ele>1102.3</ele>
        <time>2021-10-26T07:06:42Z</time>
      </trkpt>
      <trkpt lat="46.5816" lon="6.06752">
        <ele>1104.1</ele>
        <time>2021-10-26T07:06:49Z</time>
      </trkpt>
      <trkpt lat="46.58162" lon="6.06759">
        <ele>1105.5</ele>
        <time>2021-10-26T07:06:58Z</time>
      </trkpt>
      <trkpt lat="46.58163" lon="6.06765">
        <ele>1105.9</ele>
        <time>2021-10-26T07:07:02Z</time>
      </trkpt>
      <trkpt lat="46.58166" lon="6.06771">
        <ele>1106.6</ele>
        <time>2021-10-26T07:07:07Z</time>
      </trkpt>
      <trkpt lat="46.5817" lon="6.06775">
        <ele>1107.5</ele>
        <time>2021-10-26T07:07:12Z</time>
      </trkpt>
      <trkpt lat="46.58174" lon="6.06781">
        <ele>1108.2</ele>
        <time>2021-10-26T07:07:18Z</time>
      </trkpt>
      <trkpt lat="46.58175" lon="6.06787">
        <ele>1108</ele>
        <time>2021-10-26T07:07:24Z</time>
      </trkpt>
      <trkpt lat="46.58178" lon="6.06792">
        <ele>1107.6</ele>
        <time>2021-10-26T07:07:29Z</time>
      </trkpt>
      <trkpt lat="46.58181" lon="6.06798">
        <ele>1107.4</ele>
        <time>2021-10-26T07:07:33Z</time>
      </trkpt>
      <trkpt lat="46.58185" lon="6.06803">
        <ele>1106.9</ele>
        <time>2021-10-26T07:07:40Z</time>
      </trkpt>
      <trkpt lat="46.58189" lon="6.06806">
        <ele>1106.7</ele>
        <time>2021-10-26T07:07:44Z</time>
      </trkpt>
      <trkpt lat="46.58194" lon="6.06812">
        <ele>1106.8</ele>
        <time>2021-10-26T07:07:48Z</time>
      </trkpt>
      <trkpt lat="46.58197" lon="6.06818">
        <ele>1107.2</ele>
        <time>2021-10-26T07:07:52Z</time>
      </trkpt>
      <trkpt lat="46.58201" lon="6.06823">
        <ele>1108.1</ele>
        <time>2021-10-26T07:07:58Z</time>
      </trkpt>
      <trkpt lat="46.58201" lon="6.06831">
        <ele>1108.6</ele>
        <time>2021-10-26T07:08:06Z</time>
      </trkpt>
      <trkpt lat="46.58202" lon="6.06837">
        <ele>1109.1</ele>
        <time>2021-10-26T07:08:11Z</time>
      </trkpt>
      <trkpt lat="46.58202" lon="6.06844">
        <ele>1108.9</ele>
        <time>2021-10-26T07:08:17Z</time>
      </trkpt>
      <trkpt lat="46.58204" lon="6.06851">
        <ele>1108.9</ele>
        <time>2021-10-26T07:08:22Z</time>
      </trkpt>
      <trkpt lat="46.58207" lon="6.06855">
        <ele>1109.6</ele>
        <time>2021-10-26T07:08:27Z</time>
      </trkpt>
      <trkpt lat="46.58207" lon="6.06863">
        <ele>1110.8</ele>
        <time>2021-10-26T07:08:35Z</time>
      </trkpt>
      <trkpt lat="46.58207" lon="6.0687">
        <ele>1111</ele>
        <time>2021-10-26T07:08:39Z</time>
      </trkpt>
      <trkpt lat="46.58211" lon="6.06874">
        <ele>1111.2</ele>
        <time>2021-10-26T07:08:45Z</time>
      </trkpt>
      <trkpt lat="46.58214" lon="6.06879">
        <ele>1111</ele>
        <time>2021-10-26T07:08:49Z</time>
      </trkpt>
      <trkpt lat="46.58217" lon="6.06885">
        <ele>1110.7</ele>
        <time>2021-10-26T07:08:53Z</time>
      </trkpt>
      <trkpt lat="46.5822" lon="6.06891">
        <ele>1109.8</ele>
        <time>2021-10-26T07:09:00Z</time>
      </trkpt>
      <trkpt lat="46.58225" lon="6.06895">
        <ele>1110.3</ele>
        <time>2021-10-26T07:09:05Z</time>
      </trkpt>
      <trkpt lat="46.58228" lon="6.06901">
        <ele>1111.2</ele>
        <time>2021-10-26T07:09:10Z</time>
      </trkpt>
      <trkpt lat="46.58229" lon="6.06908">
        <ele>1111.5</ele>
        <time>2021-10-26T07:09:14Z</time>
      </trkpt>
      <trkpt lat="46.58232" lon="6.06914">
        <ele>1111.8</ele>
        <time>2021-10-26T07:09:19Z</time>
      </trkpt>
      <trkpt lat="46.58236" lon="6.06919">
        <ele>1112.2</ele>
        <time>2021-10-26T07:09:24Z</time>
      </trkpt>
      <trkpt lat="46.58238" lon="6.06925">
        <ele>1112.5</ele>
        <time>2021-10-26T07:09:29Z</time>
      </trkpt>
      <trkpt lat="46.5824" lon="6.06932">
        <ele>1112.4</ele>
        <time>2021-10-26T07:09:35Z</time>
      </trkpt>
      <trkpt lat="46.58243" lon="6.06938">
        <ele>1111.3</ele>
        <time>2021-10-26T07:09:40Z</time>
      </trkpt>
      <trkpt lat="46.58246" lon="6.06943">
        <ele>1109.9</ele>
        <time>2021-10-26T07:09:45Z</time>
      </trkpt>
      <trkpt lat="46.58252" lon="6.06945">
        <ele>1108.9</ele>
        <time>2021-10-26T07:09:49Z</time>
      </trkpt>
      <trkpt lat="46.58256" lon="6.06946">
        <ele>1107.1</ele>
        <time>2021-10-26T07:09:55Z</time>
      </trkpt>
      <trkpt lat="46.58261" lon="6.0695">
        <ele>1104.6</ele>
        <time>2021-10-26T07:10:03Z</time>
      </trkpt>
      <trkpt lat="46.58263" lon="6.06956">
        <ele>1103.1</ele>
        <time>2021-10-26T07:10:09Z</time>
      </trkpt>
      <trkpt lat="46.58265" lon="6.06962">
        <ele>1102.6</ele>
        <time>2021-10-26T07:10:15Z</time>
      </trkpt>
      <trkpt lat="46.58269" lon="6.06966">
        <ele>1101.7</ele>
        <time>2021-10-26T07:10:23Z</time>
      </trkpt>
      <trkpt lat="46.58274" lon="6.06967">
        <ele>1100.4</ele>
        <time>2021-10-26T07:10:29Z</time>
      </trkpt>
      <trkpt lat="46.58279" lon="6.06967">
        <ele>1097.5</ele>
        <time>2021-10-26T07:10:36Z</time>
      </trkpt>
      <trkpt lat="46.58282" lon="6.06963">
        <ele>1094.2</ele>
        <time>2021-10-26T07:10:44Z</time>
      </trkpt>
      <trkpt lat="46.58287" lon="6.06964">
        <ele>1093.2</ele>
        <time>2021-10-26T07:10:48Z</time>
      </trkpt>
      <trkpt lat="46.58292" lon="6.06967">
        <ele>1093</ele>
        <time>2021-10-26T07:10:51Z</time>
      </trkpt>
      <trkpt lat="46.58297" lon="6.06969">
        <ele>1093.2</ele>
        <time>2021-10-26T07:10:54Z</time>
      </trkpt>
      <trkpt lat="46.58301" lon="6.06973">
        <ele>1093.9</ele>
        <time>2021-10-26T07:10:58Z</time>
      </trkpt>
      <trkpt lat="46.58306" lon="6.06976">
        <ele>1095</ele>
        <time>2021-10-26T07:11:04Z</time>
      </trkpt>
      <trkpt lat="46.58311" lon="6.06976">
        <ele>1095</ele>
        <time>2021-10-26T07:11:10Z</time>
      </trkpt>
      <trkpt lat="46.58316" lon="6.06977">
        <ele>1094.4</ele>
        <time>2021-10-26T07:11:16Z</time>
      </trkpt>
      <trkpt lat="46.58321" lon="6.06978">
        <ele>1094.6</ele>
        <time>2021-10-26T07:11:20Z</time>
      </trkpt>
      <trkpt lat="46.58325" lon="6.0698">
        <ele>1094.7</ele>
        <time>2021-10-26T07:11:23Z</time>
      </trkpt>
      <trkpt lat="46.5833" lon="6.06982">
        <ele>1094.9</ele>
        <time>2021-10-26T07:11:27Z</time>
      </trkpt>
      <trkpt lat="46.58335" lon="6.06986">
        <ele>1095.5</ele>
        <time>2021-10-26T07:11:32Z</time>
      </trkpt>
      <trkpt lat="46.5834" lon="6.06988">
        <ele>1096.1</ele>
        <time>2021-10-26T07:11:36Z</time>
      </trkpt>
      <trkpt lat="46.58345" lon="6.0699">
        <ele>1096</ele>
        <time>2021-10-26T07:11:41Z</time>
      </trkpt>
      <trkpt lat="46.58349" lon="6.06993">
        <ele>1095.2</ele>
        <time>2021-10-26T07:11:46Z</time>
      </trkpt>
      <trkpt lat="46.58353" lon="6.06996">
        <ele>1094.7</ele>
        <time>2021-10-26T07:11:50Z</time>
      </trkpt>
      <trkpt lat="46.58357" lon="6.06998">
        <ele>1093.9</ele>
        <time>2021-10-26T07:11:54Z</time>
      </trkpt>
      <trkpt lat="46.58361" lon="6.07004">
        <ele>1092.3</ele>
        <time>2021-10-26T07:12:00Z</time>
      </trkpt>
      <trkpt lat="46.58362" lon="6.07011">
        <ele>1090.6</ele>
        <time>2021-10-26T07:12:06Z</time>
      </trkpt>
      <trkpt lat="46.58365" lon="6.07017">
        <ele>1089.9</ele>
        <time>2021-10-26T07:12:11Z</time>
      </trkpt>
      <trkpt lat="46.58369" lon="6.07022">
        <ele>1090</ele>
        <time>2021-10-26T07:12:15Z</time>
      </trkpt>
      <trkpt lat="46.58373" lon="6.07027">
        <ele>1089.9</ele>
        <time>2021-10-26T07:12:20Z</time>
      </trkpt>
      <trkpt lat="46.58375" lon="6.07032">
        <ele>1089.9</ele>
        <time>2021-10-26T07:12:23Z</time>
      </trkpt>
      <trkpt lat="46.58378" lon="6.07039">
        <ele>1089.6</ele>
        <time>2021-10-26T07:12:27Z</time>
      </trkpt>
      <trkpt lat="46.58379" lon="6.07046">
        <ele>1089.6</ele>
        <time>2021-10-26T07:12:34Z</time>
      </trkpt>
      <trkpt lat="46.58382" lon="6.07051">
        <ele>1090.1</ele>
        <time>2021-10-26T07:12:39Z</time>
      </trkpt>
      <trkpt lat="46.58387" lon="6.07056">
        <ele>1089.8</ele>
        <time>2021-10-26T07:12:45Z</time>
      </trkpt>
      <trkpt lat="46.5839" lon="6.07062">
        <ele>1088.5</ele>
        <time>2021-10-26T07:12:53Z</time>
      </trkpt>
      <trkpt lat="46.58392" lon="6.07068">
        <ele>1087.2</ele>
        <time>2021-10-26T07:12:59Z</time>
      </trkpt>
      <trkpt lat="46.58394" lon="6.07076">
        <ele>1085.5</ele>
        <time>2021-10-26T07:13:05Z</time>
      </trkpt>
      <trkpt lat="46.58396" lon="6.07082">
        <ele>1084.7</ele>
        <time>2021-10-26T07:13:09Z</time>
      </trkpt>
      <trkpt lat="46.58397" lon="6.0709">
        <ele>1084.2</ele>
        <time>2021-10-26T07:13:14Z</time>
      </trkpt>
      <trkpt lat="46.584" lon="6.07095">
        <ele>1084.2</ele>
        <time>2021-10-26T07:13:19Z</time>
      </trkpt>
      <trkpt lat="46.58403" lon="6.07102">
        <ele>1084.2</ele>
        <time>2021-10-26T07:13:24Z</time>
      </trkpt>
      <trkpt lat="46.58406" lon="6.07107">
        <ele>1083.7</ele>
        <time>2021-10-26T07:13:29Z</time>
      </trkpt>
      <trkpt lat="46.5841" lon="6.07113">
        <ele>1083.8</ele>
        <time>2021-10-26T07:13:34Z</time>
      </trkpt>
      <trkpt lat="46.58413" lon="6.07117">
        <ele>1084.3</ele>
        <time>2021-10-26T07:13:39Z</time>
      </trkpt>
      <trkpt lat="46.58417" lon="6.07122">
        <ele>1085.2</ele>
        <time>2021-10-26T07:13:44Z</time>
      </trkpt>
      <trkpt lat="46.5842" lon="6.07127">
        <ele>1086.2</ele>
        <time>2021-10-26T07:13:49Z</time>
      </trkpt>
      <trkpt lat="46.58424" lon="6.07131">
        <ele>1087.1</ele>
        <time>2021-10-26T07:13:53Z</time>
      </trkpt>
      <trkpt lat="46.58429" lon="6.07133">
        <ele>1088.3</ele>
        <time>2021-10-26T07:13:58Z</time>
      </trkpt>
      <trkpt lat="46.58434" lon="6.07137">
        <ele>1089.6</ele>
        <time>2021-10-26T07:14:04Z</time>
      </trkpt>
      <trkpt lat="46.58435" lon="6.07144">
        <ele>1091.2</ele>
        <time>2021-10-26T07:14:12Z</time>
      </trkpt>
      <trkpt lat="46.5843" lon="6.07144">
        <ele>1093.2</ele>
        <time>2021-10-26T07:14:23Z</time>
      </trkpt>
      <trkpt lat="46.58425" lon="6.07144">
        <ele>1090.6</ele>
        <time>2021-10-26T07:15:51Z</time>
      </trkpt>
      <trkpt lat="46.58429" lon="6.0714">
        <ele>1093</ele>
        <time>2021-10-26T07:19:01Z</time>
      </trkpt>
      <trkpt lat="46.58434" lon="6.07142">
        <ele>1094.4</ele>
        <time>2021-10-26T07:20:15Z</time>
      </trkpt>
      <trkpt lat="46.58438" lon="6.07144">
        <ele>1094.2</ele>
        <time>2021-10-26T07:20:18Z</time>
      </trkpt>
      <trkpt lat="46.58442" lon="6.0715">
        <ele>1094.2</ele>
        <time>2021-10-26T07:20:23Z</time>
      </trkpt>
      <trkpt lat="46.58446" lon="6.07155">
        <ele>1094</ele>
        <time>2021-10-26T07:20:29Z</time>
      </trkpt>
      <trkpt lat="46.58448" lon="6.07161">
        <ele>1093.8</ele>
        <time>2021-10-26T07:20:35Z</time>
      </trkpt>
      <trkpt lat="46.58449" lon="6.07167">
        <ele>1093.9</ele>
        <time>2021-10-26T07:20:41Z</time>
      </trkpt>
      <trkpt lat="46.58451" lon="6.07173">
        <ele>1094.8</ele>
        <time>2021-10-26T07:20:48Z</time>
      </trkpt>
      <trkpt lat="46.58454" lon="6.07179">
        <ele>1094.9</ele>
        <time>2021-10-26T07:20:54Z</time>
      </trkpt>
      <trkpt lat="46.58455" lon="6.07186">
        <ele>1094.7</ele>
        <time>2021-10-26T07:21:00Z</time>
      </trkpt>
      <trkpt lat="46.58453" lon="6.07193">
        <ele>1094.4</ele>
        <time>2021-10-26T07:21:04Z</time>
      </trkpt>
      <trkpt lat="46.58453" lon="6.07201">
        <ele>1094</ele>
        <time>2021-10-26T07:21:08Z</time>
      </trkpt>
      <trkpt lat="46.58455" lon="6.07206">
        <ele>1093.9</ele>
        <time>2021-10-26T07:21:13Z</time>
      </trkpt>
      <trkpt lat="46.5846" lon="6.07209">
        <ele>1093.5</ele>
        <time>2021-10-26T07:21:21Z</time>
      </trkpt>
      <trkpt lat="46.58465" lon="6.07212">
        <ele>1092.7</ele>
        <time>2021-10-26T07:21:27Z</time>
      </trkpt>
      <trkpt lat="46.58469" lon="6.07215">
        <ele>1092.4</ele>
        <time>2021-10-26T07:21:31Z</time>
      </trkpt>
      <trkpt lat="46.58473" lon="6.0722">
        <ele>1092.5</ele>
        <time>2021-10-26T07:21:37Z</time>
      </trkpt>
      <trkpt lat="46.58478" lon="6.07221">
        <ele>1091.9</ele>
        <time>2021-10-26T07:21:44Z</time>
      </trkpt>
      <trkpt lat="46.58481" lon="6.07227">
        <ele>1090.1</ele>
        <time>2021-10-26T07:21:53Z</time>
      </trkpt>
      <trkpt lat="46.58482" lon="6.07233">
        <ele>1089.3</ele>
        <time>2021-10-26T07:21:58Z</time>
      </trkpt>
      <trkpt lat="46.5848" lon="6.0724">
        <ele>1089</ele>
        <time>2021-10-26T07:22:05Z</time>
      </trkpt>
      <trkpt lat="46.58475" lon="6.07245">
        <ele>1088.7</ele>
        <time>2021-10-26T07:22:10Z</time>
      </trkpt>
      <trkpt lat="46.5847" lon="6.07247">
        <ele>1088.1</ele>
        <time>2021-10-26T07:22:15Z</time>
      </trkpt>
      <trkpt lat="46.58465" lon="6.0725">
        <ele>1087.8</ele>
        <time>2021-10-26T07:22:21Z</time>
      </trkpt>
      <trkpt lat="46.58462" lon="6.07256">
        <ele>1087.3</ele>
        <time>2021-10-26T07:22:27Z</time>
      </trkpt>
      <trkpt lat="46.58463" lon="6.07265">
        <ele>1086.9</ele>
        <time>2021-10-26T07:22:31Z</time>
      </trkpt>
      <trkpt lat="46.58464" lon="6.07272">
        <ele>1086.9</ele>
        <time>2021-10-26T07:22:35Z</time>
      </trkpt>
      <trkpt lat="46.58464" lon="6.07279">
        <ele>1086.6</ele>
        <time>2021-10-26T07:22:41Z</time>
      </trkpt>
      <trkpt lat="46.58461" lon="6.07285">
        <ele>1086.3</ele>
        <time>2021-10-26T07:22:46Z</time>
      </trkpt>
      <trkpt lat="46.58457" lon="6.07289">
        <ele>1086.3</ele>
        <time>2021-10-26T07:22:49Z</time>
      </trkpt>
      <trkpt lat="46.58454" lon="6.07294">
        <ele>1087.1</ele>
        <time>2021-10-26T07:22:53Z</time>
      </trkpt>
      <trkpt lat="46.5845" lon="6.07299">
        <ele>1088.5</ele>
        <time>2021-10-26T07:22:58Z</time>
      </trkpt>
      <trkpt lat="46.58447" lon="6.07305">
        <ele>1088.9</ele>
        <time>2021-10-26T07:23:03Z</time>
      </trkpt>
      <trkpt lat="46.58446" lon="6.07311">
        <ele>1088.3</ele>
        <time>2021-10-26T07:23:10Z</time>
      </trkpt>
      <trkpt lat="46.58443" lon="6.07317">
        <ele>1087.8</ele>
        <time>2021-10-26T07:23:20Z</time>
      </trkpt>
      <trkpt lat="46.58443" lon="6.07324">
        <ele>1088.2</ele>
        <time>2021-10-26T07:23:26Z</time>
      </trkpt>
      <trkpt lat="46.58444" lon="6.07332">
        <ele>1089.9</ele>
        <time>2021-10-26T07:23:31Z</time>
      </trkpt>
      <trkpt lat="46.58444" lon="6.0734">
        <ele>1092</ele>
        <time>2021-10-26T07:23:36Z</time>
      </trkpt>
      <trkpt lat="46.58444" lon="6.07347">
        <ele>1093.5</ele>
        <time>2021-10-26T07:23:40Z</time>
      </trkpt>
      <trkpt lat="46.58443" lon="6.07354">
        <ele>1094.8</ele>
        <time>2021-10-26T07:23:45Z</time>
      </trkpt>
      <trkpt lat="46.58446" lon="6.0736">
        <ele>1095.3</ele>
        <time>2021-10-26T07:23:50Z</time>
      </trkpt>
      <trkpt lat="46.58449" lon="6.07367">
        <ele>1095.2</ele>
        <time>2021-10-26T07:23:54Z</time>
      </trkpt>
      <trkpt lat="46.58451" lon="6.07374">
        <ele>1095.1</ele>
        <time>2021-10-26T07:23:58Z</time>
      </trkpt>
      <trkpt lat="46.58455" lon="6.0738">
        <ele>1095.8</ele>
        <time>2021-10-26T07:24:03Z</time>
      </trkpt>
      <trkpt lat="46.58458" lon="6.07386">
        <ele>1096.6</ele>
        <time>2021-10-26T07:24:08Z</time>
      </trkpt>
      <trkpt lat="46.58461" lon="6.0739">
        <ele>1096.9</ele>
        <time>2021-10-26T07:24:13Z</time>
      </trkpt>
      <trkpt lat="46.58466" lon="6.07394">
        <ele>1096.5</ele>
        <time>2021-10-26T07:24:19Z</time>
      </trkpt>
      <trkpt lat="46.5847" lon="6.07397">
        <ele>1096.6</ele>
        <time>2021-10-26T07:24:23Z</time>
      </trkpt>
      <trkpt lat="46.58473" lon="6.07402">
        <ele>1096.8</ele>
        <time>2021-10-26T07:24:27Z</time>
      </trkpt>
      <trkpt lat="46.58477" lon="6.07406">
        <ele>1097.1</ele>
        <time>2021-10-26T07:24:33Z</time>
      </trkpt>
      <trkpt lat="46.58478" lon="6.07412">
        <ele>1097.2</ele>
        <time>2021-10-26T07:24:40Z</time>
      </trkpt>
      <trkpt lat="46.5848" lon="6.0742">
        <ele>1097</ele>
        <time>2021-10-26T07:24:44Z</time>
      </trkpt>
      <trkpt lat="46.58483" lon="6.07427">
        <ele>1096.9</ele>
        <time>2021-10-26T07:24:48Z</time>
      </trkpt>
      <trkpt lat="46.58485" lon="6.07433">
        <ele>1096.7</ele>
        <time>2021-10-26T07:24:52Z</time>
      </trkpt>
      <trkpt lat="46.58487" lon="6.0744">
        <ele>1096.6</ele>
        <time>2021-10-26T07:24:56Z</time>
      </trkpt>
      <trkpt lat="46.58489" lon="6.07446">
        <ele>1096.3</ele>
        <time>2021-10-26T07:25:00Z</time>
      </trkpt>
      <trkpt lat="46.58492" lon="6.07451">
        <ele>1095.9</ele>
        <time>2021-10-26T07:25:04Z</time>
      </trkpt>
      <trkpt lat="46.58495" lon="6.07456">
        <ele>1095.5</ele>
        <time>2021-10-26T07:25:08Z</time>
      </trkpt>
      <trkpt lat="46.585" lon="6.07459">
        <ele>1095.2</ele>
        <time>2021-10-26T07:25:12Z</time>
      </trkpt>
      <trkpt lat="46.58504" lon="6.07462">
        <ele>1094.7</ele>
        <time>2021-10-26T07:25:17Z</time>
      </trkpt>
      <trkpt lat="46.58506" lon="6.07468">
        <ele>1092.7</ele>
        <time>2021-10-26T07:25:24Z</time>
      </trkpt>
      <trkpt lat="46.58507" lon="6.07476">
        <ele>1090.4</ele>
        <time>2021-10-26T07:25:32Z</time>
      </trkpt>
      <trkpt lat="46.58509" lon="6.07482">
        <ele>1090</ele>
        <time>2021-10-26T07:25:36Z</time>
      </trkpt>
      <trkpt lat="46.58514" lon="6.07486">
        <ele>1090</ele>
        <time>2021-10-26T07:25:41Z</time>
      </trkpt>
      <trkpt lat="46.58518" lon="6.07488">
        <ele>1090</ele>
        <time>2021-10-26T07:25:47Z</time>
      </trkpt>
      <trkpt lat="46.58523" lon="6.07493">
        <ele>1089.9</ele>
        <time>2021-10-26T07:25:54Z</time>
      </trkpt>
      <trkpt lat="46.58527" lon="6.07498">
        <ele>1090</ele>
        <time>2021-10-26T07:25:58Z</time>
      </trkpt>
      <trkpt lat="46.5853" lon="6.07502">
        <ele>1089.9</ele>
        <time>2021-10-26T07:26:03Z</time>
      </trkpt>
      <trkpt lat="46.58535" lon="6.07507">
        <ele>1089.5</ele>
        <time>2021-10-26T07:26:09Z</time>
      </trkpt>
      <trkpt lat="46.58538" lon="6.07513">
        <ele>1088.7</ele>
        <time>2021-10-26T07:26:14Z</time>
      </trkpt>
      <trkpt lat="46.58542" lon="6.07519">
        <ele>1088</ele>
        <time>2021-10-26T07:26:19Z</time>
      </trkpt>
      <trkpt lat="46.58545" lon="6.07524">
        <ele>1087.7</ele>
        <time>2021-10-26T07:26:23Z</time>
      </trkpt>
      <trkpt lat="46.58548" lon="6.07529">
        <ele>1087.4</ele>
        <time>2021-10-26T07:26:28Z</time>
      </trkpt>
      <trkpt lat="46.58551" lon="6.07535">
        <ele>1087.4</ele>
        <time>2021-10-26T07:26:33Z</time>
      </trkpt>
      <trkpt lat="46.58553" lon="6.07542">
        <ele>1087.2</ele>
        <time>2021-10-26T07:26:37Z</time>
      </trkpt>
      <trkpt lat="46.58554" lon="6.07548">
        <ele>1086.8</ele>
        <time>2021-10-26T07:26:41Z</time>
      </trkpt>
      <trkpt lat="46.58556" lon="6.07555">
        <ele>1086.5</ele>
        <time>2021-10-26T07:26:46Z</time>
      </trkpt>
      <trkpt lat="46.58558" lon="6.07561">
        <ele>1085.8</ele>
        <time>2021-10-26T07:26:52Z</time>
      </trkpt>
      <trkpt lat="46.58563" lon="6.07565">
        <ele>1085.5</ele>
        <time>2021-10-26T07:26:57Z</time>
      </trkpt>
      <trkpt lat="46.58566" lon="6.07569">
        <ele>1085.4</ele>
        <time>2021-10-26T07:27:03Z</time>
      </trkpt>
      <trkpt lat="46.58569" lon="6.07575">
        <ele>1085.7</ele>
        <time>2021-10-26T07:27:09Z</time>
      </trkpt>
      <trkpt lat="46.58572" lon="6.07581">
        <ele>1085.9</ele>
        <time>2021-10-26T07:27:14Z</time>
      </trkpt>
      <trkpt lat="46.58573" lon="6.07588">
        <ele>1086.1</ele>
        <time>2021-10-26T07:27:18Z</time>
      </trkpt>
      <trkpt lat="46.58575" lon="6.07596">
        <ele>1086.4</ele>
        <time>2021-10-26T07:27:22Z</time>
      </trkpt>
      <trkpt lat="46.58578" lon="6.07602">
        <ele>1087</ele>
        <time>2021-10-26T07:27:26Z</time>
      </trkpt>
      <trkpt lat="46.58582" lon="6.07606">
        <ele>1088.5</ele>
        <time>2021-10-26T07:27:31Z</time>
      </trkpt>
      <trkpt lat="46.58582" lon="6.07614">
        <ele>1090</ele>
        <time>2021-10-26T07:27:37Z</time>
      </trkpt>
      <trkpt lat="46.58584" lon="6.07621">
        <ele>1090.6</ele>
        <time>2021-10-26T07:27:42Z</time>
      </trkpt>
      <trkpt lat="46.58588" lon="6.07628">
        <ele>1091</ele>
        <time>2021-10-26T07:27:46Z</time>
      </trkpt>
      <trkpt lat="46.5859" lon="6.07635">
        <ele>1091.1</ele>
        <time>2021-10-26T07:27:50Z</time>
      </trkpt>
      <trkpt lat="46.58591" lon="6.07642">
        <ele>1092.1</ele>
        <time>2021-10-26T07:27:54Z</time>
      </trkpt>
      <trkpt lat="46.58594" lon="6.07648">
        <ele>1093.2</ele>
        <time>2021-10-26T07:27:58Z</time>
      </trkpt>
      <trkpt lat="46.58597" lon="6.07654">
        <ele>1094.4</ele>
        <time>2021-10-26T07:28:02Z</time>
      </trkpt>
      <trkpt lat="46.58598" lon="6.07661">
        <ele>1095.1</ele>
        <time>2021-10-26T07:28:07Z</time>
      </trkpt>
      <trkpt lat="46.58601" lon="6.07666">
        <ele>1095</ele>
        <time>2021-10-26T07:28:12Z</time>
      </trkpt>
      <trkpt lat="46.58605" lon="6.0767">
        <ele>1094.8</ele>
        <time>2021-10-26T07:28:16Z</time>
      </trkpt>
      <trkpt lat="46.58608" lon="6.07675">
        <ele>1094.3</ele>
        <time>2021-10-26T07:28:20Z</time>
      </trkpt>
      <trkpt lat="46.58612" lon="6.07681">
        <ele>1094.1</ele>
        <time>2021-10-26T07:28:25Z</time>
      </trkpt>
      <trkpt lat="46.58617" lon="6.07684">
        <ele>1094.8</ele>
        <time>2021-10-26T07:28:31Z</time>
      </trkpt>
      <trkpt lat="46.5862" lon="6.07679">
        <ele>1098.3</ele>
        <time>2021-10-26T07:28:44Z</time>
      </trkpt>
      <trkpt lat="46.58618" lon="6.07673">
        <ele>1099.6</ele>
        <time>2021-10-26T07:28:54Z</time>
      </trkpt>
      <trkpt lat="46.58615" lon="6.07667">
        <ele>1100.1</ele>
        <time>2021-10-26T07:28:57Z</time>
      </trkpt>
      <trkpt lat="46.58616" lon="6.07677">
        <ele>1100</ele>
        <time>2021-10-26T07:29:10Z</time>
      </trkpt>
      <trkpt lat="46.58617" lon="6.07686">
        <ele>1099.1</ele>
        <time>2021-10-26T07:29:13Z</time>
      </trkpt>
      <trkpt lat="46.5862" lon="6.07694">
        <ele>1098.2</ele>
        <time>2021-10-26T07:29:17Z</time>
      </trkpt>
      <trkpt lat="46.58622" lon="6.07699">
        <ele>1097.4</ele>
        <time>2021-10-26T07:29:20Z</time>
      </trkpt>
      <trkpt lat="46.58624" lon="6.07708">
        <ele>1096.2</ele>
        <time>2021-10-26T07:29:24Z</time>
      </trkpt>
      <trkpt lat="46.58628" lon="6.07713">
        <ele>1095.6</ele>
        <time>2021-10-26T07:29:30Z</time>
      </trkpt>
      <trkpt lat="46.58633" lon="6.07717">
        <ele>1095.6</ele>
        <time>2021-10-26T07:29:34Z</time>
      </trkpt>
      <trkpt lat="46.58638" lon="6.07721">
        <ele>1095.5</ele>
        <time>2021-10-26T07:29:38Z</time>
      </trkpt>
      <trkpt lat="46.58642" lon="6.07724">
        <ele>1095.3</ele>
        <time>2021-10-26T07:29:43Z</time>
      </trkpt>
      <trkpt lat="46.58647" lon="6.07728">
        <ele>1095.1</ele>
        <time>2021-10-26T07:29:47Z</time>
      </trkpt>
      <trkpt lat="46.58652" lon="6.07731">
        <ele>1095</ele>
        <time>2021-10-26T07:29:51Z</time>
      </trkpt>
      <trkpt lat="46.58657" lon="6.07735">
        <ele>1094.9</ele>
        <time>2021-10-26T07:29:55Z</time>
      </trkpt>
      <trkpt lat="46.58661" lon="6.07739">
        <ele>1094.8</ele>
        <time>2021-10-26T07:29:59Z</time>
      </trkpt>
      <trkpt lat="46.58666" lon="6.07743">
        <ele>1094.8</ele>
        <time>2021-10-26T07:30:03Z</time>
      </trkpt>
      <trkpt lat="46.58671" lon="6.07746">
        <ele>1094.5</ele>
        <time>2021-10-26T07:30:07Z</time>
      </trkpt>
      <trkpt lat="46.58675" lon="6.07749">
        <ele>1093.8</ele>
        <time>2021-10-26T07:30:11Z</time>
      </trkpt>
      <trkpt lat="46.5868" lon="6.07751">
        <ele>1092.6</ele>
        <time>2021-10-26T07:30:16Z</time>
      </trkpt>
      <trkpt lat="46.58684" lon="6.07751">
        <ele>1091.8</ele>
        <time>2021-10-26T07:30:19Z</time>
      </trkpt>
      <trkpt lat="46.58689" lon="6.0775">
        <ele>1091</ele>
        <time>2021-10-26T07:30:22Z</time>
      </trkpt>
      <trkpt lat="46.58694" lon="6.07749">
        <ele>1090</ele>
        <time>2021-10-26T07:30:26Z</time>
      </trkpt>
      <trkpt lat="46.58699" lon="6.07749">
        <ele>1088.7</ele>
        <time>2021-10-26T07:30:31Z</time>
      </trkpt>
      <trkpt lat="46.58704" lon="6.07749">
        <ele>1087.2</ele>
        <time>2021-10-26T07:30:36Z</time>
      </trkpt>
      <trkpt lat="46.58709" lon="6.0775">
        <ele>1085.9</ele>
        <time>2021-10-26T07:30:40Z</time>
      </trkpt>
      <trkpt lat="46.58714" lon="6.07753">
        <ele>1085.5</ele>
        <time>2021-10-26T07:30:43Z</time>
      </trkpt>
      <trkpt lat="46.58719" lon="6.07754">
        <ele>1085.3</ele>
        <time>2021-10-26T07:30:46Z</time>
      </trkpt>
      <trkpt lat="46.58724" lon="6.07755">
        <ele>1085.2</ele>
        <time>2021-10-26T07:30:50Z</time>
      </trkpt>
      <trkpt lat="46.58729" lon="6.07755">
        <ele>1085.2</ele>
        <time>2021-10-26T07:30:54Z</time>
      </trkpt>
      <trkpt lat="46.58734" lon="6.07755">
        <ele>1085.1</ele>
        <time>2021-10-26T07:30:58Z</time>
      </trkpt>
      <trkpt lat="46.58739" lon="6.07755">
        <ele>1085.1</ele>
        <time>2021-10-26T07:31:01Z</time>
      </trkpt>
      <trkpt lat="46.58744" lon="6.07753">
        <ele>1085.5</ele>
        <time>2021-10-26T07:31:04Z</time>
      </trkpt>
      <trkpt lat="46.58749" lon="6.07751">
        <ele>1086.2</ele>
        <time>2021-10-26T07:31:07Z</time>
      </trkpt>
      <trkpt lat="46.58754" lon="6.0775">
        <ele>1087</ele>
        <time>2021-10-26T07:31:10Z</time>
      </trkpt>
      <trkpt lat="46.58758" lon="6.07748">
        <ele>1088.4</ele>
        <time>2021-10-26T07:31:14Z</time>
      </trkpt>
      <trkpt lat="46.58763" lon="6.07746">
        <ele>1089.3</ele>
        <time>2021-10-26T07:31:19Z</time>
      </trkpt>
      <trkpt lat="46.58768" lon="6.07744">
        <ele>1089.2</ele>
        <time>2021-10-26T07:31:24Z</time>
      </trkpt>
      <trkpt lat="46.58774" lon="6.07742">
        <ele>1089</ele>
        <time>2021-10-26T07:31:28Z</time>
      </trkpt>
      <trkpt lat="46.58779" lon="6.07741">
        <ele>1088.8</ele>
        <time>2021-10-26T07:31:31Z</time>
      </trkpt>
      <trkpt lat="46.58784" lon="6.0774">
        <ele>1088.4</ele>
        <time>2021-10-26T07:31:35Z</time>
      </trkpt>
      <trkpt lat="46.5879" lon="6.0774">
        <ele>1087.9</ele>
        <time>2021-10-26T07:31:39Z</time>
      </trkpt>
      <trkpt lat="46.58795" lon="6.07741">
        <ele>1087.9</ele>
        <time>2021-10-26T07:31:46Z</time>
      </trkpt>
      <trkpt lat="46.588" lon="6.07741">
        <ele>1088.4</ele>
        <time>2021-10-26T07:31:52Z</time>
      </trkpt>
      <trkpt lat="46.58805" lon="6.07744">
        <ele>1088.6</ele>
        <time>2021-10-26T07:31:57Z</time>
      </trkpt>
      <trkpt lat="46.58809" lon="6.07747">
        <ele>1088.6</ele>
        <time>2021-10-26T07:32:01Z</time>
      </trkpt>
      <trkpt lat="46.58814" lon="6.0775">
        <ele>1088.6</ele>
        <time>2021-10-26T07:32:05Z</time>
      </trkpt>
      <trkpt lat="46.58818" lon="6.07753">
        <ele>1088.7</ele>
        <time>2021-10-26T07:32:09Z</time>
      </trkpt>
      <trkpt lat="46.58822" lon="6.07757">
        <ele>1088.5</ele>
        <time>2021-10-26T07:32:13Z</time>
      </trkpt>
      <trkpt lat="46.58827" lon="6.07759">
        <ele>1088.3</ele>
        <time>2021-10-26T07:32:17Z</time>
      </trkpt>
      <trkpt lat="46.58831" lon="6.07763">
        <ele>1087.8</ele>
        <time>2021-10-26T07:32:22Z</time>
      </trkpt>
      <trkpt lat="46.58835" lon="6.07767">
        <ele>1087.6</ele>
        <time>2021-10-26T07:32:28Z</time>
      </trkpt>
      <trkpt lat="46.5884" lon="6.07772">
        <ele>1087.2</ele>
        <time>2021-10-26T07:32:33Z</time>
      </trkpt>
      <trkpt lat="46.58844" lon="6.07777">
        <ele>1087.3</ele>
        <time>2021-10-26T07:32:38Z</time>
      </trkpt>
      <trkpt lat="46.58846" lon="6.07783">
        <ele>1092.8</ele>
        <time>2021-10-26T07:33:03Z</time>
      </trkpt>
      <trkpt lat="46.58843" lon="6.07789">
        <ele>1092.8</ele>
        <time>2021-10-26T07:33:09Z</time>
      </trkpt>
      <trkpt lat="46.58843" lon="6.07796">
        <ele>1092.4</ele>
        <time>2021-10-26T07:33:16Z</time>
      </trkpt>
      <trkpt lat="46.58841" lon="6.07803">
        <ele>1092.4</ele>
        <time>2021-10-26T07:33:21Z</time>
      </trkpt>
      <trkpt lat="46.58839" lon="6.0781">
        <ele>1092.4</ele>
        <time>2021-10-26T07:33:26Z</time>
      </trkpt>
      <trkpt lat="46.58836" lon="6.07815">
        <ele>1092.3</ele>
        <time>2021-10-26T07:33:32Z</time>
      </trkpt>
      <trkpt lat="46.58832" lon="6.07821">
        <ele>1091.5</ele>
        <time>2021-10-26T07:33:39Z</time>
      </trkpt>
      <trkpt lat="46.58831" lon="6.07828">
        <ele>1090.4</ele>
        <time>2021-10-26T07:33:44Z</time>
      </trkpt>
      <trkpt lat="46.58829" lon="6.07835">
        <ele>1089.5</ele>
        <time>2021-10-26T07:33:49Z</time>
      </trkpt>
      <trkpt lat="46.58826" lon="6.07841">
        <ele>1088.7</ele>
        <time>2021-10-26T07:33:54Z</time>
      </trkpt>
      <trkpt lat="46.58824" lon="6.07847">
        <ele>1088.4</ele>
        <time>2021-10-26T07:33:58Z</time>
      </trkpt>
      <trkpt lat="46.58822" lon="6.07854">
        <ele>1088.6</ele>
        <time>2021-10-26T07:34:03Z</time>
      </trkpt>
      <trkpt lat="46.58819" lon="6.0786">
        <ele>1089.2</ele>
        <time>2021-10-26T07:34:08Z</time>
      </trkpt>
      <trkpt lat="46.58815" lon="6.07865">
        <ele>1089.4</ele>
        <time>2021-10-26T07:34:12Z</time>
      </trkpt>
      <trkpt lat="46.58813" lon="6.07872">
        <ele>1089.6</ele>
        <time>2021-10-26T07:34:17Z</time>
      </trkpt>
      <trkpt lat="46.58811" lon="6.07879">
        <ele>1089.3</ele>
        <time>2021-10-26T07:34:22Z</time>
      </trkpt>
      <trkpt lat="46.58807" lon="6.07885">
        <ele>1088.5</ele>
        <time>2021-10-26T07:34:27Z</time>
      </trkpt>
      <trkpt lat="46.58805" lon="6.0789">
        <ele>1087.2</ele>
        <time>2021-10-26T07:34:32Z</time>
      </trkpt>
      <trkpt lat="46.58803" lon="6.07898">
        <ele>1086.2</ele>
        <time>2021-10-26T07:34:36Z</time>
      </trkpt>
      <trkpt lat="46.58802" lon="6.07904">
        <ele>1085.4</ele>
        <time>2021-10-26T07:34:40Z</time>
      </trkpt>
      <trkpt lat="46.588" lon="6.07911">
        <ele>1085.2</ele>
        <time>2021-10-26T07:34:44Z</time>
      </trkpt>
      <trkpt lat="46.58798" lon="6.07918">
        <ele>1085.4</ele>
        <time>2021-10-26T07:34:48Z</time>
      </trkpt>
      <trkpt lat="46.58797" lon="6.07925">
        <ele>1085</ele>
        <time>2021-10-26T07:34:53Z</time>
      </trkpt>
      <trkpt lat="46.58795" lon="6.07931">
        <ele>1084.2</ele>
        <time>2021-10-26T07:34:58Z</time>
      </trkpt>
      <trkpt lat="46.58793" lon="6.07938">
        <ele>1083.3</ele>
        <time>2021-10-26T07:35:04Z</time>
      </trkpt>
      <trkpt lat="46.58792" lon="6.07945">
        <ele>1082.9</ele>
        <time>2021-10-26T07:35:10Z</time>
      </trkpt>
      <trkpt lat="46.58788" lon="6.0795">
        <ele>1083.6</ele>
        <time>2021-10-26T07:35:18Z</time>
      </trkpt>
      <trkpt lat="46.58785" lon="6.07955">
        <ele>1084</ele>
        <time>2021-10-26T07:35:23Z</time>
      </trkpt>
      <trkpt lat="46.58781" lon="6.0796">
        <ele>1084</ele>
        <time>2021-10-26T07:35:26Z</time>
      </trkpt>
      <trkpt lat="46.58778" lon="6.07965">
        <ele>1083.8</ele>
        <time>2021-10-26T07:35:30Z</time>
      </trkpt>
      <trkpt lat="46.58775" lon="6.0797">
        <ele>1083.7</ele>
        <time>2021-10-26T07:35:34Z</time>
      </trkpt>
      <trkpt lat="46.58772" lon="6.07976">
        <ele>1083.7</ele>
        <time>2021-10-26T07:35:38Z</time>
      </trkpt>
      <trkpt lat="46.58769" lon="6.07982">
        <ele>1084.1</ele>
        <time>2021-10-26T07:35:43Z</time>
      </trkpt>
      <trkpt lat="46.58767" lon="6.07989">
        <ele>1083.9</ele>
        <time>2021-10-26T07:35:50Z</time>
      </trkpt>
      <trkpt lat="46.58765" lon="6.07995">
        <ele>1083</ele>
        <time>2021-10-26T07:35:54Z</time>
      </trkpt>
      <trkpt lat="46.58762" lon="6.08">
        <ele>1082.2</ele>
        <time>2021-10-26T07:35:58Z</time>
      </trkpt>
      <trkpt lat="46.58761" lon="6.08007">
        <ele>1082.1</ele>
        <time>2021-10-26T07:36:03Z</time>
      </trkpt>
      <trkpt lat="46.58758" lon="6.08014">
        <ele>1082.5</ele>
        <time>2021-10-26T07:36:08Z</time>
      </trkpt>
      <trkpt lat="46.58758" lon="6.08021">
        <ele>1083.2</ele>
        <time>2021-10-26T07:36:14Z</time>
      </trkpt>
      <trkpt lat="46.58754" lon="6.08025">
        <ele>1084.8</ele>
        <time>2021-10-26T07:36:23Z</time>
      </trkpt>
      <trkpt lat="46.58751" lon="6.08031">
        <ele>1085.8</ele>
        <time>2021-10-26T07:36:30Z</time>
      </trkpt>
      <trkpt lat="46.58747" lon="6.08035">
        <ele>1087.9</ele>
        <time>2021-10-26T07:36:37Z</time>
      </trkpt>
      <trkpt lat="46.58746" lon="6.08042">
        <ele>1090.3</ele>
        <time>2021-10-26T07:36:46Z</time>
      </trkpt>
      <trkpt lat="46.58742" lon="6.08045">
        <ele>1090.4</ele>
        <time>2021-10-26T07:36:51Z</time>
      </trkpt>
      <trkpt lat="46.58738" lon="6.0805">
        <ele>1090.6</ele>
        <time>2021-10-26T07:36:56Z</time>
      </trkpt>
      <trkpt lat="46.58734" lon="6.08055">
        <ele>1090.5</ele>
        <time>2021-10-26T07:37:00Z</time>
      </trkpt>
      <trkpt lat="46.58733" lon="6.08062">
        <ele>1089.7</ele>
        <time>2021-10-26T07:37:05Z</time>
      </trkpt>
      <trkpt lat="46.58732" lon="6.08069">
        <ele>1088.7</ele>
        <time>2021-10-26T07:37:09Z</time>
      </trkpt>
      <trkpt lat="46.5873" lon="6.08075">
        <ele>1087.7</ele>
        <time>2021-10-26T07:37:13Z</time>
      </trkpt>
      <trkpt lat="46.58728" lon="6.08082">
        <ele>1086.6</ele>
        <time>2021-10-26T07:37:18Z</time>
      </trkpt>
      <trkpt lat="46.58726" lon="6.08089">
        <ele>1086.7</ele>
        <time>2021-10-26T07:37:23Z</time>
      </trkpt>
      <trkpt lat="46.58724" lon="6.08097">
        <ele>1087.1</ele>
        <time>2021-10-26T07:37:28Z</time>
      </trkpt>
      <trkpt lat="46.58722" lon="6.08102">
        <ele>1087.3</ele>
        <time>2021-10-26T07:37:32Z</time>
      </trkpt>
      <trkpt lat="46.5872" lon="6.08108">
        <ele>1087.6</ele>
        <time>2021-10-26T07:37:36Z</time>
      </trkpt>
      <trkpt lat="46.58717" lon="6.08114">
        <ele>1088.1</ele>
        <time>2021-10-26T07:37:40Z</time>
      </trkpt>
      <trkpt lat="46.58713" lon="6.08118">
        <ele>1088.7</ele>
        <time>2021-10-26T07:37:44Z</time>
      </trkpt>
      <trkpt lat="46.58709" lon="6.08123">
        <ele>1089.2</ele>
        <time>2021-10-26T07:37:50Z</time>
      </trkpt>
      <trkpt lat="46.58705" lon="6.08127">
        <ele>1089.7</ele>
        <time>2021-10-26T07:37:54Z</time>
      </trkpt>
      <trkpt lat="46.58702" lon="6.08134">
        <ele>1090.3</ele>
        <time>2021-10-26T07:37:58Z</time>
      </trkpt>
      <trkpt lat="46.58701" lon="6.08141">
        <ele>1090.6</ele>
        <time>2021-10-26T07:38:01Z</time>
      </trkpt>
      <trkpt lat="46.58699" lon="6.08148">
        <ele>1091.3</ele>
        <time>2021-10-26T07:38:06Z</time>
      </trkpt>
      <trkpt lat="46.58696" lon="6.08153">
        <ele>1092.3</ele>
        <time>2021-10-26T07:38:11Z</time>
      </trkpt>
      <trkpt lat="46.58692" lon="6.08157">
        <ele>1093.1</ele>
        <time>2021-10-26T07:38:15Z</time>
      </trkpt>
      <trkpt lat="46.58688" lon="6.08161">
        <ele>1093.8</ele>
        <time>2021-10-26T07:38:20Z</time>
      </trkpt>
      <trkpt lat="46.58684" lon="6.08166">
        <ele>1094.7</ele>
        <time>2021-10-26T07:38:25Z</time>
      </trkpt>
      <trkpt lat="46.58683" lon="6.08173">
        <ele>1095.9</ele>
        <time>2021-10-26T07:38:30Z</time>
      </trkpt>
      <trkpt lat="46.58681" lon="6.0818">
        <ele>1097.1</ele>
        <time>2021-10-26T07:38:35Z</time>
      </trkpt>
      <trkpt lat="46.58678" lon="6.08184">
        <ele>1097</ele>
        <time>2021-10-26T07:38:39Z</time>
      </trkpt>
      <trkpt lat="46.58676" lon="6.08192">
        <ele>1096.4</ele>
        <time>2021-10-26T07:38:43Z</time>
      </trkpt>
      <trkpt lat="46.58676" lon="6.08199">
        <ele>1096.2</ele>
        <time>2021-10-26T07:38:47Z</time>
      </trkpt>
      <trkpt lat="46.58673" lon="6.08205">
        <ele>1097.2</ele>
        <time>2021-10-26T07:38:54Z</time>
      </trkpt>
      <trkpt lat="46.58669" lon="6.0821">
        <ele>1098.4</ele>
        <time>2021-10-26T07:38:58Z</time>
      </trkpt>
      <trkpt lat="46.58666" lon="6.08216">
        <ele>1099</ele>
        <time>2021-10-26T07:39:01Z</time>
      </trkpt>
      <trkpt lat="46.58664" lon="6.08222">
        <ele>1099.5</ele>
        <time>2021-10-26T07:39:04Z</time>
      </trkpt>
      <trkpt lat="46.58661" lon="6.08228">
        <ele>1099.9</ele>
        <time>2021-10-26T07:39:08Z</time>
      </trkpt>
      <trkpt lat="46.58658" lon="6.08233">
        <ele>1100.7</ele>
        <time>2021-10-26T07:39:13Z</time>
      </trkpt>
      <trkpt lat="46.58655" lon="6.08238">
        <ele>1101.2</ele>
        <time>2021-10-26T07:39:17Z</time>
      </trkpt>
      <trkpt lat="46.58654" lon="6.08245">
        <ele>1101.1</ele>
        <time>2021-10-26T07:39:23Z</time>
      </trkpt>
      <trkpt lat="46.58654" lon="6.08252">
        <ele>1101.1</ele>
        <time>2021-10-26T07:39:30Z</time>
      </trkpt>
      <trkpt lat="46.58653" lon="6.08259">
        <ele>1101.8</ele>
        <time>2021-10-26T07:39:37Z</time>
      </trkpt>
      <trkpt lat="46.5865" lon="6.08265">
        <ele>1101.7</ele>
        <time>2021-10-26T07:39:42Z</time>
      </trkpt>
      <trkpt lat="46.58647" lon="6.08272">
        <ele>1101.3</ele>
        <time>2021-10-26T07:39:46Z</time>
      </trkpt>
      <trkpt lat="46.58645" lon="6.08278">
        <ele>1101</ele>
        <time>2021-10-26T07:39:50Z</time>
      </trkpt>
      <trkpt lat="46.58642" lon="6.08284">
        <ele>1100.7</ele>
        <time>2021-10-26T07:39:55Z</time>
      </trkpt>
      <trkpt lat="46.58639" lon="6.08289">
        <ele>1100.6</ele>
        <time>2021-10-26T07:40:00Z</time>
      </trkpt>
      <trkpt lat="46.58636" lon="6.08294">
        <ele>1100.9</ele>
        <time>2021-10-26T07:40:04Z</time>
      </trkpt>
      <trkpt lat="46.58633" lon="6.08301">
        <ele>1101.5</ele>
        <time>2021-10-26T07:40:09Z</time>
      </trkpt>
      <trkpt lat="46.58633" lon="6.08308">
        <ele>1102.4</ele>
        <time>2021-10-26T07:40:14Z</time>
      </trkpt>
      <trkpt lat="46.58632" lon="6.08315">
        <ele>1103.1</ele>
        <time>2021-10-26T07:40:20Z</time>
      </trkpt>
      <trkpt lat="46.58629" lon="6.08322">
        <ele>1103.4</ele>
        <time>2021-10-26T07:40:24Z</time>
      </trkpt>
      <trkpt lat="46.58627" lon="6.08329">
        <ele>1103.3</ele>
        <time>2021-10-26T07:40:28Z</time>
      </trkpt>
      <trkpt lat="46.58625" lon="6.08335">
        <ele>1102.9</ele>
        <time>2021-10-26T07:40:32Z</time>
      </trkpt>
      <trkpt lat="46.58621" lon="6.0834">
        <ele>1102.8</ele>
        <time>2021-10-26T07:40:38Z</time>
      </trkpt>
      <trkpt lat="46.58618" lon="6.08345">
        <ele>1102.8</ele>
        <time>2021-10-26T07:40:43Z</time>
      </trkpt>
      <trkpt lat="46.58615" lon="6.0835">
        <ele>1103</ele>
        <time>2021-10-26T07:40:47Z</time>
      </trkpt>
      <trkpt lat="46.58616" lon="6.08358">
        <ele>1104</ele>
        <time>2021-10-26T07:40:53Z</time>
      </trkpt>
      <trkpt lat="46.58615" lon="6.08365">
        <ele>1105.7</ele>
        <time>2021-10-26T07:40:58Z</time>
      </trkpt>
      <trkpt lat="46.58611" lon="6.08367">
        <ele>1107.1</ele>
        <time>2021-10-26T07:41:03Z</time>
      </trkpt>
      <trkpt lat="46.58607" lon="6.08371">
        <ele>1108.8</ele>
        <time>2021-10-26T07:41:08Z</time>
      </trkpt>
      <trkpt lat="46.58604" lon="6.08378">
        <ele>1110.8</ele>
        <time>2021-10-26T07:41:13Z</time>
      </trkpt>
      <trkpt lat="46.58602" lon="6.08385">
        <ele>1112.5</ele>
        <time>2021-10-26T07:41:17Z</time>
      </trkpt>
      <trkpt lat="46.58599" lon="6.0839">
        <ele>1114.5</ele>
        <time>2021-10-26T07:41:22Z</time>
      </trkpt>
      <trkpt lat="46.58596" lon="6.08395">
        <ele>1115</ele>
        <time>2021-10-26T07:41:26Z</time>
      </trkpt>
      <trkpt lat="46.58594" lon="6.08403">
        <ele>1115.3</ele>
        <time>2021-10-26T07:41:30Z</time>
      </trkpt>
      <trkpt lat="46.58594" lon="6.0841">
        <ele>1115.5</ele>
        <time>2021-10-26T07:41:33Z</time>
      </trkpt>
      <trkpt lat="46.58592" lon="6.08418">
        <ele>1115.7</ele>
        <time>2021-10-26T07:41:37Z</time>
      </trkpt>
      <trkpt lat="46.58589" lon="6.08423">
        <ele>1115.9</ele>
        <time>2021-10-26T07:41:42Z</time>
      </trkpt>
      <trkpt lat="46.58586" lon="6.08429">
        <ele>1115.8</ele>
        <time>2021-10-26T07:41:46Z</time>
      </trkpt>
      <trkpt lat="46.58584" lon="6.08435">
        <ele>1116.1</ele>
        <time>2021-10-26T07:41:52Z</time>
      </trkpt>
      <trkpt lat="46.5858" lon="6.08441">
        <ele>1116.9</ele>
        <time>2021-10-26T07:41:57Z</time>
      </trkpt>
      <trkpt lat="46.58579" lon="6.08448">
        <ele>1118.3</ele>
        <time>2021-10-26T07:42:05Z</time>
      </trkpt>
      <trkpt lat="46.58577" lon="6.08455">
        <ele>1118.2</ele>
        <time>2021-10-26T07:42:11Z</time>
      </trkpt>
      <trkpt lat="46.58575" lon="6.08462">
        <ele>1118.7</ele>
        <time>2021-10-26T07:42:17Z</time>
      </trkpt>
      <trkpt lat="46.58572" lon="6.08468">
        <ele>1119</ele>
        <time>2021-10-26T07:42:21Z</time>
      </trkpt>
      <trkpt lat="46.58569" lon="6.08473">
        <ele>1118.6</ele>
        <time>2021-10-26T07:42:25Z</time>
      </trkpt>
      <trkpt lat="46.58566" lon="6.08478">
        <ele>1117.9</ele>
        <time>2021-10-26T07:42:29Z</time>
      </trkpt>
      <trkpt lat="46.58563" lon="6.08486">
        <ele>1116.3</ele>
        <time>2021-10-26T07:42:35Z</time>
      </trkpt>
      <trkpt lat="46.58562" lon="6.08493">
        <ele>1115.3</ele>
        <time>2021-10-26T07:42:39Z</time>
      </trkpt>
      <trkpt lat="46.5856" lon="6.08499">
        <ele>1114.1</ele>
        <time>2021-10-26T07:42:43Z</time>
      </trkpt>
      <trkpt lat="46.58557" lon="6.08506">
        <ele>1112.9</ele>
        <time>2021-10-26T07:42:48Z</time>
      </trkpt>
      <trkpt lat="46.58555" lon="6.08512">
        <ele>1112.4</ele>
        <time>2021-10-26T07:42:52Z</time>
      </trkpt>
      <trkpt lat="46.58553" lon="6.08518">
        <ele>1112.2</ele>
        <time>2021-10-26T07:42:57Z</time>
      </trkpt>
      <trkpt lat="46.58552" lon="6.08525">
        <ele>1111.6</ele>
        <time>2021-10-26T07:43:02Z</time>
      </trkpt>
      <trkpt lat="46.58549" lon="6.08532">
        <ele>1111.1</ele>
        <time>2021-10-26T07:43:08Z</time>
      </trkpt>
      <trkpt lat="46.58546" lon="6.08539">
        <ele>1110.8</ele>
        <time>2021-10-26T07:43:12Z</time>
      </trkpt>
      <trkpt lat="46.58544" lon="6.08545">
        <ele>1110.4</ele>
        <time>2021-10-26T07:43:16Z</time>
      </trkpt>
      <trkpt lat="46.58542" lon="6.08553">
        <ele>1110</ele>
        <time>2021-10-26T07:43:20Z</time>
      </trkpt>
      <trkpt lat="46.58541" lon="6.0856">
        <ele>1109.6</ele>
        <time>2021-10-26T07:43:25Z</time>
      </trkpt>
      <trkpt lat="46.58539" lon="6.08567">
        <ele>1109.1</ele>
        <time>2021-10-26T07:43:30Z</time>
      </trkpt>
      <trkpt lat="46.58538" lon="6.08574">
        <ele>1108.4</ele>
        <time>2021-10-26T07:43:37Z</time>
      </trkpt>
      <trkpt lat="46.58537" lon="6.08582">
        <ele>1108.3</ele>
        <time>2021-10-26T07:43:42Z</time>
      </trkpt>
      <trkpt lat="46.58536" lon="6.08589">
        <ele>1108.5</ele>
        <time>2021-10-26T07:43:46Z</time>
      </trkpt>
      <trkpt lat="46.58536" lon="6.08597">
        <ele>1109</ele>
        <time>2021-10-26T07:43:50Z</time>
      </trkpt>
      <trkpt lat="46.58534" lon="6.08604">
        <ele>1109.8</ele>
        <time>2021-10-26T07:43:55Z</time>
      </trkpt>
      <trkpt lat="46.58534" lon="6.08611">
        <ele>1110.9</ele>
        <time>2021-10-26T07:43:59Z</time>
      </trkpt>
      <trkpt lat="46.58534" lon="6.08618">
        <ele>1112</ele>
        <time>2021-10-26T07:44:03Z</time>
      </trkpt>
      <trkpt lat="46.58533" lon="6.08624">
        <ele>1112.7</ele>
        <time>2021-10-26T07:44:08Z</time>
      </trkpt>
      <trkpt lat="46.58533" lon="6.08631">
        <ele>1112.4</ele>
        <time>2021-10-26T07:44:13Z</time>
      </trkpt>
      <trkpt lat="46.58532" lon="6.08641">
        <ele>1112.3</ele>
        <time>2021-10-26T07:45:22Z</time>
      </trkpt>
      <trkpt lat="46.5853" lon="6.08648">
        <ele>1110.5</ele>
        <time>2021-10-26T07:46:31Z</time>
      </trkpt>
      <trkpt lat="46.58527" lon="6.08655">
        <ele>1109.8</ele>
        <time>2021-10-26T07:46:37Z</time>
      </trkpt>
      <trkpt lat="46.58523" lon="6.08658">
        <ele>1109.2</ele>
        <time>2021-10-26T07:46:43Z</time>
      </trkpt>
      <trkpt lat="46.58518" lon="6.08663">
        <ele>1109.4</ele>
        <time>2021-10-26T07:46:49Z</time>
      </trkpt>
      <trkpt lat="46.58514" lon="6.08666">
        <ele>1109.7</ele>
        <time>2021-10-26T07:46:54Z</time>
      </trkpt>
      <trkpt lat="46.58509" lon="6.08669">
        <ele>1110.2</ele>
        <time>2021-10-26T07:46:58Z</time>
      </trkpt>
      <trkpt lat="46.58505" lon="6.08673">
        <ele>1110.8</ele>
        <time>2021-10-26T07:47:03Z</time>
      </trkpt>
      <trkpt lat="46.58501" lon="6.08678">
        <ele>1111.2</ele>
        <time>2021-10-26T07:47:08Z</time>
      </trkpt>
      <trkpt lat="46.58497" lon="6.08682">
        <ele>1111.4</ele>
        <time>2021-10-26T07:47:12Z</time>
      </trkpt>
      <trkpt lat="46.58493" lon="6.08687">
        <ele>1111.5</ele>
        <time>2021-10-26T07:47:17Z</time>
      </trkpt>
      <trkpt lat="46.58489" lon="6.08691">
        <ele>1111.8</ele>
        <time>2021-10-26T07:47:22Z</time>
      </trkpt>
      <trkpt lat="46.58484" lon="6.08693">
        <ele>1111.6</ele>
        <time>2021-10-26T07:47:27Z</time>
      </trkpt>
      <trkpt lat="46.58481" lon="6.08697">
        <ele>1111.1</ele>
        <time>2021-10-26T07:47:32Z</time>
      </trkpt>
      <trkpt lat="46.58478" lon="6.08702">
        <ele>1110.4</ele>
        <time>2021-10-26T07:47:37Z</time>
      </trkpt>
      <trkpt lat="46.58476" lon="6.08709">
        <ele>1109.8</ele>
        <time>2021-10-26T07:47:41Z</time>
      </trkpt>
      <trkpt lat="46.58475" lon="6.08716">
        <ele>1109.4</ele>
        <time>2021-10-26T07:47:45Z</time>
      </trkpt>
      <trkpt lat="46.58475" lon="6.08724">
        <ele>1108.9</ele>
        <time>2021-10-26T07:47:50Z</time>
      </trkpt>
      <trkpt lat="46.58475" lon="6.08731">
        <ele>1108.7</ele>
        <time>2021-10-26T07:47:54Z</time>
      </trkpt>
      <trkpt lat="46.58475" lon="6.08739">
        <ele>1108.5</ele>
        <time>2021-10-26T07:47:59Z</time>
      </trkpt>
      <trkpt lat="46.58474" lon="6.08746">
        <ele>1109.1</ele>
        <time>2021-10-26T07:48:04Z</time>
      </trkpt>
      <trkpt lat="46.58472" lon="6.08752">
        <ele>1109.4</ele>
        <time>2021-10-26T07:48:09Z</time>
      </trkpt>
      <trkpt lat="46.58468" lon="6.08757">
        <ele>1109.1</ele>
        <time>2021-10-26T07:48:14Z</time>
      </trkpt>
      <trkpt lat="46.58467" lon="6.08765">
        <ele>1108.2</ele>
        <time>2021-10-26T07:48:19Z</time>
      </trkpt>
      <trkpt lat="46.58464" lon="6.08772">
        <ele>1107.8</ele>
        <time>2021-10-26T07:48:25Z</time>
      </trkpt>
      <trkpt lat="46.58462" lon="6.08779">
        <ele>1108.1</ele>
        <time>2021-10-26T07:48:30Z</time>
      </trkpt>
      <trkpt lat="46.58459" lon="6.08786">
        <ele>1108.5</ele>
        <time>2021-10-26T07:48:34Z</time>
      </trkpt>
      <trkpt lat="46.58456" lon="6.08792">
        <ele>1109</ele>
        <time>2021-10-26T07:48:37Z</time>
      </trkpt>
      <trkpt lat="46.58454" lon="6.08799">
        <ele>1109.6</ele>
        <time>2021-10-26T07:48:41Z</time>
      </trkpt>
      <trkpt lat="46.58452" lon="6.08807">
        <ele>1110.1</ele>
        <time>2021-10-26T07:48:45Z</time>
      </trkpt>
      <trkpt lat="46.5845" lon="6.08812">
        <ele>1110.2</ele>
        <time>2021-10-26T07:48:49Z</time>
      </trkpt>
      <trkpt lat="46.58448" lon="6.08819">
        <ele>1110.7</ele>
        <time>2021-10-26T07:48:55Z</time>
      </trkpt>
      <trkpt lat="46.58447" lon="6.08826">
        <ele>1110.6</ele>
        <time>2021-10-26T07:49:01Z</time>
      </trkpt>
      <trkpt lat="46.58445" lon="6.08832">
        <ele>1110.7</ele>
        <time>2021-10-26T07:49:05Z</time>
      </trkpt>
      <trkpt lat="46.58444" lon="6.0884">
        <ele>1111.1</ele>
        <time>2021-10-26T07:49:09Z</time>
      </trkpt>
      <trkpt lat="46.58442" lon="6.08846">
        <ele>1111.1</ele>
        <time>2021-10-26T07:49:13Z</time>
      </trkpt>
      <trkpt lat="46.58439" lon="6.08852">
        <ele>1111.3</ele>
        <time>2021-10-26T07:49:18Z</time>
      </trkpt>
      <trkpt lat="46.58437" lon="6.08859">
        <ele>1111.5</ele>
        <time>2021-10-26T07:49:23Z</time>
      </trkpt>
      <trkpt lat="46.58435" lon="6.08866">
        <ele>1112.1</ele>
        <time>2021-10-26T07:49:27Z</time>
      </trkpt>
      <trkpt lat="46.58432" lon="6.08873">
        <ele>1112.5</ele>
        <time>2021-10-26T07:49:31Z</time>
      </trkpt>
      <trkpt lat="46.5843" lon="6.08879">
        <ele>1112.9</ele>
        <time>2021-10-26T07:49:35Z</time>
      </trkpt>
      <trkpt lat="46.58429" lon="6.08886">
        <ele>1112.9</ele>
        <time>2021-10-26T07:49:39Z</time>
      </trkpt>
      <trkpt lat="46.58428" lon="6.08892">
        <ele>1112.8</ele>
        <time>2021-10-26T07:49:43Z</time>
      </trkpt>
      <trkpt lat="46.58425" lon="6.08898">
        <ele>1113</ele>
        <time>2021-10-26T07:49:47Z</time>
      </trkpt>
      <trkpt lat="46.58422" lon="6.08903">
        <ele>1113.3</ele>
        <time>2021-10-26T07:49:51Z</time>
      </trkpt>
      <trkpt lat="46.5842" lon="6.0891">
        <ele>1113.2</ele>
        <time>2021-10-26T07:49:55Z</time>
      </trkpt>
      <trkpt lat="46.58418" lon="6.08916">
        <ele>1113</ele>
        <time>2021-10-26T07:49:59Z</time>
      </trkpt>
      <trkpt lat="46.58416" lon="6.08924">
        <ele>1113.5</ele>
        <time>2021-10-26T07:50:04Z</time>
      </trkpt>
      <trkpt lat="46.58415" lon="6.0893">
        <ele>1113.6</ele>
        <time>2021-10-26T07:50:09Z</time>
      </trkpt>
      <trkpt lat="46.58413" lon="6.08937">
        <ele>1114</ele>
        <time>2021-10-26T07:50:14Z</time>
      </trkpt>
      <trkpt lat="46.58412" lon="6.08944">
        <ele>1114.5</ele>
        <time>2021-10-26T07:50:18Z</time>
      </trkpt>
      <trkpt lat="46.58411" lon="6.08951">
        <ele>1115.3</ele>
        <time>2021-10-26T07:50:23Z</time>
      </trkpt>
      <trkpt lat="46.58409" lon="6.08958">
        <ele>1115.4</ele>
        <time>2021-10-26T07:50:28Z</time>
      </trkpt>
      <trkpt lat="46.58408" lon="6.08966">
        <ele>1115.2</ele>
        <time>2021-10-26T07:50:32Z</time>
      </trkpt>
      <trkpt lat="46.58408" lon="6.08974">
        <ele>1115.1</ele>
        <time>2021-10-26T07:50:36Z</time>
      </trkpt>
      <trkpt lat="46.58408" lon="6.0898">
        <ele>1115.1</ele>
        <time>2021-10-26T07:50:40Z</time>
      </trkpt>
      <trkpt lat="46.58407" lon="6.08988">
        <ele>1115</ele>
        <time>2021-10-26T07:50:45Z</time>
      </trkpt>
      <trkpt lat="46.58406" lon="6.08995">
        <ele>1114.1</ele>
        <time>2021-10-26T07:50:49Z</time>
      </trkpt>
      <trkpt lat="46.58406" lon="6.09002">
        <ele>1113</ele>
        <time>2021-10-26T07:50:54Z</time>
      </trkpt>
      <trkpt lat="46.58406" lon="6.0901">
        <ele>1112.4</ele>
        <time>2021-10-26T07:50:58Z</time>
      </trkpt>
      <trkpt lat="46.58405" lon="6.09016">
        <ele>1112</ele>
        <time>2021-10-26T07:51:02Z</time>
      </trkpt>
      <trkpt lat="46.58404" lon="6.09024">
        <ele>1111.7</ele>
        <time>2021-10-26T07:51:07Z</time>
      </trkpt>
      <trkpt lat="46.58403" lon="6.0903">
        <ele>1111.4</ele>
        <time>2021-10-26T07:51:11Z</time>
      </trkpt>
      <trkpt lat="46.58402" lon="6.09037">
        <ele>1111.4</ele>
        <time>2021-10-26T07:51:15Z</time>
      </trkpt>
      <trkpt lat="46.58403" lon="6.09044">
        <ele>1111.7</ele>
        <time>2021-10-26T07:51:19Z</time>
      </trkpt>
      <trkpt lat="46.58403" lon="6.0905">
        <ele>1112.1</ele>
        <time>2021-10-26T07:51:23Z</time>
      </trkpt>
      <trkpt lat="46.58402" lon="6.09058">
        <ele>1112.2</ele>
        <time>2021-10-26T07:51:28Z</time>
      </trkpt>
      <trkpt lat="46.58402" lon="6.09065">
        <ele>1112.4</ele>
        <time>2021-10-26T07:51:32Z</time>
      </trkpt>
      <trkpt lat="46.58402" lon="6.09073">
        <ele>1112.7</ele>
        <time>2021-10-26T07:51:37Z</time>
      </trkpt>
      <trkpt lat="46.58401" lon="6.0908">
        <ele>1113.1</ele>
        <time>2021-10-26T07:51:42Z</time>
      </trkpt>
      <trkpt lat="46.584" lon="6.09086">
        <ele>1113.4</ele>
        <time>2021-10-26T07:51:47Z</time>
      </trkpt>
      <trkpt lat="46.58398" lon="6.09093">
        <ele>1113.7</ele>
        <time>2021-10-26T07:51:53Z</time>
      </trkpt>
      <trkpt lat="46.58398" lon="6.091">
        <ele>1114</ele>
        <time>2021-10-26T07:51:58Z</time>
      </trkpt>
      <trkpt lat="46.58398" lon="6.09107">
        <ele>1114</ele>
        <time>2021-10-26T07:52:03Z</time>
      </trkpt>
      <trkpt lat="46.58398" lon="6.09114">
        <ele>1114.1</ele>
        <time>2021-10-26T07:52:07Z</time>
      </trkpt>
      <trkpt lat="46.58397" lon="6.09121">
        <ele>1114.1</ele>
        <time>2021-10-26T07:52:11Z</time>
      </trkpt>
      <trkpt lat="46.58397" lon="6.09128">
        <ele>1114</ele>
        <time>2021-10-26T07:52:16Z</time>
      </trkpt>
      <trkpt lat="46.58396" lon="6.09135">
        <ele>1113.5</ele>
        <time>2021-10-26T07:52:21Z</time>
      </trkpt>
      <trkpt lat="46.58394" lon="6.09142">
        <ele>1112.9</ele>
        <time>2021-10-26T07:52:26Z</time>
      </trkpt>
      <trkpt lat="46.58394" lon="6.09149">
        <ele>1112.5</ele>
        <time>2021-10-26T07:52:30Z</time>
      </trkpt>
      <trkpt lat="46.58393" lon="6.09157">
        <ele>1112.1</ele>
        <time>2021-10-26T07:52:35Z</time>
      </trkpt>
      <trkpt lat="46.58392" lon="6.09165">
        <ele>1111.7</ele>
        <time>2021-10-26T07:52:39Z</time>
      </trkpt>
      <trkpt lat="46.58392" lon="6.09173">
        <ele>1111.7</ele>
        <time>2021-10-26T07:52:44Z</time>
      </trkpt>
      <trkpt lat="46.58391" lon="6.0918">
        <ele>1111.7</ele>
        <time>2021-10-26T07:52:49Z</time>
      </trkpt>
      <trkpt lat="46.58391" lon="6.09188">
        <ele>1112.2</ele>
        <time>2021-10-26T07:52:54Z</time>
      </trkpt>
      <trkpt lat="46.5839" lon="6.09195">
        <ele>1112.3</ele>
        <time>2021-10-26T07:52:58Z</time>
      </trkpt>
      <trkpt lat="46.58389" lon="6.09202">
        <ele>1112.4</ele>
        <time>2021-10-26T07:53:03Z</time>
      </trkpt>
      <trkpt lat="46.58389" lon="6.09209">
        <ele>1112.5</ele>
        <time>2021-10-26T07:53:08Z</time>
      </trkpt>
      <trkpt lat="46.58389" lon="6.09217">
        <ele>1112.8</ele>
        <time>2021-10-26T07:53:13Z</time>
      </trkpt>
      <trkpt lat="46.5839" lon="6.09224">
        <ele>1112.9</ele>
        <time>2021-10-26T07:53:17Z</time>
      </trkpt>
      <trkpt lat="46.58389" lon="6.09233">
        <ele>1112.9</ele>
        <time>2021-10-26T07:53:21Z</time>
      </trkpt>
      <trkpt lat="46.58388" lon="6.0924">
        <ele>1112.7</ele>
        <time>2021-10-26T07:53:24Z</time>
      </trkpt>
      <trkpt lat="46.58389" lon="6.09247">
        <ele>1112.2</ele>
        <time>2021-10-26T07:53:27Z</time>
      </trkpt>
      <trkpt lat="46.58389" lon="6.09254">
        <ele>1111.9</ele>
        <time>2021-10-26T07:53:31Z</time>
      </trkpt>
      <trkpt lat="46.5839" lon="6.09262">
        <ele>1111.8</ele>
        <time>2021-10-26T07:53:36Z</time>
      </trkpt>
      <trkpt lat="46.5839" lon="6.09268">
        <ele>1111.9</ele>
        <time>2021-10-26T07:53:41Z</time>
      </trkpt>
      <trkpt lat="46.58388" lon="6.09276">
        <ele>1112.2</ele>
        <time>2021-10-26T07:53:46Z</time>
      </trkpt>
      <trkpt lat="46.58386" lon="6.09283">
        <ele>1112.3</ele>
        <time>2021-10-26T07:53:50Z</time>
      </trkpt>
      <trkpt lat="46.58385" lon="6.09291">
        <ele>1112.3</ele>
        <time>2021-10-26T07:53:55Z</time>
      </trkpt>
      <trkpt lat="46.58384" lon="6.09298">
        <ele>1112.3</ele>
        <time>2021-10-26T07:53:59Z</time>
      </trkpt>
      <trkpt lat="46.58384" lon="6.09306">
        <ele>1111.8</ele>
        <time>2021-10-26T07:54:04Z</time>
      </trkpt>
      <trkpt lat="46.58384" lon="6.09313">
        <ele>1111.2</ele>
        <time>2021-10-26T07:54:09Z</time>
      </trkpt>
      <trkpt lat="46.58384" lon="6.09321">
        <ele>1110.9</ele>
        <time>2021-10-26T07:54:13Z</time>
      </trkpt>
      <trkpt lat="46.58383" lon="6.09328">
        <ele>1111.2</ele>
        <time>2021-10-26T07:54:17Z</time>
      </trkpt>
      <trkpt lat="46.58383" lon="6.09336">
        <ele>1111.3</ele>
        <time>2021-10-26T07:54:22Z</time>
      </trkpt>
      <trkpt lat="46.58383" lon="6.09343">
        <ele>1111.1</ele>
        <time>2021-10-26T07:54:27Z</time>
      </trkpt>
      <trkpt lat="46.58384" lon="6.09351">
        <ele>1111.1</ele>
        <time>2021-10-26T07:54:32Z</time>
      </trkpt>
      <trkpt lat="46.58383" lon="6.09359">
        <ele>1110.8</ele>
        <time>2021-10-26T07:54:37Z</time>
      </trkpt>
      <trkpt lat="46.58382" lon="6.09367">
        <ele>1111</ele>
        <time>2021-10-26T07:54:41Z</time>
      </trkpt>
      <trkpt lat="46.58381" lon="6.09374">
        <ele>1111.3</ele>
        <time>2021-10-26T07:54:45Z</time>
      </trkpt>
      <trkpt lat="46.58381" lon="6.09382">
        <ele>1111</ele>
        <time>2021-10-26T07:54:50Z</time>
      </trkpt>
      <trkpt lat="46.5838" lon="6.09389">
        <ele>1110.4</ele>
        <time>2021-10-26T07:54:54Z</time>
      </trkpt>
      <trkpt lat="46.58381" lon="6.09396">
        <ele>1110.2</ele>
        <time>2021-10-26T07:54:58Z</time>
      </trkpt>
      <trkpt lat="46.58381" lon="6.09403">
        <ele>1109.7</ele>
        <time>2021-10-26T07:55:02Z</time>
      </trkpt>
      <trkpt lat="46.5838" lon="6.09409">
        <ele>1109.6</ele>
        <time>2021-10-26T07:55:06Z</time>
      </trkpt>
      <trkpt lat="46.5838" lon="6.09418">
        <ele>1109.7</ele>
        <time>2021-10-26T07:55:11Z</time>
      </trkpt>
      <trkpt lat="46.5838" lon="6.09425">
        <ele>1109.3</ele>
        <time>2021-10-26T07:55:15Z</time>
      </trkpt>
      <trkpt lat="46.58379" lon="6.09432">
        <ele>1109.2</ele>
        <time>2021-10-26T07:55:19Z</time>
      </trkpt>
      <trkpt lat="46.58379" lon="6.0944">
        <ele>1109.4</ele>
        <time>2021-10-26T07:55:23Z</time>
      </trkpt>
      <trkpt lat="46.58379" lon="6.09446">
        <ele>1109.6</ele>
        <time>2021-10-26T07:55:27Z</time>
      </trkpt>
      <trkpt lat="46.58378" lon="6.09454">
        <ele>1109.8</ele>
        <time>2021-10-26T07:55:31Z</time>
      </trkpt>
      <trkpt lat="46.58378" lon="6.09462">
        <ele>1110</ele>
        <time>2021-10-26T07:55:36Z</time>
      </trkpt>
      <trkpt lat="46.58379" lon="6.09469">
        <ele>1110</ele>
        <time>2021-10-26T07:55:41Z</time>
      </trkpt>
      <trkpt lat="46.58379" lon="6.09477">
        <ele>1110.1</ele>
        <time>2021-10-26T07:55:47Z</time>
      </trkpt>
      <trkpt lat="46.58381" lon="6.09484">
        <ele>1109.7</ele>
        <time>2021-10-26T07:55:52Z</time>
      </trkpt>
      <trkpt lat="46.58384" lon="6.09489">
        <ele>1108.8</ele>
        <time>2021-10-26T07:55:56Z</time>
      </trkpt>
      <trkpt lat="46.58388" lon="6.09492">
        <ele>1107.9</ele>
        <time>2021-10-26T07:56:00Z</time>
      </trkpt>
      <trkpt lat="46.58391" lon="6.09498">
        <ele>1106.6</ele>
        <time>2021-10-26T07:56:05Z</time>
      </trkpt>
      <trkpt lat="46.58394" lon="6.09505">
        <ele>1105.8</ele>
        <time>2021-10-26T07:56:10Z</time>
      </trkpt>
      <trkpt lat="46.58397" lon="6.09511">
        <ele>1105.1</ele>
        <time>2021-10-26T07:56:15Z</time>
      </trkpt>
      <trkpt lat="46.58398" lon="6.09518">
        <ele>1104.8</ele>
        <time>2021-10-26T07:56:20Z</time>
      </trkpt>
      <trkpt lat="46.584" lon="6.09525">
        <ele>1104.9</ele>
        <time>2021-10-26T07:56:24Z</time>
      </trkpt>
      <trkpt lat="46.584" lon="6.09532">
        <ele>1105.2</ele>
        <time>2021-10-26T07:56:27Z</time>
      </trkpt>
      <trkpt lat="46.58399" lon="6.0954">
        <ele>1105.5</ele>
        <time>2021-10-26T07:56:30Z</time>
      </trkpt>
      <trkpt lat="46.58398" lon="6.09546">
        <ele>1105.8</ele>
        <time>2021-10-26T07:56:33Z</time>
      </trkpt>
      <trkpt lat="46.58394" lon="6.09551">
        <ele>1106.2</ele>
        <time>2021-10-26T07:56:37Z</time>
      </trkpt>
      <trkpt lat="46.5839" lon="6.09556">
        <ele>1106.8</ele>
        <time>2021-10-26T07:56:41Z</time>
      </trkpt>
      <trkpt lat="46.58386" lon="6.09563">
        <ele>1108.5</ele>
        <time>2021-10-26T07:56:46Z</time>
      </trkpt>
      <trkpt lat="46.58384" lon="6.09568">
        <ele>1109.8</ele>
        <time>2021-10-26T07:56:51Z</time>
      </trkpt>
      <trkpt lat="46.58383" lon="6.09575">
        <ele>1110.3</ele>
        <time>2021-10-26T07:56:56Z</time>
      </trkpt>
      <trkpt lat="46.58383" lon="6.09582">
        <ele>1110.6</ele>
        <time>2021-10-26T07:57:01Z</time>
      </trkpt>
      <trkpt lat="46.58386" lon="6.09589">
        <ele>1110.6</ele>
        <time>2021-10-26T07:57:06Z</time>
      </trkpt>
      <trkpt lat="46.58388" lon="6.09595">
        <ele>1110.2</ele>
        <time>2021-10-26T07:57:11Z</time>
      </trkpt>
      <trkpt lat="46.5839" lon="6.09602">
        <ele>1110.2</ele>
        <time>2021-10-26T07:57:15Z</time>
      </trkpt>
      <trkpt lat="46.58393" lon="6.09608">
        <ele>1110.3</ele>
        <time>2021-10-26T07:57:19Z</time>
      </trkpt>
      <trkpt lat="46.58396" lon="6.09613">
        <ele>1110.6</ele>
        <time>2021-10-26T07:57:23Z</time>
      </trkpt>
      <trkpt lat="46.584" lon="6.09619">
        <ele>1110.9</ele>
        <time>2021-10-26T07:57:28Z</time>
      </trkpt>
      <trkpt lat="46.58404" lon="6.09624">
        <ele>1111</ele>
        <time>2021-10-26T07:57:32Z</time>
      </trkpt>
      <trkpt lat="46.58407" lon="6.09629">
        <ele>1111.5</ele>
        <time>2021-10-26T07:57:36Z</time>
      </trkpt>
      <trkpt lat="46.5841" lon="6.09635">
        <ele>1112</ele>
        <time>2021-10-26T07:57:41Z</time>
      </trkpt>
      <trkpt lat="46.58413" lon="6.09641">
        <ele>1112.8</ele>
        <time>2021-10-26T07:57:46Z</time>
      </trkpt>
      <trkpt lat="46.58416" lon="6.09645">
        <ele>1113.2</ele>
        <time>2021-10-26T07:57:50Z</time>
      </trkpt>
      <trkpt lat="46.58419" lon="6.09651">
        <ele>1112.9</ele>
        <time>2021-10-26T07:57:54Z</time>
      </trkpt>
      <trkpt lat="46.58422" lon="6.09657">
        <ele>1112.7</ele>
        <time>2021-10-26T07:57:58Z</time>
      </trkpt>
      <trkpt lat="46.58425" lon="6.09662">
        <ele>1112.3</ele>
        <time>2021-10-26T07:58:04Z</time>
      </trkpt>
      <trkpt lat="46.58427" lon="6.09668">
        <ele>1111.8</ele>
        <time>2021-10-26T07:58:09Z</time>
      </trkpt>
      <trkpt lat="46.58429" lon="6.09675">
        <ele>1111.3</ele>
        <time>2021-10-26T07:58:15Z</time>
      </trkpt>
      <trkpt lat="46.58432" lon="6.09681">
        <ele>1110.8</ele>
        <time>2021-10-26T07:58:20Z</time>
      </trkpt>
      <trkpt lat="46.58434" lon="6.09686">
        <ele>1110.3</ele>
        <time>2021-10-26T07:58:25Z</time>
      </trkpt>
      <trkpt lat="46.58437" lon="6.09691">
        <ele>1110</ele>
        <time>2021-10-26T07:58:29Z</time>
      </trkpt>
      <trkpt lat="46.5844" lon="6.09696">
        <ele>1110.1</ele>
        <time>2021-10-26T07:58:33Z</time>
      </trkpt>
      <trkpt lat="46.58444" lon="6.09702">
        <ele>1110.7</ele>
        <time>2021-10-26T07:58:37Z</time>
      </trkpt>
      <trkpt lat="46.58447" lon="6.09707">
        <ele>1111.2</ele>
        <time>2021-10-26T07:58:41Z</time>
      </trkpt>
      <trkpt lat="46.5845" lon="6.09712">
        <ele>1111.7</ele>
        <time>2021-10-26T07:58:44Z</time>
      </trkpt>
      <trkpt lat="46.58451" lon="6.09719">
        <ele>1111.9</ele>
        <time>2021-10-26T07:58:50Z</time>
      </trkpt>
      <trkpt lat="46.58452" lon="6.09725">
        <ele>1111.8</ele>
        <time>2021-10-26T07:58:55Z</time>
      </trkpt>
      <trkpt lat="46.58455" lon="6.09731">
        <ele>1112.2</ele>
        <time>2021-10-26T07:58:59Z</time>
      </trkpt>
      <trkpt lat="46.58457" lon="6.09737">
        <ele>1112.5</ele>
        <time>2021-10-26T07:59:03Z</time>
      </trkpt>
      <trkpt lat="46.58459" lon="6.09744">
        <ele>1112.9</ele>
        <time>2021-10-26T07:59:07Z</time>
      </trkpt>
      <trkpt lat="46.58462" lon="6.0975">
        <ele>1113.5</ele>
        <time>2021-10-26T07:59:11Z</time>
      </trkpt>
      <trkpt lat="46.58464" lon="6.09756">
        <ele>1114.1</ele>
        <time>2021-10-26T07:59:16Z</time>
      </trkpt>
      <trkpt lat="46.58468" lon="6.0976">
        <ele>1114.5</ele>
        <time>2021-10-26T07:59:20Z</time>
      </trkpt>
      <trkpt lat="46.58471" lon="6.09766">
        <ele>1114.5</ele>
        <time>2021-10-26T07:59:25Z</time>
      </trkpt>
      <trkpt lat="46.58474" lon="6.09772">
        <ele>1114.2</ele>
        <time>2021-10-26T07:59:29Z</time>
      </trkpt>
      <trkpt lat="46.58477" lon="6.09778">
        <ele>1114.2</ele>
        <time>2021-10-26T07:59:33Z</time>
      </trkpt>
      <trkpt lat="46.5848" lon="6.09783">
        <ele>1114.3</ele>
        <time>2021-10-26T07:59:38Z</time>
      </trkpt>
      <trkpt lat="46.58482" lon="6.0979">
        <ele>1113.8</ele>
        <time>2021-10-26T07:59:43Z</time>
      </trkpt>
      <trkpt lat="46.58484" lon="6.09796">
        <ele>1113.3</ele>
        <time>2021-10-26T07:59:48Z</time>
      </trkpt>
      <trkpt lat="46.58487" lon="6.09801">
        <ele>1113.3</ele>
        <time>2021-10-26T07:59:52Z</time>
      </trkpt>
      <trkpt lat="46.58489" lon="6.09808">
        <ele>1114</ele>
        <time>2021-10-26T07:59:56Z</time>
      </trkpt>
      <trkpt lat="46.58492" lon="6.09814">
        <ele>1114.5</ele>
        <time>2021-10-26T08:00:00Z</time>
      </trkpt>
      <trkpt lat="46.58494" lon="6.09821">
        <ele>1115.9</ele>
        <time>2021-10-26T08:00:06Z</time>
      </trkpt>
      <trkpt lat="46.58496" lon="6.09827">
        <ele>1116.6</ele>
        <time>2021-10-26T08:00:10Z</time>
      </trkpt>
      <trkpt lat="46.58499" lon="6.09833">
        <ele>1116.6</ele>
        <time>2021-10-26T08:00:14Z</time>
      </trkpt>
      <trkpt lat="46.58502" lon="6.09838">
        <ele>1116.7</ele>
        <time>2021-10-26T08:00:19Z</time>
      </trkpt>
      <trkpt lat="46.58504" lon="6.09845">
        <ele>1116.3</ele>
        <time>2021-10-26T08:00:24Z</time>
      </trkpt>
      <trkpt lat="46.58509" lon="6.0985">
        <ele>1115.7</ele>
        <time>2021-10-26T08:00:28Z</time>
      </trkpt>
      <trkpt lat="46.58512" lon="6.09855">
        <ele>1115.7</ele>
        <time>2021-10-26T08:00:31Z</time>
      </trkpt>
      <trkpt lat="46.58515" lon="6.09861">
        <ele>1115.9</ele>
        <time>2021-10-26T08:00:34Z</time>
      </trkpt>
      <trkpt lat="46.58517" lon="6.09867">
        <ele>1115.9</ele>
        <time>2021-10-26T08:00:38Z</time>
      </trkpt>
      <trkpt lat="46.58521" lon="6.09872">
        <ele>1115.6</ele>
        <time>2021-10-26T08:00:42Z</time>
      </trkpt>
      <trkpt lat="46.58523" lon="6.09878">
        <ele>1115.6</ele>
        <time>2021-10-26T08:00:46Z</time>
      </trkpt>
      <trkpt lat="46.58525" lon="6.09884">
        <ele>1115.3</ele>
        <time>2021-10-26T08:00:51Z</time>
      </trkpt>
      <trkpt lat="46.58528" lon="6.09891">
        <ele>1115.3</ele>
        <time>2021-10-26T08:00:55Z</time>
      </trkpt>
      <trkpt lat="46.58532" lon="6.09896">
        <ele>1115.7</ele>
        <time>2021-10-26T08:00:58Z</time>
      </trkpt>
      <trkpt lat="46.58534" lon="6.09902">
        <ele>1116.2</ele>
        <time>2021-10-26T08:01:03Z</time>
      </trkpt>
      <trkpt lat="46.58538" lon="6.09909">
        <ele>1117.1</ele>
        <time>2021-10-26T08:01:07Z</time>
      </trkpt>
      <trkpt lat="46.5854" lon="6.09916">
        <ele>1117.8</ele>
        <time>2021-10-26T08:01:11Z</time>
      </trkpt>
      <trkpt lat="46.58543" lon="6.09922">
        <ele>1118.6</ele>
        <time>2021-10-26T08:01:15Z</time>
      </trkpt>
      <trkpt lat="46.58545" lon="6.09929">
        <ele>1119.2</ele>
        <time>2021-10-26T08:01:19Z</time>
      </trkpt>
      <trkpt lat="46.58547" lon="6.09935">
        <ele>1119.7</ele>
        <time>2021-10-26T08:01:23Z</time>
      </trkpt>
      <trkpt lat="46.5855" lon="6.09942">
        <ele>1120.2</ele>
        <time>2021-10-26T08:01:28Z</time>
      </trkpt>
      <trkpt lat="46.58553" lon="6.09949">
        <ele>1120</ele>
        <time>2021-10-26T08:01:32Z</time>
      </trkpt>
      <trkpt lat="46.58556" lon="6.09955">
        <ele>1120.2</ele>
        <time>2021-10-26T08:01:37Z</time>
      </trkpt>
      <trkpt lat="46.58559" lon="6.09962">
        <ele>1119.8</ele>
        <time>2021-10-26T08:01:42Z</time>
      </trkpt>
      <trkpt lat="46.58561" lon="6.09968">
        <ele>1119.1</ele>
        <time>2021-10-26T08:01:47Z</time>
      </trkpt>
      <trkpt lat="46.58564" lon="6.09975">
        <ele>1118.5</ele>
        <time>2021-10-26T08:01:52Z</time>
      </trkpt>
      <trkpt lat="46.58566" lon="6.09981">
        <ele>1117.9</ele>
        <time>2021-10-26T08:01:56Z</time>
      </trkpt>
      <trkpt lat="46.58568" lon="6.09987">
        <ele>1117.1</ele>
        <time>2021-10-26T08:02:01Z</time>
      </trkpt>
      <trkpt lat="46.5857" lon="6.09994">
        <ele>1116.4</ele>
        <time>2021-10-26T08:02:06Z</time>
      </trkpt>
      <trkpt lat="46.58572" lon="6.1">
        <ele>1116.2</ele>
        <time>2021-10-26T08:02:10Z</time>
      </trkpt>
      <trkpt lat="46.58574" lon="6.10006">
        <ele>1116.5</ele>
        <time>2021-10-26T08:02:14Z</time>
      </trkpt>
      <trkpt lat="46.58577" lon="6.10012">
        <ele>1116.8</ele>
        <time>2021-10-26T08:02:18Z</time>
      </trkpt>
      <trkpt lat="46.5858" lon="6.10019">
        <ele>1116.6</ele>
        <time>2021-10-26T08:02:23Z</time>
      </trkpt>
      <trkpt lat="46.58582" lon="6.10026">
        <ele>1116.7</ele>
        <time>2021-10-26T08:02:28Z</time>
      </trkpt>
      <trkpt lat="46.58584" lon="6.10033">
        <ele>1117.3</ele>
        <time>2021-10-26T08:02:33Z</time>
      </trkpt>
      <trkpt lat="46.58588" lon="6.10039">
        <ele>1117.3</ele>
        <time>2021-10-26T08:02:39Z</time>
      </trkpt>
      <trkpt lat="46.5859" lon="6.10044">
        <ele>1116.9</ele>
        <time>2021-10-26T08:02:43Z</time>
      </trkpt>
      <trkpt lat="46.58593" lon="6.10049">
        <ele>1116.1</ele>
        <time>2021-10-26T08:02:49Z</time>
      </trkpt>
      <trkpt lat="46.58595" lon="6.10056">
        <ele>1115.3</ele>
        <time>2021-10-26T08:02:54Z</time>
      </trkpt>
      <trkpt lat="46.58596" lon="6.10062">
        <ele>1114.8</ele>
        <time>2021-10-26T08:02:59Z</time>
      </trkpt>
      <trkpt lat="46.58596" lon="6.10069">
        <ele>1114.4</ele>
        <time>2021-10-26T08:03:03Z</time>
      </trkpt>
      <trkpt lat="46.58597" lon="6.10076">
        <ele>1114.1</ele>
        <time>2021-10-26T08:03:07Z</time>
      </trkpt>
      <trkpt lat="46.58599" lon="6.10084">
        <ele>1113.2</ele>
        <time>2021-10-26T08:03:12Z</time>
      </trkpt>
      <trkpt lat="46.58601" lon="6.1009">
        <ele>1112.3</ele>
        <time>2021-10-26T08:03:16Z</time>
      </trkpt>
      <trkpt lat="46.58604" lon="6.10097">
        <ele>1111.4</ele>
        <time>2021-10-26T08:03:20Z</time>
      </trkpt>
      <trkpt lat="46.58607" lon="6.10102">
        <ele>1110.8</ele>
        <time>2021-10-26T08:03:24Z</time>
      </trkpt>
      <trkpt lat="46.58609" lon="6.10109">
        <ele>1110.3</ele>
        <time>2021-10-26T08:03:28Z</time>
      </trkpt>
      <trkpt lat="46.58609" lon="6.10115">
        <ele>1110.1</ele>
        <time>2021-10-26T08:03:32Z</time>
      </trkpt>
      <trkpt lat="46.5861" lon="6.10122">
        <ele>1110.3</ele>
        <time>2021-10-26T08:03:36Z</time>
      </trkpt>
      <trkpt lat="46.58611" lon="6.10129">
        <ele>1110.2</ele>
        <time>2021-10-26T08:03:40Z</time>
      </trkpt>
      <trkpt lat="46.58612" lon="6.10136">
        <ele>1109.6</ele>
        <time>2021-10-26T08:03:45Z</time>
      </trkpt>
      <trkpt lat="46.58614" lon="6.10143">
        <ele>1108.8</ele>
        <time>2021-10-26T08:03:50Z</time>
      </trkpt>
      <trkpt lat="46.58614" lon="6.10151">
        <ele>1107.8</ele>
        <time>2021-10-26T08:03:56Z</time>
      </trkpt>
      <trkpt lat="46.58614" lon="6.10158">
        <ele>1107.4</ele>
        <time>2021-10-26T08:04:00Z</time>
      </trkpt>
      <trkpt lat="46.58614" lon="6.10164">
        <ele>1107.2</ele>
        <time>2021-10-26T08:04:05Z</time>
      </trkpt>
      <trkpt lat="46.58612" lon="6.1017">
        <ele>1107.7</ele>
        <time>2021-10-26T08:04:11Z</time>
      </trkpt>
      <trkpt lat="46.58609" lon="6.10177">
        <ele>1107.9</ele>
        <time>2021-10-26T08:04:16Z</time>
      </trkpt>
      <trkpt lat="46.58606" lon="6.10183">
        <ele>1108.4</ele>
        <time>2021-10-26T08:04:20Z</time>
      </trkpt>
      <trkpt lat="46.58603" lon="6.10188">
        <ele>1108.6</ele>
        <time>2021-10-26T08:04:25Z</time>
      </trkpt>
      <trkpt lat="46.58599" lon="6.10193">
        <ele>1108.4</ele>
        <time>2021-10-26T08:04:30Z</time>
      </trkpt>
      <trkpt lat="46.58596" lon="6.10197">
        <ele>1108.5</ele>
        <time>2021-10-26T08:04:34Z</time>
      </trkpt>
      <trkpt lat="46.58592" lon="6.10203">
        <ele>1108.7</ele>
        <time>2021-10-26T08:04:39Z</time>
      </trkpt>
      <trkpt lat="46.58589" lon="6.10209">
        <ele>1109.3</ele>
        <time>2021-10-26T08:04:44Z</time>
      </trkpt>
      <trkpt lat="46.58586" lon="6.10214">
        <ele>1110.1</ele>
        <time>2021-10-26T08:04:49Z</time>
      </trkpt>
      <trkpt lat="46.58584" lon="6.1022">
        <ele>1110.7</ele>
        <time>2021-10-26T08:04:53Z</time>
      </trkpt>
      <trkpt lat="46.58581" lon="6.10227">
        <ele>1111.6</ele>
        <time>2021-10-26T08:04:57Z</time>
      </trkpt>
      <trkpt lat="46.58579" lon="6.10233">
        <ele>1113</ele>
        <time>2021-10-26T08:05:01Z</time>
      </trkpt>
      <trkpt lat="46.58576" lon="6.10239">
        <ele>1114.2</ele>
        <time>2021-10-26T08:05:05Z</time>
      </trkpt>
      <trkpt lat="46.58573" lon="6.10245">
        <ele>1115.2</ele>
        <time>2021-10-26T08:05:09Z</time>
      </trkpt>
      <trkpt lat="46.58571" lon="6.10251">
        <ele>1116.2</ele>
        <time>2021-10-26T08:05:14Z</time>
      </trkpt>
      <trkpt lat="46.58568" lon="6.10257">
        <ele>1116.8</ele>
        <time>2021-10-26T08:05:19Z</time>
      </trkpt>
      <trkpt lat="46.58565" lon="6.10263">
        <ele>1117.5</ele>
        <time>2021-10-26T08:05:24Z</time>
      </trkpt>
      <trkpt lat="46.58562" lon="6.10269">
        <ele>1118.1</ele>
        <time>2021-10-26T08:05:29Z</time>
      </trkpt>
      <trkpt lat="46.58558" lon="6.10275">
        <ele>1118.9</ele>
        <time>2021-10-26T08:05:34Z</time>
      </trkpt>
      <trkpt lat="46.58555" lon="6.10281">
        <ele>1119.4</ele>
        <time>2021-10-26T08:05:39Z</time>
      </trkpt>
      <trkpt lat="46.5855" lon="6.10284">
        <ele>1118.4</ele>
        <time>2021-10-26T08:05:44Z</time>
      </trkpt>
      <trkpt lat="46.58546" lon="6.10288">
        <ele>1116.9</ele>
        <time>2021-10-26T08:05:48Z</time>
      </trkpt>
      <trkpt lat="46.58542" lon="6.10292">
        <ele>1114.7</ele>
        <time>2021-10-26T08:05:53Z</time>
      </trkpt>
      <trkpt lat="46.58537" lon="6.10295">
        <ele>1112.9</ele>
        <time>2021-10-26T08:05:57Z</time>
      </trkpt>
      <trkpt lat="46.58533" lon="6.103">
        <ele>1111.2</ele>
        <time>2021-10-26T08:06:02Z</time>
      </trkpt>
      <trkpt lat="46.5853" lon="6.10306">
        <ele>1110.5</ele>
        <time>2021-10-26T08:06:06Z</time>
      </trkpt>
      <trkpt lat="46.58526" lon="6.1031">
        <ele>1110.2</ele>
        <time>2021-10-26T08:06:10Z</time>
      </trkpt>
      <trkpt lat="46.58523" lon="6.10315">
        <ele>1110.4</ele>
        <time>2021-10-26T08:06:15Z</time>
      </trkpt>
      <trkpt lat="46.58522" lon="6.10323">
        <ele>1110.7</ele>
        <time>2021-10-26T08:06:20Z</time>
      </trkpt>
      <trkpt lat="46.58519" lon="6.10328">
        <ele>1111</ele>
        <time>2021-10-26T08:06:24Z</time>
      </trkpt>
      <trkpt lat="46.58516" lon="6.10334">
        <ele>1111.4</ele>
        <time>2021-10-26T08:06:28Z</time>
      </trkpt>
      <trkpt lat="46.58511" lon="6.10338">
        <ele>1112.5</ele>
        <time>2021-10-26T08:06:33Z</time>
      </trkpt>
      <trkpt lat="46.58508" lon="6.10342">
        <ele>1112.7</ele>
        <time>2021-10-26T08:06:37Z</time>
      </trkpt>
      <trkpt lat="46.58504" lon="6.10347">
        <ele>1113.4</ele>
        <time>2021-10-26T08:06:42Z</time>
      </trkpt>
      <trkpt lat="46.585" lon="6.10352">
        <ele>1114.5</ele>
        <time>2021-10-26T08:06:46Z</time>
      </trkpt>
      <trkpt lat="46.58497" lon="6.10358">
        <ele>1116.1</ele>
        <time>2021-10-26T08:06:50Z</time>
      </trkpt>
      <trkpt lat="46.58493" lon="6.10362">
        <ele>1117.7</ele>
        <time>2021-10-26T08:06:55Z</time>
      </trkpt>
      <trkpt lat="46.58489" lon="6.10364">
        <ele>1118.6</ele>
        <time>2021-10-26T08:07:01Z</time>
      </trkpt>
      <trkpt lat="46.58485" lon="6.10367">
        <ele>1118.8</ele>
        <time>2021-10-26T08:07:05Z</time>
      </trkpt>
      <trkpt lat="46.58481" lon="6.10371">
        <ele>1119.1</ele>
        <time>2021-10-26T08:07:09Z</time>
      </trkpt>
      <trkpt lat="46.58477" lon="6.10375">
        <ele>1119</ele>
        <time>2021-10-26T08:07:14Z</time>
      </trkpt>
      <trkpt lat="46.58473" lon="6.10379">
        <ele>1119.4</ele>
        <time>2021-10-26T08:07:26Z</time>
      </trkpt>
      <trkpt lat="46.58469" lon="6.10382">
        <ele>1120.2</ele>
        <time>2021-10-26T08:07:30Z</time>
      </trkpt>
      <trkpt lat="46.58465" lon="6.10385">
        <ele>1120.9</ele>
        <time>2021-10-26T08:07:33Z</time>
      </trkpt>
      <trkpt lat="46.5846" lon="6.10387">
        <ele>1121.7</ele>
        <time>2021-10-26T08:07:37Z</time>
      </trkpt>
      <trkpt lat="46.58455" lon="6.1039">
        <ele>1123.1</ele>
        <time>2021-10-26T08:07:43Z</time>
      </trkpt>
      <trkpt lat="46.58451" lon="6.10394">
        <ele>1124</ele>
        <time>2021-10-26T08:07:47Z</time>
      </trkpt>
      <trkpt lat="46.58448" lon="6.10399">
        <ele>1124.3</ele>
        <time>2021-10-26T08:07:50Z</time>
      </trkpt>
      <trkpt lat="46.58443" lon="6.10404">
        <ele>1124.4</ele>
        <time>2021-10-26T08:07:54Z</time>
      </trkpt>
      <trkpt lat="46.5844" lon="6.10409">
        <ele>1124.6</ele>
        <time>2021-10-26T08:07:58Z</time>
      </trkpt>
      <trkpt lat="46.58438" lon="6.10415">
        <ele>1124.7</ele>
        <time>2021-10-26T08:08:02Z</time>
      </trkpt>
      <trkpt lat="46.58434" lon="6.1042">
        <ele>1125.2</ele>
        <time>2021-10-26T08:08:07Z</time>
      </trkpt>
      <trkpt lat="46.5843" lon="6.10425">
        <ele>1125.4</ele>
        <time>2021-10-26T08:08:11Z</time>
      </trkpt>
      <trkpt lat="46.58427" lon="6.1043">
        <ele>1125.6</ele>
        <time>2021-10-26T08:08:16Z</time>
      </trkpt>
      <trkpt lat="46.58425" lon="6.10437">
        <ele>1125</ele>
        <time>2021-10-26T08:08:20Z</time>
      </trkpt>
      <trkpt lat="46.58423" lon="6.10444">
        <ele>1124.3</ele>
        <time>2021-10-26T08:08:25Z</time>
      </trkpt>
      <trkpt lat="46.58422" lon="6.10451">
        <ele>1123.7</ele>
        <time>2021-10-26T08:08:29Z</time>
      </trkpt>
      <trkpt lat="46.58421" lon="6.10459">
        <ele>1123.6</ele>
        <time>2021-10-26T08:08:34Z</time>
      </trkpt>
      <trkpt lat="46.58419" lon="6.10467">
        <ele>1123</ele>
        <time>2021-10-26T08:08:38Z</time>
      </trkpt>
      <trkpt lat="46.58419" lon="6.10473">
        <ele>1122.9</ele>
        <time>2021-10-26T08:08:41Z</time>
      </trkpt>
      <trkpt lat="46.58419" lon="6.10481">
        <ele>1123</ele>
        <time>2021-10-26T08:08:45Z</time>
      </trkpt>
      <trkpt lat="46.58418" lon="6.10488">
        <ele>1123</ele>
        <time>2021-10-26T08:08:50Z</time>
      </trkpt>
      <trkpt lat="46.58417" lon="6.10494">
        <ele>1122.7</ele>
        <time>2021-10-26T08:08:54Z</time>
      </trkpt>
      <trkpt lat="46.58416" lon="6.10502">
        <ele>1122.3</ele>
        <time>2021-10-26T08:08:59Z</time>
      </trkpt>
      <trkpt lat="46.58416" lon="6.1051">
        <ele>1121.8</ele>
        <time>2021-10-26T08:09:04Z</time>
      </trkpt>
      <trkpt lat="46.58415" lon="6.10517">
        <ele>1121.7</ele>
        <time>2021-10-26T08:09:08Z</time>
      </trkpt>
      <trkpt lat="46.58415" lon="6.10525">
        <ele>1121.7</ele>
        <time>2021-10-26T08:09:13Z</time>
      </trkpt>
      <trkpt lat="46.58414" lon="6.10532">
        <ele>1121.9</ele>
        <time>2021-10-26T08:09:17Z</time>
      </trkpt>
      <trkpt lat="46.58413" lon="6.10539">
        <ele>1122.5</ele>
        <time>2021-10-26T08:09:21Z</time>
      </trkpt>
      <trkpt lat="46.58412" lon="6.10546">
        <ele>1122.8</ele>
        <time>2021-10-26T08:09:25Z</time>
      </trkpt>
      <trkpt lat="46.58411" lon="6.10553">
        <ele>1123.5</ele>
        <time>2021-10-26T08:09:29Z</time>
      </trkpt>
      <trkpt lat="46.58411" lon="6.1056">
        <ele>1124.5</ele>
        <time>2021-10-26T08:09:33Z</time>
      </trkpt>
      <trkpt lat="46.5841" lon="6.10566">
        <ele>1125.4</ele>
        <time>2021-10-26T08:09:37Z</time>
      </trkpt>
      <trkpt lat="46.58408" lon="6.10572">
        <ele>1125.7</ele>
        <time>2021-10-26T08:09:41Z</time>
      </trkpt>
      <trkpt lat="46.58406" lon="6.10579">
        <ele>1125.5</ele>
        <time>2021-10-26T08:09:45Z</time>
      </trkpt>
      <trkpt lat="46.58404" lon="6.10585">
        <ele>1124.9</ele>
        <time>2021-10-26T08:09:49Z</time>
      </trkpt>
      <trkpt lat="46.58401" lon="6.10591">
        <ele>1124.3</ele>
        <time>2021-10-26T08:09:53Z</time>
      </trkpt>
      <trkpt lat="46.58399" lon="6.10598">
        <ele>1123.8</ele>
        <time>2021-10-26T08:09:58Z</time>
      </trkpt>
      <trkpt lat="46.58397" lon="6.10605">
        <ele>1123.4</ele>
        <time>2021-10-26T08:10:02Z</time>
      </trkpt>
      <trkpt lat="46.58395" lon="6.10612">
        <ele>1123.2</ele>
        <time>2021-10-26T08:10:06Z</time>
      </trkpt>
      <trkpt lat="46.58393" lon="6.10618">
        <ele>1123.2</ele>
        <time>2021-10-26T08:10:10Z</time>
      </trkpt>
      <trkpt lat="46.58391" lon="6.10626">
        <ele>1123.2</ele>
        <time>2021-10-26T08:10:15Z</time>
      </trkpt>
      <trkpt lat="46.5839" lon="6.10633">
        <ele>1123.4</ele>
        <time>2021-10-26T08:10:19Z</time>
      </trkpt>
      <trkpt lat="46.58388" lon="6.1064">
        <ele>1124</ele>
        <time>2021-10-26T08:10:24Z</time>
      </trkpt>
      <trkpt lat="46.58387" lon="6.10648">
        <ele>1124.5</ele>
        <time>2021-10-26T08:10:28Z</time>
      </trkpt>
      <trkpt lat="46.58384" lon="6.10654">
        <ele>1124.3</ele>
        <time>2021-10-26T08:10:32Z</time>
      </trkpt>
      <trkpt lat="46.5838" lon="6.10659">
        <ele>1123.4</ele>
        <time>2021-10-26T08:10:36Z</time>
      </trkpt>
      <trkpt lat="46.58375" lon="6.10662">
        <ele>1122.7</ele>
        <time>2021-10-26T08:10:40Z</time>
      </trkpt>
      <trkpt lat="46.58372" lon="6.10667">
        <ele>1122.1</ele>
        <time>2021-10-26T08:10:44Z</time>
      </trkpt>
      <trkpt lat="46.58369" lon="6.10673">
        <ele>1121.8</ele>
        <time>2021-10-26T08:10:50Z</time>
      </trkpt>
      <trkpt lat="46.58367" lon="6.10679">
        <ele>1122.3</ele>
        <time>2021-10-26T08:10:55Z</time>
      </trkpt>
      <trkpt lat="46.58363" lon="6.10684">
        <ele>1122.8</ele>
        <time>2021-10-26T08:10:59Z</time>
      </trkpt>
      <trkpt lat="46.58359" lon="6.10689">
        <ele>1123.1</ele>
        <time>2021-10-26T08:11:03Z</time>
      </trkpt>
      <trkpt lat="46.58355" lon="6.10695">
        <ele>1123.2</ele>
        <time>2021-10-26T08:11:07Z</time>
      </trkpt>
      <trkpt lat="46.58352" lon="6.107">
        <ele>1123.4</ele>
        <time>2021-10-26T08:11:11Z</time>
      </trkpt>
      <trkpt lat="46.58348" lon="6.10704">
        <ele>1123.5</ele>
        <time>2021-10-26T08:11:16Z</time>
      </trkpt>
      <trkpt lat="46.58344" lon="6.10708">
        <ele>1123.6</ele>
        <time>2021-10-26T08:11:22Z</time>
      </trkpt>
      <trkpt lat="46.58339" lon="6.10712">
        <ele>1123.6</ele>
        <time>2021-10-26T08:11:28Z</time>
      </trkpt>
      <trkpt lat="46.58335" lon="6.10715">
        <ele>1123.7</ele>
        <time>2021-10-26T08:11:33Z</time>
      </trkpt>
      <trkpt lat="46.5833" lon="6.10718">
        <ele>1123.6</ele>
        <time>2021-10-26T08:11:38Z</time>
      </trkpt>
      <trkpt lat="46.58325" lon="6.10722">
        <ele>1123.2</ele>
        <time>2021-10-26T08:11:43Z</time>
      </trkpt>
      <trkpt lat="46.58321" lon="6.10726">
        <ele>1122.5</ele>
        <time>2021-10-26T08:11:48Z</time>
      </trkpt>
      <trkpt lat="46.58316" lon="6.10728">
        <ele>1122</ele>
        <time>2021-10-26T08:11:53Z</time>
      </trkpt>
      <trkpt lat="46.58311" lon="6.10729">
        <ele>1121.3</ele>
        <time>2021-10-26T08:11:57Z</time>
      </trkpt>
      <trkpt lat="46.58306" lon="6.10732">
        <ele>1121</ele>
        <time>2021-10-26T08:12:00Z</time>
      </trkpt>
      <trkpt lat="46.58302" lon="6.10735">
        <ele>1120.8</ele>
        <time>2021-10-26T08:12:03Z</time>
      </trkpt>
      <trkpt lat="46.58297" lon="6.10738">
        <ele>1121</ele>
        <time>2021-10-26T08:12:07Z</time>
      </trkpt>
      <trkpt lat="46.58291" lon="6.10741">
        <ele>1121.1</ele>
        <time>2021-10-26T08:12:11Z</time>
      </trkpt>
      <trkpt lat="46.58287" lon="6.10743">
        <ele>1121.5</ele>
        <time>2021-10-26T08:12:15Z</time>
      </trkpt>
      <trkpt lat="46.58282" lon="6.10744">
        <ele>1122</ele>
        <time>2021-10-26T08:12:19Z</time>
      </trkpt>
      <trkpt lat="46.58276" lon="6.10743">
        <ele>1122.6</ele>
        <time>2021-10-26T08:12:23Z</time>
      </trkpt>
      <trkpt lat="46.5827" lon="6.10744">
        <ele>1123.1</ele>
        <time>2021-10-26T08:12:28Z</time>
      </trkpt>
      <trkpt lat="46.58266" lon="6.10746">
        <ele>1123.7</ele>
        <time>2021-10-26T08:12:33Z</time>
      </trkpt>
      <trkpt lat="46.58262" lon="6.10749">
        <ele>1123.9</ele>
        <time>2021-10-26T08:12:37Z</time>
      </trkpt>
      <trkpt lat="46.58257" lon="6.1075">
        <ele>1123.9</ele>
        <time>2021-10-26T08:12:41Z</time>
      </trkpt>
      <trkpt lat="46.58251" lon="6.10749">
        <ele>1123.9</ele>
        <time>2021-10-26T08:12:45Z</time>
      </trkpt>
      <trkpt lat="46.58246" lon="6.10749">
        <ele>1124.1</ele>
        <time>2021-10-26T08:12:49Z</time>
      </trkpt>
      <trkpt lat="46.58241" lon="6.10746">
        <ele>1124.5</ele>
        <time>2021-10-26T08:12:55Z</time>
      </trkpt>
      <trkpt lat="46.58236" lon="6.10746">
        <ele>1124.6</ele>
        <time>2021-10-26T08:12:59Z</time>
      </trkpt>
      <trkpt lat="46.58231" lon="6.10744">
        <ele>1124.9</ele>
        <time>2021-10-26T08:13:03Z</time>
      </trkpt>
      <trkpt lat="46.58227" lon="6.1074">
        <ele>1125.5</ele>
        <time>2021-10-26T08:13:07Z</time>
      </trkpt>
      <trkpt lat="46.58222" lon="6.10738">
        <ele>1125.8</ele>
        <time>2021-10-26T08:13:11Z</time>
      </trkpt>
      <trkpt lat="46.58218" lon="6.10736">
        <ele>1126</ele>
        <time>2021-10-26T08:13:15Z</time>
      </trkpt>
      <trkpt lat="46.58213" lon="6.10733">
        <ele>1126.2</ele>
        <time>2021-10-26T08:13:20Z</time>
      </trkpt>
      <trkpt lat="46.58209" lon="6.10729">
        <ele>1126.5</ele>
        <time>2021-10-26T08:13:26Z</time>
      </trkpt>
      <trkpt lat="46.58206" lon="6.10724">
        <ele>1126.8</ele>
        <time>2021-10-26T08:13:31Z</time>
      </trkpt>
      <trkpt lat="46.582" lon="6.1072">
        <ele>1127</ele>
        <time>2021-10-26T08:13:35Z</time>
      </trkpt>
      <trkpt lat="46.58196" lon="6.10718">
        <ele>1127.1</ele>
        <time>2021-10-26T08:13:40Z</time>
      </trkpt>
      <trkpt lat="46.58192" lon="6.10713">
        <ele>1126.8</ele>
        <time>2021-10-26T08:13:47Z</time>
      </trkpt>
      <trkpt lat="46.58187" lon="6.10709">
        <ele>1126.8</ele>
        <time>2021-10-26T08:13:51Z</time>
      </trkpt>
      <trkpt lat="46.58183" lon="6.10707">
        <ele>1126.1</ele>
        <time>2021-10-26T08:13:57Z</time>
      </trkpt>
      <trkpt lat="46.58178" lon="6.10703">
        <ele>1125.2</ele>
        <time>2021-10-26T08:14:06Z</time>
      </trkpt>
      <trkpt lat="46.58173" lon="6.10701">
        <ele>1125.1</ele>
        <time>2021-10-26T08:14:12Z</time>
      </trkpt>
      <trkpt lat="46.58169" lon="6.10699">
        <ele>1125.3</ele>
        <time>2021-10-26T08:14:19Z</time>
      </trkpt>
      <trkpt lat="46.58166" lon="6.10694">
        <ele>1125.2</ele>
        <time>2021-10-26T08:14:25Z</time>
      </trkpt>
      <trkpt lat="46.58162" lon="6.10687">
        <ele>1124.9</ele>
        <time>2021-10-26T08:14:31Z</time>
      </trkpt>
      <trkpt lat="46.58158" lon="6.10683">
        <ele>1124.7</ele>
        <time>2021-10-26T08:14:36Z</time>
      </trkpt>
      <trkpt lat="46.58155" lon="6.10677">
        <ele>1124.8</ele>
        <time>2021-10-26T08:14:41Z</time>
      </trkpt>
      <trkpt lat="46.58152" lon="6.10672">
        <ele>1124.9</ele>
        <time>2021-10-26T08:14:45Z</time>
      </trkpt>
      <trkpt lat="46.58147" lon="6.10669">
        <ele>1124.9</ele>
        <time>2021-10-26T08:14:49Z</time>
      </trkpt>
      <trkpt lat="46.58142" lon="6.10665">
        <ele>1124.8</ele>
        <time>2021-10-26T08:14:53Z</time>
      </trkpt>
      <trkpt lat="46.58138" lon="6.10661">
        <ele>1124.6</ele>
        <time>2021-10-26T08:14:57Z</time>
      </trkpt>
      <trkpt lat="46.58133" lon="6.10656">
        <ele>1124.6</ele>
        <time>2021-10-26T08:15:01Z</time>
      </trkpt>
      <trkpt lat="46.5813" lon="6.10651">
        <ele>1124.5</ele>
        <time>2021-10-26T08:15:06Z</time>
      </trkpt>
      <trkpt lat="46.58126" lon="6.10648">
        <ele>1124.3</ele>
        <time>2021-10-26T08:15:10Z</time>
      </trkpt>
      <trkpt lat="46.58122" lon="6.10643">
        <ele>1123.9</ele>
        <time>2021-10-26T08:15:15Z</time>
      </trkpt>
      <trkpt lat="46.5812" lon="6.10637">
        <ele>1123</ele>
        <time>2021-10-26T08:15:19Z</time>
      </trkpt>
      <trkpt lat="46.58117" lon="6.10631">
        <ele>1122.2</ele>
        <time>2021-10-26T08:15:23Z</time>
      </trkpt>
      <trkpt lat="46.58113" lon="6.10626">
        <ele>1121</ele>
        <time>2021-10-26T08:15:28Z</time>
      </trkpt>
      <trkpt lat="46.58109" lon="6.10621">
        <ele>1120.3</ele>
        <time>2021-10-26T08:15:32Z</time>
      </trkpt>
      <trkpt lat="46.58105" lon="6.10617">
        <ele>1119.7</ele>
        <time>2021-10-26T08:15:36Z</time>
      </trkpt>
      <trkpt lat="46.58101" lon="6.10614">
        <ele>1119.3</ele>
        <time>2021-10-26T08:15:40Z</time>
      </trkpt>
      <trkpt lat="46.58097" lon="6.1061">
        <ele>1119.1</ele>
        <time>2021-10-26T08:15:45Z</time>
      </trkpt>
      <trkpt lat="46.58093" lon="6.10605">
        <ele>1119.5</ele>
        <time>2021-10-26T08:15:51Z</time>
      </trkpt>
      <trkpt lat="46.5809" lon="6.10598">
        <ele>1120.4</ele>
        <time>2021-10-26T08:15:58Z</time>
      </trkpt>
      <trkpt lat="46.58086" lon="6.10594">
        <ele>1120.5</ele>
        <time>2021-10-26T08:16:02Z</time>
      </trkpt>
      <trkpt lat="46.58082" lon="6.1059">
        <ele>1120.6</ele>
        <time>2021-10-26T08:16:06Z</time>
      </trkpt>
      <trkpt lat="46.58078" lon="6.10586">
        <ele>1120.8</ele>
        <time>2021-10-26T08:16:09Z</time>
      </trkpt>
      <trkpt lat="46.58073" lon="6.10582">
        <ele>1121.1</ele>
        <time>2021-10-26T08:16:13Z</time>
      </trkpt>
      <trkpt lat="46.58068" lon="6.10579">
        <ele>1121.6</ele>
        <time>2021-10-26T08:16:17Z</time>
      </trkpt>
      <trkpt lat="46.58063" lon="6.10576">
        <ele>1122.5</ele>
        <time>2021-10-26T08:16:22Z</time>
      </trkpt>
      <trkpt lat="46.58058" lon="6.10573">
        <ele>1123.9</ele>
        <time>2021-10-26T08:16:27Z</time>
      </trkpt>
      <trkpt lat="46.58054" lon="6.1057">
        <ele>1124.4</ele>
        <time>2021-10-26T08:16:31Z</time>
      </trkpt>
      <trkpt lat="46.5805" lon="6.10566">
        <ele>1125</ele>
        <time>2021-10-26T08:16:35Z</time>
      </trkpt>
      <trkpt lat="46.58045" lon="6.10562">
        <ele>1126.3</ele>
        <time>2021-10-26T08:16:41Z</time>
      </trkpt>
      <trkpt lat="46.58041" lon="6.10561">
        <ele>1127.7</ele>
        <time>2021-10-26T08:16:47Z</time>
      </trkpt>
      <trkpt lat="46.58037" lon="6.10558">
        <ele>1128.1</ele>
        <time>2021-10-26T08:16:51Z</time>
      </trkpt>
      <trkpt lat="46.58032" lon="6.10556">
        <ele>1128.1</ele>
        <time>2021-10-26T08:16:56Z</time>
      </trkpt>
      <trkpt lat="46.58027" lon="6.10556">
        <ele>1127.9</ele>
        <time>2021-10-26T08:17:00Z</time>
      </trkpt>
      <trkpt lat="46.58022" lon="6.10554">
        <ele>1127.6</ele>
        <time>2021-10-26T08:17:05Z</time>
      </trkpt>
      <trkpt lat="46.58018" lon="6.10551">
        <ele>1127.2</ele>
        <time>2021-10-26T08:17:09Z</time>
      </trkpt>
      <trkpt lat="46.58013" lon="6.10552">
        <ele>1126.3</ele>
        <time>2021-10-26T08:17:13Z</time>
      </trkpt>
      <trkpt lat="46.58008" lon="6.10552">
        <ele>1125.7</ele>
        <time>2021-10-26T08:17:17Z</time>
      </trkpt>
      <trkpt lat="46.58003" lon="6.1055">
        <ele>1125</ele>
        <time>2021-10-26T08:17:21Z</time>
      </trkpt>
      <trkpt lat="46.57998" lon="6.1055">
        <ele>1124.7</ele>
        <time>2021-10-26T08:17:25Z</time>
      </trkpt>
      <trkpt lat="46.57993" lon="6.10548">
        <ele>1125</ele>
        <time>2021-10-26T08:17:31Z</time>
      </trkpt>
      <trkpt lat="46.57988" lon="6.1055">
        <ele>1125.4</ele>
        <time>2021-10-26T08:17:35Z</time>
      </trkpt>
      <trkpt lat="46.57983" lon="6.10548">
        <ele>1126.3</ele>
        <time>2021-10-26T08:17:41Z</time>
      </trkpt>
      <trkpt lat="46.57978" lon="6.10546">
        <ele>1126.9</ele>
        <time>2021-10-26T08:17:45Z</time>
      </trkpt>
      <trkpt lat="46.57973" lon="6.10546">
        <ele>1127.4</ele>
        <time>2021-10-26T08:17:49Z</time>
      </trkpt>
      <trkpt lat="46.57968" lon="6.10547">
        <ele>1128</ele>
        <time>2021-10-26T08:17:53Z</time>
      </trkpt>
      <trkpt lat="46.57963" lon="6.10546">
        <ele>1129.2</ele>
        <time>2021-10-26T08:17:59Z</time>
      </trkpt>
      <trkpt lat="46.57958" lon="6.10545">
        <ele>1130.1</ele>
        <time>2021-10-26T08:18:04Z</time>
      </trkpt>
      <trkpt lat="46.57953" lon="6.10546">
        <ele>1130.5</ele>
        <time>2021-10-26T08:18:08Z</time>
      </trkpt>
      <trkpt lat="46.57948" lon="6.10548">
        <ele>1130.7</ele>
        <time>2021-10-26T08:18:12Z</time>
      </trkpt>
      <trkpt lat="46.57943" lon="6.10549">
        <ele>1131.3</ele>
        <time>2021-10-26T08:18:17Z</time>
      </trkpt>
      <trkpt lat="46.57938" lon="6.1055">
        <ele>1131.6</ele>
        <time>2021-10-26T08:18:22Z</time>
      </trkpt>
      <trkpt lat="46.57933" lon="6.10552">
        <ele>1131.9</ele>
        <time>2021-10-26T08:18:27Z</time>
      </trkpt>
      <trkpt lat="46.57928" lon="6.10554">
        <ele>1132.4</ele>
        <time>2021-10-26T08:18:31Z</time>
      </trkpt>
      <trkpt lat="46.57924" lon="6.10554">
        <ele>1132.7</ele>
        <time>2021-10-26T08:18:35Z</time>
      </trkpt>
      <trkpt lat="46.57919" lon="6.10552">
        <ele>1133.1</ele>
        <time>2021-10-26T08:18:41Z</time>
      </trkpt>
      <trkpt lat="46.57914" lon="6.10553">
        <ele>1133.7</ele>
        <time>2021-10-26T08:18:46Z</time>
      </trkpt>
      <trkpt lat="46.57909" lon="6.10553">
        <ele>1134.2</ele>
        <time>2021-10-26T08:18:51Z</time>
      </trkpt>
      <trkpt lat="46.57904" lon="6.10554">
        <ele>1134.4</ele>
        <time>2021-10-26T08:18:56Z</time>
      </trkpt>
      <trkpt lat="46.57899" lon="6.10557">
        <ele>1134.7</ele>
        <time>2021-10-26T08:19:02Z</time>
      </trkpt>
      <trkpt lat="46.57895" lon="6.1056">
        <ele>1134.9</ele>
        <time>2021-10-26T08:19:06Z</time>
      </trkpt>
      <trkpt lat="46.5789" lon="6.10561">
        <ele>1134.9</ele>
        <time>2021-10-26T08:19:11Z</time>
      </trkpt>
      <trkpt lat="46.57884" lon="6.10563">
        <ele>1134.9</ele>
        <time>2021-10-26T08:19:15Z</time>
      </trkpt>
      <trkpt lat="46.57879" lon="6.10566">
        <ele>1135.1</ele>
        <time>2021-10-26T08:19:19Z</time>
      </trkpt>
      <trkpt lat="46.57875" lon="6.1057">
        <ele>1135.1</ele>
        <time>2021-10-26T08:19:23Z</time>
      </trkpt>
      <trkpt lat="46.57872" lon="6.10575">
        <ele>1135.1</ele>
        <time>2021-10-26T08:19:28Z</time>
      </trkpt>
      <trkpt lat="46.57873" lon="6.10582">
        <ele>1134.6</ele>
        <time>2021-10-26T08:19:47Z</time>
      </trkpt>
      <trkpt lat="46.57875" lon="6.10588">
        <ele>1134</ele>
        <time>2021-10-26T08:19:52Z</time>
      </trkpt>
      <trkpt lat="46.57878" lon="6.10595">
        <ele>1133.7</ele>
        <time>2021-10-26T08:19:56Z</time>
      </trkpt>
      <trkpt lat="46.57881" lon="6.106">
        <ele>1133.3</ele>
        <time>2021-10-26T08:20:00Z</time>
      </trkpt>
      <trkpt lat="46.57885" lon="6.10605">
        <ele>1133.2</ele>
        <time>2021-10-26T08:20:05Z</time>
      </trkpt>
      <trkpt lat="46.57888" lon="6.1061">
        <ele>1133.7</ele>
        <time>2021-10-26T08:20:11Z</time>
      </trkpt>
      <trkpt lat="46.57892" lon="6.10614">
        <ele>1134.1</ele>
        <time>2021-10-26T08:20:16Z</time>
      </trkpt>
      <trkpt lat="46.57897" lon="6.10617">
        <ele>1134.9</ele>
        <time>2021-10-26T08:20:21Z</time>
      </trkpt>
      <trkpt lat="46.57901" lon="6.1062">
        <ele>1135.3</ele>
        <time>2021-10-26T08:20:27Z</time>
      </trkpt>
      <trkpt lat="46.57906" lon="6.10622">
        <ele>1136</ele>
        <time>2021-10-26T08:20:33Z</time>
      </trkpt>
      <trkpt lat="46.5791" lon="6.10624">
        <ele>1136.6</ele>
        <time>2021-10-26T08:20:39Z</time>
      </trkpt>
      <trkpt lat="46.57914" lon="6.10627">
        <ele>1136.8</ele>
        <time>2021-10-26T08:20:44Z</time>
      </trkpt>
      <trkpt lat="46.57919" lon="6.10627">
        <ele>1137.1</ele>
        <time>2021-10-26T08:20:49Z</time>
      </trkpt>
      <trkpt lat="46.57923" lon="6.10631">
        <ele>1138.2</ele>
        <time>2021-10-26T08:20:55Z</time>
      </trkpt>
      <trkpt lat="46.57927" lon="6.10636">
        <ele>1138.9</ele>
        <time>2021-10-26T08:21:01Z</time>
      </trkpt>
      <trkpt lat="46.57931" lon="6.10642">
        <ele>1139.5</ele>
        <time>2021-10-26T08:21:06Z</time>
      </trkpt>
      <trkpt lat="46.57933" lon="6.10648">
        <ele>1139.7</ele>
        <time>2021-10-26T08:21:14Z</time>
      </trkpt>
      <trkpt lat="46.57936" lon="6.10653">
        <ele>1139.7</ele>
        <time>2021-10-26T08:21:20Z</time>
      </trkpt>
      <trkpt lat="46.5794" lon="6.10659">
        <ele>1140.2</ele>
        <time>2021-10-26T08:21:26Z</time>
      </trkpt>
      <trkpt lat="46.57942" lon="6.10667">
        <ele>1140.9</ele>
        <time>2021-10-26T08:21:31Z</time>
      </trkpt>
      <trkpt lat="46.57945" lon="6.10672">
        <ele>1141.6</ele>
        <time>2021-10-26T08:21:35Z</time>
      </trkpt>
      <trkpt lat="46.57947" lon="6.10678">
        <ele>1141.8</ele>
        <time>2021-10-26T08:21:40Z</time>
      </trkpt>
      <trkpt lat="46.57951" lon="6.10683">
        <ele>1141.3</ele>
        <time>2021-10-26T08:21:47Z</time>
      </trkpt>
      <trkpt lat="46.57955" lon="6.10688">
        <ele>1141.4</ele>
        <time>2021-10-26T08:21:52Z</time>
      </trkpt>
      <trkpt lat="46.57958" lon="6.10694">
        <ele>1141.6</ele>
        <time>2021-10-26T08:21:58Z</time>
      </trkpt>
      <trkpt lat="46.5796" lon="6.10699">
        <ele>1142.1</ele>
        <time>2021-10-26T08:22:04Z</time>
      </trkpt>
      <trkpt lat="46.57965" lon="6.10702">
        <ele>1142.8</ele>
        <time>2021-10-26T08:22:08Z</time>
      </trkpt>
      <trkpt lat="46.57969" lon="6.10703">
        <ele>1143.9</ele>
        <time>2021-10-26T08:22:13Z</time>
      </trkpt>
      <trkpt lat="46.57974" lon="6.10705">
        <ele>1144.7</ele>
        <time>2021-10-26T08:22:19Z</time>
      </trkpt>
      <trkpt lat="46.57978" lon="6.1071">
        <ele>1145.2</ele>
        <time>2021-10-26T08:22:26Z</time>
      </trkpt>
      <trkpt lat="46.57982" lon="6.10712">
        <ele>1145.8</ele>
        <time>2021-10-26T08:22:32Z</time>
      </trkpt>
      <trkpt lat="46.57987" lon="6.10714">
        <ele>1146.2</ele>
        <time>2021-10-26T08:22:37Z</time>
      </trkpt>
      <trkpt lat="46.57991" lon="6.10717">
        <ele>1146.3</ele>
        <time>2021-10-26T08:22:41Z</time>
      </trkpt>
      <trkpt lat="46.57994" lon="6.10723">
        <ele>1145.9</ele>
        <time>2021-10-26T08:22:46Z</time>
      </trkpt>
      <trkpt lat="46.57997" lon="6.10728">
        <ele>1145.6</ele>
        <time>2021-10-26T08:22:50Z</time>
      </trkpt>
      <trkpt lat="46.58002" lon="6.10731">
        <ele>1145.4</ele>
        <time>2021-10-26T08:22:56Z</time>
      </trkpt>
      <trkpt lat="46.58006" lon="6.10736">
        <ele>1144.7</ele>
        <time>2021-10-26T08:23:04Z</time>
      </trkpt>
      <trkpt lat="46.58009" lon="6.10741">
        <ele>1144.4</ele>
        <time>2021-10-26T08:23:09Z</time>
      </trkpt>
      <trkpt lat="46.58012" lon="6.10748">
        <ele>1144.1</ele>
        <time>2021-10-26T08:23:14Z</time>
      </trkpt>
      <trkpt lat="46.58015" lon="6.10755">
        <ele>1143.8</ele>
        <time>2021-10-26T08:23:20Z</time>
      </trkpt>
      <trkpt lat="46.58017" lon="6.10761">
        <ele>1143.6</ele>
        <time>2021-10-26T08:23:25Z</time>
      </trkpt>
      <trkpt lat="46.58021" lon="6.10765">
        <ele>1143.5</ele>
        <time>2021-10-26T08:23:31Z</time>
      </trkpt>
      <trkpt lat="46.58025" lon="6.10767">
        <ele>1143.6</ele>
        <time>2021-10-26T08:23:38Z</time>
      </trkpt>
      <trkpt lat="46.58027" lon="6.10774">
        <ele>1144</ele>
        <time>2021-10-26T08:23:46Z</time>
      </trkpt>
      <trkpt lat="46.5803" lon="6.10779">
        <ele>1144.4</ele>
        <time>2021-10-26T08:23:49Z</time>
      </trkpt>
      <trkpt lat="46.58034" lon="6.10784">
        <ele>1145.3</ele>
        <time>2021-10-26T08:23:54Z</time>
      </trkpt>
      <trkpt lat="46.58037" lon="6.1079">
        <ele>1145.9</ele>
        <time>2021-10-26T08:23:58Z</time>
      </trkpt>
      <trkpt lat="46.58041" lon="6.10795">
        <ele>1145.9</ele>
        <time>2021-10-26T08:24:02Z</time>
      </trkpt>
      <trkpt lat="46.58044" lon="6.10801">
        <ele>1146.2</ele>
        <time>2021-10-26T08:24:07Z</time>
      </trkpt>
      <trkpt lat="46.58047" lon="6.10807">
        <ele>1146.5</ele>
        <time>2021-10-26T08:24:13Z</time>
      </trkpt>
      <trkpt lat="46.58051" lon="6.10811">
        <ele>1147.2</ele>
        <time>2021-10-26T08:24:20Z</time>
      </trkpt>
      <trkpt lat="46.58055" lon="6.10815">
        <ele>1148</ele>
        <time>2021-10-26T08:24:27Z</time>
      </trkpt>
      <trkpt lat="46.58059" lon="6.1082">
        <ele>1148.6</ele>
        <time>2021-10-26T08:24:34Z</time>
      </trkpt>
      <trkpt lat="46.58062" lon="6.10826">
        <ele>1149.6</ele>
        <time>2021-10-26T08:24:39Z</time>
      </trkpt>
      <trkpt lat="46.58065" lon="6.10832">
        <ele>1151.1</ele>
        <time>2021-10-26T08:24:44Z</time>
      </trkpt>
      <trkpt lat="46.58069" lon="6.10837">
        <ele>1152.2</ele>
        <time>2021-10-26T08:24:49Z</time>
      </trkpt>
      <trkpt lat="46.58072" lon="6.10841">
        <ele>1153.1</ele>
        <time>2021-10-26T08:24:54Z</time>
      </trkpt>
      <trkpt lat="46.58076" lon="6.10847">
        <ele>1154.3</ele>
        <time>2021-10-26T08:25:00Z</time>
      </trkpt>
      <trkpt lat="46.58078" lon="6.10853">
        <ele>1155.1</ele>
        <time>2021-10-26T08:25:05Z</time>
      </trkpt>
      <trkpt lat="46.5808" lon="6.1086">
        <ele>1155.9</ele>
        <time>2021-10-26T08:25:10Z</time>
      </trkpt>
      <trkpt lat="46.58083" lon="6.10865">
        <ele>1156.2</ele>
        <time>2021-10-26T08:25:15Z</time>
      </trkpt>
      <trkpt lat="46.58086" lon="6.1087">
        <ele>1156.9</ele>
        <time>2021-10-26T08:25:21Z</time>
      </trkpt>
      <trkpt lat="46.5809" lon="6.10875">
        <ele>1156.9</ele>
        <time>2021-10-26T08:25:28Z</time>
      </trkpt>
      <trkpt lat="46.58091" lon="6.10882">
        <ele>1157</ele>
        <time>2021-10-26T08:25:32Z</time>
      </trkpt>
      <trkpt lat="46.58093" lon="6.10888">
        <ele>1157</ele>
        <time>2021-10-26T08:25:37Z</time>
      </trkpt>
      <trkpt lat="46.58096" lon="6.10893">
        <ele>1156.9</ele>
        <time>2021-10-26T08:25:41Z</time>
      </trkpt>
      <trkpt lat="46.58099" lon="6.10901">
        <ele>1156.9</ele>
        <time>2021-10-26T08:25:45Z</time>
      </trkpt>
      <trkpt lat="46.58101" lon="6.10907">
        <ele>1157.2</ele>
        <time>2021-10-26T08:25:50Z</time>
      </trkpt>
      <trkpt lat="46.58102" lon="6.10915">
        <ele>1157.8</ele>
        <time>2021-10-26T08:25:55Z</time>
      </trkpt>
      <trkpt lat="46.58101" lon="6.10922">
        <ele>1157.7</ele>
        <time>2021-10-26T08:26:00Z</time>
      </trkpt>
      <trkpt lat="46.58101" lon="6.10929">
        <ele>1157.9</ele>
        <time>2021-10-26T08:26:08Z</time>
      </trkpt>
      <trkpt lat="46.58102" lon="6.10936">
        <ele>1158.4</ele>
        <time>2021-10-26T08:26:13Z</time>
      </trkpt>
      <trkpt lat="46.58101" lon="6.10943">
        <ele>1158.1</ele>
        <time>2021-10-26T08:26:21Z</time>
      </trkpt>
      <trkpt lat="46.58103" lon="6.1095">
        <ele>1157.7</ele>
        <time>2021-10-26T08:26:26Z</time>
      </trkpt>
      <trkpt lat="46.58102" lon="6.10957">
        <ele>1157.6</ele>
        <time>2021-10-26T08:26:33Z</time>
      </trkpt>
      <trkpt lat="46.58101" lon="6.10964">
        <ele>1157.6</ele>
        <time>2021-10-26T08:26:40Z</time>
      </trkpt>
      <trkpt lat="46.58101" lon="6.10971">
        <ele>1157.5</ele>
        <time>2021-10-26T08:26:47Z</time>
      </trkpt>
      <trkpt lat="46.581" lon="6.10979">
        <ele>1158.9</ele>
        <time>2021-10-26T08:26:55Z</time>
      </trkpt>
      <trkpt lat="46.58101" lon="6.10986">
        <ele>1159.1</ele>
        <time>2021-10-26T08:27:00Z</time>
      </trkpt>
      <trkpt lat="46.581" lon="6.10993">
        <ele>1158.7</ele>
        <time>2021-10-26T08:27:06Z</time>
      </trkpt>
      <trkpt lat="46.58101" lon="6.11001">
        <ele>1158.7</ele>
        <time>2021-10-26T08:27:17Z</time>
      </trkpt>
      <trkpt lat="46.581" lon="6.11008">
        <ele>1159.3</ele>
        <time>2021-10-26T08:27:21Z</time>
      </trkpt>
      <trkpt lat="46.58096" lon="6.11013">
        <ele>1160.2</ele>
        <time>2021-10-26T08:27:26Z</time>
      </trkpt>
      <trkpt lat="46.58092" lon="6.11016">
        <ele>1161.6</ele>
        <time>2021-10-26T08:27:32Z</time>
      </trkpt>
      <trkpt lat="46.58087" lon="6.11015">
        <ele>1162.9</ele>
        <time>2021-10-26T08:27:38Z</time>
      </trkpt>
      <trkpt lat="46.58082" lon="6.11017">
        <ele>1163.9</ele>
        <time>2021-10-26T08:27:43Z</time>
      </trkpt>
      <trkpt lat="46.58078" lon="6.11021">
        <ele>1164.8</ele>
        <time>2021-10-26T08:27:48Z</time>
      </trkpt>
      <trkpt lat="46.58075" lon="6.11027">
        <ele>1166</ele>
        <time>2021-10-26T08:27:55Z</time>
      </trkpt>
      <trkpt lat="46.58075" lon="6.11034">
        <ele>1167.5</ele>
        <time>2021-10-26T08:28:02Z</time>
      </trkpt>
      <trkpt lat="46.58074" lon="6.1104">
        <ele>1168.4</ele>
        <time>2021-10-26T08:28:07Z</time>
      </trkpt>
      <trkpt lat="46.58071" lon="6.11046">
        <ele>1170</ele>
        <time>2021-10-26T08:28:14Z</time>
      </trkpt>
      <trkpt lat="46.58069" lon="6.11053">
        <ele>1171.2</ele>
        <time>2021-10-26T08:28:26Z</time>
      </trkpt>
      <trkpt lat="46.58066" lon="6.11061">
        <ele>1171.4</ele>
        <time>2021-10-26T08:28:46Z</time>
      </trkpt>
      <trkpt lat="46.58064" lon="6.11052">
        <ele>1175.8</ele>
        <time>2021-10-26T08:29:14Z</time>
      </trkpt>
      <trkpt lat="46.58064" lon="6.11046">
        <ele>1178.5</ele>
        <time>2021-10-26T08:29:27Z</time>
      </trkpt>
      <trkpt lat="46.58062" lon="6.11039">
        <ele>1179.1</ele>
        <time>2021-10-26T08:29:32Z</time>
      </trkpt>
      <trkpt lat="46.58061" lon="6.11045">
        <ele>1178.7</ele>
        <time>2021-10-26T08:29:45Z</time>
      </trkpt>
      <trkpt lat="46.5806" lon="6.11052">
        <ele>1180.1</ele>
        <time>2021-10-26T08:30:08Z</time>
      </trkpt>
      <trkpt lat="46.5806" lon="6.11059">
        <ele>1182.9</ele>
        <time>2021-10-26T08:30:16Z</time>
      </trkpt>
      <trkpt lat="46.58064" lon="6.11054">
        <ele>1183.4</ele>
        <time>2021-10-26T08:30:31Z</time>
      </trkpt>
      <trkpt lat="46.58066" lon="6.11044">
        <ele>1182</ele>
        <time>2021-10-26T08:31:09Z</time>
      </trkpt>
      <trkpt lat="46.58065" lon="6.11038">
        <ele>1182.1</ele>
        <time>2021-10-26T08:31:13Z</time>
      </trkpt>
      <trkpt lat="46.5807" lon="6.11041">
        <ele>1183</ele>
        <time>2021-10-26T08:31:22Z</time>
      </trkpt>
      <trkpt lat="46.58069" lon="6.11048">
        <ele>1183.2</ele>
        <time>2021-10-26T08:31:28Z</time>
      </trkpt>
      <trkpt lat="46.58065" lon="6.11045">
        <ele>1182.7</ele>
        <time>2021-10-26T08:31:34Z</time>
      </trkpt>
      <trkpt lat="46.58065" lon="6.11051">
        <ele>1182.5</ele>
        <time>2021-10-26T08:32:59Z</time>
      </trkpt>
      <trkpt lat="46.5806" lon="6.11054">
        <ele>1184</ele>
        <time>2021-10-26T08:33:08Z</time>
      </trkpt>
      <trkpt lat="46.58058" lon="6.1106">
        <ele>1184.2</ele>
        <time>2021-10-26T08:33:17Z</time>
      </trkpt>
      <trkpt lat="46.58059" lon="6.11067">
        <ele>1184.8</ele>
        <time>2021-10-26T08:33:24Z</time>
      </trkpt>
      <trkpt lat="46.58058" lon="6.11073">
        <ele>1185.8</ele>
        <time>2021-10-26T08:33:31Z</time>
      </trkpt>
      <trkpt lat="46.58057" lon="6.1108">
        <ele>1187</ele>
        <time>2021-10-26T08:33:39Z</time>
      </trkpt>
      <trkpt lat="46.58055" lon="6.11087">
        <ele>1188.4</ele>
        <time>2021-10-26T08:33:52Z</time>
      </trkpt>
      <trkpt lat="46.58054" lon="6.11095">
        <ele>1189.4</ele>
        <time>2021-10-26T08:33:57Z</time>
      </trkpt>
      <trkpt lat="46.58057" lon="6.111">
        <ele>1189.7</ele>
        <time>2021-10-26T08:34:05Z</time>
      </trkpt>
      <trkpt lat="46.58061" lon="6.11103">
        <ele>1188.9</ele>
        <time>2021-10-26T08:34:12Z</time>
      </trkpt>
      <trkpt lat="46.58064" lon="6.11108">
        <ele>1188.6</ele>
        <time>2021-10-26T08:34:16Z</time>
      </trkpt>
      <trkpt lat="46.58066" lon="6.11115">
        <ele>1189.4</ele>
        <time>2021-10-26T08:34:25Z</time>
      </trkpt>
      <trkpt lat="46.5807" lon="6.11119">
        <ele>1190.6</ele>
        <time>2021-10-26T08:34:40Z</time>
      </trkpt>
      <trkpt lat="46.58074" lon="6.11123">
        <ele>1190.7</ele>
        <time>2021-10-26T08:34:45Z</time>
      </trkpt>
      <trkpt lat="46.58079" lon="6.11126">
        <ele>1191.3</ele>
        <time>2021-10-26T08:34:51Z</time>
      </trkpt>
      <trkpt lat="46.58079" lon="6.11132">
        <ele>1191.5</ele>
        <time>2021-10-26T08:35:00Z</time>
      </trkpt>
      <trkpt lat="46.58082" lon="6.11138">
        <ele>1190.3</ele>
        <time>2021-10-26T08:35:17Z</time>
      </trkpt>
      <trkpt lat="46.58086" lon="6.11141">
        <ele>1189.9</ele>
        <time>2021-10-26T08:35:24Z</time>
      </trkpt>
      <trkpt lat="46.58089" lon="6.11147">
        <ele>1188</ele>
        <time>2021-10-26T08:35:41Z</time>
      </trkpt>
      <trkpt lat="46.58092" lon="6.11152">
        <ele>1187.5</ele>
        <time>2021-10-26T08:35:47Z</time>
      </trkpt>
      <trkpt lat="46.58095" lon="6.11157">
        <ele>1187.6</ele>
        <time>2021-10-26T08:35:52Z</time>
      </trkpt>
      <trkpt lat="46.58099" lon="6.1116">
        <ele>1188.1</ele>
        <time>2021-10-26T08:35:56Z</time>
      </trkpt>
      <trkpt lat="46.58102" lon="6.11166">
        <ele>1189.3</ele>
        <time>2021-10-26T08:36:03Z</time>
      </trkpt>
      <trkpt lat="46.58106" lon="6.11167">
        <ele>1191.9</ele>
        <time>2021-10-26T08:36:19Z</time>
      </trkpt>
      <trkpt lat="46.5811" lon="6.11171">
        <ele>1194</ele>
        <time>2021-10-26T08:37:11Z</time>
      </trkpt>
      <trkpt lat="46.58115" lon="6.11169">
        <ele>1197.3</ele>
        <time>2021-10-26T08:37:18Z</time>
      </trkpt>
      <trkpt lat="46.58119" lon="6.11166">
        <ele>1201.4</ele>
        <time>2021-10-26T08:37:30Z</time>
      </trkpt>
      <trkpt lat="46.58122" lon="6.1117">
        <ele>1202.2</ele>
        <time>2021-10-26T08:38:09Z</time>
      </trkpt>
      <trkpt lat="46.58126" lon="6.11174">
        <ele>1201.1</ele>
        <time>2021-10-26T08:38:14Z</time>
      </trkpt>
      <trkpt lat="46.58129" lon="6.1118">
        <ele>1199.8</ele>
        <time>2021-10-26T08:38:20Z</time>
      </trkpt>
      <trkpt lat="46.58132" lon="6.11185">
        <ele>1198.8</ele>
        <time>2021-10-26T08:38:26Z</time>
      </trkpt>
      <trkpt lat="46.58136" lon="6.1119">
        <ele>1198</ele>
        <time>2021-10-26T08:38:32Z</time>
      </trkpt>
      <trkpt lat="46.58139" lon="6.11196">
        <ele>1197</ele>
        <time>2021-10-26T08:38:38Z</time>
      </trkpt>
      <trkpt lat="46.58142" lon="6.11202">
        <ele>1195.7</ele>
        <time>2021-10-26T08:38:43Z</time>
      </trkpt>
      <trkpt lat="46.58145" lon="6.11208">
        <ele>1194.5</ele>
        <time>2021-10-26T08:38:49Z</time>
      </trkpt>
      <trkpt lat="46.58149" lon="6.11213">
        <ele>1193.9</ele>
        <time>2021-10-26T08:38:53Z</time>
      </trkpt>
      <trkpt lat="46.58152" lon="6.11219">
        <ele>1193.1</ele>
        <time>2021-10-26T08:38:58Z</time>
      </trkpt>
      <trkpt lat="46.58153" lon="6.11226">
        <ele>1191.9</ele>
        <time>2021-10-26T08:39:05Z</time>
      </trkpt>
      <trkpt lat="46.58157" lon="6.1123">
        <ele>1191.4</ele>
        <time>2021-10-26T08:39:11Z</time>
      </trkpt>
      <trkpt lat="46.5816" lon="6.11236">
        <ele>1191.3</ele>
        <time>2021-10-26T08:39:17Z</time>
      </trkpt>
      <trkpt lat="46.58163" lon="6.1124">
        <ele>1191</ele>
        <time>2021-10-26T08:39:24Z</time>
      </trkpt>
      <trkpt lat="46.58166" lon="6.11246">
        <ele>1190.6</ele>
        <time>2021-10-26T08:39:32Z</time>
      </trkpt>
      <trkpt lat="46.5817" lon="6.1125">
        <ele>1189.8</ele>
        <time>2021-10-26T08:39:39Z</time>
      </trkpt>
      <trkpt lat="46.58174" lon="6.11253">
        <ele>1188</ele>
        <time>2021-10-26T08:39:46Z</time>
      </trkpt>
      <trkpt lat="46.58177" lon="6.11259">
        <ele>1186.9</ele>
        <time>2021-10-26T08:39:51Z</time>
      </trkpt>
      <trkpt lat="46.58181" lon="6.11264">
        <ele>1186.1</ele>
        <time>2021-10-26T08:39:55Z</time>
      </trkpt>
      <trkpt lat="46.58184" lon="6.1127">
        <ele>1185.3</ele>
        <time>2021-10-26T08:40:00Z</time>
      </trkpt>
      <trkpt lat="46.58188" lon="6.11276">
        <ele>1184.8</ele>
        <time>2021-10-26T08:40:04Z</time>
      </trkpt>
      <trkpt lat="46.5819" lon="6.11282">
        <ele>1184.6</ele>
        <time>2021-10-26T08:40:07Z</time>
      </trkpt>
      <trkpt lat="46.58193" lon="6.11288">
        <ele>1184.4</ele>
        <time>2021-10-26T08:40:11Z</time>
      </trkpt>
      <trkpt lat="46.58195" lon="6.11294">
        <ele>1184.1</ele>
        <time>2021-10-26T08:40:15Z</time>
      </trkpt>
      <trkpt lat="46.58197" lon="6.11301">
        <ele>1183.1</ele>
        <time>2021-10-26T08:40:21Z</time>
      </trkpt>
      <trkpt lat="46.58199" lon="6.11307">
        <ele>1182</ele>
        <time>2021-10-26T08:40:26Z</time>
      </trkpt>
      <trkpt lat="46.582" lon="6.11314">
        <ele>1181</ele>
        <time>2021-10-26T08:40:31Z</time>
      </trkpt>
      <trkpt lat="46.58202" lon="6.11321">
        <ele>1179.9</ele>
        <time>2021-10-26T08:40:37Z</time>
      </trkpt>
      <trkpt lat="46.58205" lon="6.11327">
        <ele>1178.7</ele>
        <time>2021-10-26T08:40:44Z</time>
      </trkpt>
      <trkpt lat="46.58208" lon="6.11332">
        <ele>1178.1</ele>
        <time>2021-10-26T08:40:50Z</time>
      </trkpt>
      <trkpt lat="46.58213" lon="6.11335">
        <ele>1177.6</ele>
        <time>2021-10-26T08:40:56Z</time>
      </trkpt>
      <trkpt lat="46.58217" lon="6.11339">
        <ele>1177.4</ele>
        <time>2021-10-26T08:41:03Z</time>
      </trkpt>
      <trkpt lat="46.5822" lon="6.11343">
        <ele>1177.2</ele>
        <time>2021-10-26T08:41:11Z</time>
      </trkpt>
      <trkpt lat="46.58224" lon="6.11348">
        <ele>1176.7</ele>
        <time>2021-10-26T08:41:21Z</time>
      </trkpt>
      <trkpt lat="46.58226" lon="6.11354">
        <ele>1174.9</ele>
        <time>2021-10-26T08:41:30Z</time>
      </trkpt>
      <trkpt lat="46.58228" lon="6.1136">
        <ele>1174</ele>
        <time>2021-10-26T08:41:37Z</time>
      </trkpt>
      <trkpt lat="46.58233" lon="6.11361">
        <ele>1173.2</ele>
        <time>2021-10-26T08:41:46Z</time>
      </trkpt>
      <trkpt lat="46.58237" lon="6.11362">
        <ele>1173.3</ele>
        <time>2021-10-26T08:41:51Z</time>
      </trkpt>
      <trkpt lat="46.58241" lon="6.11365">
        <ele>1172.9</ele>
        <time>2021-10-26T08:42:00Z</time>
      </trkpt>
      <trkpt lat="46.58243" lon="6.11373">
        <ele>1174.3</ele>
        <time>2021-10-26T08:42:12Z</time>
      </trkpt>
      <trkpt lat="46.58247" lon="6.11376">
        <ele>1175.4</ele>
        <time>2021-10-26T08:42:19Z</time>
      </trkpt>
      <trkpt lat="46.58252" lon="6.1138">
        <ele>1176.4</ele>
        <time>2021-10-26T08:42:28Z</time>
      </trkpt>
      <trkpt lat="46.58255" lon="6.11385">
        <ele>1176.5</ele>
        <time>2021-10-26T08:42:33Z</time>
      </trkpt>
      <trkpt lat="46.5826" lon="6.11386">
        <ele>1176.8</ele>
        <time>2021-10-26T08:42:38Z</time>
      </trkpt>
      <trkpt lat="46.58262" lon="6.11392">
        <ele>1176.8</ele>
        <time>2021-10-26T08:42:43Z</time>
      </trkpt>
      <trkpt lat="46.58266" lon="6.11397">
        <ele>1176.9</ele>
        <time>2021-10-26T08:42:49Z</time>
      </trkpt>
      <trkpt lat="46.58268" lon="6.11403">
        <ele>1176.6</ele>
        <time>2021-10-26T08:42:54Z</time>
      </trkpt>
      <trkpt lat="46.58273" lon="6.11406">
        <ele>1176.4</ele>
        <time>2021-10-26T08:42:59Z</time>
      </trkpt>
      <trkpt lat="46.58277" lon="6.11409">
        <ele>1176.9</ele>
        <time>2021-10-26T08:43:02Z</time>
      </trkpt>
      <trkpt lat="46.58282" lon="6.11413">
        <ele>1178.4</ele>
        <time>2021-10-26T08:43:07Z</time>
      </trkpt>
      <trkpt lat="46.58285" lon="6.11419">
        <ele>1180.1</ele>
        <time>2021-10-26T08:43:11Z</time>
      </trkpt>
      <trkpt lat="46.58284" lon="6.11425">
        <ele>1181.8</ele>
        <time>2021-10-26T08:43:15Z</time>
      </trkpt>
      <trkpt lat="46.58284" lon="6.11432">
        <ele>1183.4</ele>
        <time>2021-10-26T08:43:23Z</time>
      </trkpt>
      <trkpt lat="46.5829" lon="6.11434">
        <ele>1184.1</ele>
        <time>2021-10-26T08:43:36Z</time>
      </trkpt>
      <trkpt lat="46.58298" lon="6.11434">
        <ele>1185.6</ele>
        <time>2021-10-26T08:43:58Z</time>
      </trkpt>
      <trkpt lat="46.58302" lon="6.11437">
        <ele>1186.6</ele>
        <time>2021-10-26T08:44:01Z</time>
      </trkpt>
      <trkpt lat="46.58306" lon="6.11443">
        <ele>1187.3</ele>
        <time>2021-10-26T08:44:06Z</time>
      </trkpt>
      <trkpt lat="46.58309" lon="6.11448">
        <ele>1187.2</ele>
        <time>2021-10-26T08:44:10Z</time>
      </trkpt>
      <trkpt lat="46.5831" lon="6.11455">
        <ele>1186.7</ele>
        <time>2021-10-26T08:44:15Z</time>
      </trkpt>
      <trkpt lat="46.58311" lon="6.11461">
        <ele>1185.3</ele>
        <time>2021-10-26T08:44:21Z</time>
      </trkpt>
      <trkpt lat="46.58314" lon="6.11467">
        <ele>1182.7</ele>
        <time>2021-10-26T08:44:28Z</time>
      </trkpt>
      <trkpt lat="46.58317" lon="6.11471">
        <ele>1180.2</ele>
        <time>2021-10-26T08:44:34Z</time>
      </trkpt>
      <trkpt lat="46.5832" lon="6.11476">
        <ele>1177.8</ele>
        <time>2021-10-26T08:44:39Z</time>
      </trkpt>
      <trkpt lat="46.58322" lon="6.11484">
        <ele>1176.1</ele>
        <time>2021-10-26T08:44:43Z</time>
      </trkpt>
      <trkpt lat="46.58325" lon="6.11489">
        <ele>1174.3</ele>
        <time>2021-10-26T08:44:50Z</time>
      </trkpt>
      <trkpt lat="46.58328" lon="6.11493">
        <ele>1173.4</ele>
        <time>2021-10-26T08:44:56Z</time>
      </trkpt>
      <trkpt lat="46.58331" lon="6.11499">
        <ele>1172.2</ele>
        <time>2021-10-26T08:45:02Z</time>
      </trkpt>
      <trkpt lat="46.58334" lon="6.11506">
        <ele>1170.8</ele>
        <time>2021-10-26T08:45:08Z</time>
      </trkpt>
      <trkpt lat="46.58338" lon="6.1151">
        <ele>1170.2</ele>
        <time>2021-10-26T08:45:12Z</time>
      </trkpt>
      <trkpt lat="46.58342" lon="6.11512">
        <ele>1168.3</ele>
        <time>2021-10-26T08:45:21Z</time>
      </trkpt>
      <trkpt lat="46.58347" lon="6.11514">
        <ele>1167.6</ele>
        <time>2021-10-26T08:45:27Z</time>
      </trkpt>
      <trkpt lat="46.58351" lon="6.11518">
        <ele>1167.4</ele>
        <time>2021-10-26T08:45:33Z</time>
      </trkpt>
      <trkpt lat="46.58354" lon="6.11524">
        <ele>1167.6</ele>
        <time>2021-10-26T08:45:42Z</time>
      </trkpt>
      <trkpt lat="46.58358" lon="6.11527">
        <ele>1168</ele>
        <time>2021-10-26T08:45:49Z</time>
      </trkpt>
      <trkpt lat="46.58362" lon="6.11532">
        <ele>1168.2</ele>
        <time>2021-10-26T08:45:55Z</time>
      </trkpt>
      <trkpt lat="46.58365" lon="6.11537">
        <ele>1168.9</ele>
        <time>2021-10-26T08:46:02Z</time>
      </trkpt>
      <trkpt lat="46.5837" lon="6.11539">
        <ele>1169.5</ele>
        <time>2021-10-26T08:46:15Z</time>
      </trkpt>
      <trkpt lat="46.58374" lon="6.11543">
        <ele>1169.6</ele>
        <time>2021-10-26T08:46:23Z</time>
      </trkpt>
      <trkpt lat="46.58378" lon="6.11548">
        <ele>1169.6</ele>
        <time>2021-10-26T08:46:30Z</time>
      </trkpt>
      <trkpt lat="46.58381" lon="6.11553">
        <ele>1169.3</ele>
        <time>2021-10-26T08:46:38Z</time>
      </trkpt>
      <trkpt lat="46.58385" lon="6.11557">
        <ele>1168.7</ele>
        <time>2021-10-26T08:46:50Z</time>
      </trkpt>
      <trkpt lat="46.5839" lon="6.11559">
        <ele>1168.3</ele>
        <time>2021-10-26T08:46:57Z</time>
      </trkpt>
      <trkpt lat="46.58395" lon="6.11561">
        <ele>1168.1</ele>
        <time>2021-10-26T08:47:02Z</time>
      </trkpt>
      <trkpt lat="46.58399" lon="6.11565">
        <ele>1166.1</ele>
        <time>2021-10-26T08:47:29Z</time>
      </trkpt>
      <trkpt lat="46.58402" lon="6.11569">
        <ele>1164.9</ele>
        <time>2021-10-26T08:47:41Z</time>
      </trkpt>
      <trkpt lat="46.58407" lon="6.11573">
        <ele>1165</ele>
        <time>2021-10-26T08:47:47Z</time>
      </trkpt>
      <trkpt lat="46.58411" lon="6.11579">
        <ele>1164.8</ele>
        <time>2021-10-26T08:47:53Z</time>
      </trkpt>
      <trkpt lat="46.58414" lon="6.11584">
        <ele>1164.4</ele>
        <time>2021-10-26T08:47:58Z</time>
      </trkpt>
      <trkpt lat="46.58418" lon="6.11588">
        <ele>1164.3</ele>
        <time>2021-10-26T08:48:03Z</time>
      </trkpt>
      <trkpt lat="46.58422" lon="6.11591">
        <ele>1164.5</ele>
        <time>2021-10-26T08:48:07Z</time>
      </trkpt>
      <trkpt lat="46.58426" lon="6.11595">
        <ele>1165</ele>
        <time>2021-10-26T08:48:12Z</time>
      </trkpt>
      <trkpt lat="46.58429" lon="6.116">
        <ele>1165.4</ele>
        <time>2021-10-26T08:48:19Z</time>
      </trkpt>
      <trkpt lat="46.58432" lon="6.11605">
        <ele>1165</ele>
        <time>2021-10-26T08:48:27Z</time>
      </trkpt>
      <trkpt lat="46.58437" lon="6.11603">
        <ele>1163.6</ele>
        <time>2021-10-26T08:48:38Z</time>
      </trkpt>
      <trkpt lat="46.58442" lon="6.11602">
        <ele>1163.5</ele>
        <time>2021-10-26T08:48:54Z</time>
      </trkpt>
      <trkpt lat="46.58439" lon="6.11608">
        <ele>1161</ele>
        <time>2021-10-26T08:49:18Z</time>
      </trkpt>
      <trkpt lat="46.5844" lon="6.11615">
        <ele>1159.9</ele>
        <time>2021-10-26T08:49:23Z</time>
      </trkpt>
      <trkpt lat="46.58443" lon="6.11621">
        <ele>1159.4</ele>
        <time>2021-10-26T08:49:27Z</time>
      </trkpt>
      <trkpt lat="46.58446" lon="6.11626">
        <ele>1159.1</ele>
        <time>2021-10-26T08:49:31Z</time>
      </trkpt>
      <trkpt lat="46.58451" lon="6.1163">
        <ele>1158.9</ele>
        <time>2021-10-26T08:49:35Z</time>
      </trkpt>
      <trkpt lat="46.58456" lon="6.11633">
        <ele>1158.7</ele>
        <time>2021-10-26T08:49:39Z</time>
      </trkpt>
      <trkpt lat="46.5846" lon="6.11637">
        <ele>1158.4</ele>
        <time>2021-10-26T08:49:44Z</time>
      </trkpt>
      <trkpt lat="46.58464" lon="6.11643">
        <ele>1158.1</ele>
        <time>2021-10-26T08:49:49Z</time>
      </trkpt>
      <trkpt lat="46.58468" lon="6.11646">
        <ele>1158</ele>
        <time>2021-10-26T08:49:54Z</time>
      </trkpt>
      <trkpt lat="46.58473" lon="6.11648">
        <ele>1158</ele>
        <time>2021-10-26T08:49:58Z</time>
      </trkpt>
      <trkpt lat="46.58477" lon="6.11652">
        <ele>1157.9</ele>
        <time>2021-10-26T08:50:02Z</time>
      </trkpt>
      <trkpt lat="46.5848" lon="6.11658">
        <ele>1158.2</ele>
        <time>2021-10-26T08:50:06Z</time>
      </trkpt>
      <trkpt lat="46.58483" lon="6.11665">
        <ele>1158.6</ele>
        <time>2021-10-26T08:50:11Z</time>
      </trkpt>
      <trkpt lat="46.58483" lon="6.11671">
        <ele>1158.5</ele>
        <time>2021-10-26T08:50:17Z</time>
      </trkpt>
      <trkpt lat="46.58486" lon="6.11677">
        <ele>1157.9</ele>
        <time>2021-10-26T08:50:24Z</time>
      </trkpt>
      <trkpt lat="46.58487" lon="6.11683">
        <ele>1157.4</ele>
        <time>2021-10-26T08:50:29Z</time>
      </trkpt>
      <trkpt lat="46.58491" lon="6.11688">
        <ele>1157.2</ele>
        <time>2021-10-26T08:50:35Z</time>
      </trkpt>
      <trkpt lat="46.5849" lon="6.11695">
        <ele>1157.1</ele>
        <time>2021-10-26T08:50:42Z</time>
      </trkpt>
      <trkpt lat="46.58494" lon="6.117">
        <ele>1156.9</ele>
        <time>2021-10-26T08:50:51Z</time>
      </trkpt>
      <trkpt lat="46.58499" lon="6.11702">
        <ele>1157.3</ele>
        <time>2021-10-26T08:50:59Z</time>
      </trkpt>
      <trkpt lat="46.58503" lon="6.11705">
        <ele>1157.7</ele>
        <time>2021-10-26T08:51:04Z</time>
      </trkpt>
      <trkpt lat="46.58508" lon="6.11709">
        <ele>1157.5</ele>
        <time>2021-10-26T08:51:09Z</time>
      </trkpt>
      <trkpt lat="46.58513" lon="6.11711">
        <ele>1157.1</ele>
        <time>2021-10-26T08:51:15Z</time>
      </trkpt>
      <trkpt lat="46.58518" lon="6.11714">
        <ele>1156.3</ele>
        <time>2021-10-26T08:51:19Z</time>
      </trkpt>
      <trkpt lat="46.58523" lon="6.11715">
        <ele>1155.7</ele>
        <time>2021-10-26T08:51:23Z</time>
      </trkpt>
      <trkpt lat="46.58527" lon="6.11718">
        <ele>1155.3</ele>
        <time>2021-10-26T08:51:28Z</time>
      </trkpt>
      <trkpt lat="46.58532" lon="6.1172">
        <ele>1155</ele>
        <time>2021-10-26T08:51:33Z</time>
      </trkpt>
      <trkpt lat="46.58536" lon="6.11723">
        <ele>1154.6</ele>
        <time>2021-10-26T08:51:39Z</time>
      </trkpt>
      <trkpt lat="46.58541" lon="6.11725">
        <ele>1154.1</ele>
        <time>2021-10-26T08:51:44Z</time>
      </trkpt>
      <trkpt lat="46.58546" lon="6.11727">
        <ele>1154</ele>
        <time>2021-10-26T08:51:49Z</time>
      </trkpt>
      <trkpt lat="46.5855" lon="6.11732">
        <ele>1154.4</ele>
        <time>2021-10-26T08:51:55Z</time>
      </trkpt>
      <trkpt lat="46.58556" lon="6.11732">
        <ele>1155.3</ele>
        <time>2021-10-26T08:52:00Z</time>
      </trkpt>
      <trkpt lat="46.5856" lon="6.11733">
        <ele>1156.5</ele>
        <time>2021-10-26T08:52:05Z</time>
      </trkpt>
      <trkpt lat="46.58566" lon="6.11733">
        <ele>1157.6</ele>
        <time>2021-10-26T08:52:10Z</time>
      </trkpt>
      <trkpt lat="46.5857" lon="6.11734">
        <ele>1158.3</ele>
        <time>2021-10-26T08:52:15Z</time>
      </trkpt>
      <trkpt lat="46.58575" lon="6.11737">
        <ele>1158.7</ele>
        <time>2021-10-26T08:52:20Z</time>
      </trkpt>
      <trkpt lat="46.5858" lon="6.1174">
        <ele>1159.2</ele>
        <time>2021-10-26T08:52:25Z</time>
      </trkpt>
      <trkpt lat="46.58582" lon="6.11747">
        <ele>1159.3</ele>
        <time>2021-10-26T08:52:31Z</time>
      </trkpt>
      <trkpt lat="46.58586" lon="6.11751">
        <ele>1159.3</ele>
        <time>2021-10-26T08:52:44Z</time>
      </trkpt>
      <trkpt lat="46.58591" lon="6.11753">
        <ele>1159.3</ele>
        <time>2021-10-26T08:52:49Z</time>
      </trkpt>
      <trkpt lat="46.58595" lon="6.11755">
        <ele>1159</ele>
        <time>2021-10-26T08:52:55Z</time>
      </trkpt>
      <trkpt lat="46.586" lon="6.11755">
        <ele>1159.3</ele>
        <time>2021-10-26T08:53:01Z</time>
      </trkpt>
      <trkpt lat="46.58604" lon="6.11757">
        <ele>1159.5</ele>
        <time>2021-10-26T08:53:13Z</time>
      </trkpt>
      <trkpt lat="46.58608" lon="6.11763">
        <ele>1158.6</ele>
        <time>2021-10-26T08:53:19Z</time>
      </trkpt>
      <trkpt lat="46.5861" lon="6.11769">
        <ele>1157.8</ele>
        <time>2021-10-26T08:53:23Z</time>
      </trkpt>
      <trkpt lat="46.58614" lon="6.11774">
        <ele>1157.1</ele>
        <time>2021-10-26T08:53:28Z</time>
      </trkpt>
      <trkpt lat="46.58619" lon="6.11777">
        <ele>1156.6</ele>
        <time>2021-10-26T08:53:33Z</time>
      </trkpt>
      <trkpt lat="46.58624" lon="6.11779">
        <ele>1155.6</ele>
        <time>2021-10-26T08:53:39Z</time>
      </trkpt>
      <trkpt lat="46.58628" lon="6.11782">
        <ele>1154.9</ele>
        <time>2021-10-26T08:53:44Z</time>
      </trkpt>
      <trkpt lat="46.58633" lon="6.11785">
        <ele>1154</ele>
        <time>2021-10-26T08:53:49Z</time>
      </trkpt>
      <trkpt lat="46.58637" lon="6.11789">
        <ele>1152.9</ele>
        <time>2021-10-26T08:53:54Z</time>
      </trkpt>
      <trkpt lat="46.58641" lon="6.11791">
        <ele>1152.1</ele>
        <time>2021-10-26T08:53:59Z</time>
      </trkpt>
      <trkpt lat="46.58646" lon="6.11793">
        <ele>1151.2</ele>
        <time>2021-10-26T08:54:05Z</time>
      </trkpt>
      <trkpt lat="46.58651" lon="6.11793">
        <ele>1150.3</ele>
        <time>2021-10-26T08:54:11Z</time>
      </trkpt>
      <trkpt lat="46.58656" lon="6.11797">
        <ele>1148.5</ele>
        <time>2021-10-26T08:54:35Z</time>
      </trkpt>
      <trkpt lat="46.58661" lon="6.11801">
        <ele>1148.3</ele>
        <time>2021-10-26T08:54:40Z</time>
      </trkpt>
      <trkpt lat="46.58665" lon="6.11803">
        <ele>1148.6</ele>
        <time>2021-10-26T08:54:48Z</time>
      </trkpt>
      <trkpt lat="46.58667" lon="6.1181">
        <ele>1148.9</ele>
        <time>2021-10-26T08:55:07Z</time>
      </trkpt>
      <trkpt lat="46.58672" lon="6.11808">
        <ele>1148.7</ele>
        <time>2021-10-26T08:55:11Z</time>
      </trkpt>
      <trkpt lat="46.58677" lon="6.11807">
        <ele>1148.3</ele>
        <time>2021-10-26T08:55:14Z</time>
      </trkpt>
      <trkpt lat="46.58683" lon="6.11805">
        <ele>1147.9</ele>
        <time>2021-10-26T08:55:18Z</time>
      </trkpt>
      <trkpt lat="46.58687" lon="6.11808">
        <ele>1148.1</ele>
        <time>2021-10-26T08:55:27Z</time>
      </trkpt>
      <trkpt lat="46.58691" lon="6.11809">
        <ele>1148.1</ele>
        <time>2021-10-26T08:55:44Z</time>
      </trkpt>
      <trkpt lat="46.58696" lon="6.11812">
        <ele>1147.4</ele>
        <time>2021-10-26T08:55:51Z</time>
      </trkpt>
      <trkpt lat="46.58701" lon="6.11812">
        <ele>1146.9</ele>
        <time>2021-10-26T08:55:55Z</time>
      </trkpt>
      <trkpt lat="46.58706" lon="6.11814">
        <ele>1145.5</ele>
        <time>2021-10-26T08:56:01Z</time>
      </trkpt>
      <trkpt lat="46.58711" lon="6.11813">
        <ele>1143.5</ele>
        <time>2021-10-26T08:56:07Z</time>
      </trkpt>
      <trkpt lat="46.58716" lon="6.11817">
        <ele>1139.7</ele>
        <time>2021-10-26T08:56:23Z</time>
      </trkpt>
      <trkpt lat="46.5872" lon="6.1182">
        <ele>1139.5</ele>
        <time>2021-10-26T08:56:28Z</time>
      </trkpt>
      <trkpt lat="46.58723" lon="6.11825">
        <ele>1139.8</ele>
        <time>2021-10-26T08:56:33Z</time>
      </trkpt>
      <trkpt lat="46.58726" lon="6.11831">
        <ele>1140.5</ele>
        <time>2021-10-26T08:56:40Z</time>
      </trkpt>
      <trkpt lat="46.58731" lon="6.11835">
        <ele>1140.6</ele>
        <time>2021-10-26T08:56:45Z</time>
      </trkpt>
      <trkpt lat="46.58736" lon="6.11836">
        <ele>1140.5</ele>
        <time>2021-10-26T08:56:49Z</time>
      </trkpt>
      <trkpt lat="46.5874" lon="6.11837">
        <ele>1140.4</ele>
        <time>2021-10-26T08:56:53Z</time>
      </trkpt>
      <trkpt lat="46.58745" lon="6.1184">
        <ele>1140.5</ele>
        <time>2021-10-26T08:56:57Z</time>
      </trkpt>
      <trkpt lat="46.5875" lon="6.11842">
        <ele>1140.9</ele>
        <time>2021-10-26T08:57:01Z</time>
      </trkpt>
      <trkpt lat="46.58754" lon="6.11845">
        <ele>1141.4</ele>
        <time>2021-10-26T08:57:06Z</time>
      </trkpt>
      <trkpt lat="46.58759" lon="6.11846">
        <ele>1141.5</ele>
        <time>2021-10-26T08:57:10Z</time>
      </trkpt>
      <trkpt lat="46.58764" lon="6.11848">
        <ele>1141.4</ele>
        <time>2021-10-26T08:57:14Z</time>
      </trkpt>
      <trkpt lat="46.58768" lon="6.11849">
        <ele>1141.1</ele>
        <time>2021-10-26T08:57:18Z</time>
      </trkpt>
      <trkpt lat="46.58773" lon="6.1185">
        <ele>1140.7</ele>
        <time>2021-10-26T08:57:24Z</time>
      </trkpt>
      <trkpt lat="46.58778" lon="6.11851">
        <ele>1140.7</ele>
        <time>2021-10-26T08:57:31Z</time>
      </trkpt>
      <trkpt lat="46.58783" lon="6.11851">
        <ele>1140.4</ele>
        <time>2021-10-26T08:57:35Z</time>
      </trkpt>
      <trkpt lat="46.58789" lon="6.1185">
        <ele>1140.1</ele>
        <time>2021-10-26T08:57:38Z</time>
      </trkpt>
      <trkpt lat="46.58794" lon="6.11848">
        <ele>1139.8</ele>
        <time>2021-10-26T08:57:42Z</time>
      </trkpt>
      <trkpt lat="46.58799" lon="6.11844">
        <ele>1139.8</ele>
        <time>2021-10-26T08:57:46Z</time>
      </trkpt>
      <trkpt lat="46.58803" lon="6.1184">
        <ele>1139.4</ele>
        <time>2021-10-26T08:57:52Z</time>
      </trkpt>
      <trkpt lat="46.58808" lon="6.11838">
        <ele>1138.6</ele>
        <time>2021-10-26T08:58:00Z</time>
      </trkpt>
      <trkpt lat="46.58812" lon="6.11837">
        <ele>1139.5</ele>
        <time>2021-10-26T08:58:08Z</time>
      </trkpt>
      <trkpt lat="46.58816" lon="6.11833">
        <ele>1140.3</ele>
        <time>2021-10-26T08:58:15Z</time>
      </trkpt>
      <trkpt lat="46.58822" lon="6.11832">
        <ele>1140.3</ele>
        <time>2021-10-26T08:58:21Z</time>
      </trkpt>
      <trkpt lat="46.58827" lon="6.1183">
        <ele>1140.6</ele>
        <time>2021-10-26T08:58:25Z</time>
      </trkpt>
      <trkpt lat="46.58832" lon="6.1183">
        <ele>1141.1</ele>
        <time>2021-10-26T08:58:30Z</time>
      </trkpt>
      <trkpt lat="46.58837" lon="6.11831">
        <ele>1141.5</ele>
        <time>2021-10-26T08:58:34Z</time>
      </trkpt>
      <trkpt lat="46.58842" lon="6.11832">
        <ele>1141.3</ele>
        <time>2021-10-26T08:58:39Z</time>
      </trkpt>
      <trkpt lat="46.58847" lon="6.11833">
        <ele>1141</ele>
        <time>2021-10-26T08:58:44Z</time>
      </trkpt>
      <trkpt lat="46.58852" lon="6.11834">
        <ele>1140.5</ele>
        <time>2021-10-26T08:58:50Z</time>
      </trkpt>
      <trkpt lat="46.58857" lon="6.11833">
        <ele>1139.8</ele>
        <time>2021-10-26T08:58:59Z</time>
      </trkpt>
      <trkpt lat="46.58861" lon="6.11829">
        <ele>1139.7</ele>
        <time>2021-10-26T08:59:16Z</time>
      </trkpt>
      <trkpt lat="46.58865" lon="6.11824">
        <ele>1139.3</ele>
        <time>2021-10-26T08:59:20Z</time>
      </trkpt>
      <trkpt lat="46.58869" lon="6.11819">
        <ele>1138.7</ele>
        <time>2021-10-26T08:59:24Z</time>
      </trkpt>
      <trkpt lat="46.58874" lon="6.11815">
        <ele>1138.2</ele>
        <time>2021-10-26T08:59:28Z</time>
      </trkpt>
      <trkpt lat="46.58879" lon="6.11811">
        <ele>1137.8</ele>
        <time>2021-10-26T08:59:32Z</time>
      </trkpt>
      <trkpt lat="46.58883" lon="6.11806">
        <ele>1137.4</ele>
        <time>2021-10-26T08:59:36Z</time>
      </trkpt>
      <trkpt lat="46.58886" lon="6.11801">
        <ele>1136.9</ele>
        <time>2021-10-26T08:59:40Z</time>
      </trkpt>
      <trkpt lat="46.5889" lon="6.11797">
        <ele>1136.7</ele>
        <time>2021-10-26T08:59:46Z</time>
      </trkpt>
      <trkpt lat="46.58895" lon="6.11793">
        <ele>1137.2</ele>
        <time>2021-10-26T08:59:52Z</time>
      </trkpt>
      <trkpt lat="46.589" lon="6.11793">
        <ele>1137.9</ele>
        <time>2021-10-26T08:59:57Z</time>
      </trkpt>
      <trkpt lat="46.58905" lon="6.11793">
        <ele>1139.1</ele>
        <time>2021-10-26T09:00:08Z</time>
      </trkpt>
      <trkpt lat="46.58909" lon="6.11797">
        <ele>1139.3</ele>
        <time>2021-10-26T09:00:14Z</time>
      </trkpt>
      <trkpt lat="46.58914" lon="6.11801">
        <ele>1138.9</ele>
        <time>2021-10-26T09:00:20Z</time>
      </trkpt>
      <trkpt lat="46.58919" lon="6.11802">
        <ele>1138.7</ele>
        <time>2021-10-26T09:00:24Z</time>
      </trkpt>
      <trkpt lat="46.58924" lon="6.11802">
        <ele>1138.3</ele>
        <time>2021-10-26T09:00:29Z</time>
      </trkpt>
      <trkpt lat="46.58929" lon="6.11804">
        <ele>1137.5</ele>
        <time>2021-10-26T09:00:34Z</time>
      </trkpt>
      <trkpt lat="46.58934" lon="6.11807">
        <ele>1135.9</ele>
        <time>2021-10-26T09:00:41Z</time>
      </trkpt>
      <trkpt lat="46.58938" lon="6.1181">
        <ele>1135</ele>
        <time>2021-10-26T09:00:48Z</time>
      </trkpt>
      <trkpt lat="46.58941" lon="6.11816">
        <ele>1134.3</ele>
        <time>2021-10-26T09:00:57Z</time>
      </trkpt>
      <trkpt lat="46.58944" lon="6.11822">
        <ele>1132.9</ele>
        <time>2021-10-26T09:01:06Z</time>
      </trkpt>
      <trkpt lat="46.58949" lon="6.11824">
        <ele>1131.9</ele>
        <time>2021-10-26T09:01:12Z</time>
      </trkpt>
      <trkpt lat="46.58954" lon="6.11823">
        <ele>1131</ele>
        <time>2021-10-26T09:01:18Z</time>
      </trkpt>
      <trkpt lat="46.58959" lon="6.11824">
        <ele>1129.9</ele>
        <time>2021-10-26T09:01:25Z</time>
      </trkpt>
      <trkpt lat="46.58963" lon="6.11827">
        <ele>1129.6</ele>
        <time>2021-10-26T09:01:31Z</time>
      </trkpt>
      <trkpt lat="46.58968" lon="6.1183">
        <ele>1129.2</ele>
        <time>2021-10-26T09:01:38Z</time>
      </trkpt>
      <trkpt lat="46.58972" lon="6.11833">
        <ele>1128.9</ele>
        <time>2021-10-26T09:01:43Z</time>
      </trkpt>
      <trkpt lat="46.58976" lon="6.11837">
        <ele>1128.6</ele>
        <time>2021-10-26T09:01:48Z</time>
      </trkpt>
      <trkpt lat="46.5898" lon="6.1184">
        <ele>1128.1</ele>
        <time>2021-10-26T09:01:54Z</time>
      </trkpt>
      <trkpt lat="46.58985" lon="6.11845">
        <ele>1127.9</ele>
        <time>2021-10-26T09:02:01Z</time>
      </trkpt>
      <trkpt lat="46.58988" lon="6.11849">
        <ele>1127.2</ele>
        <time>2021-10-26T09:02:07Z</time>
      </trkpt>
      <trkpt lat="46.58992" lon="6.11852">
        <ele>1126.5</ele>
        <time>2021-10-26T09:02:14Z</time>
      </trkpt>
      <trkpt lat="46.58997" lon="6.11855">
        <ele>1125.9</ele>
        <time>2021-10-26T09:02:20Z</time>
      </trkpt>
      <trkpt lat="46.59002" lon="6.11857">
        <ele>1125.3</ele>
        <time>2021-10-26T09:02:25Z</time>
      </trkpt>
      <trkpt lat="46.59008" lon="6.11858">
        <ele>1124.8</ele>
        <time>2021-10-26T09:02:30Z</time>
      </trkpt>
      <trkpt lat="46.59013" lon="6.11859">
        <ele>1124.1</ele>
        <time>2021-10-26T09:02:35Z</time>
      </trkpt>
      <trkpt lat="46.59018" lon="6.11861">
        <ele>1123.7</ele>
        <time>2021-10-26T09:02:40Z</time>
      </trkpt>
      <trkpt lat="46.59023" lon="6.11863">
        <ele>1123.2</ele>
        <time>2021-10-26T09:02:45Z</time>
      </trkpt>
      <trkpt lat="46.59027" lon="6.11866">
        <ele>1122.6</ele>
        <time>2021-10-26T09:02:50Z</time>
      </trkpt>
      <trkpt lat="46.59032" lon="6.11869">
        <ele>1122</ele>
        <time>2021-10-26T09:02:55Z</time>
      </trkpt>
      <trkpt lat="46.59038" lon="6.11871">
        <ele>1121.5</ele>
        <time>2021-10-26T09:03:00Z</time>
      </trkpt>
      <trkpt lat="46.59042" lon="6.11873">
        <ele>1121</ele>
        <time>2021-10-26T09:03:05Z</time>
      </trkpt>
      <trkpt lat="46.59046" lon="6.11877">
        <ele>1120.5</ele>
        <time>2021-10-26T09:03:10Z</time>
      </trkpt>
      <trkpt lat="46.59049" lon="6.11881">
        <ele>1120</ele>
        <time>2021-10-26T09:03:15Z</time>
      </trkpt>
      <trkpt lat="46.59054" lon="6.11884">
        <ele>1119.6</ele>
        <time>2021-10-26T09:03:20Z</time>
      </trkpt>
      <trkpt lat="46.59059" lon="6.11886">
        <ele>1119</ele>
        <time>2021-10-26T09:03:25Z</time>
      </trkpt>
      <trkpt lat="46.59062" lon="6.1189">
        <ele>1120.1</ele>
        <time>2021-10-26T09:03:40Z</time>
      </trkpt>
      <trkpt lat="46.59067" lon="6.11892">
        <ele>1121.1</ele>
        <time>2021-10-26T09:03:54Z</time>
      </trkpt>
      <trkpt lat="46.59071" lon="6.11896">
        <ele>1121.7</ele>
        <time>2021-10-26T09:04:04Z</time>
      </trkpt>
      <trkpt lat="46.59075" lon="6.119">
        <ele>1122.3</ele>
        <time>2021-10-26T09:04:10Z</time>
      </trkpt>
      <trkpt lat="46.59079" lon="6.11906">
        <ele>1122.3</ele>
        <time>2021-10-26T09:04:16Z</time>
      </trkpt>
      <trkpt lat="46.59082" lon="6.11911">
        <ele>1121.8</ele>
        <time>2021-10-26T09:04:21Z</time>
      </trkpt>
      <trkpt lat="46.59086" lon="6.11916">
        <ele>1121.1</ele>
        <time>2021-10-26T09:04:26Z</time>
      </trkpt>
      <trkpt lat="46.59089" lon="6.11921">
        <ele>1120</ele>
        <time>2021-10-26T09:04:33Z</time>
      </trkpt>
      <trkpt lat="46.59092" lon="6.11928">
        <ele>1118.8</ele>
        <time>2021-10-26T09:04:42Z</time>
      </trkpt>
      <trkpt lat="46.59096" lon="6.11933">
        <ele>1118.5</ele>
        <time>2021-10-26T09:04:47Z</time>
      </trkpt>
      <trkpt lat="46.591" lon="6.11937">
        <ele>1118.1</ele>
        <time>2021-10-26T09:04:51Z</time>
      </trkpt>
      <trkpt lat="46.59103" lon="6.11942">
        <ele>1117.6</ele>
        <time>2021-10-26T09:04:55Z</time>
      </trkpt>
      <trkpt lat="46.59108" lon="6.11946">
        <ele>1116.7</ele>
        <time>2021-10-26T09:05:00Z</time>
      </trkpt>
      <trkpt lat="46.59112" lon="6.1195">
        <ele>1115.2</ele>
        <time>2021-10-26T09:05:07Z</time>
      </trkpt>
      <trkpt lat="46.59117" lon="6.11953">
        <ele>1114.4</ele>
        <time>2021-10-26T09:05:14Z</time>
      </trkpt>
      <trkpt lat="46.59121" lon="6.11954">
        <ele>1114.1</ele>
        <time>2021-10-26T09:05:21Z</time>
      </trkpt>
      <trkpt lat="46.59126" lon="6.11954">
        <ele>1113.8</ele>
        <time>2021-10-26T09:05:28Z</time>
      </trkpt>
      <trkpt lat="46.5913" lon="6.11951">
        <ele>1113</ele>
        <time>2021-10-26T09:05:34Z</time>
      </trkpt>
      <trkpt lat="46.59135" lon="6.11947">
        <ele>1112.4</ele>
        <time>2021-10-26T09:05:39Z</time>
      </trkpt>
      <trkpt lat="46.59137" lon="6.11942">
        <ele>1111.7</ele>
        <time>2021-10-26T09:05:44Z</time>
      </trkpt>
      <trkpt lat="46.59141" lon="6.11937">
        <ele>1110.9</ele>
        <time>2021-10-26T09:05:50Z</time>
      </trkpt>
      <trkpt lat="46.59145" lon="6.11931">
        <ele>1109.5</ele>
        <time>2021-10-26T09:05:56Z</time>
      </trkpt>
      <trkpt lat="46.59149" lon="6.11926">
        <ele>1108.4</ele>
        <time>2021-10-26T09:06:01Z</time>
      </trkpt>
      <trkpt lat="46.59153" lon="6.11924">
        <ele>1107.1</ele>
        <time>2021-10-26T09:06:07Z</time>
      </trkpt>
      <trkpt lat="46.59157" lon="6.11921">
        <ele>1105.4</ele>
        <time>2021-10-26T09:06:14Z</time>
      </trkpt>
      <trkpt lat="46.59161" lon="6.11915">
        <ele>1104</ele>
        <time>2021-10-26T09:06:19Z</time>
      </trkpt>
      <trkpt lat="46.59164" lon="6.1191">
        <ele>1102.9</ele>
        <time>2021-10-26T09:06:24Z</time>
      </trkpt>
      <trkpt lat="46.59167" lon="6.11905">
        <ele>1102.2</ele>
        <time>2021-10-26T09:06:29Z</time>
      </trkpt>
      <trkpt lat="46.59172" lon="6.11899">
        <ele>1101.6</ele>
        <time>2021-10-26T09:06:35Z</time>
      </trkpt>
      <trkpt lat="46.59175" lon="6.11895">
        <ele>1101.4</ele>
        <time>2021-10-26T09:06:39Z</time>
      </trkpt>
      <trkpt lat="46.59179" lon="6.11889">
        <ele>1101</ele>
        <time>2021-10-26T09:06:44Z</time>
      </trkpt>
      <trkpt lat="46.59182" lon="6.11883">
        <ele>1100.4</ele>
        <time>2021-10-26T09:06:50Z</time>
      </trkpt>
      <trkpt lat="46.59184" lon="6.11876">
        <ele>1099.4</ele>
        <time>2021-10-26T09:06:56Z</time>
      </trkpt>
      <trkpt lat="46.59187" lon="6.11871">
        <ele>1098.6</ele>
        <time>2021-10-26T09:07:01Z</time>
      </trkpt>
      <trkpt lat="46.59191" lon="6.11866">
        <ele>1097.6</ele>
        <time>2021-10-26T09:07:06Z</time>
      </trkpt>
      <trkpt lat="46.59194" lon="6.1186">
        <ele>1096.2</ele>
        <time>2021-10-26T09:07:11Z</time>
      </trkpt>
      <trkpt lat="46.59194" lon="6.11853">
        <ele>1094.6</ele>
        <time>2021-10-26T09:07:16Z</time>
      </trkpt>
      <trkpt lat="46.59196" lon="6.11847">
        <ele>1093.4</ele>
        <time>2021-10-26T09:07:21Z</time>
      </trkpt>
      <trkpt lat="46.59199" lon="6.11841">
        <ele>1092.2</ele>
        <time>2021-10-26T09:07:26Z</time>
      </trkpt>
      <trkpt lat="46.59202" lon="6.11835">
        <ele>1090.5</ele>
        <time>2021-10-26T09:07:32Z</time>
      </trkpt>
      <trkpt lat="46.59203" lon="6.11829">
        <ele>1089.7</ele>
        <time>2021-10-26T09:07:36Z</time>
      </trkpt>
      <trkpt lat="46.59206" lon="6.11822">
        <ele>1089</ele>
        <time>2021-10-26T09:07:41Z</time>
      </trkpt>
      <trkpt lat="46.59208" lon="6.11816">
        <ele>1088.4</ele>
        <time>2021-10-26T09:07:46Z</time>
      </trkpt>
      <trkpt lat="46.5921" lon="6.1181">
        <ele>1088.2</ele>
        <time>2021-10-26T09:07:50Z</time>
      </trkpt>
      <trkpt lat="46.59212" lon="6.11803">
        <ele>1087.9</ele>
        <time>2021-10-26T09:07:54Z</time>
      </trkpt>
      <trkpt lat="46.59214" lon="6.11796">
        <ele>1087.8</ele>
        <time>2021-10-26T09:07:59Z</time>
      </trkpt>
      <trkpt lat="46.59215" lon="6.11788">
        <ele>1087.1</ele>
        <time>2021-10-26T09:08:05Z</time>
      </trkpt>
      <trkpt lat="46.59217" lon="6.11781">
        <ele>1086.2</ele>
        <time>2021-10-26T09:08:10Z</time>
      </trkpt>
      <trkpt lat="46.59219" lon="6.11775">
        <ele>1085.4</ele>
        <time>2021-10-26T09:08:15Z</time>
      </trkpt>
      <trkpt lat="46.59222" lon="6.11768">
        <ele>1084.6</ele>
        <time>2021-10-26T09:08:21Z</time>
      </trkpt>
      <trkpt lat="46.59224" lon="6.1176">
        <ele>1084.1</ele>
        <time>2021-10-26T09:08:27Z</time>
      </trkpt>
      <trkpt lat="46.59225" lon="6.11754">
        <ele>1083.9</ele>
        <time>2021-10-26T09:08:31Z</time>
      </trkpt>
      <trkpt lat="46.59228" lon="6.11747">
        <ele>1083.6</ele>
        <time>2021-10-26T09:08:35Z</time>
      </trkpt>
      <trkpt lat="46.5923" lon="6.1174">
        <ele>1083.4</ele>
        <time>2021-10-26T09:08:40Z</time>
      </trkpt>
      <trkpt lat="46.59232" lon="6.11734">
        <ele>1083.1</ele>
        <time>2021-10-26T09:08:46Z</time>
      </trkpt>
      <trkpt lat="46.59233" lon="6.11728">
        <ele>1083.2</ele>
        <time>2021-10-26T09:09:00Z</time>
      </trkpt>
      <trkpt lat="46.59236" lon="6.11722">
        <ele>1083.9</ele>
        <time>2021-10-26T09:09:07Z</time>
      </trkpt>
      <trkpt lat="46.59238" lon="6.11715">
        <ele>1084</ele>
        <time>2021-10-26T09:09:12Z</time>
      </trkpt>
      <trkpt lat="46.5924" lon="6.11708">
        <ele>1084</ele>
        <time>2021-10-26T09:09:16Z</time>
      </trkpt>
      <trkpt lat="46.59243" lon="6.11701">
        <ele>1084.1</ele>
        <time>2021-10-26T09:09:20Z</time>
      </trkpt>
      <trkpt lat="46.59245" lon="6.11695">
        <ele>1084.3</ele>
        <time>2021-10-26T09:09:24Z</time>
      </trkpt>
      <trkpt lat="46.59247" lon="6.11689">
        <ele>1084.2</ele>
        <time>2021-10-26T09:09:28Z</time>
      </trkpt>
      <trkpt lat="46.59249" lon="6.11682">
        <ele>1084.2</ele>
        <time>2021-10-26T09:09:32Z</time>
      </trkpt>
      <trkpt lat="46.59251" lon="6.11675">
        <ele>1084.2</ele>
        <time>2021-10-26T09:09:36Z</time>
      </trkpt>
      <trkpt lat="46.59253" lon="6.11668">
        <ele>1084</ele>
        <time>2021-10-26T09:09:41Z</time>
      </trkpt>
      <trkpt lat="46.59255" lon="6.11662">
        <ele>1083.5</ele>
        <time>2021-10-26T09:09:45Z</time>
      </trkpt>
      <trkpt lat="46.59258" lon="6.11656">
        <ele>1083</ele>
        <time>2021-10-26T09:09:49Z</time>
      </trkpt>
      <trkpt lat="46.59261" lon="6.1165">
        <ele>1082.5</ele>
        <time>2021-10-26T09:09:53Z</time>
      </trkpt>
      <trkpt lat="46.59264" lon="6.11644">
        <ele>1082.1</ele>
        <time>2021-10-26T09:09:57Z</time>
      </trkpt>
      <trkpt lat="46.59268" lon="6.11639">
        <ele>1081.4</ele>
        <time>2021-10-26T09:10:02Z</time>
      </trkpt>
      <trkpt lat="46.5927" lon="6.11634">
        <ele>1080.7</ele>
        <time>2021-10-26T09:10:06Z</time>
      </trkpt>
      <trkpt lat="46.59274" lon="6.11629">
        <ele>1080.2</ele>
        <time>2021-10-26T09:10:10Z</time>
      </trkpt>
      <trkpt lat="46.59278" lon="6.11625">
        <ele>1079.9</ele>
        <time>2021-10-26T09:10:14Z</time>
      </trkpt>
      <trkpt lat="46.59282" lon="6.1162">
        <ele>1079.5</ele>
        <time>2021-10-26T09:10:18Z</time>
      </trkpt>
      <trkpt lat="46.59286" lon="6.11615">
        <ele>1079.2</ele>
        <time>2021-10-26T09:10:22Z</time>
      </trkpt>
      <trkpt lat="46.5929" lon="6.1161">
        <ele>1078.9</ele>
        <time>2021-10-26T09:10:26Z</time>
      </trkpt>
      <trkpt lat="46.59294" lon="6.11604">
        <ele>1078.8</ele>
        <time>2021-10-26T09:10:30Z</time>
      </trkpt>
      <trkpt lat="46.59297" lon="6.11599">
        <ele>1078.9</ele>
        <time>2021-10-26T09:10:34Z</time>
      </trkpt>
      <trkpt lat="46.59301" lon="6.11595">
        <ele>1079.3</ele>
        <time>2021-10-26T09:10:38Z</time>
      </trkpt>
      <trkpt lat="46.59305" lon="6.1159">
        <ele>1079.5</ele>
        <time>2021-10-26T09:10:42Z</time>
      </trkpt>
      <trkpt lat="46.59309" lon="6.11585">
        <ele>1079.7</ele>
        <time>2021-10-26T09:10:46Z</time>
      </trkpt>
      <trkpt lat="46.59313" lon="6.11579">
        <ele>1079.8</ele>
        <time>2021-10-26T09:10:50Z</time>
      </trkpt>
      <trkpt lat="46.59317" lon="6.11575">
        <ele>1079.9</ele>
        <time>2021-10-26T09:10:54Z</time>
      </trkpt>
      <trkpt lat="46.59321" lon="6.11571">
        <ele>1080</ele>
        <time>2021-10-26T09:10:58Z</time>
      </trkpt>
      <trkpt lat="46.59324" lon="6.11567">
        <ele>1080.1</ele>
        <time>2021-10-26T09:11:02Z</time>
      </trkpt>
      <trkpt lat="46.59328" lon="6.11562">
        <ele>1080.4</ele>
        <time>2021-10-26T09:11:06Z</time>
      </trkpt>
      <trkpt lat="46.59331" lon="6.11556">
        <ele>1080.6</ele>
        <time>2021-10-26T09:11:10Z</time>
      </trkpt>
      <trkpt lat="46.59335" lon="6.11552">
        <ele>1080.8</ele>
        <time>2021-10-26T09:11:14Z</time>
      </trkpt>
      <trkpt lat="46.59339" lon="6.11546">
        <ele>1080.8</ele>
        <time>2021-10-26T09:11:19Z</time>
      </trkpt>
      <trkpt lat="46.59343" lon="6.11541">
        <ele>1080.4</ele>
        <time>2021-10-26T09:11:24Z</time>
      </trkpt>
      <trkpt lat="46.59347" lon="6.11536">
        <ele>1080.3</ele>
        <time>2021-10-26T09:11:28Z</time>
      </trkpt>
      <trkpt lat="46.5935" lon="6.1153">
        <ele>1080.1</ele>
        <time>2021-10-26T09:11:32Z</time>
      </trkpt>
      <trkpt lat="46.59353" lon="6.11524">
        <ele>1079.9</ele>
        <time>2021-10-26T09:11:36Z</time>
      </trkpt>
      <trkpt lat="46.59356" lon="6.11519">
        <ele>1079.7</ele>
        <time>2021-10-26T09:11:40Z</time>
      </trkpt>
      <trkpt lat="46.59359" lon="6.11513">
        <ele>1079.7</ele>
        <time>2021-10-26T09:11:44Z</time>
      </trkpt>
      <trkpt lat="46.59362" lon="6.11507">
        <ele>1079.9</ele>
        <time>2021-10-26T09:11:48Z</time>
      </trkpt>
      <trkpt lat="46.59365" lon="6.11501">
        <ele>1080</ele>
        <time>2021-10-26T09:11:52Z</time>
      </trkpt>
      <trkpt lat="46.59369" lon="6.11497">
        <ele>1080</ele>
        <time>2021-10-26T09:11:56Z</time>
      </trkpt>
      <trkpt lat="46.59374" lon="6.11493">
        <ele>1080.2</ele>
        <time>2021-10-26T09:12:01Z</time>
      </trkpt>
      <trkpt lat="46.59378" lon="6.1149">
        <ele>1080.3</ele>
        <time>2021-10-26T09:12:05Z</time>
      </trkpt>
      <trkpt lat="46.59383" lon="6.11488">
        <ele>1080.2</ele>
        <time>2021-10-26T09:12:09Z</time>
      </trkpt>
      <trkpt lat="46.59387" lon="6.11488">
        <ele>1079.8</ele>
        <time>2021-10-26T09:12:13Z</time>
      </trkpt>
      <trkpt lat="46.59393" lon="6.11486">
        <ele>1079.3</ele>
        <time>2021-10-26T09:12:18Z</time>
      </trkpt>
      <trkpt lat="46.59397" lon="6.11486">
        <ele>1078.8</ele>
        <time>2021-10-26T09:12:22Z</time>
      </trkpt>
      <trkpt lat="46.59402" lon="6.11486">
        <ele>1078.4</ele>
        <time>2021-10-26T09:12:26Z</time>
      </trkpt>
      <trkpt lat="46.59407" lon="6.11486">
        <ele>1078.1</ele>
        <time>2021-10-26T09:12:30Z</time>
      </trkpt>
      <trkpt lat="46.59411" lon="6.11485">
        <ele>1077.7</ele>
        <time>2021-10-26T09:12:34Z</time>
      </trkpt>
      <trkpt lat="46.59417" lon="6.11485">
        <ele>1077.4</ele>
        <time>2021-10-26T09:12:39Z</time>
      </trkpt>
      <trkpt lat="46.59422" lon="6.11486">
        <ele>1077</ele>
        <time>2021-10-26T09:12:43Z</time>
      </trkpt>
      <trkpt lat="46.59426" lon="6.11485">
        <ele>1076.4</ele>
        <time>2021-10-26T09:12:48Z</time>
      </trkpt>
      <trkpt lat="46.59433" lon="6.11486">
        <ele>1077.2</ele>
        <time>2021-10-26T09:14:05Z</time>
      </trkpt>
      <trkpt lat="46.59439" lon="6.11487">
        <ele>1078</ele>
        <time>2021-10-26T09:14:09Z</time>
      </trkpt>
      <trkpt lat="46.59444" lon="6.11488">
        <ele>1078.5</ele>
        <time>2021-10-26T09:14:13Z</time>
      </trkpt>
      <trkpt lat="46.59449" lon="6.11487">
        <ele>1078.8</ele>
        <time>2021-10-26T09:14:17Z</time>
      </trkpt>
      <trkpt lat="46.59454" lon="6.11485">
        <ele>1078.9</ele>
        <time>2021-10-26T09:14:21Z</time>
      </trkpt>
      <trkpt lat="46.59459" lon="6.11484">
        <ele>1079.1</ele>
        <time>2021-10-26T09:14:25Z</time>
      </trkpt>
      <trkpt lat="46.59464" lon="6.11484">
        <ele>1079</ele>
        <time>2021-10-26T09:14:29Z</time>
      </trkpt>
      <trkpt lat="46.5947" lon="6.11483">
        <ele>1079</ele>
        <time>2021-10-26T09:14:34Z</time>
      </trkpt>
      <trkpt lat="46.59475" lon="6.11483">
        <ele>1079.2</ele>
        <time>2021-10-26T09:14:38Z</time>
      </trkpt>
      <trkpt lat="46.5948" lon="6.11482">
        <ele>1079.2</ele>
        <time>2021-10-26T09:14:42Z</time>
      </trkpt>
      <trkpt lat="46.59485" lon="6.11481">
        <ele>1079.4</ele>
        <time>2021-10-26T09:14:46Z</time>
      </trkpt>
      <trkpt lat="46.5949" lon="6.11481">
        <ele>1079.7</ele>
        <time>2021-10-26T09:14:56Z</time>
      </trkpt>
      <trkpt lat="46.59493" lon="6.11485">
        <ele>1076.1</ele>
        <time>2021-10-26T09:16:11Z</time>
      </trkpt>
      <trkpt lat="46.59499" lon="6.11484">
        <ele>1076.3</ele>
        <time>2021-10-26T09:16:35Z</time>
      </trkpt>
      <trkpt lat="46.59503" lon="6.11483">
        <ele>1077.2</ele>
        <time>2021-10-26T09:16:40Z</time>
      </trkpt>
      <trkpt lat="46.59508" lon="6.11482">
        <ele>1078.2</ele>
        <time>2021-10-26T09:16:45Z</time>
      </trkpt>
      <trkpt lat="46.59513" lon="6.11482">
        <ele>1079.3</ele>
        <time>2021-10-26T09:16:50Z</time>
      </trkpt>
      <trkpt lat="46.59518" lon="6.11483">
        <ele>1080.2</ele>
        <time>2021-10-26T09:16:58Z</time>
      </trkpt>
      <trkpt lat="46.59523" lon="6.11482">
        <ele>1080.2</ele>
        <time>2021-10-26T09:17:03Z</time>
      </trkpt>
      <trkpt lat="46.59528" lon="6.11483">
        <ele>1080.2</ele>
        <time>2021-10-26T09:17:08Z</time>
      </trkpt>
      <trkpt lat="46.59533" lon="6.11484">
        <ele>1080.4</ele>
        <time>2021-10-26T09:17:12Z</time>
      </trkpt>
      <trkpt lat="46.59538" lon="6.11485">
        <ele>1080.7</ele>
        <time>2021-10-26T09:17:16Z</time>
      </trkpt>
      <trkpt lat="46.59544" lon="6.11486">
        <ele>1081.2</ele>
        <time>2021-10-26T09:17:20Z</time>
      </trkpt>
      <trkpt lat="46.59548" lon="6.11488">
        <ele>1081.6</ele>
        <time>2021-10-26T09:17:24Z</time>
      </trkpt>
      <trkpt lat="46.59553" lon="6.11489">
        <ele>1081.8</ele>
        <time>2021-10-26T09:17:28Z</time>
      </trkpt>
      <trkpt lat="46.59557" lon="6.11491">
        <ele>1081.9</ele>
        <time>2021-10-26T09:17:32Z</time>
      </trkpt>
      <trkpt lat="46.59561" lon="6.11494">
        <ele>1082.1</ele>
        <time>2021-10-26T09:17:37Z</time>
      </trkpt>
      <trkpt lat="46.59566" lon="6.11496">
        <ele>1082</ele>
        <time>2021-10-26T09:17:42Z</time>
      </trkpt>
      <trkpt lat="46.59571" lon="6.11497">
        <ele>1081</ele>
        <time>2021-10-26T09:17:47Z</time>
      </trkpt>
      <trkpt lat="46.59576" lon="6.11499">
        <ele>1079.9</ele>
        <time>2021-10-26T09:17:51Z</time>
      </trkpt>
      <trkpt lat="46.59581" lon="6.11498">
        <ele>1078.9</ele>
        <time>2021-10-26T09:17:55Z</time>
      </trkpt>
      <trkpt lat="46.59586" lon="6.11498">
        <ele>1077.6</ele>
        <time>2021-10-26T09:18:00Z</time>
      </trkpt>
      <trkpt lat="46.5959" lon="6.11497">
        <ele>1076.5</ele>
        <time>2021-10-26T09:18:05Z</time>
      </trkpt>
      <trkpt lat="46.59595" lon="6.11494">
        <ele>1075.9</ele>
        <time>2021-10-26T09:18:09Z</time>
      </trkpt>
      <trkpt lat="46.59599" lon="6.1149">
        <ele>1075.5</ele>
        <time>2021-10-26T09:18:13Z</time>
      </trkpt>
      <trkpt lat="46.59603" lon="6.11486">
        <ele>1075.1</ele>
        <time>2021-10-26T09:18:17Z</time>
      </trkpt>
      <trkpt lat="46.59607" lon="6.11481">
        <ele>1075.1</ele>
        <time>2021-10-26T09:18:21Z</time>
      </trkpt>
      <trkpt lat="46.5961" lon="6.11475">
        <ele>1075.3</ele>
        <time>2021-10-26T09:18:26Z</time>
      </trkpt>
      <trkpt lat="46.59613" lon="6.1147">
        <ele>1075.9</ele>
        <time>2021-10-26T09:18:32Z</time>
      </trkpt>
      <trkpt lat="46.59615" lon="6.11464">
        <ele>1076.5</ele>
        <time>2021-10-26T09:18:37Z</time>
      </trkpt>
      <trkpt lat="46.59619" lon="6.11458">
        <ele>1077.5</ele>
        <time>2021-10-26T09:18:42Z</time>
      </trkpt>
      <trkpt lat="46.59622" lon="6.11453">
        <ele>1078.6</ele>
        <time>2021-10-26T09:18:47Z</time>
      </trkpt>
      <trkpt lat="46.59625" lon="6.11447">
        <ele>1079.3</ele>
        <time>2021-10-26T09:18:51Z</time>
      </trkpt>
      <trkpt lat="46.59627" lon="6.11441">
        <ele>1079.9</ele>
        <time>2021-10-26T09:18:55Z</time>
      </trkpt>
      <trkpt lat="46.5963" lon="6.11435">
        <ele>1080.3</ele>
        <time>2021-10-26T09:19:01Z</time>
      </trkpt>
      <trkpt lat="46.59632" lon="6.11428">
        <ele>1080.3</ele>
        <time>2021-10-26T09:19:06Z</time>
      </trkpt>
      <trkpt lat="46.59635" lon="6.11422">
        <ele>1080.9</ele>
        <time>2021-10-26T09:19:10Z</time>
      </trkpt>
      <trkpt lat="46.59637" lon="6.11417">
        <ele>1082.2</ele>
        <time>2021-10-26T09:19:14Z</time>
      </trkpt>
      <trkpt lat="46.5964" lon="6.11411">
        <ele>1083.2</ele>
        <time>2021-10-26T09:19:19Z</time>
      </trkpt>
      <trkpt lat="46.59643" lon="6.11406">
        <ele>1084.3</ele>
        <time>2021-10-26T09:19:24Z</time>
      </trkpt>
      <trkpt lat="46.59647" lon="6.114">
        <ele>1085.2</ele>
        <time>2021-10-26T09:19:29Z</time>
      </trkpt>
      <trkpt lat="46.5965" lon="6.11394">
        <ele>1086.1</ele>
        <time>2021-10-26T09:19:34Z</time>
      </trkpt>
      <trkpt lat="46.59653" lon="6.11388">
        <ele>1086.7</ele>
        <time>2021-10-26T09:19:38Z</time>
      </trkpt>
      <trkpt lat="46.59655" lon="6.11381">
        <ele>1087.8</ele>
        <time>2021-10-26T09:19:43Z</time>
      </trkpt>
      <trkpt lat="46.59658" lon="6.11376">
        <ele>1088.9</ele>
        <time>2021-10-26T09:19:48Z</time>
      </trkpt>
      <trkpt lat="46.59661" lon="6.1137">
        <ele>1089.6</ele>
        <time>2021-10-26T09:19:53Z</time>
      </trkpt>
      <trkpt lat="46.59664" lon="6.11364">
        <ele>1090.2</ele>
        <time>2021-10-26T09:19:58Z</time>
      </trkpt>
      <trkpt lat="46.59667" lon="6.11359">
        <ele>1090.4</ele>
        <time>2021-10-26T09:20:03Z</time>
      </trkpt>
      <trkpt lat="46.5967" lon="6.11352">
        <ele>1090.5</ele>
        <time>2021-10-26T09:20:09Z</time>
      </trkpt>
      <trkpt lat="46.59673" lon="6.11346">
        <ele>1090.4</ele>
        <time>2021-10-26T09:20:15Z</time>
      </trkpt>
      <trkpt lat="46.59676" lon="6.1134">
        <ele>1090.1</ele>
        <time>2021-10-26T09:20:20Z</time>
      </trkpt>
      <trkpt lat="46.5968" lon="6.11334">
        <ele>1089.8</ele>
        <time>2021-10-26T09:20:25Z</time>
      </trkpt>
      <trkpt lat="46.59683" lon="6.11329">
        <ele>1089.4</ele>
        <time>2021-10-26T09:20:30Z</time>
      </trkpt>
      <trkpt lat="46.59686" lon="6.11324">
        <ele>1089.2</ele>
        <time>2021-10-26T09:20:35Z</time>
      </trkpt>
      <trkpt lat="46.59689" lon="6.11318">
        <ele>1089.2</ele>
        <time>2021-10-26T09:20:40Z</time>
      </trkpt>
      <trkpt lat="46.59693" lon="6.11315">
        <ele>1089.2</ele>
        <time>2021-10-26T09:20:45Z</time>
      </trkpt>
      <trkpt lat="46.59697" lon="6.11312">
        <ele>1089.7</ele>
        <time>2021-10-26T09:20:51Z</time>
      </trkpt>
      <trkpt lat="46.59702" lon="6.11313">
        <ele>1090.1</ele>
        <time>2021-10-26T09:20:57Z</time>
      </trkpt>
      <trkpt lat="46.59708" lon="6.11313">
        <ele>1090.1</ele>
        <time>2021-10-26T09:21:02Z</time>
      </trkpt>
      <trkpt lat="46.59712" lon="6.11315">
        <ele>1089.8</ele>
        <time>2021-10-26T09:21:07Z</time>
      </trkpt>
      <trkpt lat="46.59716" lon="6.11319">
        <ele>1089.2</ele>
        <time>2021-10-26T09:21:12Z</time>
      </trkpt>
      <trkpt lat="46.59721" lon="6.1132">
        <ele>1088.7</ele>
        <time>2021-10-26T09:21:17Z</time>
      </trkpt>
      <trkpt lat="46.59726" lon="6.1132">
        <ele>1088</ele>
        <time>2021-10-26T09:21:25Z</time>
      </trkpt>
      <trkpt lat="46.5973" lon="6.11324">
        <ele>1087.2</ele>
        <time>2021-10-26T09:21:44Z</time>
      </trkpt>
      <trkpt lat="46.59733" lon="6.1133">
        <ele>1086.2</ele>
        <time>2021-10-26T09:21:55Z</time>
      </trkpt>
      <trkpt lat="46.59736" lon="6.11335">
        <ele>1085.9</ele>
        <time>2021-10-26T09:22:01Z</time>
      </trkpt>
      <trkpt lat="46.59739" lon="6.11341">
        <ele>1085.6</ele>
        <time>2021-10-26T09:22:08Z</time>
      </trkpt>
      <trkpt lat="46.59743" lon="6.11346">
        <ele>1085.6</ele>
        <time>2021-10-26T09:22:14Z</time>
      </trkpt>
      <trkpt lat="46.59746" lon="6.11351">
        <ele>1085.6</ele>
        <time>2021-10-26T09:22:18Z</time>
      </trkpt>
      <trkpt lat="46.5975" lon="6.11356">
        <ele>1085.5</ele>
        <time>2021-10-26T09:22:22Z</time>
      </trkpt>
      <trkpt lat="46.59754" lon="6.11361">
        <ele>1085.4</ele>
        <time>2021-10-26T09:22:26Z</time>
      </trkpt>
      <trkpt lat="46.59756" lon="6.11367">
        <ele>1085.2</ele>
        <time>2021-10-26T09:22:30Z</time>
      </trkpt>
      <trkpt lat="46.59758" lon="6.11373">
        <ele>1084.7</ele>
        <time>2021-10-26T09:22:35Z</time>
      </trkpt>
      <trkpt lat="46.59761" lon="6.11378">
        <ele>1083.8</ele>
        <time>2021-10-26T09:22:41Z</time>
      </trkpt>
      <trkpt lat="46.59764" lon="6.11383">
        <ele>1083</ele>
        <time>2021-10-26T09:22:46Z</time>
      </trkpt>
      <trkpt lat="46.59768" lon="6.11388">
        <ele>1082.4</ele>
        <time>2021-10-26T09:22:51Z</time>
      </trkpt>
      <trkpt lat="46.59773" lon="6.11392">
        <ele>1082.1</ele>
        <time>2021-10-26T09:22:56Z</time>
      </trkpt>
      <trkpt lat="46.59776" lon="6.11396">
        <ele>1081.7</ele>
        <time>2021-10-26T09:23:01Z</time>
      </trkpt>
      <trkpt lat="46.5978" lon="6.11402">
        <ele>1081.4</ele>
        <time>2021-10-26T09:23:06Z</time>
      </trkpt>
      <trkpt lat="46.59782" lon="6.11408">
        <ele>1080.9</ele>
        <time>2021-10-26T09:23:10Z</time>
      </trkpt>
      <trkpt lat="46.59785" lon="6.11413">
        <ele>1080.2</ele>
        <time>2021-10-26T09:23:15Z</time>
      </trkpt>
      <trkpt lat="46.59788" lon="6.11419">
        <ele>1079.6</ele>
        <time>2021-10-26T09:23:21Z</time>
      </trkpt>
      <trkpt lat="46.59792" lon="6.11423">
        <ele>1078.9</ele>
        <time>2021-10-26T09:23:28Z</time>
      </trkpt>
      <trkpt lat="46.59797" lon="6.11426">
        <ele>1078.9</ele>
        <time>2021-10-26T09:23:34Z</time>
      </trkpt>
      <trkpt lat="46.59801" lon="6.11429">
        <ele>1079.2</ele>
        <time>2021-10-26T09:23:42Z</time>
      </trkpt>
      <trkpt lat="46.59803" lon="6.11421">
        <ele>1083.4</ele>
        <time>2021-10-26T09:24:38Z</time>
      </trkpt>
      <trkpt lat="46.59803" lon="6.11414">
        <ele>1088.4</ele>
        <time>2021-10-26T09:24:44Z</time>
      </trkpt>
      <trkpt lat="46.59801" lon="6.11421">
        <ele>1091.1</ele>
        <time>2021-10-26T09:25:28Z</time>
      </trkpt>
      <trkpt lat="46.59805" lon="6.11426">
        <ele>1087.4</ele>
        <time>2021-10-26T09:27:11Z</time>
      </trkpt>
      <trkpt lat="46.5981" lon="6.11426">
        <ele>1082.9</ele>
        <time>2021-10-26T09:29:10Z</time>
      </trkpt>
      <trkpt lat="46.59808" lon="6.11419">
        <ele>1083.6</ele>
        <time>2021-10-26T09:29:25Z</time>
      </trkpt>
      <trkpt lat="46.59806" lon="6.11426">
        <ele>1082.8</ele>
        <time>2021-10-26T09:29:37Z</time>
      </trkpt>
      <trkpt lat="46.59809" lon="6.11432">
        <ele>1082.5</ele>
        <time>2021-10-26T09:31:33Z</time>
      </trkpt>
      <trkpt lat="46.59813" lon="6.11435">
        <ele>1082.9</ele>
        <time>2021-10-26T09:31:40Z</time>
      </trkpt>
      <trkpt lat="46.5981" lon="6.1143">
        <ele>1083</ele>
        <time>2021-10-26T09:32:22Z</time>
      </trkpt>
      <trkpt lat="46.59805" lon="6.1143">
        <ele>1080.9</ele>
        <time>2021-10-26T09:32:46Z</time>
      </trkpt>
      <trkpt lat="46.59807" lon="6.11424">
        <ele>1081.5</ele>
        <time>2021-10-26T09:33:16Z</time>
      </trkpt>
      <trkpt lat="46.59812" lon="6.11424">
        <ele>1082.9</ele>
        <time>2021-10-26T09:33:27Z</time>
      </trkpt>
      <trkpt lat="46.59813" lon="6.11431">
        <ele>1084.6</ele>
        <time>2021-10-26T09:33:35Z</time>
      </trkpt>
      <trkpt lat="46.59808" lon="6.11431">
        <ele>1085.5</ele>
        <time>2021-10-26T09:35:56Z</time>
      </trkpt>
      <trkpt lat="46.59813" lon="6.11427">
        <ele>1082.9</ele>
        <time>2021-10-26T09:38:49Z</time>
      </trkpt>
      <trkpt lat="46.59812" lon="6.11433">
        <ele>1085.8</ele>
        <time>2021-10-26T09:46:22Z</time>
      </trkpt>
      <trkpt lat="46.59812" lon="6.11426">
        <ele>1084.7</ele>
        <time>2021-10-26T09:49:50Z</time>
      </trkpt>
      <trkpt lat="46.59807" lon="6.11424">
        <ele>1085.2</ele>
        <time>2021-10-26T10:01:39Z</time>
      </trkpt>
      <trkpt lat="46.59803" lon="6.11425">
        <ele>1087</ele>
        <time>2021-10-26T10:01:46Z</time>
      </trkpt>
      <trkpt lat="46.59807" lon="6.11429">
        <ele>1084.2</ele>
        <time>2021-10-26T10:02:18Z</time>
      </trkpt>
      <trkpt lat="46.59807" lon="6.11422">
        <ele>1077.5</ele>
        <time>2021-10-26T10:05:26Z</time>
      </trkpt>
      <trkpt lat="46.5981" lon="6.11416">
        <ele>1076.4</ele>
        <time>2021-10-26T10:05:32Z</time>
      </trkpt>
      <trkpt lat="46.59813" lon="6.11411">
        <ele>1076.5</ele>
        <time>2021-10-26T10:05:38Z</time>
      </trkpt>
      <trkpt lat="46.59817" lon="6.11406">
        <ele>1077.7</ele>
        <time>2021-10-26T10:05:45Z</time>
      </trkpt>
      <trkpt lat="46.5982" lon="6.114">
        <ele>1078.9</ele>
        <time>2021-10-26T10:05:51Z</time>
      </trkpt>
      <trkpt lat="46.59825" lon="6.11399">
        <ele>1079.6</ele>
        <time>2021-10-26T10:05:55Z</time>
      </trkpt>
      <trkpt lat="46.5983" lon="6.11401">
        <ele>1080</ele>
        <time>2021-10-26T10:05:59Z</time>
      </trkpt>
      <trkpt lat="46.59834" lon="6.11404">
        <ele>1080.1</ele>
        <time>2021-10-26T10:06:03Z</time>
      </trkpt>
      <trkpt lat="46.59839" lon="6.11405">
        <ele>1080.1</ele>
        <time>2021-10-26T10:06:07Z</time>
      </trkpt>
      <trkpt lat="46.59843" lon="6.11402">
        <ele>1079.8</ele>
        <time>2021-10-26T10:06:11Z</time>
      </trkpt>
      <trkpt lat="46.59848" lon="6.11401">
        <ele>1079.2</ele>
        <time>2021-10-26T10:06:16Z</time>
      </trkpt>
      <trkpt lat="46.59853" lon="6.114">
        <ele>1078.5</ele>
        <time>2021-10-26T10:06:21Z</time>
      </trkpt>
      <trkpt lat="46.59859" lon="6.11399">
        <ele>1077.8</ele>
        <time>2021-10-26T10:06:26Z</time>
      </trkpt>
      <trkpt lat="46.59863" lon="6.114">
        <ele>1077.4</ele>
        <time>2021-10-26T10:06:30Z</time>
      </trkpt>
      <trkpt lat="46.59868" lon="6.11401">
        <ele>1077</ele>
        <time>2021-10-26T10:06:34Z</time>
      </trkpt>
      <trkpt lat="46.59872" lon="6.11398">
        <ele>1076.4</ele>
        <time>2021-10-26T10:06:40Z</time>
      </trkpt>
      <trkpt lat="46.59878" lon="6.11397">
        <ele>1075.8</ele>
        <time>2021-10-26T10:06:46Z</time>
      </trkpt>
      <trkpt lat="46.59883" lon="6.11396">
        <ele>1075.1</ele>
        <time>2021-10-26T10:06:51Z</time>
      </trkpt>
      <trkpt lat="46.59888" lon="6.11394">
        <ele>1074.8</ele>
        <time>2021-10-26T10:06:56Z</time>
      </trkpt>
      <trkpt lat="46.59892" lon="6.11391">
        <ele>1074.5</ele>
        <time>2021-10-26T10:07:01Z</time>
      </trkpt>
      <trkpt lat="46.59896" lon="6.11386">
        <ele>1074.3</ele>
        <time>2021-10-26T10:07:07Z</time>
      </trkpt>
      <trkpt lat="46.599" lon="6.11382">
        <ele>1074.1</ele>
        <time>2021-10-26T10:07:11Z</time>
      </trkpt>
      <trkpt lat="46.59904" lon="6.11378">
        <ele>1073.7</ele>
        <time>2021-10-26T10:07:16Z</time>
      </trkpt>
      <trkpt lat="46.59908" lon="6.11374">
        <ele>1073.8</ele>
        <time>2021-10-26T10:07:21Z</time>
      </trkpt>
      <trkpt lat="46.59912" lon="6.1137">
        <ele>1074.3</ele>
        <time>2021-10-26T10:07:27Z</time>
      </trkpt>
      <trkpt lat="46.59916" lon="6.11366">
        <ele>1074.6</ele>
        <time>2021-10-26T10:07:31Z</time>
      </trkpt>
      <trkpt lat="46.5992" lon="6.11362">
        <ele>1075</ele>
        <time>2021-10-26T10:07:35Z</time>
      </trkpt>
      <trkpt lat="46.59924" lon="6.11357">
        <ele>1075.5</ele>
        <time>2021-10-26T10:07:40Z</time>
      </trkpt>
      <trkpt lat="46.59928" lon="6.11353">
        <ele>1076.4</ele>
        <time>2021-10-26T10:07:45Z</time>
      </trkpt>
      <trkpt lat="46.59931" lon="6.11347">
        <ele>1077.6</ele>
        <time>2021-10-26T10:07:50Z</time>
      </trkpt>
      <trkpt lat="46.59934" lon="6.11341">
        <ele>1079.2</ele>
        <time>2021-10-26T10:07:56Z</time>
      </trkpt>
      <trkpt lat="46.59937" lon="6.11335">
        <ele>1080.6</ele>
        <time>2021-10-26T10:08:01Z</time>
      </trkpt>
      <trkpt lat="46.5994" lon="6.1133">
        <ele>1081.5</ele>
        <time>2021-10-26T10:08:05Z</time>
      </trkpt>
      <trkpt lat="46.59943" lon="6.11325">
        <ele>1082.4</ele>
        <time>2021-10-26T10:08:09Z</time>
      </trkpt>
      <trkpt lat="46.59946" lon="6.11319">
        <ele>1084.2</ele>
        <time>2021-10-26T10:08:14Z</time>
      </trkpt>
      <trkpt lat="46.59948" lon="6.11312">
        <ele>1086.1</ele>
        <time>2021-10-26T10:08:19Z</time>
      </trkpt>
      <trkpt lat="46.5995" lon="6.11304">
        <ele>1087.3</ele>
        <time>2021-10-26T10:08:24Z</time>
      </trkpt>
      <trkpt lat="46.59952" lon="6.11298">
        <ele>1087.4</ele>
        <time>2021-10-26T10:08:29Z</time>
      </trkpt>
      <trkpt lat="46.59954" lon="6.11292">
        <ele>1087</ele>
        <time>2021-10-26T10:08:34Z</time>
      </trkpt>
      <trkpt lat="46.59955" lon="6.11285">
        <ele>1086.2</ele>
        <time>2021-10-26T10:08:39Z</time>
      </trkpt>
      <trkpt lat="46.59957" lon="6.11277">
        <ele>1085.4</ele>
        <time>2021-10-26T10:08:44Z</time>
      </trkpt>
      <trkpt lat="46.59959" lon="6.1127">
        <ele>1084.4</ele>
        <time>2021-10-26T10:08:49Z</time>
      </trkpt>
      <trkpt lat="46.5996" lon="6.11263">
        <ele>1083.8</ele>
        <time>2021-10-26T10:08:54Z</time>
      </trkpt>
      <trkpt lat="46.59962" lon="6.11257">
        <ele>1083.6</ele>
        <time>2021-10-26T10:08:59Z</time>
      </trkpt>
      <trkpt lat="46.59964" lon="6.11251">
        <ele>1083.4</ele>
        <time>2021-10-26T10:09:04Z</time>
      </trkpt>
      <trkpt lat="46.59965" lon="6.11244">
        <ele>1082.8</ele>
        <time>2021-10-26T10:09:09Z</time>
      </trkpt>
      <trkpt lat="46.59966" lon="6.11236">
        <ele>1081.6</ele>
        <time>2021-10-26T10:09:14Z</time>
      </trkpt>
      <trkpt lat="46.59967" lon="6.11229">
        <ele>1080.8</ele>
        <time>2021-10-26T10:09:18Z</time>
      </trkpt>
      <trkpt lat="46.59968" lon="6.11222">
        <ele>1079.9</ele>
        <time>2021-10-26T10:09:23Z</time>
      </trkpt>
      <trkpt lat="46.59969" lon="6.11214">
        <ele>1079</ele>
        <time>2021-10-26T10:09:29Z</time>
      </trkpt>
      <trkpt lat="46.59971" lon="6.11207">
        <ele>1078.8</ele>
        <time>2021-10-26T10:09:34Z</time>
      </trkpt>
      <trkpt lat="46.59973" lon="6.11201">
        <ele>1078.7</ele>
        <time>2021-10-26T10:09:39Z</time>
      </trkpt>
      <trkpt lat="46.59973" lon="6.11194">
        <ele>1078.9</ele>
        <time>2021-10-26T10:09:44Z</time>
      </trkpt>
      <trkpt lat="46.59973" lon="6.11188">
        <ele>1079</ele>
        <time>2021-10-26T10:09:49Z</time>
      </trkpt>
      <trkpt lat="46.59975" lon="6.11181">
        <ele>1078.9</ele>
        <time>2021-10-26T10:09:54Z</time>
      </trkpt>
      <trkpt lat="46.59976" lon="6.11174">
        <ele>1078.6</ele>
        <time>2021-10-26T10:09:59Z</time>
      </trkpt>
      <trkpt lat="46.59978" lon="6.11166">
        <ele>1078.1</ele>
        <time>2021-10-26T10:10:04Z</time>
      </trkpt>
      <trkpt lat="46.59979" lon="6.1116">
        <ele>1077.3</ele>
        <time>2021-10-26T10:10:09Z</time>
      </trkpt>
      <trkpt lat="46.59981" lon="6.11154">
        <ele>1077.1</ele>
        <time>2021-10-26T10:10:14Z</time>
      </trkpt>
      <trkpt lat="46.59984" lon="6.11146">
        <ele>1076.7</ele>
        <time>2021-10-26T10:10:19Z</time>
      </trkpt>
      <trkpt lat="46.59985" lon="6.11139">
        <ele>1076.7</ele>
        <time>2021-10-26T10:10:24Z</time>
      </trkpt>
      <trkpt lat="46.59987" lon="6.11132">
        <ele>1076.4</ele>
        <time>2021-10-26T10:10:28Z</time>
      </trkpt>
      <trkpt lat="46.59988" lon="6.11126">
        <ele>1076.4</ele>
        <time>2021-10-26T10:10:32Z</time>
      </trkpt>
      <trkpt lat="46.5999" lon="6.11119">
        <ele>1075.9</ele>
        <time>2021-10-26T10:10:37Z</time>
      </trkpt>
      <trkpt lat="46.59992" lon="6.11113">
        <ele>1075.2</ele>
        <time>2021-10-26T10:10:42Z</time>
      </trkpt>
      <trkpt lat="46.59994" lon="6.11106">
        <ele>1074.9</ele>
        <time>2021-10-26T10:10:47Z</time>
      </trkpt>
      <trkpt lat="46.59996" lon="6.111">
        <ele>1074.2</ele>
        <time>2021-10-26T10:10:51Z</time>
      </trkpt>
      <trkpt lat="46.59997" lon="6.11092">
        <ele>1074.2</ele>
        <time>2021-10-26T10:10:56Z</time>
      </trkpt>
      <trkpt lat="46.59998" lon="6.11084">
        <ele>1074</ele>
        <time>2021-10-26T10:11:01Z</time>
      </trkpt>
      <trkpt lat="46.6" lon="6.11078">
        <ele>1073.4</ele>
        <time>2021-10-26T10:11:05Z</time>
      </trkpt>
      <trkpt lat="46.60002" lon="6.11071">
        <ele>1072</ele>
        <time>2021-10-26T10:11:12Z</time>
      </trkpt>
      <trkpt lat="46.60004" lon="6.11064">
        <ele>1070</ele>
        <time>2021-10-26T10:11:18Z</time>
      </trkpt>
      <trkpt lat="46.60006" lon="6.11057">
        <ele>1068.8</ele>
        <time>2021-10-26T10:11:24Z</time>
      </trkpt>
      <trkpt lat="46.60009" lon="6.11052">
        <ele>1068.4</ele>
        <time>2021-10-26T10:11:30Z</time>
      </trkpt>
      <trkpt lat="46.6001" lon="6.11044">
        <ele>1068</ele>
        <time>2021-10-26T10:11:36Z</time>
      </trkpt>
      <trkpt lat="46.60012" lon="6.11038">
        <ele>1068.3</ele>
        <time>2021-10-26T10:11:41Z</time>
      </trkpt>
      <trkpt lat="46.60015" lon="6.11032">
        <ele>1069.3</ele>
        <time>2021-10-26T10:11:50Z</time>
      </trkpt>
      <trkpt lat="46.60015" lon="6.11025">
        <ele>1068.7</ele>
        <time>2021-10-26T10:11:57Z</time>
      </trkpt>
      <trkpt lat="46.60016" lon="6.11018">
        <ele>1068</ele>
        <time>2021-10-26T10:12:02Z</time>
      </trkpt>
      <trkpt lat="46.60018" lon="6.11011">
        <ele>1067</ele>
        <time>2021-10-26T10:12:07Z</time>
      </trkpt>
      <trkpt lat="46.60021" lon="6.11006">
        <ele>1066.3</ele>
        <time>2021-10-26T10:12:13Z</time>
      </trkpt>
      <trkpt lat="46.60022" lon="6.10999">
        <ele>1065.5</ele>
        <time>2021-10-26T10:12:20Z</time>
      </trkpt>
      <trkpt lat="46.60024" lon="6.10992">
        <ele>1064.6</ele>
        <time>2021-10-26T10:12:26Z</time>
      </trkpt>
      <trkpt lat="46.60026" lon="6.10986">
        <ele>1063.6</ele>
        <time>2021-10-26T10:12:32Z</time>
      </trkpt>
      <trkpt lat="46.60027" lon="6.10978">
        <ele>1063.1</ele>
        <time>2021-10-26T10:12:37Z</time>
      </trkpt>
      <trkpt lat="46.60029" lon="6.10971">
        <ele>1062.9</ele>
        <time>2021-10-26T10:12:41Z</time>
      </trkpt>
      <trkpt lat="46.60029" lon="6.10965">
        <ele>1062.9</ele>
        <time>2021-10-26T10:12:45Z</time>
      </trkpt>
      <trkpt lat="46.60031" lon="6.10958">
        <ele>1062.9</ele>
        <time>2021-10-26T10:12:49Z</time>
      </trkpt>
      <trkpt lat="46.60033" lon="6.10952">
        <ele>1063.1</ele>
        <time>2021-10-26T10:12:53Z</time>
      </trkpt>
      <trkpt lat="46.60035" lon="6.10945">
        <ele>1063.2</ele>
        <time>2021-10-26T10:12:57Z</time>
      </trkpt>
      <trkpt lat="46.60037" lon="6.10938">
        <ele>1063.6</ele>
        <time>2021-10-26T10:13:02Z</time>
      </trkpt>
      <trkpt lat="46.60039" lon="6.10931">
        <ele>1063.9</ele>
        <time>2021-10-26T10:13:06Z</time>
      </trkpt>
      <trkpt lat="46.60041" lon="6.10925">
        <ele>1064.2</ele>
        <time>2021-10-26T10:13:11Z</time>
      </trkpt>
      <trkpt lat="46.60044" lon="6.10918">
        <ele>1064.8</ele>
        <time>2021-10-26T10:13:16Z</time>
      </trkpt>
      <trkpt lat="46.60046" lon="6.10911">
        <ele>1065.4</ele>
        <time>2021-10-26T10:13:21Z</time>
      </trkpt>
      <trkpt lat="46.60049" lon="6.10905">
        <ele>1065.4</ele>
        <time>2021-10-26T10:13:25Z</time>
      </trkpt>
      <trkpt lat="46.60051" lon="6.10899">
        <ele>1065.4</ele>
        <time>2021-10-26T10:13:29Z</time>
      </trkpt>
      <trkpt lat="46.60054" lon="6.10892">
        <ele>1065</ele>
        <time>2021-10-26T10:13:34Z</time>
      </trkpt>
      <trkpt lat="46.60056" lon="6.10886">
        <ele>1064.4</ele>
        <time>2021-10-26T10:13:39Z</time>
      </trkpt>
      <trkpt lat="46.60059" lon="6.1088">
        <ele>1064.1</ele>
        <time>2021-10-26T10:13:44Z</time>
      </trkpt>
      <trkpt lat="46.60061" lon="6.10873">
        <ele>1063.7</ele>
        <time>2021-10-26T10:13:48Z</time>
      </trkpt>
      <trkpt lat="46.60063" lon="6.10865">
        <ele>1063.3</ele>
        <time>2021-10-26T10:13:53Z</time>
      </trkpt>
      <trkpt lat="46.60064" lon="6.10858">
        <ele>1063.1</ele>
        <time>2021-10-26T10:13:57Z</time>
      </trkpt>
      <trkpt lat="46.60065" lon="6.10852">
        <ele>1062.7</ele>
        <time>2021-10-26T10:14:02Z</time>
      </trkpt>
      <trkpt lat="46.60067" lon="6.10844">
        <ele>1062.6</ele>
        <time>2021-10-26T10:14:07Z</time>
      </trkpt>
      <trkpt lat="46.60069" lon="6.10838">
        <ele>1062.3</ele>
        <time>2021-10-26T10:14:11Z</time>
      </trkpt>
      <trkpt lat="46.6007" lon="6.10832">
        <ele>1062.2</ele>
        <time>2021-10-26T10:14:15Z</time>
      </trkpt>
      <trkpt lat="46.60071" lon="6.10825">
        <ele>1062.3</ele>
        <time>2021-10-26T10:14:19Z</time>
      </trkpt>
      <trkpt lat="46.60072" lon="6.10817">
        <ele>1062.5</ele>
        <time>2021-10-26T10:14:24Z</time>
      </trkpt>
      <trkpt lat="46.60072" lon="6.1081">
        <ele>1062.8</ele>
        <time>2021-10-26T10:14:28Z</time>
      </trkpt>
      <trkpt lat="46.60073" lon="6.10803">
        <ele>1063</ele>
        <time>2021-10-26T10:14:32Z</time>
      </trkpt>
      <trkpt lat="46.60073" lon="6.10796">
        <ele>1063.3</ele>
        <time>2021-10-26T10:14:36Z</time>
      </trkpt>
      <trkpt lat="46.60074" lon="6.10789">
        <ele>1063.3</ele>
        <time>2021-10-26T10:14:40Z</time>
      </trkpt>
      <trkpt lat="46.60074" lon="6.10782">
        <ele>1063.1</ele>
        <time>2021-10-26T10:14:44Z</time>
      </trkpt>
      <trkpt lat="46.60074" lon="6.10774">
        <ele>1063.4</ele>
        <time>2021-10-26T10:14:49Z</time>
      </trkpt>
      <trkpt lat="46.60075" lon="6.10767">
        <ele>1063.7</ele>
        <time>2021-10-26T10:14:54Z</time>
      </trkpt>
      <trkpt lat="46.60076" lon="6.10759">
        <ele>1063.6</ele>
        <time>2021-10-26T10:14:58Z</time>
      </trkpt>
      <trkpt lat="46.60076" lon="6.10752">
        <ele>1063.7</ele>
        <time>2021-10-26T10:15:02Z</time>
      </trkpt>
      <trkpt lat="46.60077" lon="6.10746">
        <ele>1063.6</ele>
        <time>2021-10-26T10:15:06Z</time>
      </trkpt>
      <trkpt lat="46.60077" lon="6.10738">
        <ele>1062.9</ele>
        <time>2021-10-26T10:15:10Z</time>
      </trkpt>
      <trkpt lat="46.60076" lon="6.10731">
        <ele>1062.2</ele>
        <time>2021-10-26T10:15:15Z</time>
      </trkpt>
      <trkpt lat="46.60076" lon="6.10723">
        <ele>1063</ele>
        <time>2021-10-26T10:15:21Z</time>
      </trkpt>
      <trkpt lat="46.60075" lon="6.10716">
        <ele>1063.5</ele>
        <time>2021-10-26T10:15:26Z</time>
      </trkpt>
      <trkpt lat="46.60072" lon="6.10709">
        <ele>1064.5</ele>
        <time>2021-10-26T10:15:31Z</time>
      </trkpt>
      <trkpt lat="46.6007" lon="6.10702">
        <ele>1064.9</ele>
        <time>2021-10-26T10:15:36Z</time>
      </trkpt>
      <trkpt lat="46.60069" lon="6.10696">
        <ele>1064.8</ele>
        <time>2021-10-26T10:15:41Z</time>
      </trkpt>
      <trkpt lat="46.60067" lon="6.10689">
        <ele>1064.8</ele>
        <time>2021-10-26T10:15:45Z</time>
      </trkpt>
      <trkpt lat="46.60066" lon="6.10683">
        <ele>1064.5</ele>
        <time>2021-10-26T10:15:49Z</time>
      </trkpt>
      <trkpt lat="46.60063" lon="6.10677">
        <ele>1064.3</ele>
        <time>2021-10-26T10:15:53Z</time>
      </trkpt>
      <trkpt lat="46.60061" lon="6.1067">
        <ele>1064.4</ele>
        <time>2021-10-26T10:15:58Z</time>
      </trkpt>
      <trkpt lat="46.60059" lon="6.10663">
        <ele>1064.2</ele>
        <time>2021-10-26T10:16:03Z</time>
      </trkpt>
      <trkpt lat="46.60057" lon="6.10656">
        <ele>1063.8</ele>
        <time>2021-10-26T10:16:08Z</time>
      </trkpt>
      <trkpt lat="46.60056" lon="6.10649">
        <ele>1063.7</ele>
        <time>2021-10-26T10:16:13Z</time>
      </trkpt>
      <trkpt lat="46.60055" lon="6.10642">
        <ele>1063.3</ele>
        <time>2021-10-26T10:16:17Z</time>
      </trkpt>
      <trkpt lat="46.60054" lon="6.10635">
        <ele>1062.8</ele>
        <time>2021-10-26T10:16:21Z</time>
      </trkpt>
      <trkpt lat="46.60054" lon="6.10627">
        <ele>1062</ele>
        <time>2021-10-26T10:16:26Z</time>
      </trkpt>
      <trkpt lat="46.60054" lon="6.1062">
        <ele>1061.6</ele>
        <time>2021-10-26T10:16:31Z</time>
      </trkpt>
      <trkpt lat="46.60052" lon="6.10613">
        <ele>1061.8</ele>
        <time>2021-10-26T10:16:36Z</time>
      </trkpt>
      <trkpt lat="46.60049" lon="6.10608">
        <ele>1062.5</ele>
        <time>2021-10-26T10:16:41Z</time>
      </trkpt>
      <trkpt lat="46.60046" lon="6.10601">
        <ele>1063.6</ele>
        <time>2021-10-26T10:16:46Z</time>
      </trkpt>
      <trkpt lat="46.60042" lon="6.10596">
        <ele>1065.1</ele>
        <time>2021-10-26T10:16:51Z</time>
      </trkpt>
      <trkpt lat="46.6004" lon="6.10589">
        <ele>1067</ele>
        <time>2021-10-26T10:16:56Z</time>
      </trkpt>
      <trkpt lat="46.60037" lon="6.10584">
        <ele>1069.1</ele>
        <time>2021-10-26T10:17:01Z</time>
      </trkpt>
      <trkpt lat="46.60034" lon="6.10577">
        <ele>1071.2</ele>
        <time>2021-10-26T10:17:06Z</time>
      </trkpt>
      <trkpt lat="46.60031" lon="6.10572">
        <ele>1073.6</ele>
        <time>2021-10-26T10:17:12Z</time>
      </trkpt>
      <trkpt lat="46.60028" lon="6.10566">
        <ele>1074.6</ele>
        <time>2021-10-26T10:17:18Z</time>
      </trkpt>
      <trkpt lat="46.60032" lon="6.1057">
        <ele>1074.4</ele>
        <time>2021-10-26T10:17:33Z</time>
      </trkpt>
      <trkpt lat="46.60036" lon="6.10573">
        <ele>1073.7</ele>
        <time>2021-10-26T10:17:40Z</time>
      </trkpt>
      <trkpt lat="46.60039" lon="6.10567">
        <ele>1073</ele>
        <time>2021-10-26T10:17:48Z</time>
      </trkpt>
      <trkpt lat="46.6004" lon="6.1056">
        <ele>1072.3</ele>
        <time>2021-10-26T10:17:53Z</time>
      </trkpt>
      <trkpt lat="46.6004" lon="6.10552">
        <ele>1071.9</ele>
        <time>2021-10-26T10:17:58Z</time>
      </trkpt>
      <trkpt lat="46.60041" lon="6.10546">
        <ele>1072.2</ele>
        <time>2021-10-26T10:18:02Z</time>
      </trkpt>
      <trkpt lat="46.60042" lon="6.10539">
        <ele>1072.3</ele>
        <time>2021-10-26T10:18:06Z</time>
      </trkpt>
      <trkpt lat="46.60045" lon="6.10533">
        <ele>1072.1</ele>
        <time>2021-10-26T10:18:10Z</time>
      </trkpt>
      <trkpt lat="46.60048" lon="6.10528">
        <ele>1071.9</ele>
        <time>2021-10-26T10:18:14Z</time>
      </trkpt>
      <trkpt lat="46.60052" lon="6.10524">
        <ele>1071</ele>
        <time>2021-10-26T10:18:19Z</time>
      </trkpt>
      <trkpt lat="46.60056" lon="6.10521">
        <ele>1071.1</ele>
        <time>2021-10-26T10:18:36Z</time>
      </trkpt>
      <trkpt lat="46.6006" lon="6.10515">
        <ele>1070.1</ele>
        <time>2021-10-26T10:18:46Z</time>
      </trkpt>
      <trkpt lat="46.60063" lon="6.10509">
        <ele>1069.3</ele>
        <time>2021-10-26T10:18:50Z</time>
      </trkpt>
      <trkpt lat="46.60067" lon="6.10504">
        <ele>1068.7</ele>
        <time>2021-10-26T10:18:54Z</time>
      </trkpt>
      <trkpt lat="46.6007" lon="6.10499">
        <ele>1068</ele>
        <time>2021-10-26T10:18:58Z</time>
      </trkpt>
      <trkpt lat="46.60073" lon="6.10493">
        <ele>1067.5</ele>
        <time>2021-10-26T10:19:03Z</time>
      </trkpt>
      <trkpt lat="46.60077" lon="6.10488">
        <ele>1067.5</ele>
        <time>2021-10-26T10:19:07Z</time>
      </trkpt>
      <trkpt lat="46.60081" lon="6.10483">
        <ele>1068</ele>
        <time>2021-10-26T10:19:11Z</time>
      </trkpt>
      <trkpt lat="46.60084" lon="6.10479">
        <ele>1068.4</ele>
        <time>2021-10-26T10:19:15Z</time>
      </trkpt>
      <trkpt lat="46.60088" lon="6.10474">
        <ele>1068.6</ele>
        <time>2021-10-26T10:19:20Z</time>
      </trkpt>
      <trkpt lat="46.60091" lon="6.10468">
        <ele>1068.9</ele>
        <time>2021-10-26T10:19:24Z</time>
      </trkpt>
      <trkpt lat="46.60094" lon="6.10462">
        <ele>1068.6</ele>
        <time>2021-10-26T10:19:28Z</time>
      </trkpt>
      <trkpt lat="46.60097" lon="6.10457">
        <ele>1068.2</ele>
        <time>2021-10-26T10:19:32Z</time>
      </trkpt>
      <trkpt lat="46.601" lon="6.1045">
        <ele>1067.8</ele>
        <time>2021-10-26T10:19:37Z</time>
      </trkpt>
      <trkpt lat="46.60102" lon="6.10444">
        <ele>1067.5</ele>
        <time>2021-10-26T10:19:42Z</time>
      </trkpt>
      <trkpt lat="46.60105" lon="6.10438">
        <ele>1067.3</ele>
        <time>2021-10-26T10:19:46Z</time>
      </trkpt>
      <trkpt lat="46.60109" lon="6.10432">
        <ele>1066.9</ele>
        <time>2021-10-26T10:19:51Z</time>
      </trkpt>
      <trkpt lat="46.60112" lon="6.10426">
        <ele>1066.3</ele>
        <time>2021-10-26T10:19:56Z</time>
      </trkpt>
      <trkpt lat="46.60115" lon="6.10422">
        <ele>1065.7</ele>
        <time>2021-10-26T10:20:00Z</time>
      </trkpt>
      <trkpt lat="46.6012" lon="6.10418">
        <ele>1065.4</ele>
        <time>2021-10-26T10:20:05Z</time>
      </trkpt>
      <trkpt lat="46.60124" lon="6.10414">
        <ele>1065.1</ele>
        <time>2021-10-26T10:20:10Z</time>
      </trkpt>
      <trkpt lat="46.60128" lon="6.10411">
        <ele>1064.6</ele>
        <time>2021-10-26T10:20:15Z</time>
      </trkpt>
      <trkpt lat="46.60132" lon="6.10408">
        <ele>1064</ele>
        <time>2021-10-26T10:20:19Z</time>
      </trkpt>
      <trkpt lat="46.60137" lon="6.10403">
        <ele>1063.6</ele>
        <time>2021-10-26T10:20:24Z</time>
      </trkpt>
      <trkpt lat="46.6014" lon="6.10398">
        <ele>1063.2</ele>
        <time>2021-10-26T10:20:29Z</time>
      </trkpt>
      <trkpt lat="46.60144" lon="6.10394">
        <ele>1063.5</ele>
        <time>2021-10-26T10:20:33Z</time>
      </trkpt>
      <trkpt lat="46.60148" lon="6.10391">
        <ele>1064.2</ele>
        <time>2021-10-26T10:20:37Z</time>
      </trkpt>
      <trkpt lat="46.60152" lon="6.10386">
        <ele>1064.9</ele>
        <time>2021-10-26T10:20:42Z</time>
      </trkpt>
      <trkpt lat="46.60157" lon="6.10383">
        <ele>1065.7</ele>
        <time>2021-10-26T10:20:47Z</time>
      </trkpt>
      <trkpt lat="46.60162" lon="6.1038">
        <ele>1066.5</ele>
        <time>2021-10-26T10:20:52Z</time>
      </trkpt>
      <trkpt lat="46.60165" lon="6.10376">
        <ele>1067.1</ele>
        <time>2021-10-26T10:20:56Z</time>
      </trkpt>
      <trkpt lat="46.60168" lon="6.1037">
        <ele>1067.5</ele>
        <time>2021-10-26T10:21:00Z</time>
      </trkpt>
      <trkpt lat="46.60172" lon="6.10363">
        <ele>1067.4</ele>
        <time>2021-10-26T10:21:04Z</time>
      </trkpt>
      <trkpt lat="46.60174" lon="6.10356">
        <ele>1066.8</ele>
        <time>2021-10-26T10:21:08Z</time>
      </trkpt>
      <trkpt lat="46.60176" lon="6.1035">
        <ele>1066.6</ele>
        <time>2021-10-26T10:21:12Z</time>
      </trkpt>
      <trkpt lat="46.60176" lon="6.10343">
        <ele>1066.5</ele>
        <time>2021-10-26T10:21:16Z</time>
      </trkpt>
      <trkpt lat="46.60177" lon="6.10336">
        <ele>1066.6</ele>
        <time>2021-10-26T10:21:20Z</time>
      </trkpt>
      <trkpt lat="46.60177" lon="6.10329">
        <ele>1066.4</ele>
        <time>2021-10-26T10:21:24Z</time>
      </trkpt>
      <trkpt lat="46.60178" lon="6.10322">
        <ele>1066.4</ele>
        <time>2021-10-26T10:21:28Z</time>
      </trkpt>
      <trkpt lat="46.60178" lon="6.10314">
        <ele>1066.4</ele>
        <time>2021-10-26T10:21:33Z</time>
      </trkpt>
      <trkpt lat="46.60178" lon="6.10307">
        <ele>1066.4</ele>
        <time>2021-10-26T10:21:38Z</time>
      </trkpt>
      <trkpt lat="46.60177" lon="6.10299">
        <ele>1066.4</ele>
        <time>2021-10-26T10:21:43Z</time>
      </trkpt>
      <trkpt lat="46.60176" lon="6.10292">
        <ele>1066.6</ele>
        <time>2021-10-26T10:21:47Z</time>
      </trkpt>
      <trkpt lat="46.60174" lon="6.10285">
        <ele>1066.8</ele>
        <time>2021-10-26T10:21:52Z</time>
      </trkpt>
      <trkpt lat="46.60171" lon="6.10278">
        <ele>1066.7</ele>
        <time>2021-10-26T10:21:57Z</time>
      </trkpt>
      <trkpt lat="46.60168" lon="6.10272">
        <ele>1066.4</ele>
        <time>2021-10-26T10:22:02Z</time>
      </trkpt>
      <trkpt lat="46.60165" lon="6.10266">
        <ele>1066.4</ele>
        <time>2021-10-26T10:22:07Z</time>
      </trkpt>
      <trkpt lat="46.60162" lon="6.1026">
        <ele>1065.3</ele>
        <time>2021-10-26T10:22:12Z</time>
      </trkpt>
      <trkpt lat="46.60159" lon="6.10254">
        <ele>1063.6</ele>
        <time>2021-10-26T10:22:17Z</time>
      </trkpt>
      <trkpt lat="46.60155" lon="6.10249">
        <ele>1061.4</ele>
        <time>2021-10-26T10:22:22Z</time>
      </trkpt>
      <trkpt lat="46.60152" lon="6.10244">
        <ele>1058.9</ele>
        <time>2021-10-26T10:22:27Z</time>
      </trkpt>
      <trkpt lat="46.60148" lon="6.10238">
        <ele>1056.5</ele>
        <time>2021-10-26T10:22:32Z</time>
      </trkpt>
      <trkpt lat="46.60145" lon="6.10232">
        <ele>1055</ele>
        <time>2021-10-26T10:22:37Z</time>
      </trkpt>
      <trkpt lat="46.60142" lon="6.10228">
        <ele>1054.2</ele>
        <time>2021-10-26T10:22:42Z</time>
      </trkpt>
      <trkpt lat="46.60139" lon="6.10222">
        <ele>1054.3</ele>
        <time>2021-10-26T10:22:48Z</time>
      </trkpt>
      <trkpt lat="46.60137" lon="6.10216">
        <ele>1055.2</ele>
        <time>2021-10-26T10:22:54Z</time>
      </trkpt>
      <trkpt lat="46.60133" lon="6.10211">
        <ele>1056.1</ele>
        <time>2021-10-26T10:22:59Z</time>
      </trkpt>
      <trkpt lat="46.60129" lon="6.10206">
        <ele>1057.1</ele>
        <time>2021-10-26T10:23:04Z</time>
      </trkpt>
      <trkpt lat="46.60125" lon="6.10203">
        <ele>1058.3</ele>
        <time>2021-10-26T10:23:09Z</time>
      </trkpt>
      <trkpt lat="46.60121" lon="6.10199">
        <ele>1059.4</ele>
        <time>2021-10-26T10:23:15Z</time>
      </trkpt>
      <trkpt lat="46.60116" lon="6.10198">
        <ele>1063.6</ele>
        <time>2021-10-26T10:24:14Z</time>
      </trkpt>
      <trkpt lat="46.60111" lon="6.10194">
        <ele>1064.1</ele>
        <time>2021-10-26T10:24:20Z</time>
      </trkpt>
      <trkpt lat="46.60108" lon="6.10188">
        <ele>1064</ele>
        <time>2021-10-26T10:24:25Z</time>
      </trkpt>
      <trkpt lat="46.60105" lon="6.10184">
        <ele>1063.6</ele>
        <time>2021-10-26T10:24:30Z</time>
      </trkpt>
      <trkpt lat="46.601" lon="6.1018">
        <ele>1063.5</ele>
        <time>2021-10-26T10:24:35Z</time>
      </trkpt>
      <trkpt lat="46.60095" lon="6.10178">
        <ele>1063.5</ele>
        <time>2021-10-26T10:24:40Z</time>
      </trkpt>
      <trkpt lat="46.60091" lon="6.10179">
        <ele>1063.5</ele>
        <time>2021-10-26T10:24:45Z</time>
      </trkpt>
      <trkpt lat="46.60086" lon="6.10176">
        <ele>1064.1</ele>
        <time>2021-10-26T10:24:57Z</time>
      </trkpt>
      <trkpt lat="46.60082" lon="6.10173">
        <ele>1066.5</ele>
        <time>2021-10-26T10:27:11Z</time>
      </trkpt>
      <trkpt lat="46.60077" lon="6.10169">
        <ele>1067.2</ele>
        <time>2021-10-26T10:27:16Z</time>
      </trkpt>
      <trkpt lat="46.60073" lon="6.10167">
        <ele>1067.3</ele>
        <time>2021-10-26T10:27:21Z</time>
      </trkpt>
      <trkpt lat="46.60069" lon="6.10164">
        <ele>1067.4</ele>
        <time>2021-10-26T10:27:25Z</time>
      </trkpt>
      <trkpt lat="46.60065" lon="6.10161">
        <ele>1067.2</ele>
        <time>2021-10-26T10:27:29Z</time>
      </trkpt>
      <trkpt lat="46.6006" lon="6.10157">
        <ele>1067</ele>
        <time>2021-10-26T10:27:34Z</time>
      </trkpt>
      <trkpt lat="46.60056" lon="6.10152">
        <ele>1066.7</ele>
        <time>2021-10-26T10:27:41Z</time>
      </trkpt>
      <trkpt lat="46.60052" lon="6.10146">
        <ele>1066.6</ele>
        <time>2021-10-26T10:27:46Z</time>
      </trkpt>
      <trkpt lat="46.60049" lon="6.10141">
        <ele>1065.9</ele>
        <time>2021-10-26T10:27:51Z</time>
      </trkpt>
      <trkpt lat="46.60045" lon="6.10137">
        <ele>1065.2</ele>
        <time>2021-10-26T10:27:55Z</time>
      </trkpt>
      <trkpt lat="46.60042" lon="6.10131">
        <ele>1064.1</ele>
        <time>2021-10-26T10:28:00Z</time>
      </trkpt>
      <trkpt lat="46.60038" lon="6.10127">
        <ele>1063</ele>
        <time>2021-10-26T10:28:05Z</time>
      </trkpt>
      <trkpt lat="46.60035" lon="6.10121">
        <ele>1062.7</ele>
        <time>2021-10-26T10:28:09Z</time>
      </trkpt>
      <trkpt lat="46.60032" lon="6.10115">
        <ele>1062.9</ele>
        <time>2021-10-26T10:28:13Z</time>
      </trkpt>
      <trkpt lat="46.60031" lon="6.10108">
        <ele>1063.1</ele>
        <time>2021-10-26T10:28:17Z</time>
      </trkpt>
      <trkpt lat="46.60029" lon="6.101">
        <ele>1063.4</ele>
        <time>2021-10-26T10:28:21Z</time>
      </trkpt>
      <trkpt lat="46.60026" lon="6.10093">
        <ele>1063.5</ele>
        <time>2021-10-26T10:28:26Z</time>
      </trkpt>
      <trkpt lat="46.60024" lon="6.10087">
        <ele>1063.6</ele>
        <time>2021-10-26T10:28:31Z</time>
      </trkpt>
      <trkpt lat="46.6002" lon="6.10081">
        <ele>1063.6</ele>
        <time>2021-10-26T10:28:36Z</time>
      </trkpt>
      <trkpt lat="46.60017" lon="6.10075">
        <ele>1063.6</ele>
        <time>2021-10-26T10:28:40Z</time>
      </trkpt>
      <trkpt lat="46.60015" lon="6.1007">
        <ele>1063.4</ele>
        <time>2021-10-26T10:28:45Z</time>
      </trkpt>
      <trkpt lat="46.60012" lon="6.10064">
        <ele>1063.3</ele>
        <time>2021-10-26T10:28:50Z</time>
      </trkpt>
      <trkpt lat="46.60009" lon="6.10058">
        <ele>1063.2</ele>
        <time>2021-10-26T10:28:55Z</time>
      </trkpt>
      <trkpt lat="46.60005" lon="6.10053">
        <ele>1062.9</ele>
        <time>2021-10-26T10:29:00Z</time>
      </trkpt>
      <trkpt lat="46.60001" lon="6.10047">
        <ele>1062.9</ele>
        <time>2021-10-26T10:29:05Z</time>
      </trkpt>
      <trkpt lat="46.59998" lon="6.10042">
        <ele>1062.8</ele>
        <time>2021-10-26T10:29:10Z</time>
      </trkpt>
      <trkpt lat="46.59994" lon="6.10037">
        <ele>1063.1</ele>
        <time>2021-10-26T10:29:15Z</time>
      </trkpt>
      <trkpt lat="46.59991" lon="6.10031">
        <ele>1063.1</ele>
        <time>2021-10-26T10:29:19Z</time>
      </trkpt>
      <trkpt lat="46.59987" lon="6.10027">
        <ele>1062.9</ele>
        <time>2021-10-26T10:29:24Z</time>
      </trkpt>
      <trkpt lat="46.59984" lon="6.10022">
        <ele>1062.8</ele>
        <time>2021-10-26T10:29:29Z</time>
      </trkpt>
      <trkpt lat="46.5998" lon="6.10018">
        <ele>1062.8</ele>
        <time>2021-10-26T10:29:33Z</time>
      </trkpt>
      <trkpt lat="46.59976" lon="6.10014">
        <ele>1063.2</ele>
        <time>2021-10-26T10:29:37Z</time>
      </trkpt>
      <trkpt lat="46.59972" lon="6.10009">
        <ele>1064.2</ele>
        <time>2021-10-26T10:29:43Z</time>
      </trkpt>
      <trkpt lat="46.59967" lon="6.10007">
        <ele>1065.2</ele>
        <time>2021-10-26T10:29:50Z</time>
      </trkpt>
      <trkpt lat="46.59963" lon="6.10004">
        <ele>1067.6</ele>
        <time>2021-10-26T10:30:02Z</time>
      </trkpt>
      <trkpt lat="46.59959" lon="6.1">
        <ele>1068.8</ele>
        <time>2021-10-26T10:30:06Z</time>
      </trkpt>
      <trkpt lat="46.59956" lon="6.09994">
        <ele>1070.3</ele>
        <time>2021-10-26T10:30:11Z</time>
      </trkpt>
      <trkpt lat="46.59956" lon="6.09986">
        <ele>1070.6</ele>
        <time>2021-10-26T10:30:16Z</time>
      </trkpt>
      <trkpt lat="46.59957" lon="6.09978">
        <ele>1070.6</ele>
        <time>2021-10-26T10:30:21Z</time>
      </trkpt>
      <trkpt lat="46.59956" lon="6.0997">
        <ele>1069.7</ele>
        <time>2021-10-26T10:30:26Z</time>
      </trkpt>
      <trkpt lat="46.59955" lon="6.09963">
        <ele>1068.9</ele>
        <time>2021-10-26T10:30:31Z</time>
      </trkpt>
      <trkpt lat="46.59954" lon="6.09955">
        <ele>1068.3</ele>
        <time>2021-10-26T10:30:36Z</time>
      </trkpt>
      <trkpt lat="46.59953" lon="6.09949">
        <ele>1067.9</ele>
        <time>2021-10-26T10:30:40Z</time>
      </trkpt>
      <trkpt lat="46.5995" lon="6.09941">
        <ele>1068</ele>
        <time>2021-10-26T10:30:44Z</time>
      </trkpt>
      <trkpt lat="46.59949" lon="6.09934">
        <ele>1068.3</ele>
        <time>2021-10-26T10:30:48Z</time>
      </trkpt>
      <trkpt lat="46.59947" lon="6.09928">
        <ele>1069.3</ele>
        <time>2021-10-26T10:30:53Z</time>
      </trkpt>
      <trkpt lat="46.59946" lon="6.09921">
        <ele>1069.5</ele>
        <time>2021-10-26T10:30:58Z</time>
      </trkpt>
      <trkpt lat="46.59945" lon="6.09915">
        <ele>1069.3</ele>
        <time>2021-10-26T10:31:02Z</time>
      </trkpt>
      <trkpt lat="46.59943" lon="6.09908">
        <ele>1069</ele>
        <time>2021-10-26T10:31:06Z</time>
      </trkpt>
      <trkpt lat="46.5994" lon="6.09902">
        <ele>1069.1</ele>
        <time>2021-10-26T10:31:10Z</time>
      </trkpt>
      <trkpt lat="46.5994" lon="6.09895">
        <ele>1068.8</ele>
        <time>2021-10-26T10:31:15Z</time>
      </trkpt>
      <trkpt lat="46.59938" lon="6.09888">
        <ele>1068.5</ele>
        <time>2021-10-26T10:31:20Z</time>
      </trkpt>
      <trkpt lat="46.59937" lon="6.09881">
        <ele>1069</ele>
        <time>2021-10-26T10:31:25Z</time>
      </trkpt>
      <trkpt lat="46.59935" lon="6.09873">
        <ele>1069.1</ele>
        <time>2021-10-26T10:31:30Z</time>
      </trkpt>
      <trkpt lat="46.59933" lon="6.09866">
        <ele>1068.7</ele>
        <time>2021-10-26T10:31:34Z</time>
      </trkpt>
      <trkpt lat="46.59931" lon="6.0986">
        <ele>1068.1</ele>
        <time>2021-10-26T10:31:38Z</time>
      </trkpt>
      <trkpt lat="46.59929" lon="6.09854">
        <ele>1067.8</ele>
        <time>2021-10-26T10:31:44Z</time>
      </trkpt>
      <trkpt lat="46.59928" lon="6.09847">
        <ele>1066.8</ele>
        <time>2021-10-26T10:31:55Z</time>
      </trkpt>
      <trkpt lat="46.59932" lon="6.09846">
        <ele>1068.4</ele>
        <time>2021-10-26T10:32:58Z</time>
      </trkpt>
      <trkpt lat="46.59937" lon="6.09847">
        <ele>1071.2</ele>
        <time>2021-10-26T10:33:04Z</time>
      </trkpt>
      <trkpt lat="46.59932" lon="6.09844">
        <ele>1072.1</ele>
        <time>2021-10-26T10:33:23Z</time>
      </trkpt>
      <trkpt lat="46.59931" lon="6.09837">
        <ele>1071.8</ele>
        <time>2021-10-26T10:33:27Z</time>
      </trkpt>
      <trkpt lat="46.59931" lon="6.0983">
        <ele>1071.5</ele>
        <time>2021-10-26T10:33:31Z</time>
      </trkpt>
      <trkpt lat="46.59931" lon="6.09822">
        <ele>1070.8</ele>
        <time>2021-10-26T10:33:36Z</time>
      </trkpt>
      <trkpt lat="46.59931" lon="6.09816">
        <ele>1070</ele>
        <time>2021-10-26T10:33:39Z</time>
      </trkpt>
      <trkpt lat="46.59931" lon="6.09809">
        <ele>1068.9</ele>
        <time>2021-10-26T10:33:42Z</time>
      </trkpt>
      <trkpt lat="46.59931" lon="6.09801">
        <ele>1067.7</ele>
        <time>2021-10-26T10:33:46Z</time>
      </trkpt>
      <trkpt lat="46.5993" lon="6.09792">
        <ele>1066.4</ele>
        <time>2021-10-26T10:33:51Z</time>
      </trkpt>
      <trkpt lat="46.5993" lon="6.09785">
        <ele>1064.9</ele>
        <time>2021-10-26T10:33:55Z</time>
      </trkpt>
      <trkpt lat="46.5993" lon="6.09777">
        <ele>1063.9</ele>
        <time>2021-10-26T10:33:59Z</time>
      </trkpt>
      <trkpt lat="46.59929" lon="6.09769">
        <ele>1063.2</ele>
        <time>2021-10-26T10:34:03Z</time>
      </trkpt>
      <trkpt lat="46.59928" lon="6.09762">
        <ele>1063</ele>
        <time>2021-10-26T10:34:07Z</time>
      </trkpt>
      <trkpt lat="46.59926" lon="6.09756">
        <ele>1062.8</ele>
        <time>2021-10-26T10:34:11Z</time>
      </trkpt>
      <trkpt lat="46.59923" lon="6.0975">
        <ele>1062.9</ele>
        <time>2021-10-26T10:34:15Z</time>
      </trkpt>
      <trkpt lat="46.59921" lon="6.09742">
        <ele>1062.7</ele>
        <time>2021-10-26T10:34:19Z</time>
      </trkpt>
      <trkpt lat="46.59919" lon="6.09735">
        <ele>1062.4</ele>
        <time>2021-10-26T10:34:23Z</time>
      </trkpt>
      <trkpt lat="46.59917" lon="6.09728">
        <ele>1062.1</ele>
        <time>2021-10-26T10:34:27Z</time>
      </trkpt>
      <trkpt lat="46.59915" lon="6.09721">
        <ele>1061.9</ele>
        <time>2021-10-26T10:34:31Z</time>
      </trkpt>
      <trkpt lat="46.59914" lon="6.09713">
        <ele>1061.7</ele>
        <time>2021-10-26T10:34:35Z</time>
      </trkpt>
      <trkpt lat="46.59912" lon="6.09707">
        <ele>1062.1</ele>
        <time>2021-10-26T10:34:39Z</time>
      </trkpt>
      <trkpt lat="46.59911" lon="6.09699">
        <ele>1062.6</ele>
        <time>2021-10-26T10:34:44Z</time>
      </trkpt>
      <trkpt lat="46.5991" lon="6.09692">
        <ele>1062.6</ele>
        <time>2021-10-26T10:34:48Z</time>
      </trkpt>
      <trkpt lat="46.59909" lon="6.09685">
        <ele>1062.6</ele>
        <time>2021-10-26T10:34:53Z</time>
      </trkpt>
      <trkpt lat="46.59908" lon="6.09678">
        <ele>1062.5</ele>
        <time>2021-10-26T10:34:57Z</time>
      </trkpt>
      <trkpt lat="46.59907" lon="6.0967">
        <ele>1062.9</ele>
        <time>2021-10-26T10:35:02Z</time>
      </trkpt>
      <trkpt lat="46.59905" lon="6.09662">
        <ele>1063.3</ele>
        <time>2021-10-26T10:35:07Z</time>
      </trkpt>
      <trkpt lat="46.59903" lon="6.09655">
        <ele>1063.5</ele>
        <time>2021-10-26T10:35:12Z</time>
      </trkpt>
      <trkpt lat="46.59901" lon="6.09649">
        <ele>1063.8</ele>
        <time>2021-10-26T10:35:18Z</time>
      </trkpt>
      <trkpt lat="46.59898" lon="6.09644">
        <ele>1062.9</ele>
        <time>2021-10-26T10:35:31Z</time>
      </trkpt>
      <trkpt lat="46.59894" lon="6.09639">
        <ele>1060.9</ele>
        <time>2021-10-26T10:36:42Z</time>
      </trkpt>
      <trkpt lat="46.59894" lon="6.09632">
        <ele>1062</ele>
        <time>2021-10-26T10:36:55Z</time>
      </trkpt>
      <trkpt lat="46.59895" lon="6.09625">
        <ele>1062.3</ele>
        <time>2021-10-26T10:37:23Z</time>
      </trkpt>
      <trkpt lat="46.59897" lon="6.09619">
        <ele>1061.2</ele>
        <time>2021-10-26T10:37:28Z</time>
      </trkpt>
      <trkpt lat="46.59898" lon="6.09612">
        <ele>1060</ele>
        <time>2021-10-26T10:37:33Z</time>
      </trkpt>
      <trkpt lat="46.599" lon="6.09604">
        <ele>1058.8</ele>
        <time>2021-10-26T10:37:39Z</time>
      </trkpt>
      <trkpt lat="46.59901" lon="6.09597">
        <ele>1058.2</ele>
        <time>2021-10-26T10:37:43Z</time>
      </trkpt>
      <trkpt lat="46.59901" lon="6.09589">
        <ele>1058</ele>
        <time>2021-10-26T10:37:48Z</time>
      </trkpt>
      <trkpt lat="46.59902" lon="6.09582">
        <ele>1058.1</ele>
        <time>2021-10-26T10:37:52Z</time>
      </trkpt>
      <trkpt lat="46.59902" lon="6.09576">
        <ele>1058.2</ele>
        <time>2021-10-26T10:37:55Z</time>
      </trkpt>
      <trkpt lat="46.59902" lon="6.09568">
        <ele>1058.2</ele>
        <time>2021-10-26T10:37:59Z</time>
      </trkpt>
      <trkpt lat="46.59901" lon="6.0956">
        <ele>1058.4</ele>
        <time>2021-10-26T10:38:04Z</time>
      </trkpt>
      <trkpt lat="46.59899" lon="6.09553">
        <ele>1059.4</ele>
        <time>2021-10-26T10:38:09Z</time>
      </trkpt>
      <trkpt lat="46.59899" lon="6.09545">
        <ele>1060.1</ele>
        <time>2021-10-26T10:38:14Z</time>
      </trkpt>
      <trkpt lat="46.59897" lon="6.09537">
        <ele>1060</ele>
        <time>2021-10-26T10:38:19Z</time>
      </trkpt>
      <trkpt lat="46.59896" lon="6.0953">
        <ele>1059.4</ele>
        <time>2021-10-26T10:38:23Z</time>
      </trkpt>
      <trkpt lat="46.59895" lon="6.09523">
        <ele>1059.1</ele>
        <time>2021-10-26T10:38:27Z</time>
      </trkpt>
      <trkpt lat="46.59893" lon="6.09516">
        <ele>1058.1</ele>
        <time>2021-10-26T10:38:31Z</time>
      </trkpt>
      <trkpt lat="46.5989" lon="6.09509">
        <ele>1056.8</ele>
        <time>2021-10-26T10:38:35Z</time>
      </trkpt>
      <trkpt lat="46.59887" lon="6.09503">
        <ele>1055.4</ele>
        <time>2021-10-26T10:38:40Z</time>
      </trkpt>
      <trkpt lat="46.59883" lon="6.09498">
        <ele>1054.1</ele>
        <time>2021-10-26T10:38:45Z</time>
      </trkpt>
      <trkpt lat="46.59879" lon="6.09496">
        <ele>1053.7</ele>
        <time>2021-10-26T10:38:49Z</time>
      </trkpt>
      <trkpt lat="46.59875" lon="6.09493">
        <ele>1053.8</ele>
        <time>2021-10-26T10:38:53Z</time>
      </trkpt>
      <trkpt lat="46.59869" lon="6.09493">
        <ele>1053.2</ele>
        <time>2021-10-26T10:38:58Z</time>
      </trkpt>
      <trkpt lat="46.59864" lon="6.09493">
        <ele>1053.4</ele>
        <time>2021-10-26T10:39:02Z</time>
      </trkpt>
      <trkpt lat="46.59859" lon="6.09494">
        <ele>1054.2</ele>
        <time>2021-10-26T10:39:06Z</time>
      </trkpt>
      <trkpt lat="46.59854" lon="6.09496">
        <ele>1055.7</ele>
        <time>2021-10-26T10:39:11Z</time>
      </trkpt>
      <trkpt lat="46.59848" lon="6.09496">
        <ele>1057.3</ele>
        <time>2021-10-26T10:39:16Z</time>
      </trkpt>
      <trkpt lat="46.59843" lon="6.09497">
        <ele>1058</ele>
        <time>2021-10-26T10:39:21Z</time>
      </trkpt>
      <trkpt lat="46.59838" lon="6.09497">
        <ele>1058.5</ele>
        <time>2021-10-26T10:39:25Z</time>
      </trkpt>
      <trkpt lat="46.59833" lon="6.095">
        <ele>1058.9</ele>
        <time>2021-10-26T10:39:30Z</time>
      </trkpt>
      <trkpt lat="46.59828" lon="6.09502">
        <ele>1059.1</ele>
        <time>2021-10-26T10:39:35Z</time>
      </trkpt>
      <trkpt lat="46.59824" lon="6.09504">
        <ele>1058.9</ele>
        <time>2021-10-26T10:39:39Z</time>
      </trkpt>
      <trkpt lat="46.59819" lon="6.09504">
        <ele>1059.5</ele>
        <time>2021-10-26T10:39:43Z</time>
      </trkpt>
      <trkpt lat="46.59814" lon="6.09505">
        <ele>1060.5</ele>
        <time>2021-10-26T10:39:48Z</time>
      </trkpt>
      <trkpt lat="46.59809" lon="6.09502">
        <ele>1063.1</ele>
        <time>2021-10-26T10:40:02Z</time>
      </trkpt>
      <trkpt lat="46.59804" lon="6.09499">
        <ele>1062.9</ele>
        <time>2021-10-26T10:40:06Z</time>
      </trkpt>
      <trkpt lat="46.59799" lon="6.09498">
        <ele>1062.3</ele>
        <time>2021-10-26T10:40:10Z</time>
      </trkpt>
      <trkpt lat="46.59794" lon="6.09498">
        <ele>1061.9</ele>
        <time>2021-10-26T10:40:14Z</time>
      </trkpt>
      <trkpt lat="46.59789" lon="6.095">
        <ele>1062.2</ele>
        <time>2021-10-26T10:40:18Z</time>
      </trkpt>
      <trkpt lat="46.59783" lon="6.095">
        <ele>1062.8</ele>
        <time>2021-10-26T10:40:22Z</time>
      </trkpt>
      <trkpt lat="46.59778" lon="6.09501">
        <ele>1063.6</ele>
        <time>2021-10-26T10:40:26Z</time>
      </trkpt>
      <trkpt lat="46.59774" lon="6.09501">
        <ele>1064.1</ele>
        <time>2021-10-26T10:40:30Z</time>
      </trkpt>
      <trkpt lat="46.59769" lon="6.09502">
        <ele>1064.4</ele>
        <time>2021-10-26T10:40:34Z</time>
      </trkpt>
      <trkpt lat="46.59763" lon="6.09503">
        <ele>1064.8</ele>
        <time>2021-10-26T10:40:38Z</time>
      </trkpt>
      <trkpt lat="46.59758" lon="6.09504">
        <ele>1065</ele>
        <time>2021-10-26T10:40:42Z</time>
      </trkpt>
      <trkpt lat="46.59753" lon="6.09504">
        <ele>1064.8</ele>
        <time>2021-10-26T10:40:47Z</time>
      </trkpt>
      <trkpt lat="46.59747" lon="6.09505">
        <ele>1064.6</ele>
        <time>2021-10-26T10:40:52Z</time>
      </trkpt>
      <trkpt lat="46.59741" lon="6.09507">
        <ele>1064.5</ele>
        <time>2021-10-26T10:40:56Z</time>
      </trkpt>
      <trkpt lat="46.59736" lon="6.09507">
        <ele>1064.4</ele>
        <time>2021-10-26T10:41:01Z</time>
      </trkpt>
      <trkpt lat="46.59731" lon="6.09505">
        <ele>1064.3</ele>
        <time>2021-10-26T10:41:07Z</time>
      </trkpt>
      <trkpt lat="46.59726" lon="6.09505">
        <ele>1064</ele>
        <time>2021-10-26T10:41:12Z</time>
      </trkpt>
      <trkpt lat="46.59721" lon="6.09505">
        <ele>1064</ele>
        <time>2021-10-26T10:41:18Z</time>
      </trkpt>
      <trkpt lat="46.59717" lon="6.09506">
        <ele>1064.3</ele>
        <time>2021-10-26T10:41:23Z</time>
      </trkpt>
      <trkpt lat="46.59711" lon="6.09507">
        <ele>1064.8</ele>
        <time>2021-10-26T10:41:28Z</time>
      </trkpt>
      <trkpt lat="46.59707" lon="6.09509">
        <ele>1065.2</ele>
        <time>2021-10-26T10:41:32Z</time>
      </trkpt>
      <trkpt lat="46.59702" lon="6.0951">
        <ele>1065.6</ele>
        <time>2021-10-26T10:41:36Z</time>
      </trkpt>
      <trkpt lat="46.59697" lon="6.09512">
        <ele>1065.8</ele>
        <time>2021-10-26T10:41:41Z</time>
      </trkpt>
      <trkpt lat="46.59692" lon="6.09514">
        <ele>1066.5</ele>
        <time>2021-10-26T10:41:47Z</time>
      </trkpt>
      <trkpt lat="46.59688" lon="6.09516">
        <ele>1066.8</ele>
        <time>2021-10-26T10:41:51Z</time>
      </trkpt>
      <trkpt lat="46.59684" lon="6.09519">
        <ele>1067.3</ele>
        <time>2021-10-26T10:41:55Z</time>
      </trkpt>
      <trkpt lat="46.5968" lon="6.09523">
        <ele>1067.7</ele>
        <time>2021-10-26T10:41:59Z</time>
      </trkpt>
      <trkpt lat="46.59675" lon="6.09525">
        <ele>1067.9</ele>
        <time>2021-10-26T10:42:04Z</time>
      </trkpt>
      <trkpt lat="46.5967" lon="6.09528">
        <ele>1068.4</ele>
        <time>2021-10-26T10:42:09Z</time>
      </trkpt>
      <trkpt lat="46.59666" lon="6.09532">
        <ele>1069</ele>
        <time>2021-10-26T10:42:14Z</time>
      </trkpt>
      <trkpt lat="46.59662" lon="6.09535">
        <ele>1070.2</ele>
        <time>2021-10-26T10:42:19Z</time>
      </trkpt>
      <trkpt lat="46.59658" lon="6.09539">
        <ele>1071.5</ele>
        <time>2021-10-26T10:42:24Z</time>
      </trkpt>
      <trkpt lat="46.59654" lon="6.09543">
        <ele>1071.9</ele>
        <time>2021-10-26T10:42:28Z</time>
      </trkpt>
      <trkpt lat="46.5965" lon="6.09547">
        <ele>1072.7</ele>
        <time>2021-10-26T10:42:33Z</time>
      </trkpt>
      <trkpt lat="46.59646" lon="6.09552">
        <ele>1073.2</ele>
        <time>2021-10-26T10:42:39Z</time>
      </trkpt>
      <trkpt lat="46.59643" lon="6.09559">
        <ele>1073.3</ele>
        <time>2021-10-26T10:42:44Z</time>
      </trkpt>
      <trkpt lat="46.59639" lon="6.09562">
        <ele>1073.2</ele>
        <time>2021-10-26T10:42:49Z</time>
      </trkpt>
      <trkpt lat="46.59635" lon="6.09566">
        <ele>1073.1</ele>
        <time>2021-10-26T10:42:55Z</time>
      </trkpt>
      <trkpt lat="46.59631" lon="6.0957">
        <ele>1073.3</ele>
        <time>2021-10-26T10:43:02Z</time>
      </trkpt>
      <trkpt lat="46.59628" lon="6.09576">
        <ele>1073.6</ele>
        <time>2021-10-26T10:43:07Z</time>
      </trkpt>
      <trkpt lat="46.59625" lon="6.09581">
        <ele>1074.3</ele>
        <time>2021-10-26T10:43:12Z</time>
      </trkpt>
      <trkpt lat="46.59621" lon="6.09587">
        <ele>1074.8</ele>
        <time>2021-10-26T10:43:17Z</time>
      </trkpt>
      <trkpt lat="46.59618" lon="6.09594">
        <ele>1075.1</ele>
        <time>2021-10-26T10:43:21Z</time>
      </trkpt>
      <trkpt lat="46.59615" lon="6.096">
        <ele>1075.1</ele>
        <time>2021-10-26T10:43:25Z</time>
      </trkpt>
      <trkpt lat="46.59612" lon="6.09606">
        <ele>1074.8</ele>
        <time>2021-10-26T10:43:29Z</time>
      </trkpt>
      <trkpt lat="46.59608" lon="6.09611">
        <ele>1074.4</ele>
        <time>2021-10-26T10:43:33Z</time>
      </trkpt>
      <trkpt lat="46.59604" lon="6.09614">
        <ele>1074.1</ele>
        <time>2021-10-26T10:43:37Z</time>
      </trkpt>
      <trkpt lat="46.596" lon="6.09619">
        <ele>1074</ele>
        <time>2021-10-26T10:43:42Z</time>
      </trkpt>
      <trkpt lat="46.59595" lon="6.09622">
        <ele>1074.3</ele>
        <time>2021-10-26T10:43:46Z</time>
      </trkpt>
      <trkpt lat="46.5959" lon="6.09624">
        <ele>1074.4</ele>
        <time>2021-10-26T10:43:50Z</time>
      </trkpt>
      <trkpt lat="46.59585" lon="6.09624">
        <ele>1074.7</ele>
        <time>2021-10-26T10:43:54Z</time>
      </trkpt>
      <trkpt lat="46.5958" lon="6.09623">
        <ele>1075.5</ele>
        <time>2021-10-26T10:43:58Z</time>
      </trkpt>
      <trkpt lat="46.59575" lon="6.09623">
        <ele>1076.4</ele>
        <time>2021-10-26T10:44:02Z</time>
      </trkpt>
      <trkpt lat="46.5957" lon="6.09621">
        <ele>1077.2</ele>
        <time>2021-10-26T10:44:06Z</time>
      </trkpt>
      <trkpt lat="46.59565" lon="6.0962">
        <ele>1078.1</ele>
        <time>2021-10-26T10:44:11Z</time>
      </trkpt>
      <trkpt lat="46.5956" lon="6.09621">
        <ele>1078.9</ele>
        <time>2021-10-26T10:44:16Z</time>
      </trkpt>
      <trkpt lat="46.59555" lon="6.09618">
        <ele>1079.9</ele>
        <time>2021-10-26T10:44:21Z</time>
      </trkpt>
      <trkpt lat="46.59551" lon="6.09615">
        <ele>1080.6</ele>
        <time>2021-10-26T10:44:25Z</time>
      </trkpt>
      <trkpt lat="46.59546" lon="6.09615">
        <ele>1081</ele>
        <time>2021-10-26T10:44:29Z</time>
      </trkpt>
      <trkpt lat="46.59541" lon="6.09614">
        <ele>1081.2</ele>
        <time>2021-10-26T10:44:33Z</time>
      </trkpt>
      <trkpt lat="46.59536" lon="6.09613">
        <ele>1080.9</ele>
        <time>2021-10-26T10:44:38Z</time>
      </trkpt>
      <trkpt lat="46.59531" lon="6.09611">
        <ele>1080.2</ele>
        <time>2021-10-26T10:44:44Z</time>
      </trkpt>
      <trkpt lat="46.59526" lon="6.0961">
        <ele>1079.3</ele>
        <time>2021-10-26T10:44:50Z</time>
      </trkpt>
      <trkpt lat="46.59521" lon="6.09607">
        <ele>1078.8</ele>
        <time>2021-10-26T10:44:56Z</time>
      </trkpt>
      <trkpt lat="46.59516" lon="6.09604">
        <ele>1078.9</ele>
        <time>2021-10-26T10:45:04Z</time>
      </trkpt>
      <trkpt lat="46.59511" lon="6.09602">
        <ele>1078.5</ele>
        <time>2021-10-26T10:45:10Z</time>
      </trkpt>
      <trkpt lat="46.59507" lon="6.09601">
        <ele>1078</ele>
        <time>2021-10-26T10:45:14Z</time>
      </trkpt>
      <trkpt lat="46.59501" lon="6.09601">
        <ele>1077.6</ele>
        <time>2021-10-26T10:45:19Z</time>
      </trkpt>
      <trkpt lat="46.59496" lon="6.09602">
        <ele>1077.6</ele>
        <time>2021-10-26T10:45:24Z</time>
      </trkpt>
      <trkpt lat="46.59491" lon="6.09603">
        <ele>1077.4</ele>
        <time>2021-10-26T10:45:28Z</time>
      </trkpt>
      <trkpt lat="46.59486" lon="6.09604">
        <ele>1076.9</ele>
        <time>2021-10-26T10:45:31Z</time>
      </trkpt>
      <trkpt lat="46.59481" lon="6.09604">
        <ele>1076.5</ele>
        <time>2021-10-26T10:45:35Z</time>
      </trkpt>
      <trkpt lat="46.59476" lon="6.09602">
        <ele>1076.4</ele>
        <time>2021-10-26T10:45:41Z</time>
      </trkpt>
      <trkpt lat="46.59471" lon="6.09601">
        <ele>1076.5</ele>
        <time>2021-10-26T10:45:45Z</time>
      </trkpt>
      <trkpt lat="46.59466" lon="6.096">
        <ele>1076.8</ele>
        <time>2021-10-26T10:45:50Z</time>
      </trkpt>
      <trkpt lat="46.59461" lon="6.09598">
        <ele>1077</ele>
        <time>2021-10-26T10:45:55Z</time>
      </trkpt>
      <trkpt lat="46.59457" lon="6.09594">
        <ele>1077.6</ele>
        <time>2021-10-26T10:46:00Z</time>
      </trkpt>
      <trkpt lat="46.59452" lon="6.09592">
        <ele>1078.3</ele>
        <time>2021-10-26T10:46:05Z</time>
      </trkpt>
      <trkpt lat="46.59448" lon="6.09591">
        <ele>1079.3</ele>
        <time>2021-10-26T10:46:09Z</time>
      </trkpt>
      <trkpt lat="46.59444" lon="6.09588">
        <ele>1080.7</ele>
        <time>2021-10-26T10:46:15Z</time>
      </trkpt>
      <trkpt lat="46.59438" lon="6.09587">
        <ele>1081.3</ele>
        <time>2021-10-26T10:46:21Z</time>
      </trkpt>
      <trkpt lat="46.59433" lon="6.09588">
        <ele>1081.1</ele>
        <time>2021-10-26T10:46:27Z</time>
      </trkpt>
      <trkpt lat="46.59428" lon="6.09586">
        <ele>1080.8</ele>
        <time>2021-10-26T10:46:32Z</time>
      </trkpt>
      <trkpt lat="46.59424" lon="6.09584">
        <ele>1080.1</ele>
        <time>2021-10-26T10:46:36Z</time>
      </trkpt>
      <trkpt lat="46.59418" lon="6.09583">
        <ele>1078.2</ele>
        <time>2021-10-26T10:46:41Z</time>
      </trkpt>
      <trkpt lat="46.59413" lon="6.09583">
        <ele>1077.6</ele>
        <time>2021-10-26T10:46:45Z</time>
      </trkpt>
      <trkpt lat="46.59407" lon="6.09584">
        <ele>1077.5</ele>
        <time>2021-10-26T10:46:49Z</time>
      </trkpt>
      <trkpt lat="46.59402" lon="6.09587">
        <ele>1077.4</ele>
        <time>2021-10-26T10:46:53Z</time>
      </trkpt>
      <trkpt lat="46.59397" lon="6.09588">
        <ele>1077.4</ele>
        <time>2021-10-26T10:46:57Z</time>
      </trkpt>
      <trkpt lat="46.59391" lon="6.09589">
        <ele>1077.7</ele>
        <time>2021-10-26T10:47:01Z</time>
      </trkpt>
      <trkpt lat="46.59386" lon="6.09591">
        <ele>1078</ele>
        <time>2021-10-26T10:47:05Z</time>
      </trkpt>
      <trkpt lat="46.59381" lon="6.09594">
        <ele>1078.8</ele>
        <time>2021-10-26T10:47:09Z</time>
      </trkpt>
      <trkpt lat="46.59376" lon="6.09596">
        <ele>1079.2</ele>
        <time>2021-10-26T10:47:13Z</time>
      </trkpt>
      <trkpt lat="46.59371" lon="6.09597">
        <ele>1078.8</ele>
        <time>2021-10-26T10:47:17Z</time>
      </trkpt>
      <trkpt lat="46.59366" lon="6.09598">
        <ele>1077.9</ele>
        <time>2021-10-26T10:47:21Z</time>
      </trkpt>
      <trkpt lat="46.59361" lon="6.09598">
        <ele>1076.7</ele>
        <time>2021-10-26T10:47:26Z</time>
      </trkpt>
      <trkpt lat="46.59357" lon="6.096">
        <ele>1076.2</ele>
        <time>2021-10-26T10:47:32Z</time>
      </trkpt>
      <trkpt lat="46.59354" lon="6.09605">
        <ele>1076.7</ele>
        <time>2021-10-26T10:47:44Z</time>
      </trkpt>
      <trkpt lat="46.59349" lon="6.09604">
        <ele>1075.3</ele>
        <time>2021-10-26T10:47:49Z</time>
      </trkpt>
      <trkpt lat="46.59344" lon="6.09601">
        <ele>1074.1</ele>
        <time>2021-10-26T10:47:53Z</time>
      </trkpt>
      <trkpt lat="46.59341" lon="6.09596">
        <ele>1073.9</ele>
        <time>2021-10-26T10:47:58Z</time>
      </trkpt>
      <trkpt lat="46.59337" lon="6.09591">
        <ele>1074.6</ele>
        <time>2021-10-26T10:48:03Z</time>
      </trkpt>
      <trkpt lat="46.59334" lon="6.09587">
        <ele>1074.9</ele>
        <time>2021-10-26T10:48:08Z</time>
      </trkpt>
      <trkpt lat="46.5933" lon="6.09582">
        <ele>1075.7</ele>
        <time>2021-10-26T10:48:15Z</time>
      </trkpt>
      <trkpt lat="46.59325" lon="6.0958">
        <ele>1076.1</ele>
        <time>2021-10-26T10:48:20Z</time>
      </trkpt>
      <trkpt lat="46.5932" lon="6.09578">
        <ele>1076.3</ele>
        <time>2021-10-26T10:48:24Z</time>
      </trkpt>
      <trkpt lat="46.59315" lon="6.09576">
        <ele>1076</ele>
        <time>2021-10-26T10:48:27Z</time>
      </trkpt>
      <trkpt lat="46.59311" lon="6.09571">
        <ele>1075.9</ele>
        <time>2021-10-26T10:48:31Z</time>
      </trkpt>
      <trkpt lat="46.59308" lon="6.09566">
        <ele>1076.7</ele>
        <time>2021-10-26T10:48:35Z</time>
      </trkpt>
      <trkpt lat="46.59306" lon="6.0956">
        <ele>1078</ele>
        <time>2021-10-26T10:48:39Z</time>
      </trkpt>
      <trkpt lat="46.59304" lon="6.09554">
        <ele>1079</ele>
        <time>2021-10-26T10:48:43Z</time>
      </trkpt>
      <trkpt lat="46.593" lon="6.09549">
        <ele>1079.4</ele>
        <time>2021-10-26T10:48:48Z</time>
      </trkpt>
      <trkpt lat="46.59299" lon="6.09543">
        <ele>1079.3</ele>
        <time>2021-10-26T10:48:54Z</time>
      </trkpt>
      <trkpt lat="46.59298" lon="6.09536">
        <ele>1079.5</ele>
        <time>2021-10-26T10:48:58Z</time>
      </trkpt>
      <trkpt lat="46.59298" lon="6.09529">
        <ele>1079.9</ele>
        <time>2021-10-26T10:49:02Z</time>
      </trkpt>
      <trkpt lat="46.59297" lon="6.09521">
        <ele>1080.2</ele>
        <time>2021-10-26T10:49:06Z</time>
      </trkpt>
      <trkpt lat="46.59298" lon="6.09514">
        <ele>1080.8</ele>
        <time>2021-10-26T10:49:11Z</time>
      </trkpt>
      <trkpt lat="46.59298" lon="6.09507">
        <ele>1081.1</ele>
        <time>2021-10-26T10:49:15Z</time>
      </trkpt>
      <trkpt lat="46.593" lon="6.095">
        <ele>1080.7</ele>
        <time>2021-10-26T10:49:20Z</time>
      </trkpt>
      <trkpt lat="46.59303" lon="6.09494">
        <ele>1080</ele>
        <time>2021-10-26T10:49:25Z</time>
      </trkpt>
      <trkpt lat="46.59304" lon="6.09486">
        <ele>1079.2</ele>
        <time>2021-10-26T10:49:30Z</time>
      </trkpt>
      <trkpt lat="46.59306" lon="6.0948">
        <ele>1078.7</ele>
        <time>2021-10-26T10:49:35Z</time>
      </trkpt>
      <trkpt lat="46.59308" lon="6.09473">
        <ele>1078.2</ele>
        <time>2021-10-26T10:49:40Z</time>
      </trkpt>
      <trkpt lat="46.59309" lon="6.09466">
        <ele>1077.9</ele>
        <time>2021-10-26T10:49:44Z</time>
      </trkpt>
      <trkpt lat="46.59311" lon="6.09459">
        <ele>1077.8</ele>
        <time>2021-10-26T10:49:48Z</time>
      </trkpt>
      <trkpt lat="46.59312" lon="6.09453">
        <ele>1077.8</ele>
        <time>2021-10-26T10:49:52Z</time>
      </trkpt>
      <trkpt lat="46.59314" lon="6.09447">
        <ele>1077.5</ele>
        <time>2021-10-26T10:49:56Z</time>
      </trkpt>
      <trkpt lat="46.59317" lon="6.0944">
        <ele>1076.9</ele>
        <time>2021-10-26T10:50:01Z</time>
      </trkpt>
      <trkpt lat="46.59318" lon="6.09433">
        <ele>1077.1</ele>
        <time>2021-10-26T10:50:05Z</time>
      </trkpt>
      <trkpt lat="46.5932" lon="6.09427">
        <ele>1077.2</ele>
        <time>2021-10-26T10:50:09Z</time>
      </trkpt>
      <trkpt lat="46.59321" lon="6.09419">
        <ele>1077.4</ele>
        <time>2021-10-26T10:50:14Z</time>
      </trkpt>
      <trkpt lat="46.59323" lon="6.09412">
        <ele>1077.6</ele>
        <time>2021-10-26T10:50:19Z</time>
      </trkpt>
      <trkpt lat="46.59323" lon="6.09405">
        <ele>1077.5</ele>
        <time>2021-10-26T10:50:24Z</time>
      </trkpt>
      <trkpt lat="46.59324" lon="6.09398">
        <ele>1077.8</ele>
        <time>2021-10-26T10:50:29Z</time>
      </trkpt>
      <trkpt lat="46.59326" lon="6.09391">
        <ele>1078.3</ele>
        <time>2021-10-26T10:50:35Z</time>
      </trkpt>
      <trkpt lat="46.59327" lon="6.09384">
        <ele>1077.5</ele>
        <time>2021-10-26T10:50:40Z</time>
      </trkpt>
      <trkpt lat="46.59328" lon="6.09378">
        <ele>1076.4</ele>
        <time>2021-10-26T10:50:44Z</time>
      </trkpt>
      <trkpt lat="46.59329" lon="6.09371">
        <ele>1075.4</ele>
        <time>2021-10-26T10:50:47Z</time>
      </trkpt>
      <trkpt lat="46.59331" lon="6.09363">
        <ele>1074.6</ele>
        <time>2021-10-26T10:50:50Z</time>
      </trkpt>
      <trkpt lat="46.59332" lon="6.09356">
        <ele>1074.2</ele>
        <time>2021-10-26T10:50:53Z</time>
      </trkpt>
      <trkpt lat="46.59334" lon="6.0935">
        <ele>1074.2</ele>
        <time>2021-10-26T10:50:57Z</time>
      </trkpt>
      <trkpt lat="46.59336" lon="6.09343">
        <ele>1074.6</ele>
        <time>2021-10-26T10:51:01Z</time>
      </trkpt>
      <trkpt lat="46.59337" lon="6.09337">
        <ele>1074.9</ele>
        <time>2021-10-26T10:51:05Z</time>
      </trkpt>
      <trkpt lat="46.59339" lon="6.0933">
        <ele>1075.3</ele>
        <time>2021-10-26T10:51:10Z</time>
      </trkpt>
      <trkpt lat="46.59338" lon="6.09323">
        <ele>1074.9</ele>
        <time>2021-10-26T10:51:20Z</time>
      </trkpt>
      <trkpt lat="46.59337" lon="6.09317">
        <ele>1074.1</ele>
        <time>2021-10-26T10:51:24Z</time>
      </trkpt>
      <trkpt lat="46.59337" lon="6.0931">
        <ele>1072.8</ele>
        <time>2021-10-26T10:51:28Z</time>
      </trkpt>
      <trkpt lat="46.59336" lon="6.09304">
        <ele>1071.5</ele>
        <time>2021-10-26T10:51:33Z</time>
      </trkpt>
      <trkpt lat="46.59335" lon="6.09297">
        <ele>1070.8</ele>
        <time>2021-10-26T10:51:37Z</time>
      </trkpt>
      <trkpt lat="46.59334" lon="6.0929">
        <ele>1070.6</ele>
        <time>2021-10-26T10:51:41Z</time>
      </trkpt>
      <trkpt lat="46.59333" lon="6.09283">
        <ele>1070.4</ele>
        <time>2021-10-26T10:51:46Z</time>
      </trkpt>
      <trkpt lat="46.59332" lon="6.09276">
        <ele>1070.3</ele>
        <time>2021-10-26T10:51:50Z</time>
      </trkpt>
      <trkpt lat="46.59331" lon="6.09269">
        <ele>1070.5</ele>
        <time>2021-10-26T10:51:54Z</time>
      </trkpt>
      <trkpt lat="46.5933" lon="6.09262">
        <ele>1071.3</ele>
        <time>2021-10-26T10:51:59Z</time>
      </trkpt>
      <trkpt lat="46.59329" lon="6.09254">
        <ele>1072.3</ele>
        <time>2021-10-26T10:52:05Z</time>
      </trkpt>
      <trkpt lat="46.59327" lon="6.09247">
        <ele>1073</ele>
        <time>2021-10-26T10:52:10Z</time>
      </trkpt>
      <trkpt lat="46.59326" lon="6.09241">
        <ele>1073.7</ele>
        <time>2021-10-26T10:52:14Z</time>
      </trkpt>
      <trkpt lat="46.59324" lon="6.09234">
        <ele>1074.6</ele>
        <time>2021-10-26T10:52:20Z</time>
      </trkpt>
      <trkpt lat="46.59321" lon="6.09228">
        <ele>1075.4</ele>
        <time>2021-10-26T10:52:25Z</time>
      </trkpt>
      <trkpt lat="46.59321" lon="6.09221">
        <ele>1075.3</ele>
        <time>2021-10-26T10:52:30Z</time>
      </trkpt>
      <trkpt lat="46.59321" lon="6.09213">
        <ele>1074.6</ele>
        <time>2021-10-26T10:52:35Z</time>
      </trkpt>
      <trkpt lat="46.59321" lon="6.09206">
        <ele>1073.8</ele>
        <time>2021-10-26T10:52:40Z</time>
      </trkpt>
      <trkpt lat="46.59319" lon="6.09199">
        <ele>1072.9</ele>
        <time>2021-10-26T10:52:45Z</time>
      </trkpt>
      <trkpt lat="46.59319" lon="6.09192">
        <ele>1072.1</ele>
        <time>2021-10-26T10:52:50Z</time>
      </trkpt>
      <trkpt lat="46.59317" lon="6.09184">
        <ele>1071.5</ele>
        <time>2021-10-26T10:52:55Z</time>
      </trkpt>
      <trkpt lat="46.59315" lon="6.09178">
        <ele>1071.4</ele>
        <time>2021-10-26T10:52:59Z</time>
      </trkpt>
      <trkpt lat="46.59314" lon="6.09172">
        <ele>1071.6</ele>
        <time>2021-10-26T10:53:03Z</time>
      </trkpt>
      <trkpt lat="46.59312" lon="6.09164">
        <ele>1072</ele>
        <time>2021-10-26T10:53:07Z</time>
      </trkpt>
      <trkpt lat="46.59309" lon="6.09158">
        <ele>1072.5</ele>
        <time>2021-10-26T10:53:11Z</time>
      </trkpt>
      <trkpt lat="46.59306" lon="6.09152">
        <ele>1072.5</ele>
        <time>2021-10-26T10:53:15Z</time>
      </trkpt>
      <trkpt lat="46.59304" lon="6.09146">
        <ele>1072.5</ele>
        <time>2021-10-26T10:53:20Z</time>
      </trkpt>
      <trkpt lat="46.59301" lon="6.09141">
        <ele>1072.6</ele>
        <time>2021-10-26T10:53:25Z</time>
      </trkpt>
      <trkpt lat="46.59298" lon="6.09136">
        <ele>1071.9</ele>
        <time>2021-10-26T10:53:30Z</time>
      </trkpt>
      <trkpt lat="46.59295" lon="6.0913">
        <ele>1070.8</ele>
        <time>2021-10-26T10:53:35Z</time>
      </trkpt>
      <trkpt lat="46.59293" lon="6.09124">
        <ele>1069.3</ele>
        <time>2021-10-26T10:53:55Z</time>
      </trkpt>
      <trkpt lat="46.5929" lon="6.09117">
        <ele>1069.3</ele>
        <time>2021-10-26T10:54:00Z</time>
      </trkpt>
      <trkpt lat="46.59286" lon="6.09111">
        <ele>1069.4</ele>
        <time>2021-10-26T10:54:04Z</time>
      </trkpt>
      <trkpt lat="46.59283" lon="6.09105">
        <ele>1069.4</ele>
        <time>2021-10-26T10:54:08Z</time>
      </trkpt>
      <trkpt lat="46.59281" lon="6.09099">
        <ele>1069.3</ele>
        <time>2021-10-26T10:54:12Z</time>
      </trkpt>
      <trkpt lat="46.59277" lon="6.09094">
        <ele>1069.9</ele>
        <time>2021-10-26T10:54:17Z</time>
      </trkpt>
      <trkpt lat="46.59273" lon="6.0909">
        <ele>1070.4</ele>
        <time>2021-10-26T10:54:22Z</time>
      </trkpt>
      <trkpt lat="46.59269" lon="6.09084">
        <ele>1070.7</ele>
        <time>2021-10-26T10:54:27Z</time>
      </trkpt>
      <trkpt lat="46.59266" lon="6.09079">
        <ele>1070.6</ele>
        <time>2021-10-26T10:54:31Z</time>
      </trkpt>
      <trkpt lat="46.59263" lon="6.09075">
        <ele>1071</ele>
        <time>2021-10-26T10:54:35Z</time>
      </trkpt>
      <trkpt lat="46.59259" lon="6.0907">
        <ele>1070.9</ele>
        <time>2021-10-26T10:54:40Z</time>
      </trkpt>
      <trkpt lat="46.59255" lon="6.09066">
        <ele>1071.7</ele>
        <time>2021-10-26T10:54:45Z</time>
      </trkpt>
      <trkpt lat="46.59251" lon="6.09062">
        <ele>1072.2</ele>
        <time>2021-10-26T10:54:50Z</time>
      </trkpt>
      <trkpt lat="46.59248" lon="6.09056">
        <ele>1072.3</ele>
        <time>2021-10-26T10:54:54Z</time>
      </trkpt>
      <trkpt lat="46.59245" lon="6.09051">
        <ele>1072.4</ele>
        <time>2021-10-26T10:54:59Z</time>
      </trkpt>
      <trkpt lat="46.59241" lon="6.09046">
        <ele>1072</ele>
        <time>2021-10-26T10:55:04Z</time>
      </trkpt>
      <trkpt lat="46.59237" lon="6.0904">
        <ele>1071.8</ele>
        <time>2021-10-26T10:55:09Z</time>
      </trkpt>
      <trkpt lat="46.59233" lon="6.09037">
        <ele>1071.7</ele>
        <time>2021-10-26T10:55:13Z</time>
      </trkpt>
      <trkpt lat="46.59229" lon="6.09033">
        <ele>1072.5</ele>
        <time>2021-10-26T10:55:18Z</time>
      </trkpt>
      <trkpt lat="46.59224" lon="6.0903">
        <ele>1073.2</ele>
        <time>2021-10-26T10:55:24Z</time>
      </trkpt>
      <trkpt lat="46.59219" lon="6.09027">
        <ele>1074.4</ele>
        <time>2021-10-26T10:55:42Z</time>
      </trkpt>
      <trkpt lat="46.59214" lon="6.09026">
        <ele>1073.6</ele>
        <time>2021-10-26T10:55:47Z</time>
      </trkpt>
      <trkpt lat="46.59209" lon="6.09023">
        <ele>1072.6</ele>
        <time>2021-10-26T10:55:52Z</time>
      </trkpt>
      <trkpt lat="46.59204" lon="6.09021">
        <ele>1072.6</ele>
        <time>2021-10-26T10:55:57Z</time>
      </trkpt>
      <trkpt lat="46.592" lon="6.09019">
        <ele>1073.6</ele>
        <time>2021-10-26T10:56:02Z</time>
      </trkpt>
      <trkpt lat="46.59195" lon="6.09016">
        <ele>1074.4</ele>
        <time>2021-10-26T10:56:07Z</time>
      </trkpt>
      <trkpt lat="46.59192" lon="6.09011">
        <ele>1074.8</ele>
        <time>2021-10-26T10:56:13Z</time>
      </trkpt>
      <trkpt lat="46.59187" lon="6.09006">
        <ele>1074.9</ele>
        <time>2021-10-26T10:56:18Z</time>
      </trkpt>
      <trkpt lat="46.59183" lon="6.09002">
        <ele>1075.1</ele>
        <time>2021-10-26T10:56:23Z</time>
      </trkpt>
      <trkpt lat="46.5918" lon="6.08997">
        <ele>1075.3</ele>
        <time>2021-10-26T10:56:28Z</time>
      </trkpt>
      <trkpt lat="46.59175" lon="6.08992">
        <ele>1075.7</ele>
        <time>2021-10-26T10:56:33Z</time>
      </trkpt>
      <trkpt lat="46.59172" lon="6.08987">
        <ele>1076.2</ele>
        <time>2021-10-26T10:56:37Z</time>
      </trkpt>
      <trkpt lat="46.5917" lon="6.08981">
        <ele>1076.2</ele>
        <time>2021-10-26T10:56:41Z</time>
      </trkpt>
      <trkpt lat="46.59166" lon="6.08976">
        <ele>1076.4</ele>
        <time>2021-10-26T10:56:46Z</time>
      </trkpt>
      <trkpt lat="46.59161" lon="6.08973">
        <ele>1077</ele>
        <time>2021-10-26T10:56:52Z</time>
      </trkpt>
      <trkpt lat="46.59157" lon="6.08969">
        <ele>1077.6</ele>
        <time>2021-10-26T10:56:58Z</time>
      </trkpt>
      <trkpt lat="46.59155" lon="6.08963">
        <ele>1077.7</ele>
        <time>2021-10-26T10:57:03Z</time>
      </trkpt>
      <trkpt lat="46.59155" lon="6.08955">
        <ele>1077.7</ele>
        <time>2021-10-26T10:57:09Z</time>
      </trkpt>
      <trkpt lat="46.59153" lon="6.08949">
        <ele>1077.9</ele>
        <time>2021-10-26T10:57:14Z</time>
      </trkpt>
      <trkpt lat="46.59152" lon="6.08943">
        <ele>1078.2</ele>
        <time>2021-10-26T10:57:19Z</time>
      </trkpt>
      <trkpt lat="46.59152" lon="6.08936">
        <ele>1077.9</ele>
        <time>2021-10-26T10:57:24Z</time>
      </trkpt>
      <trkpt lat="46.59153" lon="6.08928">
        <ele>1077</ele>
        <time>2021-10-26T10:57:29Z</time>
      </trkpt>
      <trkpt lat="46.59152" lon="6.08921">
        <ele>1076.4</ele>
        <time>2021-10-26T10:57:33Z</time>
      </trkpt>
      <trkpt lat="46.59151" lon="6.08914">
        <ele>1076</ele>
        <time>2021-10-26T10:57:36Z</time>
      </trkpt>
      <trkpt lat="46.5915" lon="6.08908">
        <ele>1075.2</ele>
        <time>2021-10-26T10:57:41Z</time>
      </trkpt>
      <trkpt lat="46.59148" lon="6.089">
        <ele>1074.4</ele>
        <time>2021-10-26T10:57:47Z</time>
      </trkpt>
      <trkpt lat="46.59144" lon="6.08896">
        <ele>1074</ele>
        <time>2021-10-26T10:57:52Z</time>
      </trkpt>
      <trkpt lat="46.59141" lon="6.08892">
        <ele>1073.9</ele>
        <time>2021-10-26T10:57:55Z</time>
      </trkpt>
      <trkpt lat="46.59137" lon="6.08886">
        <ele>1073.7</ele>
        <time>2021-10-26T10:57:59Z</time>
      </trkpt>
      <trkpt lat="46.59133" lon="6.08883">
        <ele>1073.9</ele>
        <time>2021-10-26T10:58:03Z</time>
      </trkpt>
      <trkpt lat="46.59129" lon="6.08879">
        <ele>1074.4</ele>
        <time>2021-10-26T10:58:07Z</time>
      </trkpt>
      <trkpt lat="46.59127" lon="6.08871">
        <ele>1075.9</ele>
        <time>2021-10-26T10:58:12Z</time>
      </trkpt>
      <trkpt lat="46.59127" lon="6.08864">
        <ele>1078.3</ele>
        <time>2021-10-26T10:58:18Z</time>
      </trkpt>
      <trkpt lat="46.59127" lon="6.08857">
        <ele>1080.1</ele>
        <time>2021-10-26T10:58:23Z</time>
      </trkpt>
      <trkpt lat="46.59128" lon="6.0885">
        <ele>1082</ele>
        <time>2021-10-26T10:58:28Z</time>
      </trkpt>
      <trkpt lat="46.59132" lon="6.08845">
        <ele>1084.2</ele>
        <time>2021-10-26T10:58:35Z</time>
      </trkpt>
      <trkpt lat="46.59136" lon="6.0884">
        <ele>1085</ele>
        <time>2021-10-26T10:58:41Z</time>
      </trkpt>
      <trkpt lat="46.59139" lon="6.08835">
        <ele>1084.6</ele>
        <time>2021-10-26T10:58:46Z</time>
      </trkpt>
      <trkpt lat="46.59142" lon="6.08829">
        <ele>1083.8</ele>
        <time>2021-10-26T10:58:51Z</time>
      </trkpt>
      <trkpt lat="46.59145" lon="6.08822">
        <ele>1083.1</ele>
        <time>2021-10-26T10:58:57Z</time>
      </trkpt>
      <trkpt lat="46.59147" lon="6.08816">
        <ele>1082.6</ele>
        <time>2021-10-26T10:59:02Z</time>
      </trkpt>
      <trkpt lat="46.59148" lon="6.08808">
        <ele>1082.5</ele>
        <time>2021-10-26T10:59:06Z</time>
      </trkpt>
      <trkpt lat="46.59149" lon="6.08801">
        <ele>1082.6</ele>
        <time>2021-10-26T10:59:11Z</time>
      </trkpt>
      <trkpt lat="46.59152" lon="6.08796">
        <ele>1083.3</ele>
        <time>2021-10-26T10:59:17Z</time>
      </trkpt>
      <trkpt lat="46.59155" lon="6.08789">
        <ele>1084.5</ele>
        <time>2021-10-26T10:59:24Z</time>
      </trkpt>
      <trkpt lat="46.59158" lon="6.08783">
        <ele>1085.5</ele>
        <time>2021-10-26T10:59:30Z</time>
      </trkpt>
      <trkpt lat="46.59159" lon="6.08777">
        <ele>1086.3</ele>
        <time>2021-10-26T10:59:35Z</time>
      </trkpt>
      <trkpt lat="46.59161" lon="6.08771">
        <ele>1086.9</ele>
        <time>2021-10-26T10:59:40Z</time>
      </trkpt>
      <trkpt lat="46.59163" lon="6.08765">
        <ele>1088</ele>
        <time>2021-10-26T10:59:46Z</time>
      </trkpt>
      <trkpt lat="46.59166" lon="6.08759">
        <ele>1088.4</ele>
        <time>2021-10-26T10:59:51Z</time>
      </trkpt>
      <trkpt lat="46.59169" lon="6.08753">
        <ele>1088.6</ele>
        <time>2021-10-26T10:59:56Z</time>
      </trkpt>
      <trkpt lat="46.59171" lon="6.08746">
        <ele>1088.5</ele>
        <time>2021-10-26T11:00:02Z</time>
      </trkpt>
      <trkpt lat="46.59173" lon="6.08739">
        <ele>1088.5</ele>
        <time>2021-10-26T11:00:06Z</time>
      </trkpt>
      <trkpt lat="46.59175" lon="6.08733">
        <ele>1088.5</ele>
        <time>2021-10-26T11:00:10Z</time>
      </trkpt>
      <trkpt lat="46.59177" lon="6.08727">
        <ele>1088.7</ele>
        <time>2021-10-26T11:00:15Z</time>
      </trkpt>
      <trkpt lat="46.5918" lon="6.08721">
        <ele>1089.3</ele>
        <time>2021-10-26T11:00:21Z</time>
      </trkpt>
      <trkpt lat="46.59178" lon="6.08715">
        <ele>1089.5</ele>
        <time>2021-10-26T11:00:27Z</time>
      </trkpt>
      <trkpt lat="46.59178" lon="6.08708">
        <ele>1089.4</ele>
        <time>2021-10-26T11:00:33Z</time>
      </trkpt>
      <trkpt lat="46.59179" lon="6.087">
        <ele>1088.8</ele>
        <time>2021-10-26T11:00:39Z</time>
      </trkpt>
      <trkpt lat="46.59181" lon="6.08695">
        <ele>1087.9</ele>
        <time>2021-10-26T11:00:46Z</time>
      </trkpt>
      <trkpt lat="46.59184" lon="6.08689">
        <ele>1087.3</ele>
        <time>2021-10-26T11:00:51Z</time>
      </trkpt>
      <trkpt lat="46.59188" lon="6.08683">
        <ele>1086.8</ele>
        <time>2021-10-26T11:00:55Z</time>
      </trkpt>
      <trkpt lat="46.5919" lon="6.08676">
        <ele>1086.8</ele>
        <time>2021-10-26T11:00:59Z</time>
      </trkpt>
      <trkpt lat="46.59191" lon="6.08669">
        <ele>1087.1</ele>
        <time>2021-10-26T11:01:04Z</time>
      </trkpt>
      <trkpt lat="46.59192" lon="6.08663">
        <ele>1086.9</ele>
        <time>2021-10-26T11:01:09Z</time>
      </trkpt>
      <trkpt lat="46.59193" lon="6.08656">
        <ele>1086.4</ele>
        <time>2021-10-26T11:01:14Z</time>
      </trkpt>
      <trkpt lat="46.59192" lon="6.08648">
        <ele>1086</ele>
        <time>2021-10-26T11:01:20Z</time>
      </trkpt>
      <trkpt lat="46.59192" lon="6.08641">
        <ele>1086</ele>
        <time>2021-10-26T11:01:25Z</time>
      </trkpt>
      <trkpt lat="46.59192" lon="6.08634">
        <ele>1086.1</ele>
        <time>2021-10-26T11:01:30Z</time>
      </trkpt>
      <trkpt lat="46.59191" lon="6.08627">
        <ele>1086</ele>
        <time>2021-10-26T11:01:35Z</time>
      </trkpt>
      <trkpt lat="46.59192" lon="6.08621">
        <ele>1085.9</ele>
        <time>2021-10-26T11:01:40Z</time>
      </trkpt>
      <trkpt lat="46.59192" lon="6.08614">
        <ele>1086</ele>
        <time>2021-10-26T11:01:45Z</time>
      </trkpt>
      <trkpt lat="46.59195" lon="6.08608">
        <ele>1085.9</ele>
        <time>2021-10-26T11:01:51Z</time>
      </trkpt>
      <trkpt lat="46.59199" lon="6.08602">
        <ele>1085.5</ele>
        <time>2021-10-26T11:01:56Z</time>
      </trkpt>
      <trkpt lat="46.59199" lon="6.08595">
        <ele>1085.6</ele>
        <time>2021-10-26T11:02:01Z</time>
      </trkpt>
      <trkpt lat="46.59199" lon="6.08587">
        <ele>1086.4</ele>
        <time>2021-10-26T11:02:07Z</time>
      </trkpt>
      <trkpt lat="46.592" lon="6.08579">
        <ele>1086.9</ele>
        <time>2021-10-26T11:02:12Z</time>
      </trkpt>
      <trkpt lat="46.59195" lon="6.08579">
        <ele>1087.2</ele>
        <time>2021-10-26T11:02:33Z</time>
      </trkpt>
      <trkpt lat="46.5919" lon="6.08579">
        <ele>1087</ele>
        <time>2021-10-26T11:02:39Z</time>
      </trkpt>
      <trkpt lat="46.59194" lon="6.08579">
        <ele>1087.1</ele>
        <time>2021-10-26T11:03:27Z</time>
      </trkpt>
      <trkpt lat="46.59199" lon="6.08577">
        <ele>1086.9</ele>
        <time>2021-10-26T11:03:31Z</time>
      </trkpt>
      <trkpt lat="46.59203" lon="6.08571">
        <ele>1087.3</ele>
        <time>2021-10-26T11:03:36Z</time>
      </trkpt>
      <trkpt lat="46.59204" lon="6.08563">
        <ele>1087.6</ele>
        <time>2021-10-26T11:03:41Z</time>
      </trkpt>
      <trkpt lat="46.59203" lon="6.08555">
        <ele>1086.3</ele>
        <time>2021-10-26T11:04:03Z</time>
      </trkpt>
      <trkpt lat="46.59206" lon="6.08551">
        <ele>1086.4</ele>
        <time>2021-10-26T11:05:47Z</time>
      </trkpt>
      <trkpt lat="46.59208" lon="6.08545">
        <ele>1088</ele>
        <time>2021-10-26T11:05:59Z</time>
      </trkpt>
      <trkpt lat="46.5921" lon="6.08538">
        <ele>1089.1</ele>
        <time>2021-10-26T11:06:10Z</time>
      </trkpt>
      <trkpt lat="46.59213" lon="6.08533">
        <ele>1090.2</ele>
        <time>2021-10-26T11:06:17Z</time>
      </trkpt>
      <trkpt lat="46.59215" lon="6.08526">
        <ele>1090.1</ele>
        <time>2021-10-26T11:06:24Z</time>
      </trkpt>
      <trkpt lat="46.59219" lon="6.0852">
        <ele>1088.7</ele>
        <time>2021-10-26T11:06:29Z</time>
      </trkpt>
      <trkpt lat="46.59222" lon="6.08514">
        <ele>1086.3</ele>
        <time>2021-10-26T11:06:35Z</time>
      </trkpt>
      <trkpt lat="46.59223" lon="6.08507">
        <ele>1084.1</ele>
        <time>2021-10-26T11:06:41Z</time>
      </trkpt>
      <trkpt lat="46.59224" lon="6.085">
        <ele>1081.7</ele>
        <time>2021-10-26T11:06:49Z</time>
      </trkpt>
      <trkpt lat="46.59228" lon="6.08494">
        <ele>1079.4</ele>
        <time>2021-10-26T11:06:56Z</time>
      </trkpt>
      <trkpt lat="46.59229" lon="6.08488">
        <ele>1078.2</ele>
        <time>2021-10-26T11:07:00Z</time>
      </trkpt>
      <trkpt lat="46.59229" lon="6.08481">
        <ele>1077.3</ele>
        <time>2021-10-26T11:07:04Z</time>
      </trkpt>
      <trkpt lat="46.59229" lon="6.08473">
        <ele>1076.8</ele>
        <time>2021-10-26T11:07:08Z</time>
      </trkpt>
      <trkpt lat="46.5923" lon="6.08466">
        <ele>1076.6</ele>
        <time>2021-10-26T11:07:12Z</time>
      </trkpt>
      <trkpt lat="46.5923" lon="6.08459">
        <ele>1076.3</ele>
        <time>2021-10-26T11:07:17Z</time>
      </trkpt>
      <trkpt lat="46.5923" lon="6.08453">
        <ele>1076.4</ele>
        <time>2021-10-26T11:07:21Z</time>
      </trkpt>
      <trkpt lat="46.59231" lon="6.08445">
        <ele>1076.8</ele>
        <time>2021-10-26T11:07:26Z</time>
      </trkpt>
      <trkpt lat="46.59234" lon="6.08439">
        <ele>1077</ele>
        <time>2021-10-26T11:07:31Z</time>
      </trkpt>
      <trkpt lat="46.59237" lon="6.08433">
        <ele>1077.3</ele>
        <time>2021-10-26T11:07:36Z</time>
      </trkpt>
      <trkpt lat="46.59239" lon="6.08427">
        <ele>1078.1</ele>
        <time>2021-10-26T11:07:43Z</time>
      </trkpt>
      <trkpt lat="46.59241" lon="6.0842">
        <ele>1078.1</ele>
        <time>2021-10-26T11:07:51Z</time>
      </trkpt>
      <trkpt lat="46.59244" lon="6.08414">
        <ele>1077.2</ele>
        <time>2021-10-26T11:07:58Z</time>
      </trkpt>
      <trkpt lat="46.59247" lon="6.08408">
        <ele>1076.9</ele>
        <time>2021-10-26T11:08:02Z</time>
      </trkpt>
      <trkpt lat="46.59251" lon="6.08404">
        <ele>1076.5</ele>
        <time>2021-10-26T11:08:07Z</time>
      </trkpt>
      <trkpt lat="46.59254" lon="6.08399">
        <ele>1074.8</ele>
        <time>2021-10-26T11:08:15Z</time>
      </trkpt>
      <trkpt lat="46.59255" lon="6.08392">
        <ele>1073.9</ele>
        <time>2021-10-26T11:08:21Z</time>
      </trkpt>
      <trkpt lat="46.59253" lon="6.08385">
        <ele>1074</ele>
        <time>2021-10-26T11:08:26Z</time>
      </trkpt>
      <trkpt lat="46.59251" lon="6.08378">
        <ele>1075.1</ele>
        <time>2021-10-26T11:08:31Z</time>
      </trkpt>
      <trkpt lat="46.5925" lon="6.08371">
        <ele>1076.5</ele>
        <time>2021-10-26T11:08:36Z</time>
      </trkpt>
      <trkpt lat="46.59251" lon="6.08363">
        <ele>1077.4</ele>
        <time>2021-10-26T11:08:42Z</time>
      </trkpt>
      <trkpt lat="46.5925" lon="6.08356">
        <ele>1077.5</ele>
        <time>2021-10-26T11:08:47Z</time>
      </trkpt>
      <trkpt lat="46.5925" lon="6.08349">
        <ele>1077.7</ele>
        <time>2021-10-26T11:08:51Z</time>
      </trkpt>
      <trkpt lat="46.59249" lon="6.08341">
        <ele>1078.1</ele>
        <time>2021-10-26T11:08:55Z</time>
      </trkpt>
      <trkpt lat="46.59247" lon="6.08334">
        <ele>1078.7</ele>
        <time>2021-10-26T11:08:59Z</time>
      </trkpt>
      <trkpt lat="46.59245" lon="6.08326">
        <ele>1079.5</ele>
        <time>2021-10-26T11:09:03Z</time>
      </trkpt>
      <trkpt lat="46.59242" lon="6.08319">
        <ele>1080.4</ele>
        <time>2021-10-26T11:09:07Z</time>
      </trkpt>
      <trkpt lat="46.5924" lon="6.08312">
        <ele>1081.4</ele>
        <time>2021-10-26T11:09:11Z</time>
      </trkpt>
      <trkpt lat="46.59239" lon="6.08306">
        <ele>1082.3</ele>
        <time>2021-10-26T11:09:15Z</time>
      </trkpt>
      <trkpt lat="46.59238" lon="6.08299">
        <ele>1083.4</ele>
        <time>2021-10-26T11:09:21Z</time>
      </trkpt>
      <trkpt lat="46.59239" lon="6.08292">
        <ele>1084.1</ele>
        <time>2021-10-26T11:09:28Z</time>
      </trkpt>
      <trkpt lat="46.59241" lon="6.08285">
        <ele>1084.3</ele>
        <time>2021-10-26T11:09:34Z</time>
      </trkpt>
      <trkpt lat="46.59241" lon="6.08279">
        <ele>1084.1</ele>
        <time>2021-10-26T11:09:40Z</time>
      </trkpt>
      <trkpt lat="46.59243" lon="6.08272">
        <ele>1084.7</ele>
        <time>2021-10-26T11:09:48Z</time>
      </trkpt>
      <trkpt lat="46.59242" lon="6.08265">
        <ele>1086.2</ele>
        <time>2021-10-26T11:09:55Z</time>
      </trkpt>
      <trkpt lat="46.59241" lon="6.08258">
        <ele>1087.2</ele>
        <time>2021-10-26T11:10:00Z</time>
      </trkpt>
      <trkpt lat="46.59239" lon="6.08252">
        <ele>1087.6</ele>
        <time>2021-10-26T11:10:05Z</time>
      </trkpt>
      <trkpt lat="46.59236" lon="6.08246">
        <ele>1087.3</ele>
        <time>2021-10-26T11:10:11Z</time>
      </trkpt>
      <trkpt lat="46.59235" lon="6.08238">
        <ele>1087.5</ele>
        <time>2021-10-26T11:10:17Z</time>
      </trkpt>
      <trkpt lat="46.59234" lon="6.08232">
        <ele>1087.7</ele>
        <time>2021-10-26T11:10:22Z</time>
      </trkpt>
      <trkpt lat="46.59233" lon="6.08225">
        <ele>1087.2</ele>
        <time>2021-10-26T11:10:27Z</time>
      </trkpt>
      <trkpt lat="46.5923" lon="6.08218">
        <ele>1086.6</ele>
        <time>2021-10-26T11:10:32Z</time>
      </trkpt>
      <trkpt lat="46.59226" lon="6.08213">
        <ele>1086.1</ele>
        <time>2021-10-26T11:10:38Z</time>
      </trkpt>
      <trkpt lat="46.59221" lon="6.08213">
        <ele>1086.1</ele>
        <time>2021-10-26T11:10:44Z</time>
      </trkpt>
      <trkpt lat="46.59216" lon="6.08215">
        <ele>1086.1</ele>
        <time>2021-10-26T11:10:50Z</time>
      </trkpt>
      <trkpt lat="46.59211" lon="6.08213">
        <ele>1085.2</ele>
        <time>2021-10-26T11:10:56Z</time>
      </trkpt>
      <trkpt lat="46.59207" lon="6.08211">
        <ele>1083.9</ele>
        <time>2021-10-26T11:11:01Z</time>
      </trkpt>
      <trkpt lat="46.59203" lon="6.08208">
        <ele>1083</ele>
        <time>2021-10-26T11:11:05Z</time>
      </trkpt>
      <trkpt lat="46.59199" lon="6.08203">
        <ele>1082.6</ele>
        <time>2021-10-26T11:11:09Z</time>
      </trkpt>
      <trkpt lat="46.59195" lon="6.08199">
        <ele>1082.6</ele>
        <time>2021-10-26T11:11:13Z</time>
      </trkpt>
      <trkpt lat="46.59192" lon="6.08193">
        <ele>1082.1</ele>
        <time>2021-10-26T11:11:18Z</time>
      </trkpt>
      <trkpt lat="46.5919" lon="6.08187">
        <ele>1082.4</ele>
        <time>2021-10-26T11:11:23Z</time>
      </trkpt>
      <trkpt lat="46.59189" lon="6.08181">
        <ele>1084</ele>
        <time>2021-10-26T11:11:32Z</time>
      </trkpt>
      <trkpt lat="46.59187" lon="6.08173">
        <ele>1086.2</ele>
        <time>2021-10-26T11:11:38Z</time>
      </trkpt>
      <trkpt lat="46.59189" lon="6.08168">
        <ele>1088.4</ele>
        <time>2021-10-26T11:11:47Z</time>
      </trkpt>
      <trkpt lat="46.59193" lon="6.08172">
        <ele>1092.3</ele>
        <time>2021-10-26T11:13:07Z</time>
      </trkpt>
      <trkpt lat="46.59195" lon="6.08165">
        <ele>1089.2</ele>
        <time>2021-10-26T11:13:16Z</time>
      </trkpt>
      <trkpt lat="46.59194" lon="6.08157">
        <ele>1087.9</ele>
        <time>2021-10-26T11:13:20Z</time>
      </trkpt>
      <trkpt lat="46.59192" lon="6.08151">
        <ele>1086.6</ele>
        <time>2021-10-26T11:13:24Z</time>
      </trkpt>
      <trkpt lat="46.59191" lon="6.08144">
        <ele>1085.9</ele>
        <time>2021-10-26T11:13:30Z</time>
      </trkpt>
      <trkpt lat="46.5919" lon="6.08137">
        <ele>1086.2</ele>
        <time>2021-10-26T11:13:36Z</time>
      </trkpt>
      <trkpt lat="46.59191" lon="6.0813">
        <ele>1086.7</ele>
        <time>2021-10-26T11:13:41Z</time>
      </trkpt>
      <trkpt lat="46.59193" lon="6.08124">
        <ele>1087</ele>
        <time>2021-10-26T11:13:47Z</time>
      </trkpt>
      <trkpt lat="46.59196" lon="6.08117">
        <ele>1087.1</ele>
        <time>2021-10-26T11:13:52Z</time>
      </trkpt>
      <trkpt lat="46.59197" lon="6.08111">
        <ele>1086.9</ele>
        <time>2021-10-26T11:13:57Z</time>
      </trkpt>
      <trkpt lat="46.59198" lon="6.08103">
        <ele>1086.8</ele>
        <time>2021-10-26T11:14:02Z</time>
      </trkpt>
      <trkpt lat="46.59199" lon="6.08096">
        <ele>1086.5</ele>
        <time>2021-10-26T11:14:07Z</time>
      </trkpt>
      <trkpt lat="46.592" lon="6.08089">
        <ele>1086.6</ele>
        <time>2021-10-26T11:14:12Z</time>
      </trkpt>
      <trkpt lat="46.59204" lon="6.08083">
        <ele>1086.7</ele>
        <time>2021-10-26T11:14:16Z</time>
      </trkpt>
      <trkpt lat="46.59207" lon="6.08077">
        <ele>1086.6</ele>
        <time>2021-10-26T11:14:20Z</time>
      </trkpt>
      <trkpt lat="46.5921" lon="6.08071">
        <ele>1086.4</ele>
        <time>2021-10-26T11:14:24Z</time>
      </trkpt>
      <trkpt lat="46.59211" lon="6.08065">
        <ele>1086.5</ele>
        <time>2021-10-26T11:14:28Z</time>
      </trkpt>
      <trkpt lat="46.59212" lon="6.08058">
        <ele>1087.2</ele>
        <time>2021-10-26T11:14:33Z</time>
      </trkpt>
      <trkpt lat="46.59215" lon="6.08052">
        <ele>1087.8</ele>
        <time>2021-10-26T11:14:38Z</time>
      </trkpt>
      <trkpt lat="46.59217" lon="6.08046">
        <ele>1088.3</ele>
        <time>2021-10-26T11:14:47Z</time>
      </trkpt>
      <trkpt lat="46.59222" lon="6.08041">
        <ele>1088.4</ele>
        <time>2021-10-26T11:14:53Z</time>
      </trkpt>
      <trkpt lat="46.59225" lon="6.08036">
        <ele>1088</ele>
        <time>2021-10-26T11:14:57Z</time>
      </trkpt>
      <trkpt lat="46.59227" lon="6.0803">
        <ele>1086.6</ele>
        <time>2021-10-26T11:15:02Z</time>
      </trkpt>
      <trkpt lat="46.59229" lon="6.08022">
        <ele>1085</ele>
        <time>2021-10-26T11:15:07Z</time>
      </trkpt>
      <trkpt lat="46.59229" lon="6.08013">
        <ele>1084</ele>
        <time>2021-10-26T11:15:11Z</time>
      </trkpt>
      <trkpt lat="46.59231" lon="6.08005">
        <ele>1082.3</ele>
        <time>2021-10-26T11:15:17Z</time>
      </trkpt>
      <trkpt lat="46.59231" lon="6.07997">
        <ele>1081.3</ele>
        <time>2021-10-26T11:15:21Z</time>
      </trkpt>
      <trkpt lat="46.59232" lon="6.0799">
        <ele>1080.8</ele>
        <time>2021-10-26T11:15:25Z</time>
      </trkpt>
      <trkpt lat="46.59235" lon="6.07984">
        <ele>1081.6</ele>
        <time>2021-10-26T11:15:30Z</time>
      </trkpt>
      <trkpt lat="46.59236" lon="6.07978">
        <ele>1082.3</ele>
        <time>2021-10-26T11:15:35Z</time>
      </trkpt>
      <trkpt lat="46.59237" lon="6.0797">
        <ele>1083.4</ele>
        <time>2021-10-26T11:15:41Z</time>
      </trkpt>
      <trkpt lat="46.59237" lon="6.07963">
        <ele>1084.6</ele>
        <time>2021-10-26T11:15:46Z</time>
      </trkpt>
      <trkpt lat="46.59238" lon="6.07956">
        <ele>1086</ele>
        <time>2021-10-26T11:15:51Z</time>
      </trkpt>
      <trkpt lat="46.59237" lon="6.07949">
        <ele>1087.8</ele>
        <time>2021-10-26T11:15:56Z</time>
      </trkpt>
      <trkpt lat="46.59238" lon="6.07942">
        <ele>1089.2</ele>
        <time>2021-10-26T11:16:02Z</time>
      </trkpt>
      <trkpt lat="46.59238" lon="6.07936">
        <ele>1089.5</ele>
        <time>2021-10-26T11:16:08Z</time>
      </trkpt>
      <trkpt lat="46.59238" lon="6.07927">
        <ele>1089.5</ele>
        <time>2021-10-26T11:16:16Z</time>
      </trkpt>
      <trkpt lat="46.59238" lon="6.07919">
        <ele>1089.4</ele>
        <time>2021-10-26T11:16:20Z</time>
      </trkpt>
      <trkpt lat="46.59237" lon="6.07913">
        <ele>1089.1</ele>
        <time>2021-10-26T11:16:24Z</time>
      </trkpt>
      <trkpt lat="46.59238" lon="6.07906">
        <ele>1088.9</ele>
        <time>2021-10-26T11:16:29Z</time>
      </trkpt>
      <trkpt lat="46.5924" lon="6.079">
        <ele>1088.4</ele>
        <time>2021-10-26T11:16:33Z</time>
      </trkpt>
      <trkpt lat="46.59241" lon="6.07892">
        <ele>1087.2</ele>
        <time>2021-10-26T11:16:38Z</time>
      </trkpt>
      <trkpt lat="46.59241" lon="6.07885">
        <ele>1085.4</ele>
        <time>2021-10-26T11:16:44Z</time>
      </trkpt>
      <trkpt lat="46.59242" lon="6.07878">
        <ele>1084.2</ele>
        <time>2021-10-26T11:16:48Z</time>
      </trkpt>
      <trkpt lat="46.59244" lon="6.07873">
        <ele>1083.3</ele>
        <time>2021-10-26T11:16:52Z</time>
      </trkpt>
      <trkpt lat="46.59247" lon="6.07867">
        <ele>1083.2</ele>
        <time>2021-10-26T11:16:58Z</time>
      </trkpt>
      <trkpt lat="46.59251" lon="6.07862">
        <ele>1083.6</ele>
        <time>2021-10-26T11:17:02Z</time>
      </trkpt>
      <trkpt lat="46.59255" lon="6.07857">
        <ele>1084.5</ele>
        <time>2021-10-26T11:17:06Z</time>
      </trkpt>
      <trkpt lat="46.59258" lon="6.07851">
        <ele>1085.1</ele>
        <time>2021-10-26T11:17:11Z</time>
      </trkpt>
      <trkpt lat="46.5926" lon="6.07845">
        <ele>1085.5</ele>
        <time>2021-10-26T11:17:16Z</time>
      </trkpt>
      <trkpt lat="46.59262" lon="6.07838">
        <ele>1085.5</ele>
        <time>2021-10-26T11:17:22Z</time>
      </trkpt>
      <trkpt lat="46.59265" lon="6.07832">
        <ele>1085.6</ele>
        <time>2021-10-26T11:17:28Z</time>
      </trkpt>
      <trkpt lat="46.59269" lon="6.07828">
        <ele>1086.4</ele>
        <time>2021-10-26T11:17:33Z</time>
      </trkpt>
      <trkpt lat="46.59271" lon="6.07822">
        <ele>1087.3</ele>
        <time>2021-10-26T11:17:38Z</time>
      </trkpt>
      <trkpt lat="46.59272" lon="6.07815">
        <ele>1087.4</ele>
        <time>2021-10-26T11:17:43Z</time>
      </trkpt>
      <trkpt lat="46.59274" lon="6.07809">
        <ele>1087.1</ele>
        <time>2021-10-26T11:17:47Z</time>
      </trkpt>
      <trkpt lat="46.59278" lon="6.07805">
        <ele>1086.8</ele>
        <time>2021-10-26T11:17:53Z</time>
      </trkpt>
      <trkpt lat="46.59284" lon="6.07805">
        <ele>1086.9</ele>
        <time>2021-10-26T11:17:58Z</time>
      </trkpt>
      <trkpt lat="46.59289" lon="6.07805">
        <ele>1087</ele>
        <time>2021-10-26T11:18:04Z</time>
      </trkpt>
      <trkpt lat="46.59294" lon="6.07805">
        <ele>1087.1</ele>
        <time>2021-10-26T11:18:09Z</time>
      </trkpt>
      <trkpt lat="46.59299" lon="6.07805">
        <ele>1087.1</ele>
        <time>2021-10-26T11:18:13Z</time>
      </trkpt>
      <trkpt lat="46.59303" lon="6.07808">
        <ele>1087.3</ele>
        <time>2021-10-26T11:18:19Z</time>
      </trkpt>
      <trkpt lat="46.59309" lon="6.07811">
        <ele>1087.6</ele>
        <time>2021-10-26T11:18:24Z</time>
      </trkpt>
      <trkpt lat="46.59313" lon="6.07813">
        <ele>1088.3</ele>
        <time>2021-10-26T11:18:28Z</time>
      </trkpt>
      <trkpt lat="46.59318" lon="6.07817">
        <ele>1090.5</ele>
        <time>2021-10-26T11:18:35Z</time>
      </trkpt>
      <trkpt lat="46.59322" lon="6.0782">
        <ele>1093.2</ele>
        <time>2021-10-26T11:18:41Z</time>
      </trkpt>
      <trkpt lat="46.59326" lon="6.07824">
        <ele>1094.1</ele>
        <time>2021-10-26T11:18:47Z</time>
      </trkpt>
      <trkpt lat="46.59331" lon="6.07829">
        <ele>1093.8</ele>
        <time>2021-10-26T11:18:52Z</time>
      </trkpt>
      <trkpt lat="46.59335" lon="6.07833">
        <ele>1093.2</ele>
        <time>2021-10-26T11:18:56Z</time>
      </trkpt>
      <trkpt lat="46.59339" lon="6.07837">
        <ele>1092.9</ele>
        <time>2021-10-26T11:19:00Z</time>
      </trkpt>
      <trkpt lat="46.59343" lon="6.0784">
        <ele>1093.1</ele>
        <time>2021-10-26T11:19:03Z</time>
      </trkpt>
      <trkpt lat="46.59347" lon="6.07843">
        <ele>1093.5</ele>
        <time>2021-10-26T11:19:06Z</time>
      </trkpt>
      <trkpt lat="46.59352" lon="6.07846">
        <ele>1094</ele>
        <time>2021-10-26T11:19:09Z</time>
      </trkpt>
      <trkpt lat="46.59354" lon="6.07852">
        <ele>1095.2</ele>
        <time>2021-10-26T11:19:13Z</time>
      </trkpt>
      <trkpt lat="46.59355" lon="6.0786">
        <ele>1096.9</ele>
        <time>2021-10-26T11:19:19Z</time>
      </trkpt>
      <trkpt lat="46.59357" lon="6.07866">
        <ele>1097.7</ele>
        <time>2021-10-26T11:19:25Z</time>
      </trkpt>
      <trkpt lat="46.5936" lon="6.07873">
        <ele>1097.8</ele>
        <time>2021-10-26T11:19:33Z</time>
      </trkpt>
      <trkpt lat="46.59364" lon="6.07878">
        <ele>1097.4</ele>
        <time>2021-10-26T11:19:37Z</time>
      </trkpt>
      <trkpt lat="46.59369" lon="6.07881">
        <ele>1096.6</ele>
        <time>2021-10-26T11:19:42Z</time>
      </trkpt>
      <trkpt lat="46.59374" lon="6.07883">
        <ele>1096.2</ele>
        <time>2021-10-26T11:19:46Z</time>
      </trkpt>
      <trkpt lat="46.59379" lon="6.07885">
        <ele>1095.7</ele>
        <time>2021-10-26T11:19:50Z</time>
      </trkpt>
      <trkpt lat="46.59384" lon="6.07888">
        <ele>1095.8</ele>
        <time>2021-10-26T11:19:58Z</time>
      </trkpt>
      <trkpt lat="46.59388" lon="6.0789">
        <ele>1096.8</ele>
        <time>2021-10-26T11:20:06Z</time>
      </trkpt>
      <trkpt lat="46.59392" lon="6.07894">
        <ele>1097.5</ele>
        <time>2021-10-26T11:20:11Z</time>
      </trkpt>
      <trkpt lat="46.59397" lon="6.07895">
        <ele>1098.1</ele>
        <time>2021-10-26T11:20:15Z</time>
      </trkpt>
      <trkpt lat="46.59403" lon="6.07896">
        <ele>1098.5</ele>
        <time>2021-10-26T11:20:19Z</time>
      </trkpt>
      <trkpt lat="46.59408" lon="6.07898">
        <ele>1098.8</ele>
        <time>2021-10-26T11:20:23Z</time>
      </trkpt>
      <trkpt lat="46.59412" lon="6.07899">
        <ele>1099.5</ele>
        <time>2021-10-26T11:20:27Z</time>
      </trkpt>
      <trkpt lat="46.59417" lon="6.07902">
        <ele>1102.1</ele>
        <time>2021-10-26T11:20:34Z</time>
      </trkpt>
      <trkpt lat="46.59422" lon="6.07903">
        <ele>1104.4</ele>
        <time>2021-10-26T11:20:41Z</time>
      </trkpt>
      <trkpt lat="46.59427" lon="6.07905">
        <ele>1105.6</ele>
        <time>2021-10-26T11:20:46Z</time>
      </trkpt>
      <trkpt lat="46.59432" lon="6.07905">
        <ele>1106.1</ele>
        <time>2021-10-26T11:20:49Z</time>
      </trkpt>
      <trkpt lat="46.59437" lon="6.07907">
        <ele>1106.9</ele>
        <time>2021-10-26T11:20:53Z</time>
      </trkpt>
      <trkpt lat="46.59443" lon="6.07906">
        <ele>1107.8</ele>
        <time>2021-10-26T11:20:58Z</time>
      </trkpt>
      <trkpt lat="46.59448" lon="6.07905">
        <ele>1107.8</ele>
        <time>2021-10-26T11:21:02Z</time>
      </trkpt>
      <trkpt lat="46.59453" lon="6.07902">
        <ele>1107.2</ele>
        <time>2021-10-26T11:21:07Z</time>
      </trkpt>
      <trkpt lat="46.59457" lon="6.07901">
        <ele>1105.9</ele>
        <time>2021-10-26T11:21:12Z</time>
      </trkpt>
      <trkpt lat="46.59462" lon="6.079">
        <ele>1104.8</ele>
        <time>2021-10-26T11:21:18Z</time>
      </trkpt>
      <trkpt lat="46.59467" lon="6.079">
        <ele>1103.9</ele>
        <time>2021-10-26T11:21:26Z</time>
      </trkpt>
      <trkpt lat="46.59472" lon="6.079">
        <ele>1103.8</ele>
        <time>2021-10-26T11:21:30Z</time>
      </trkpt>
      <trkpt lat="46.59477" lon="6.079">
        <ele>1103.6</ele>
        <time>2021-10-26T11:21:34Z</time>
      </trkpt>
      <trkpt lat="46.59482" lon="6.07901">
        <ele>1103.4</ele>
        <time>2021-10-26T11:21:39Z</time>
      </trkpt>
      <trkpt lat="46.59487" lon="6.07901">
        <ele>1102.9</ele>
        <time>2021-10-26T11:21:45Z</time>
      </trkpt>
      <trkpt lat="46.59486" lon="6.07893">
        <ele>1100.6</ele>
        <time>2021-10-26T11:22:16Z</time>
      </trkpt>
      <trkpt lat="46.59482" lon="6.07889">
        <ele>1099.9</ele>
        <time>2021-10-26T11:22:20Z</time>
      </trkpt>
      <trkpt lat="46.59487" lon="6.07895">
        <ele>1099.5</ele>
        <time>2021-10-26T11:23:07Z</time>
      </trkpt>
      <trkpt lat="46.59492" lon="6.07894">
        <ele>1098.2</ele>
        <time>2021-10-26T11:23:12Z</time>
      </trkpt>
      <trkpt lat="46.59496" lon="6.07892">
        <ele>1097.2</ele>
        <time>2021-10-26T11:23:20Z</time>
      </trkpt>
      <trkpt lat="46.59493" lon="6.07886">
        <ele>1097.3</ele>
        <time>2021-10-26T11:23:28Z</time>
      </trkpt>
      <trkpt lat="46.59496" lon="6.07881">
        <ele>1096.4</ele>
        <time>2021-10-26T11:24:15Z</time>
      </trkpt>
      <trkpt lat="46.59498" lon="6.07873">
        <ele>1097.7</ele>
        <time>2021-10-26T11:24:19Z</time>
      </trkpt>
      <trkpt lat="46.59501" lon="6.07866">
        <ele>1098.8</ele>
        <time>2021-10-26T11:24:23Z</time>
      </trkpt>
      <trkpt lat="46.59503" lon="6.07859">
        <ele>1099.8</ele>
        <time>2021-10-26T11:24:27Z</time>
      </trkpt>
      <trkpt lat="46.59506" lon="6.07852">
        <ele>1100.8</ele>
        <time>2021-10-26T11:24:31Z</time>
      </trkpt>
      <trkpt lat="46.59508" lon="6.07846">
        <ele>1102</ele>
        <time>2021-10-26T11:24:36Z</time>
      </trkpt>
      <trkpt lat="46.5951" lon="6.07838">
        <ele>1102.4</ele>
        <time>2021-10-26T11:24:43Z</time>
      </trkpt>
      <trkpt lat="46.59513" lon="6.07833">
        <ele>1102.9</ele>
        <time>2021-10-26T11:24:49Z</time>
      </trkpt>
      <trkpt lat="46.59517" lon="6.07829">
        <ele>1103.2</ele>
        <time>2021-10-26T11:24:54Z</time>
      </trkpt>
      <trkpt lat="46.59518" lon="6.07822">
        <ele>1103.3</ele>
        <time>2021-10-26T11:25:00Z</time>
      </trkpt>
      <trkpt lat="46.5952" lon="6.07814">
        <ele>1103.9</ele>
        <time>2021-10-26T11:25:05Z</time>
      </trkpt>
      <trkpt lat="46.59522" lon="6.07808">
        <ele>1104.6</ele>
        <time>2021-10-26T11:25:10Z</time>
      </trkpt>
      <trkpt lat="46.59523" lon="6.07801">
        <ele>1104.7</ele>
        <time>2021-10-26T11:25:16Z</time>
      </trkpt>
      <trkpt lat="46.59524" lon="6.07794">
        <ele>1103.6</ele>
        <time>2021-10-26T11:25:21Z</time>
      </trkpt>
      <trkpt lat="46.59527" lon="6.07788">
        <ele>1102.7</ele>
        <time>2021-10-26T11:25:26Z</time>
      </trkpt>
      <trkpt lat="46.5953" lon="6.07782">
        <ele>1103.1</ele>
        <time>2021-10-26T11:25:30Z</time>
      </trkpt>
      <trkpt lat="46.59532" lon="6.07776">
        <ele>1104.1</ele>
        <time>2021-10-26T11:25:35Z</time>
      </trkpt>
      <trkpt lat="46.59533" lon="6.07769">
        <ele>1104.5</ele>
        <time>2021-10-26T11:25:41Z</time>
      </trkpt>
      <trkpt lat="46.59533" lon="6.07762">
        <ele>1105.6</ele>
        <time>2021-10-26T11:25:50Z</time>
      </trkpt>
      <trkpt lat="46.59535" lon="6.07757">
        <ele>1106.5</ele>
        <time>2021-10-26T11:25:58Z</time>
      </trkpt>
      <trkpt lat="46.59538" lon="6.07751">
        <ele>1106.3</ele>
        <time>2021-10-26T11:26:12Z</time>
      </trkpt>
      <trkpt lat="46.59538" lon="6.07743">
        <ele>1107.5</ele>
        <time>2021-10-26T11:26:18Z</time>
      </trkpt>
      <trkpt lat="46.5954" lon="6.07737">
        <ele>1108</ele>
        <time>2021-10-26T11:26:23Z</time>
      </trkpt>
      <trkpt lat="46.59543" lon="6.07731">
        <ele>1108.3</ele>
        <time>2021-10-26T11:26:28Z</time>
      </trkpt>
      <trkpt lat="46.59545" lon="6.07724">
        <ele>1108.3</ele>
        <time>2021-10-26T11:26:33Z</time>
      </trkpt>
      <trkpt lat="46.59546" lon="6.07717">
        <ele>1108.2</ele>
        <time>2021-10-26T11:26:38Z</time>
      </trkpt>
      <trkpt lat="46.59549" lon="6.0771">
        <ele>1108.7</ele>
        <time>2021-10-26T11:26:44Z</time>
      </trkpt>
      <trkpt lat="46.59551" lon="6.07704">
        <ele>1108.9</ele>
        <time>2021-10-26T11:26:48Z</time>
      </trkpt>
      <trkpt lat="46.59552" lon="6.07697">
        <ele>1109.5</ele>
        <time>2021-10-26T11:26:52Z</time>
      </trkpt>
      <trkpt lat="46.59554" lon="6.0769">
        <ele>1109.7</ele>
        <time>2021-10-26T11:26:56Z</time>
      </trkpt>
      <trkpt lat="46.59557" lon="6.07685">
        <ele>1109.9</ele>
        <time>2021-10-26T11:27:01Z</time>
      </trkpt>
      <trkpt lat="46.59559" lon="6.07679">
        <ele>1110</ele>
        <time>2021-10-26T11:27:05Z</time>
      </trkpt>
      <trkpt lat="46.59562" lon="6.07674">
        <ele>1110.3</ele>
        <time>2021-10-26T11:27:09Z</time>
      </trkpt>
      <trkpt lat="46.59565" lon="6.07668">
        <ele>1110.3</ele>
        <time>2021-10-26T11:27:13Z</time>
      </trkpt>
      <trkpt lat="46.59568" lon="6.07663">
        <ele>1110.4</ele>
        <time>2021-10-26T11:27:17Z</time>
      </trkpt>
      <trkpt lat="46.59571" lon="6.07658">
        <ele>1110.8</ele>
        <time>2021-10-26T11:27:23Z</time>
      </trkpt>
      <trkpt lat="46.59575" lon="6.07652">
        <ele>1109.7</ele>
        <time>2021-10-26T11:27:32Z</time>
      </trkpt>
      <trkpt lat="46.59578" lon="6.07646">
        <ele>1108.5</ele>
        <time>2021-10-26T11:27:36Z</time>
      </trkpt>
      <trkpt lat="46.59581" lon="6.07638">
        <ele>1107.2</ele>
        <time>2021-10-26T11:27:40Z</time>
      </trkpt>
      <trkpt lat="46.59584" lon="6.07632">
        <ele>1106</ele>
        <time>2021-10-26T11:27:44Z</time>
      </trkpt>
      <trkpt lat="46.59586" lon="6.07627">
        <ele>1105.3</ele>
        <time>2021-10-26T11:27:48Z</time>
      </trkpt>
      <trkpt lat="46.5959" lon="6.07622">
        <ele>1104.9</ele>
        <time>2021-10-26T11:27:52Z</time>
      </trkpt>
      <trkpt lat="46.59594" lon="6.07617">
        <ele>1104.5</ele>
        <time>2021-10-26T11:27:57Z</time>
      </trkpt>
      <trkpt lat="46.59597" lon="6.07611">
        <ele>1103.7</ele>
        <time>2021-10-26T11:28:02Z</time>
      </trkpt>
      <trkpt lat="46.596" lon="6.07606">
        <ele>1102.9</ele>
        <time>2021-10-26T11:28:07Z</time>
      </trkpt>
      <trkpt lat="46.59603" lon="6.076">
        <ele>1102.7</ele>
        <time>2021-10-26T11:28:12Z</time>
      </trkpt>
      <trkpt lat="46.59606" lon="6.07595">
        <ele>1102.5</ele>
        <time>2021-10-26T11:28:16Z</time>
      </trkpt>
      <trkpt lat="46.5961" lon="6.07591">
        <ele>1101.7</ele>
        <time>2021-10-26T11:28:20Z</time>
      </trkpt>
      <trkpt lat="46.59613" lon="6.07586">
        <ele>1100.6</ele>
        <time>2021-10-26T11:28:25Z</time>
      </trkpt>
      <trkpt lat="46.59617" lon="6.07581">
        <ele>1100.6</ele>
        <time>2021-10-26T11:28:30Z</time>
      </trkpt>
      <trkpt lat="46.5962" lon="6.07575">
        <ele>1100.5</ele>
        <time>2021-10-26T11:28:35Z</time>
      </trkpt>
      <trkpt lat="46.59623" lon="6.07569">
        <ele>1100.4</ele>
        <time>2021-10-26T11:28:40Z</time>
      </trkpt>
      <trkpt lat="46.59627" lon="6.07564">
        <ele>1099.3</ele>
        <time>2021-10-26T11:28:46Z</time>
      </trkpt>
      <trkpt lat="46.5963" lon="6.07559">
        <ele>1098.1</ele>
        <time>2021-10-26T11:28:52Z</time>
      </trkpt>
      <trkpt lat="46.59634" lon="6.07553">
        <ele>1097</ele>
        <time>2021-10-26T11:28:58Z</time>
      </trkpt>
      <trkpt lat="46.59636" lon="6.07547">
        <ele>1096.5</ele>
        <time>2021-10-26T11:29:03Z</time>
      </trkpt>
      <trkpt lat="46.59639" lon="6.07541">
        <ele>1095.8</ele>
        <time>2021-10-26T11:29:08Z</time>
      </trkpt>
      <trkpt lat="46.5964" lon="6.07534">
        <ele>1095.6</ele>
        <time>2021-10-26T11:29:13Z</time>
      </trkpt>
      <trkpt lat="46.59642" lon="6.07527">
        <ele>1095.1</ele>
        <time>2021-10-26T11:29:18Z</time>
      </trkpt>
      <trkpt lat="46.59644" lon="6.0752">
        <ele>1094.4</ele>
        <time>2021-10-26T11:29:23Z</time>
      </trkpt>
      <trkpt lat="46.59646" lon="6.07513">
        <ele>1093.6</ele>
        <time>2021-10-26T11:29:27Z</time>
      </trkpt>
      <trkpt lat="46.59649" lon="6.07507">
        <ele>1092.9</ele>
        <time>2021-10-26T11:29:32Z</time>
      </trkpt>
      <trkpt lat="46.59651" lon="6.07501">
        <ele>1092.4</ele>
        <time>2021-10-26T11:29:38Z</time>
      </trkpt>
      <trkpt lat="46.59653" lon="6.07495">
        <ele>1092.7</ele>
        <time>2021-10-26T11:30:02Z</time>
      </trkpt>
      <trkpt lat="46.59658" lon="6.07494">
        <ele>1093.6</ele>
        <time>2021-10-26T11:30:10Z</time>
      </trkpt>
      <trkpt lat="46.59654" lon="6.07489">
        <ele>1093.3</ele>
        <time>2021-10-26T11:30:21Z</time>
      </trkpt>
      <trkpt lat="46.5965" lon="6.07488">
        <ele>1092.6</ele>
        <time>2021-10-26T11:30:27Z</time>
      </trkpt>
      <trkpt lat="46.59645" lon="6.07487">
        <ele>1091.9</ele>
        <time>2021-10-26T11:30:31Z</time>
      </trkpt>
      <trkpt lat="46.5964" lon="6.07485">
        <ele>1091.3</ele>
        <time>2021-10-26T11:30:35Z</time>
      </trkpt>
      <trkpt lat="46.59635" lon="6.07482">
        <ele>1091.2</ele>
        <time>2021-10-26T11:30:39Z</time>
      </trkpt>
      <trkpt lat="46.5963" lon="6.07479">
        <ele>1091.6</ele>
        <time>2021-10-26T11:30:44Z</time>
      </trkpt>
      <trkpt lat="46.59626" lon="6.07475">
        <ele>1092.9</ele>
        <time>2021-10-26T11:30:48Z</time>
      </trkpt>
      <trkpt lat="46.59622" lon="6.07471">
        <ele>1094.4</ele>
        <time>2021-10-26T11:30:52Z</time>
      </trkpt>
      <trkpt lat="46.59618" lon="6.07466">
        <ele>1096.6</ele>
        <time>2021-10-26T11:30:58Z</time>
      </trkpt>
      <trkpt lat="46.59615" lon="6.07461">
        <ele>1097.4</ele>
        <time>2021-10-26T11:31:02Z</time>
      </trkpt>
      <trkpt lat="46.5961" lon="6.07461">
        <ele>1097.8</ele>
        <time>2021-10-26T11:31:08Z</time>
      </trkpt>
      <trkpt lat="46.59606" lon="6.07458">
        <ele>1097.8</ele>
        <time>2021-10-26T11:31:15Z</time>
      </trkpt>
      <trkpt lat="46.59602" lon="6.07452">
        <ele>1098.3</ele>
        <time>2021-10-26T11:31:20Z</time>
      </trkpt>
      <trkpt lat="46.596" lon="6.07446">
        <ele>1099.5</ele>
        <time>2021-10-26T11:31:26Z</time>
      </trkpt>
      <trkpt lat="46.59595" lon="6.07441">
        <ele>1100.7</ele>
        <time>2021-10-26T11:31:31Z</time>
      </trkpt>
      <trkpt lat="46.59592" lon="6.07437">
        <ele>1102.2</ele>
        <time>2021-10-26T11:31:36Z</time>
      </trkpt>
      <trkpt lat="46.59587" lon="6.07436">
        <ele>1104</ele>
        <time>2021-10-26T11:31:42Z</time>
      </trkpt>
      <trkpt lat="46.59582" lon="6.07434">
        <ele>1105.1</ele>
        <time>2021-10-26T11:31:48Z</time>
      </trkpt>
      <trkpt lat="46.59578" lon="6.07431">
        <ele>1106.3</ele>
        <time>2021-10-26T11:31:56Z</time>
      </trkpt>
      <trkpt lat="46.59573" lon="6.07429">
        <ele>1107.5</ele>
        <time>2021-10-26T11:32:02Z</time>
      </trkpt>
      <trkpt lat="46.59571" lon="6.07423">
        <ele>1109.1</ele>
        <time>2021-10-26T11:32:07Z</time>
      </trkpt>
      <trkpt lat="46.59571" lon="6.07416">
        <ele>1110.3</ele>
        <time>2021-10-26T11:32:11Z</time>
      </trkpt>
      <trkpt lat="46.59571" lon="6.07409">
        <ele>1112.7</ele>
        <time>2021-10-26T11:32:25Z</time>
      </trkpt>
      <trkpt lat="46.59572" lon="6.07402">
        <ele>1112.4</ele>
        <time>2021-10-26T11:32:30Z</time>
      </trkpt>
      <trkpt lat="46.59574" lon="6.07396">
        <ele>1112.1</ele>
        <time>2021-10-26T11:32:37Z</time>
      </trkpt>
      <trkpt lat="46.59576" lon="6.0739">
        <ele>1112.6</ele>
        <time>2021-10-26T11:32:57Z</time>
      </trkpt>
      <trkpt lat="46.59578" lon="6.07384">
        <ele>1112.2</ele>
        <time>2021-10-26T11:33:03Z</time>
      </trkpt>
      <trkpt lat="46.59582" lon="6.07379">
        <ele>1111.6</ele>
        <time>2021-10-26T11:33:07Z</time>
      </trkpt>
      <trkpt lat="46.59585" lon="6.07373">
        <ele>1110.9</ele>
        <time>2021-10-26T11:33:12Z</time>
      </trkpt>
      <trkpt lat="46.59589" lon="6.07367">
        <ele>1110.2</ele>
        <time>2021-10-26T11:33:17Z</time>
      </trkpt>
      <trkpt lat="46.59592" lon="6.07362">
        <ele>1109.5</ele>
        <time>2021-10-26T11:33:22Z</time>
      </trkpt>
      <trkpt lat="46.59596" lon="6.07356">
        <ele>1109.1</ele>
        <time>2021-10-26T11:33:27Z</time>
      </trkpt>
      <trkpt lat="46.59599" lon="6.07351">
        <ele>1108.8</ele>
        <time>2021-10-26T11:33:31Z</time>
      </trkpt>
      <trkpt lat="46.59603" lon="6.07345">
        <ele>1108.1</ele>
        <time>2021-10-26T11:33:36Z</time>
      </trkpt>
      <trkpt lat="46.59605" lon="6.07339">
        <ele>1108.1</ele>
        <time>2021-10-26T11:33:41Z</time>
      </trkpt>
      <trkpt lat="46.59608" lon="6.07333">
        <ele>1107.9</ele>
        <time>2021-10-26T11:33:46Z</time>
      </trkpt>
      <trkpt lat="46.5961" lon="6.07326">
        <ele>1107.3</ele>
        <time>2021-10-26T11:33:51Z</time>
      </trkpt>
      <trkpt lat="46.59614" lon="6.0732">
        <ele>1107.1</ele>
        <time>2021-10-26T11:33:56Z</time>
      </trkpt>
      <trkpt lat="46.59616" lon="6.07315">
        <ele>1107.2</ele>
        <time>2021-10-26T11:34:01Z</time>
      </trkpt>
      <trkpt lat="46.59619" lon="6.07308">
        <ele>1107.3</ele>
        <time>2021-10-26T11:34:06Z</time>
      </trkpt>
      <trkpt lat="46.59622" lon="6.07303">
        <ele>1107.3</ele>
        <time>2021-10-26T11:34:10Z</time>
      </trkpt>
      <trkpt lat="46.59625" lon="6.07296">
        <ele>1107.5</ele>
        <time>2021-10-26T11:34:15Z</time>
      </trkpt>
      <trkpt lat="46.59628" lon="6.0729">
        <ele>1107.6</ele>
        <time>2021-10-26T11:34:20Z</time>
      </trkpt>
      <trkpt lat="46.59631" lon="6.07284">
        <ele>1107.7</ele>
        <time>2021-10-26T11:34:25Z</time>
      </trkpt>
      <trkpt lat="46.59634" lon="6.07278">
        <ele>1108.1</ele>
        <time>2021-10-26T11:34:29Z</time>
      </trkpt>
      <trkpt lat="46.59636" lon="6.0727">
        <ele>1108.7</ele>
        <time>2021-10-26T11:34:34Z</time>
      </trkpt>
      <trkpt lat="46.59639" lon="6.07264">
        <ele>1108.8</ele>
        <time>2021-10-26T11:34:39Z</time>
      </trkpt>
      <trkpt lat="46.59641" lon="6.07257">
        <ele>1107.9</ele>
        <time>2021-10-26T11:34:44Z</time>
      </trkpt>
      <trkpt lat="46.59644" lon="6.07251">
        <ele>1106.8</ele>
        <time>2021-10-26T11:34:49Z</time>
      </trkpt>
      <trkpt lat="46.59647" lon="6.07245">
        <ele>1106</ele>
        <time>2021-10-26T11:34:53Z</time>
      </trkpt>
      <trkpt lat="46.59649" lon="6.07239">
        <ele>1104.8</ele>
        <time>2021-10-26T11:34:58Z</time>
      </trkpt>
      <trkpt lat="46.59651" lon="6.07232">
        <ele>1104</ele>
        <time>2021-10-26T11:35:03Z</time>
      </trkpt>
      <trkpt lat="46.59654" lon="6.07226">
        <ele>1103.9</ele>
        <time>2021-10-26T11:35:07Z</time>
      </trkpt>
      <trkpt lat="46.59656" lon="6.0722">
        <ele>1103.4</ele>
        <time>2021-10-26T11:35:12Z</time>
      </trkpt>
      <trkpt lat="46.59659" lon="6.07214">
        <ele>1102.7</ele>
        <time>2021-10-26T11:35:17Z</time>
      </trkpt>
      <trkpt lat="46.59662" lon="6.07207">
        <ele>1102</ele>
        <time>2021-10-26T11:35:22Z</time>
      </trkpt>
      <trkpt lat="46.59665" lon="6.07202">
        <ele>1101.2</ele>
        <time>2021-10-26T11:35:27Z</time>
      </trkpt>
      <trkpt lat="46.59668" lon="6.07195">
        <ele>1100.3</ele>
        <time>2021-10-26T11:35:32Z</time>
      </trkpt>
      <trkpt lat="46.5967" lon="6.07189">
        <ele>1099.9</ele>
        <time>2021-10-26T11:35:36Z</time>
      </trkpt>
      <trkpt lat="46.59674" lon="6.07184">
        <ele>1099.8</ele>
        <time>2021-10-26T11:35:41Z</time>
      </trkpt>
      <trkpt lat="46.59677" lon="6.07177">
        <ele>1100.1</ele>
        <time>2021-10-26T11:35:46Z</time>
      </trkpt>
      <trkpt lat="46.5968" lon="6.07171">
        <ele>1100.5</ele>
        <time>2021-10-26T11:35:50Z</time>
      </trkpt>
      <trkpt lat="46.59682" lon="6.07165">
        <ele>1100.8</ele>
        <time>2021-10-26T11:35:54Z</time>
      </trkpt>
      <trkpt lat="46.59685" lon="6.07158">
        <ele>1100.9</ele>
        <time>2021-10-26T11:35:59Z</time>
      </trkpt>
      <trkpt lat="46.59688" lon="6.07152">
        <ele>1100.6</ele>
        <time>2021-10-26T11:36:04Z</time>
      </trkpt>
      <trkpt lat="46.5969" lon="6.07146">
        <ele>1100.2</ele>
        <time>2021-10-26T11:36:08Z</time>
      </trkpt>
      <trkpt lat="46.59693" lon="6.07139">
        <ele>1099.5</ele>
        <time>2021-10-26T11:36:13Z</time>
      </trkpt>
      <trkpt lat="46.59696" lon="6.07133">
        <ele>1098.7</ele>
        <time>2021-10-26T11:36:18Z</time>
      </trkpt>
      <trkpt lat="46.59699" lon="6.07128">
        <ele>1098</ele>
        <time>2021-10-26T11:36:23Z</time>
      </trkpt>
      <trkpt lat="46.59703" lon="6.07124">
        <ele>1096.6</ele>
        <time>2021-10-26T11:36:28Z</time>
      </trkpt>
      <trkpt lat="46.59706" lon="6.07119">
        <ele>1095.7</ele>
        <time>2021-10-26T11:36:32Z</time>
      </trkpt>
      <trkpt lat="46.59708" lon="6.07112">
        <ele>1095</ele>
        <time>2021-10-26T11:36:36Z</time>
      </trkpt>
      <trkpt lat="46.59711" lon="6.07107">
        <ele>1094.5</ele>
        <time>2021-10-26T11:36:40Z</time>
      </trkpt>
      <trkpt lat="46.59714" lon="6.07101">
        <ele>1094.5</ele>
        <time>2021-10-26T11:36:44Z</time>
      </trkpt>
      <trkpt lat="46.59718" lon="6.07097">
        <ele>1094.8</ele>
        <time>2021-10-26T11:36:48Z</time>
      </trkpt>
      <trkpt lat="46.59721" lon="6.07093">
        <ele>1094.8</ele>
        <time>2021-10-26T11:36:52Z</time>
      </trkpt>
      <trkpt lat="46.59725" lon="6.07086">
        <ele>1095.2</ele>
        <time>2021-10-26T11:36:56Z</time>
      </trkpt>
      <trkpt lat="46.59728" lon="6.07082">
        <ele>1095.2</ele>
        <time>2021-10-26T11:37:00Z</time>
      </trkpt>
      <trkpt lat="46.59732" lon="6.07077">
        <ele>1094.8</ele>
        <time>2021-10-26T11:37:04Z</time>
      </trkpt>
      <trkpt lat="46.59735" lon="6.07072">
        <ele>1094.5</ele>
        <time>2021-10-26T11:37:08Z</time>
      </trkpt>
      <trkpt lat="46.59739" lon="6.07066">
        <ele>1094.3</ele>
        <time>2021-10-26T11:37:13Z</time>
      </trkpt>
      <trkpt lat="46.59742" lon="6.07061">
        <ele>1094.2</ele>
        <time>2021-10-26T11:37:17Z</time>
      </trkpt>
      <trkpt lat="46.59745" lon="6.07056">
        <ele>1093.7</ele>
        <time>2021-10-26T11:37:21Z</time>
      </trkpt>
      <trkpt lat="46.59749" lon="6.07051">
        <ele>1093.2</ele>
        <time>2021-10-26T11:37:26Z</time>
      </trkpt>
      <trkpt lat="46.59753" lon="6.07046">
        <ele>1092.6</ele>
        <time>2021-10-26T11:37:30Z</time>
      </trkpt>
      <trkpt lat="46.59756" lon="6.07041">
        <ele>1091.9</ele>
        <time>2021-10-26T11:37:35Z</time>
      </trkpt>
      <trkpt lat="46.5976" lon="6.07036">
        <ele>1091.1</ele>
        <time>2021-10-26T11:37:39Z</time>
      </trkpt>
      <trkpt lat="46.59763" lon="6.07031">
        <ele>1090.2</ele>
        <time>2021-10-26T11:37:43Z</time>
      </trkpt>
      <trkpt lat="46.59767" lon="6.07025">
        <ele>1089.2</ele>
        <time>2021-10-26T11:37:47Z</time>
      </trkpt>
      <trkpt lat="46.5977" lon="6.07019">
        <ele>1088</ele>
        <time>2021-10-26T11:37:51Z</time>
      </trkpt>
      <trkpt lat="46.59773" lon="6.07013">
        <ele>1086.9</ele>
        <time>2021-10-26T11:37:55Z</time>
      </trkpt>
      <trkpt lat="46.59776" lon="6.07009">
        <ele>1086</ele>
        <time>2021-10-26T11:37:59Z</time>
      </trkpt>
      <trkpt lat="46.5978" lon="6.07003">
        <ele>1085.4</ele>
        <time>2021-10-26T11:38:04Z</time>
      </trkpt>
      <trkpt lat="46.59784" lon="6.06998">
        <ele>1085.2</ele>
        <time>2021-10-26T11:38:08Z</time>
      </trkpt>
      <trkpt lat="46.59787" lon="6.06992">
        <ele>1085.3</ele>
        <time>2021-10-26T11:38:13Z</time>
      </trkpt>
      <trkpt lat="46.59789" lon="6.06986">
        <ele>1085.9</ele>
        <time>2021-10-26T11:38:19Z</time>
      </trkpt>
      <trkpt lat="46.59784" lon="6.06982">
        <ele>1087</ele>
        <time>2021-10-26T11:38:27Z</time>
      </trkpt>
      <trkpt lat="46.59782" lon="6.06976">
        <ele>1082.3</ele>
        <time>2021-10-26T11:38:47Z</time>
      </trkpt>
      <trkpt lat="46.59776" lon="6.06973">
        <ele>1080.1</ele>
        <time>2021-10-26T11:38:54Z</time>
      </trkpt>
      <trkpt lat="46.59771" lon="6.06973">
        <ele>1080.4</ele>
        <time>2021-10-26T11:38:57Z</time>
      </trkpt>
      <trkpt lat="46.59766" lon="6.06972">
        <ele>1082.2</ele>
        <time>2021-10-26T11:39:01Z</time>
      </trkpt>
      <trkpt lat="46.59761" lon="6.06969">
        <ele>1084.2</ele>
        <time>2021-10-26T11:39:06Z</time>
      </trkpt>
      <trkpt lat="46.59757" lon="6.06966">
        <ele>1085.8</ele>
        <time>2021-10-26T11:39:12Z</time>
      </trkpt>
      <trkpt lat="46.59751" lon="6.06965">
        <ele>1086.1</ele>
        <time>2021-10-26T11:39:16Z</time>
      </trkpt>
      <trkpt lat="46.59746" lon="6.06965">
        <ele>1086.5</ele>
        <time>2021-10-26T11:39:19Z</time>
      </trkpt>
      <trkpt lat="46.59741" lon="6.06964">
        <ele>1087</ele>
        <time>2021-10-26T11:39:23Z</time>
      </trkpt>
      <trkpt lat="46.59735" lon="6.06962">
        <ele>1088.1</ele>
        <time>2021-10-26T11:39:28Z</time>
      </trkpt>
      <trkpt lat="46.59731" lon="6.06959">
        <ele>1089.4</ele>
        <time>2021-10-26T11:39:32Z</time>
      </trkpt>
      <trkpt lat="46.59727" lon="6.06955">
        <ele>1090.1</ele>
        <time>2021-10-26T11:39:36Z</time>
      </trkpt>
      <trkpt lat="46.59723" lon="6.0695">
        <ele>1090.4</ele>
        <time>2021-10-26T11:39:42Z</time>
      </trkpt>
      <trkpt lat="46.59719" lon="6.06945">
        <ele>1090.6</ele>
        <time>2021-10-26T11:39:47Z</time>
      </trkpt>
      <trkpt lat="46.59715" lon="6.0694">
        <ele>1091</ele>
        <time>2021-10-26T11:39:52Z</time>
      </trkpt>
      <trkpt lat="46.59711" lon="6.06936">
        <ele>1091.3</ele>
        <time>2021-10-26T11:39:56Z</time>
      </trkpt>
      <trkpt lat="46.59708" lon="6.06932">
        <ele>1091.4</ele>
        <time>2021-10-26T11:39:59Z</time>
      </trkpt>
      <trkpt lat="46.59703" lon="6.06928">
        <ele>1091</ele>
        <time>2021-10-26T11:40:03Z</time>
      </trkpt>
      <trkpt lat="46.59698" lon="6.06925">
        <ele>1090.6</ele>
        <time>2021-10-26T11:40:07Z</time>
      </trkpt>
      <trkpt lat="46.59693" lon="6.06922">
        <ele>1090.2</ele>
        <time>2021-10-26T11:40:13Z</time>
      </trkpt>
      <trkpt lat="46.5969" lon="6.06918">
        <ele>1089.9</ele>
        <time>2021-10-26T11:40:20Z</time>
      </trkpt>
      <trkpt lat="46.59685" lon="6.06915">
        <ele>1088.9</ele>
        <time>2021-10-26T11:40:24Z</time>
      </trkpt>
      <trkpt lat="46.59681" lon="6.06914">
        <ele>1088.1</ele>
        <time>2021-10-26T11:40:27Z</time>
      </trkpt>
      <trkpt lat="46.59675" lon="6.06913">
        <ele>1087.2</ele>
        <time>2021-10-26T11:40:31Z</time>
      </trkpt>
      <trkpt lat="46.5967" lon="6.06914">
        <ele>1086.1</ele>
        <time>2021-10-26T11:40:35Z</time>
      </trkpt>
      <trkpt lat="46.59665" lon="6.06916">
        <ele>1084.7</ele>
        <time>2021-10-26T11:40:40Z</time>
      </trkpt>
      <trkpt lat="46.5966" lon="6.06917">
        <ele>1083.7</ele>
        <time>2021-10-26T11:40:43Z</time>
      </trkpt>
      <trkpt lat="46.59656" lon="6.06918">
        <ele>1082.6</ele>
        <time>2021-10-26T11:40:48Z</time>
      </trkpt>
      <trkpt lat="46.59651" lon="6.06918">
        <ele>1082</ele>
        <time>2021-10-26T11:40:53Z</time>
      </trkpt>
      <trkpt lat="46.59646" lon="6.06915">
        <ele>1081.1</ele>
        <time>2021-10-26T11:40:57Z</time>
      </trkpt>
      <trkpt lat="46.59641" lon="6.06912">
        <ele>1080.3</ele>
        <time>2021-10-26T11:41:02Z</time>
      </trkpt>
      <trkpt lat="46.59636" lon="6.06908">
        <ele>1079.4</ele>
        <time>2021-10-26T11:41:07Z</time>
      </trkpt>
      <trkpt lat="46.59633" lon="6.06902">
        <ele>1079.2</ele>
        <time>2021-10-26T11:41:11Z</time>
      </trkpt>
      <trkpt lat="46.5963" lon="6.06896">
        <ele>1079.5</ele>
        <time>2021-10-26T11:41:16Z</time>
      </trkpt>
      <trkpt lat="46.59628" lon="6.0689">
        <ele>1079.5</ele>
        <time>2021-10-26T11:41:21Z</time>
      </trkpt>
      <trkpt lat="46.59624" lon="6.06884">
        <ele>1079.2</ele>
        <time>2021-10-26T11:41:27Z</time>
      </trkpt>
      <trkpt lat="46.59623" lon="6.06878">
        <ele>1079.1</ele>
        <time>2021-10-26T11:41:32Z</time>
      </trkpt>
      <trkpt lat="46.59624" lon="6.06871">
        <ele>1079.1</ele>
        <time>2021-10-26T11:41:37Z</time>
      </trkpt>
      <trkpt lat="46.59628" lon="6.06866">
        <ele>1079.5</ele>
        <time>2021-10-26T11:41:44Z</time>
      </trkpt>
      <trkpt lat="46.59632" lon="6.06863">
        <ele>1080.1</ele>
        <time>2021-10-26T11:41:48Z</time>
      </trkpt>
      <trkpt lat="46.59636" lon="6.06857">
        <ele>1080.7</ele>
        <time>2021-10-26T11:41:52Z</time>
      </trkpt>
      <trkpt lat="46.5964" lon="6.06853">
        <ele>1081.1</ele>
        <time>2021-10-26T11:41:57Z</time>
      </trkpt>
      <trkpt lat="46.59644" lon="6.06848">
        <ele>1081.5</ele>
        <time>2021-10-26T11:42:01Z</time>
      </trkpt>
      <trkpt lat="46.59645" lon="6.06841">
        <ele>1082</ele>
        <time>2021-10-26T11:42:05Z</time>
      </trkpt>
      <trkpt lat="46.59643" lon="6.06833">
        <ele>1082.8</ele>
        <time>2021-10-26T11:42:09Z</time>
      </trkpt>
      <trkpt lat="46.59644" lon="6.06826">
        <ele>1084.2</ele>
        <time>2021-10-26T11:42:15Z</time>
      </trkpt>
      <trkpt lat="46.59644" lon="6.0682">
        <ele>1085.9</ele>
        <time>2021-10-26T11:42:20Z</time>
      </trkpt>
      <trkpt lat="46.59645" lon="6.06813">
        <ele>1087.8</ele>
        <time>2021-10-26T11:42:26Z</time>
      </trkpt>
      <trkpt lat="46.59647" lon="6.06806">
        <ele>1089.1</ele>
        <time>2021-10-26T11:42:31Z</time>
      </trkpt>
      <trkpt lat="46.59647" lon="6.068">
        <ele>1090</ele>
        <time>2021-10-26T11:42:35Z</time>
      </trkpt>
      <trkpt lat="46.59645" lon="6.06793">
        <ele>1090.8</ele>
        <time>2021-10-26T11:42:39Z</time>
      </trkpt>
      <trkpt lat="46.59646" lon="6.06786">
        <ele>1091.4</ele>
        <time>2021-10-26T11:42:44Z</time>
      </trkpt>
      <trkpt lat="46.59643" lon="6.0678">
        <ele>1091.3</ele>
        <time>2021-10-26T11:42:56Z</time>
      </trkpt>
      <trkpt lat="46.59641" lon="6.06773">
        <ele>1091.2</ele>
        <time>2021-10-26T11:43:00Z</time>
      </trkpt>
      <trkpt lat="46.5964" lon="6.06766">
        <ele>1091.2</ele>
        <time>2021-10-26T11:43:03Z</time>
      </trkpt>
      <trkpt lat="46.5964" lon="6.06758">
        <ele>1091.1</ele>
        <time>2021-10-26T11:43:06Z</time>
      </trkpt>
      <trkpt lat="46.5964" lon="6.06752">
        <ele>1091.1</ele>
        <time>2021-10-26T11:43:09Z</time>
      </trkpt>
      <trkpt lat="46.5964" lon="6.06744">
        <ele>1092.1</ele>
        <time>2021-10-26T11:43:19Z</time>
      </trkpt>
      <trkpt lat="46.59637" lon="6.06738">
        <ele>1092.4</ele>
        <time>2021-10-26T11:43:23Z</time>
      </trkpt>
      <trkpt lat="46.59635" lon="6.06732">
        <ele>1092.6</ele>
        <time>2021-10-26T11:43:29Z</time>
      </trkpt>
      <trkpt lat="46.59633" lon="6.06725">
        <ele>1092.3</ele>
        <time>2021-10-26T11:43:35Z</time>
      </trkpt>
      <trkpt lat="46.59631" lon="6.06719">
        <ele>1092.2</ele>
        <time>2021-10-26T11:43:39Z</time>
      </trkpt>
      <trkpt lat="46.59627" lon="6.06715">
        <ele>1092.3</ele>
        <time>2021-10-26T11:43:42Z</time>
      </trkpt>
      <trkpt lat="46.59623" lon="6.0671">
        <ele>1092.2</ele>
        <time>2021-10-26T11:43:45Z</time>
      </trkpt>
      <trkpt lat="46.59619" lon="6.06706">
        <ele>1092</ele>
        <time>2021-10-26T11:43:50Z</time>
      </trkpt>
      <trkpt lat="46.59615" lon="6.06702">
        <ele>1090.8</ele>
        <time>2021-10-26T11:43:55Z</time>
      </trkpt>
      <trkpt lat="46.5961" lon="6.06697">
        <ele>1090.5</ele>
        <time>2021-10-26T11:43:58Z</time>
      </trkpt>
      <trkpt lat="46.59605" lon="6.06692">
        <ele>1090</ele>
        <time>2021-10-26T11:44:01Z</time>
      </trkpt>
      <trkpt lat="46.596" lon="6.06689">
        <ele>1089</ele>
        <time>2021-10-26T11:44:05Z</time>
      </trkpt>
      <trkpt lat="46.59595" lon="6.06688">
        <ele>1088.3</ele>
        <time>2021-10-26T11:44:08Z</time>
      </trkpt>
      <trkpt lat="46.59591" lon="6.0669">
        <ele>1086.8</ele>
        <time>2021-10-26T11:44:19Z</time>
      </trkpt>
      <trkpt lat="46.5959" lon="6.06697">
        <ele>1086.8</ele>
        <time>2021-10-26T11:44:30Z</time>
      </trkpt>
      <trkpt lat="46.59588" lon="6.06703">
        <ele>1086.8</ele>
        <time>2021-10-26T11:44:35Z</time>
      </trkpt>
      <trkpt lat="46.59589" lon="6.06712">
        <ele>1086.9</ele>
        <time>2021-10-26T11:44:39Z</time>
      </trkpt>
      <trkpt lat="46.59588" lon="6.06718">
        <ele>1087</ele>
        <time>2021-10-26T11:44:42Z</time>
      </trkpt>
      <trkpt lat="46.59584" lon="6.06725">
        <ele>1087.1</ele>
        <time>2021-10-26T11:44:45Z</time>
      </trkpt>
      <trkpt lat="46.5958" lon="6.06729">
        <ele>1087.2</ele>
        <time>2021-10-26T11:44:48Z</time>
      </trkpt>
      <trkpt lat="46.59578" lon="6.06735">
        <ele>1087</ele>
        <time>2021-10-26T11:44:53Z</time>
      </trkpt>
      <trkpt lat="46.59571" lon="6.06738">
        <ele>1085.5</ele>
        <time>2021-10-26T11:45:01Z</time>
      </trkpt>
      <trkpt lat="46.59566" lon="6.06739">
        <ele>1085.4</ele>
        <time>2021-10-26T11:45:04Z</time>
      </trkpt>
      <trkpt lat="46.59561" lon="6.06741">
        <ele>1085.4</ele>
        <time>2021-10-26T11:45:09Z</time>
      </trkpt>
      <trkpt lat="46.59557" lon="6.06746">
        <ele>1085.5</ele>
        <time>2021-10-26T11:45:14Z</time>
      </trkpt>
      <trkpt lat="46.59552" lon="6.06748">
        <ele>1085.4</ele>
        <time>2021-10-26T11:45:18Z</time>
      </trkpt>
      <trkpt lat="46.59548" lon="6.06753">
        <ele>1085.2</ele>
        <time>2021-10-26T11:45:22Z</time>
      </trkpt>
      <trkpt lat="46.59546" lon="6.06759">
        <ele>1084.9</ele>
        <time>2021-10-26T11:45:27Z</time>
      </trkpt>
      <trkpt lat="46.59545" lon="6.06766">
        <ele>1085</ele>
        <time>2021-10-26T11:45:31Z</time>
      </trkpt>
      <trkpt lat="46.59544" lon="6.06772">
        <ele>1084.6</ele>
        <time>2021-10-26T11:45:39Z</time>
      </trkpt>
      <trkpt lat="46.59539" lon="6.06775">
        <ele>1084.6</ele>
        <time>2021-10-26T11:45:45Z</time>
      </trkpt>
      <trkpt lat="46.59535" lon="6.06779">
        <ele>1084.8</ele>
        <time>2021-10-26T11:45:49Z</time>
      </trkpt>
      <trkpt lat="46.59529" lon="6.06784">
        <ele>1084.7</ele>
        <time>2021-10-26T11:45:53Z</time>
      </trkpt>
      <trkpt lat="46.59524" lon="6.06785">
        <ele>1084.8</ele>
        <time>2021-10-26T11:45:56Z</time>
      </trkpt>
      <trkpt lat="46.59519" lon="6.06788">
        <ele>1084.8</ele>
        <time>2021-10-26T11:45:59Z</time>
      </trkpt>
      <trkpt lat="46.59515" lon="6.06791">
        <ele>1084.9</ele>
        <time>2021-10-26T11:46:02Z</time>
      </trkpt>
      <trkpt lat="46.5951" lon="6.06796">
        <ele>1085.2</ele>
        <time>2021-10-26T11:46:07Z</time>
      </trkpt>
      <trkpt lat="46.59505" lon="6.068">
        <ele>1085.7</ele>
        <time>2021-10-26T11:46:11Z</time>
      </trkpt>
      <trkpt lat="46.595" lon="6.06803">
        <ele>1086.1</ele>
        <time>2021-10-26T11:46:14Z</time>
      </trkpt>
      <trkpt lat="46.59497" lon="6.06809">
        <ele>1087.3</ele>
        <time>2021-10-26T11:46:18Z</time>
      </trkpt>
      <trkpt lat="46.59494" lon="6.06814">
        <ele>1088.1</ele>
        <time>2021-10-26T11:46:22Z</time>
      </trkpt>
      <trkpt lat="46.5949" lon="6.06819">
        <ele>1090.3</ele>
        <time>2021-10-26T11:46:30Z</time>
      </trkpt>
      <trkpt lat="46.59487" lon="6.06824">
        <ele>1092</ele>
        <time>2021-10-26T11:46:35Z</time>
      </trkpt>
      <trkpt lat="46.59485" lon="6.0683">
        <ele>1094.2</ele>
        <time>2021-10-26T11:46:44Z</time>
      </trkpt>
      <trkpt lat="46.59481" lon="6.06835">
        <ele>1095</ele>
        <time>2021-10-26T11:46:49Z</time>
      </trkpt>
      <trkpt lat="46.59476" lon="6.06839">
        <ele>1095.5</ele>
        <time>2021-10-26T11:46:53Z</time>
      </trkpt>
      <trkpt lat="46.59471" lon="6.06843">
        <ele>1095.8</ele>
        <time>2021-10-26T11:46:57Z</time>
      </trkpt>
      <trkpt lat="46.59468" lon="6.06848">
        <ele>1096</ele>
        <time>2021-10-26T11:47:00Z</time>
      </trkpt>
      <trkpt lat="46.59464" lon="6.06852">
        <ele>1096.5</ele>
        <time>2021-10-26T11:47:04Z</time>
      </trkpt>
      <trkpt lat="46.59459" lon="6.06854">
        <ele>1097.4</ele>
        <time>2021-10-26T11:47:09Z</time>
      </trkpt>
      <trkpt lat="46.59454" lon="6.06854">
        <ele>1098.1</ele>
        <time>2021-10-26T11:47:14Z</time>
      </trkpt>
      <trkpt lat="46.59449" lon="6.06851">
        <ele>1098.5</ele>
        <time>2021-10-26T11:47:22Z</time>
      </trkpt>
      <trkpt lat="46.59444" lon="6.06848">
        <ele>1098.7</ele>
        <time>2021-10-26T11:47:29Z</time>
      </trkpt>
      <trkpt lat="46.5944" lon="6.06847">
        <ele>1098.7</ele>
        <time>2021-10-26T11:47:32Z</time>
      </trkpt>
      <trkpt lat="46.59435" lon="6.06845">
        <ele>1098.8</ele>
        <time>2021-10-26T11:47:36Z</time>
      </trkpt>
      <trkpt lat="46.5943" lon="6.06843">
        <ele>1099.6</ele>
        <time>2021-10-26T11:47:44Z</time>
      </trkpt>
      <trkpt lat="46.59425" lon="6.06842">
        <ele>1100.6</ele>
        <time>2021-10-26T11:47:49Z</time>
      </trkpt>
      <trkpt lat="46.59421" lon="6.06843">
        <ele>1101.5</ele>
        <time>2021-10-26T11:47:54Z</time>
      </trkpt>
      <trkpt lat="46.59417" lon="6.0684">
        <ele>1102</ele>
        <time>2021-10-26T11:47:57Z</time>
      </trkpt>
      <trkpt lat="46.59413" lon="6.06836">
        <ele>1102.5</ele>
        <time>2021-10-26T11:48:00Z</time>
      </trkpt>
      <trkpt lat="46.59411" lon="6.0683">
        <ele>1103</ele>
        <time>2021-10-26T11:48:04Z</time>
      </trkpt>
      <trkpt lat="46.59411" lon="6.06822">
        <ele>1104</ele>
        <time>2021-10-26T11:48:07Z</time>
      </trkpt>
      <trkpt lat="46.59412" lon="6.06814">
        <ele>1105</ele>
        <time>2021-10-26T11:48:10Z</time>
      </trkpt>
      <trkpt lat="46.59411" lon="6.06807">
        <ele>1106.8</ele>
        <time>2021-10-26T11:48:15Z</time>
      </trkpt>
      <trkpt lat="46.5941" lon="6.06801">
        <ele>1108.4</ele>
        <time>2021-10-26T11:48:26Z</time>
      </trkpt>
      <trkpt lat="46.59412" lon="6.06795">
        <ele>1109.6</ele>
        <time>2021-10-26T11:48:33Z</time>
      </trkpt>
      <trkpt lat="46.59415" lon="6.06788">
        <ele>1110.2</ele>
        <time>2021-10-26T11:48:36Z</time>
      </trkpt>
      <trkpt lat="46.59418" lon="6.06782">
        <ele>1110.9</ele>
        <time>2021-10-26T11:48:39Z</time>
      </trkpt>
      <trkpt lat="46.5942" lon="6.06776">
        <ele>1111.7</ele>
        <time>2021-10-26T11:48:43Z</time>
      </trkpt>
      <trkpt lat="46.59419" lon="6.06768">
        <ele>1112.6</ele>
        <time>2021-10-26T11:48:47Z</time>
      </trkpt>
      <trkpt lat="46.59416" lon="6.06761">
        <ele>1113</ele>
        <time>2021-10-26T11:48:50Z</time>
      </trkpt>
      <trkpt lat="46.59415" lon="6.06753">
        <ele>1113.5</ele>
        <time>2021-10-26T11:48:54Z</time>
      </trkpt>
      <trkpt lat="46.59415" lon="6.06746">
        <ele>1115</ele>
        <time>2021-10-26T11:49:02Z</time>
      </trkpt>
      <trkpt lat="46.59416" lon="6.06739">
        <ele>1116.3</ele>
        <time>2021-10-26T11:49:09Z</time>
      </trkpt>
      <trkpt lat="46.59416" lon="6.06732">
        <ele>1117.3</ele>
        <time>2021-10-26T11:49:14Z</time>
      </trkpt>
      <trkpt lat="46.59413" lon="6.06725">
        <ele>1118.6</ele>
        <time>2021-10-26T11:49:18Z</time>
      </trkpt>
      <trkpt lat="46.59412" lon="6.06718">
        <ele>1119.6</ele>
        <time>2021-10-26T11:49:23Z</time>
      </trkpt>
      <trkpt lat="46.5941" lon="6.06712">
        <ele>1119.5</ele>
        <time>2021-10-26T11:49:27Z</time>
      </trkpt>
      <trkpt lat="46.59407" lon="6.06706">
        <ele>1119.1</ele>
        <time>2021-10-26T11:49:31Z</time>
      </trkpt>
      <trkpt lat="46.59409" lon="6.067">
        <ele>1119.1</ele>
        <time>2021-10-26T11:49:38Z</time>
      </trkpt>
      <trkpt lat="46.59406" lon="6.06695">
        <ele>1118.9</ele>
        <time>2021-10-26T11:49:44Z</time>
      </trkpt>
      <trkpt lat="46.59401" lon="6.06691">
        <ele>1117.9</ele>
        <time>2021-10-26T11:49:49Z</time>
      </trkpt>
      <trkpt lat="46.59398" lon="6.06686">
        <ele>1116.9</ele>
        <time>2021-10-26T11:49:55Z</time>
      </trkpt>
      <trkpt lat="46.59394" lon="6.06681">
        <ele>1116.3</ele>
        <time>2021-10-26T11:50:03Z</time>
      </trkpt>
      <trkpt lat="46.59389" lon="6.06679">
        <ele>1116.2</ele>
        <time>2021-10-26T11:50:08Z</time>
      </trkpt>
      <trkpt lat="46.59385" lon="6.06674">
        <ele>1115.8</ele>
        <time>2021-10-26T11:50:13Z</time>
      </trkpt>
      <trkpt lat="46.59382" lon="6.06669">
        <ele>1115.6</ele>
        <time>2021-10-26T11:50:18Z</time>
      </trkpt>
      <trkpt lat="46.59378" lon="6.06663">
        <ele>1115.1</ele>
        <time>2021-10-26T11:50:23Z</time>
      </trkpt>
      <trkpt lat="46.59374" lon="6.0666">
        <ele>1114.8</ele>
        <time>2021-10-26T11:50:27Z</time>
      </trkpt>
      <trkpt lat="46.59369" lon="6.06658">
        <ele>1114.6</ele>
        <time>2021-10-26T11:50:31Z</time>
      </trkpt>
      <trkpt lat="46.59364" lon="6.06655">
        <ele>1114.4</ele>
        <time>2021-10-26T11:50:35Z</time>
      </trkpt>
      <trkpt lat="46.5936" lon="6.06653">
        <ele>1114</ele>
        <time>2021-10-26T11:50:40Z</time>
      </trkpt>
      <trkpt lat="46.59356" lon="6.0665">
        <ele>1112.4</ele>
        <time>2021-10-26T11:50:48Z</time>
      </trkpt>
      <trkpt lat="46.5935" lon="6.06648">
        <ele>1112.2</ele>
        <time>2021-10-26T11:50:52Z</time>
      </trkpt>
      <trkpt lat="46.59346" lon="6.06649">
        <ele>1112.2</ele>
        <time>2021-10-26T11:50:57Z</time>
      </trkpt>
      <trkpt lat="46.59341" lon="6.06649">
        <ele>1112.6</ele>
        <time>2021-10-26T11:51:03Z</time>
      </trkpt>
      <trkpt lat="46.59336" lon="6.06648">
        <ele>1112.5</ele>
        <time>2021-10-26T11:51:08Z</time>
      </trkpt>
      <trkpt lat="46.5933" lon="6.06652">
        <ele>1112.4</ele>
        <time>2021-10-26T11:51:13Z</time>
      </trkpt>
      <trkpt lat="46.59326" lon="6.06653">
        <ele>1112.1</ele>
        <time>2021-10-26T11:51:17Z</time>
      </trkpt>
      <trkpt lat="46.5932" lon="6.06653">
        <ele>1112.2</ele>
        <time>2021-10-26T11:51:23Z</time>
      </trkpt>
      <trkpt lat="46.59316" lon="6.06655">
        <ele>1111.6</ele>
        <time>2021-10-26T11:51:29Z</time>
      </trkpt>
      <trkpt lat="46.59312" lon="6.06658">
        <ele>1111.6</ele>
        <time>2021-10-26T11:51:39Z</time>
      </trkpt>
      <trkpt lat="46.59308" lon="6.06661">
        <ele>1111.5</ele>
        <time>2021-10-26T11:51:43Z</time>
      </trkpt>
      <trkpt lat="46.59303" lon="6.06665">
        <ele>1111.2</ele>
        <time>2021-10-26T11:51:47Z</time>
      </trkpt>
      <trkpt lat="46.59298" lon="6.06669">
        <ele>1109.6</ele>
        <time>2021-10-26T11:51:52Z</time>
      </trkpt>
      <trkpt lat="46.59295" lon="6.06664">
        <ele>1105.9</ele>
        <time>2021-10-26T11:51:59Z</time>
      </trkpt>
      <trkpt lat="46.5929" lon="6.06665">
        <ele>1102.3</ele>
        <time>2021-10-26T11:52:05Z</time>
      </trkpt>
      <trkpt lat="46.59286" lon="6.06661">
        <ele>1099.1</ele>
        <time>2021-10-26T11:52:11Z</time>
      </trkpt>
      <trkpt lat="46.59282" lon="6.0666">
        <ele>1098.4</ele>
        <time>2021-10-26T11:52:15Z</time>
      </trkpt>
      <trkpt lat="46.59276" lon="6.06659">
        <ele>1098</ele>
        <time>2021-10-26T11:52:19Z</time>
      </trkpt>
      <trkpt lat="46.59271" lon="6.06658">
        <ele>1097.8</ele>
        <time>2021-10-26T11:52:23Z</time>
      </trkpt>
      <trkpt lat="46.59266" lon="6.06658">
        <ele>1097.7</ele>
        <time>2021-10-26T11:52:28Z</time>
      </trkpt>
      <trkpt lat="46.59261" lon="6.06656">
        <ele>1097.1</ele>
        <time>2021-10-26T11:52:34Z</time>
      </trkpt>
      <trkpt lat="46.59257" lon="6.06654">
        <ele>1096.8</ele>
        <time>2021-10-26T11:52:38Z</time>
      </trkpt>
      <trkpt lat="46.59253" lon="6.06649">
        <ele>1096.6</ele>
        <time>2021-10-26T11:52:42Z</time>
      </trkpt>
      <trkpt lat="46.59249" lon="6.06645">
        <ele>1096.5</ele>
        <time>2021-10-26T11:52:46Z</time>
      </trkpt>
      <trkpt lat="46.59244" lon="6.06642">
        <ele>1096.5</ele>
        <time>2021-10-26T11:52:50Z</time>
      </trkpt>
      <trkpt lat="46.59239" lon="6.06639">
        <ele>1096.9</ele>
        <time>2021-10-26T11:52:54Z</time>
      </trkpt>
      <trkpt lat="46.59234" lon="6.06636">
        <ele>1097.3</ele>
        <time>2021-10-26T11:52:58Z</time>
      </trkpt>
      <trkpt lat="46.5923" lon="6.06633">
        <ele>1097.1</ele>
        <time>2021-10-26T11:53:03Z</time>
      </trkpt>
      <trkpt lat="46.59225" lon="6.06628">
        <ele>1096.7</ele>
        <time>2021-10-26T11:53:07Z</time>
      </trkpt>
      <trkpt lat="46.59222" lon="6.06622">
        <ele>1096.5</ele>
        <time>2021-10-26T11:53:11Z</time>
      </trkpt>
      <trkpt lat="46.59219" lon="6.06617">
        <ele>1096.4</ele>
        <time>2021-10-26T11:53:15Z</time>
      </trkpt>
      <trkpt lat="46.59215" lon="6.06614">
        <ele>1096.3</ele>
        <time>2021-10-26T11:53:18Z</time>
      </trkpt>
      <trkpt lat="46.59212" lon="6.06609">
        <ele>1095.9</ele>
        <time>2021-10-26T11:53:23Z</time>
      </trkpt>
      <trkpt lat="46.59213" lon="6.06616">
        <ele>1093.2</ele>
        <time>2021-10-26T11:53:37Z</time>
      </trkpt>
      <trkpt lat="46.59214" lon="6.06608">
        <ele>1095.3</ele>
        <time>2021-10-26T11:53:53Z</time>
      </trkpt>
      <trkpt lat="46.59212" lon="6.06616">
        <ele>1098.9</ele>
        <time>2021-10-26T11:54:26Z</time>
      </trkpt>
      <trkpt lat="46.59209" lon="6.06609">
        <ele>1099.8</ele>
        <time>2021-10-26T11:54:42Z</time>
      </trkpt>
      <trkpt lat="46.59208" lon="6.06602">
        <ele>1099.6</ele>
        <time>2021-10-26T11:54:46Z</time>
      </trkpt>
      <trkpt lat="46.59206" lon="6.06596">
        <ele>1099.3</ele>
        <time>2021-10-26T11:54:50Z</time>
      </trkpt>
      <trkpt lat="46.59202" lon="6.06591">
        <ele>1098.9</ele>
        <time>2021-10-26T11:54:54Z</time>
      </trkpt>
      <trkpt lat="46.59198" lon="6.06585">
        <ele>1099.2</ele>
        <time>2021-10-26T11:54:58Z</time>
      </trkpt>
      <trkpt lat="46.59194" lon="6.06581">
        <ele>1099.7</ele>
        <time>2021-10-26T11:55:01Z</time>
      </trkpt>
      <trkpt lat="46.5919" lon="6.06579">
        <ele>1100.6</ele>
        <time>2021-10-26T11:55:05Z</time>
      </trkpt>
      <trkpt lat="46.59185" lon="6.06578">
        <ele>1102</ele>
        <time>2021-10-26T11:55:09Z</time>
      </trkpt>
      <trkpt lat="46.5918" lon="6.06575">
        <ele>1103.1</ele>
        <time>2021-10-26T11:55:13Z</time>
      </trkpt>
      <trkpt lat="46.59175" lon="6.06573">
        <ele>1104.6</ele>
        <time>2021-10-26T11:55:17Z</time>
      </trkpt>
      <trkpt lat="46.5917" lon="6.06569">
        <ele>1105.6</ele>
        <time>2021-10-26T11:55:20Z</time>
      </trkpt>
      <trkpt lat="46.59166" lon="6.06571">
        <ele>1105.5</ele>
        <time>2021-10-26T11:55:28Z</time>
      </trkpt>
      <trkpt lat="46.59161" lon="6.06567">
        <ele>1106.3</ele>
        <time>2021-10-26T11:55:32Z</time>
      </trkpt>
      <trkpt lat="46.59157" lon="6.06564">
        <ele>1107</ele>
        <time>2021-10-26T11:55:35Z</time>
      </trkpt>
      <trkpt lat="46.59153" lon="6.06561">
        <ele>1107.5</ele>
        <time>2021-10-26T11:55:38Z</time>
      </trkpt>
      <trkpt lat="46.5915" lon="6.06555">
        <ele>1108.1</ele>
        <time>2021-10-26T11:55:41Z</time>
      </trkpt>
      <trkpt lat="46.59147" lon="6.06547">
        <ele>1108.5</ele>
        <time>2021-10-26T11:55:44Z</time>
      </trkpt>
      <trkpt lat="46.59144" lon="6.06539">
        <ele>1108</ele>
        <time>2021-10-26T11:55:47Z</time>
      </trkpt>
      <trkpt lat="46.59142" lon="6.06531">
        <ele>1107.1</ele>
        <time>2021-10-26T11:55:50Z</time>
      </trkpt>
      <trkpt lat="46.59141" lon="6.06524">
        <ele>1102.6</ele>
        <time>2021-10-26T11:56:02Z</time>
      </trkpt>
      <trkpt lat="46.59141" lon="6.06518">
        <ele>1102.2</ele>
        <time>2021-10-26T11:56:06Z</time>
      </trkpt>
      <trkpt lat="46.59141" lon="6.0651">
        <ele>1101.3</ele>
        <time>2021-10-26T11:56:11Z</time>
      </trkpt>
      <trkpt lat="46.59141" lon="6.06503">
        <ele>1100.6</ele>
        <time>2021-10-26T11:56:14Z</time>
      </trkpt>
      <trkpt lat="46.5914" lon="6.06495">
        <ele>1100.1</ele>
        <time>2021-10-26T11:56:17Z</time>
      </trkpt>
      <trkpt lat="46.59137" lon="6.06489">
        <ele>1099.7</ele>
        <time>2021-10-26T11:56:20Z</time>
      </trkpt>
      <trkpt lat="46.59135" lon="6.06483">
        <ele>1099.4</ele>
        <time>2021-10-26T11:56:24Z</time>
      </trkpt>
      <trkpt lat="46.59132" lon="6.06477">
        <ele>1099.1</ele>
        <time>2021-10-26T11:56:32Z</time>
      </trkpt>
      <trkpt lat="46.59129" lon="6.06473">
        <ele>1098.5</ele>
        <time>2021-10-26T11:56:37Z</time>
      </trkpt>
      <trkpt lat="46.59123" lon="6.06468">
        <ele>1097.3</ele>
        <time>2021-10-26T11:56:42Z</time>
      </trkpt>
      <trkpt lat="46.59119" lon="6.06467">
        <ele>1096.6</ele>
        <time>2021-10-26T11:56:46Z</time>
      </trkpt>
      <trkpt lat="46.59115" lon="6.06464">
        <ele>1095.6</ele>
        <time>2021-10-26T11:56:50Z</time>
      </trkpt>
      <trkpt lat="46.5911" lon="6.06459">
        <ele>1094.5</ele>
        <time>2021-10-26T11:56:54Z</time>
      </trkpt>
      <trkpt lat="46.59105" lon="6.06455">
        <ele>1094</ele>
        <time>2021-10-26T11:56:58Z</time>
      </trkpt>
      <trkpt lat="46.59101" lon="6.06451">
        <ele>1094.5</ele>
        <time>2021-10-26T11:57:05Z</time>
      </trkpt>
      <trkpt lat="46.59098" lon="6.06446">
        <ele>1095</ele>
        <time>2021-10-26T11:57:11Z</time>
      </trkpt>
      <trkpt lat="46.59092" lon="6.06443">
        <ele>1095.1</ele>
        <time>2021-10-26T11:57:16Z</time>
      </trkpt>
      <trkpt lat="46.59087" lon="6.0644">
        <ele>1095.2</ele>
        <time>2021-10-26T11:57:19Z</time>
      </trkpt>
      <trkpt lat="46.59083" lon="6.06436">
        <ele>1095.3</ele>
        <time>2021-10-26T11:57:22Z</time>
      </trkpt>
      <trkpt lat="46.59079" lon="6.06431">
        <ele>1095.3</ele>
        <time>2021-10-26T11:57:26Z</time>
      </trkpt>
      <trkpt lat="46.59076" lon="6.06424">
        <ele>1095</ele>
        <time>2021-10-26T11:57:30Z</time>
      </trkpt>
      <trkpt lat="46.59072" lon="6.06419">
        <ele>1095</ele>
        <time>2021-10-26T11:57:33Z</time>
      </trkpt>
      <trkpt lat="46.5907" lon="6.06413">
        <ele>1095.4</ele>
        <time>2021-10-26T11:57:38Z</time>
      </trkpt>
      <trkpt lat="46.59066" lon="6.06408">
        <ele>1096</ele>
        <time>2021-10-26T11:57:44Z</time>
      </trkpt>
      <trkpt lat="46.59062" lon="6.06405">
        <ele>1096.9</ele>
        <time>2021-10-26T11:57:49Z</time>
      </trkpt>
      <trkpt lat="46.59059" lon="6.06399">
        <ele>1098.1</ele>
        <time>2021-10-26T11:57:53Z</time>
      </trkpt>
      <trkpt lat="46.59057" lon="6.06392">
        <ele>1099.5</ele>
        <time>2021-10-26T11:57:57Z</time>
      </trkpt>
      <trkpt lat="46.59056" lon="6.06385">
        <ele>1101.1</ele>
        <time>2021-10-26T11:58:02Z</time>
      </trkpt>
      <trkpt lat="46.59057" lon="6.06377">
        <ele>1102</ele>
        <time>2021-10-26T11:58:06Z</time>
      </trkpt>
      <trkpt lat="46.59056" lon="6.0637">
        <ele>1102</ele>
        <time>2021-10-26T11:58:11Z</time>
      </trkpt>
      <trkpt lat="46.59053" lon="6.06363">
        <ele>1101.6</ele>
        <time>2021-10-26T11:58:15Z</time>
      </trkpt>
      <trkpt lat="46.59053" lon="6.06355">
        <ele>1101</ele>
        <time>2021-10-26T11:58:19Z</time>
      </trkpt>
      <trkpt lat="46.59051" lon="6.06349">
        <ele>1100.4</ele>
        <time>2021-10-26T11:58:23Z</time>
      </trkpt>
      <trkpt lat="46.59048" lon="6.06342">
        <ele>1100</ele>
        <time>2021-10-26T11:58:28Z</time>
      </trkpt>
      <trkpt lat="46.59044" lon="6.06338">
        <ele>1100</ele>
        <time>2021-10-26T11:58:31Z</time>
      </trkpt>
      <trkpt lat="46.59041" lon="6.06333">
        <ele>1099.9</ele>
        <time>2021-10-26T11:58:36Z</time>
      </trkpt>
      <trkpt lat="46.59037" lon="6.06331">
        <ele>1099.7</ele>
        <time>2021-10-26T11:58:39Z</time>
      </trkpt>
      <trkpt lat="46.59031" lon="6.06327">
        <ele>1099.5</ele>
        <time>2021-10-26T11:58:42Z</time>
      </trkpt>
      <trkpt lat="46.59027" lon="6.06321">
        <ele>1099.1</ele>
        <time>2021-10-26T11:58:46Z</time>
      </trkpt>
      <trkpt lat="46.59022" lon="6.06315">
        <ele>1098.5</ele>
        <time>2021-10-26T11:58:50Z</time>
      </trkpt>
      <trkpt lat="46.59018" lon="6.06311">
        <ele>1098</ele>
        <time>2021-10-26T11:58:54Z</time>
      </trkpt>
      <trkpt lat="46.59013" lon="6.06309">
        <ele>1097.5</ele>
        <time>2021-10-26T11:58:58Z</time>
      </trkpt>
      <trkpt lat="46.5901" lon="6.06305">
        <ele>1097.2</ele>
        <time>2021-10-26T11:59:05Z</time>
      </trkpt>
      <trkpt lat="46.59004" lon="6.06303">
        <ele>1097.5</ele>
        <time>2021-10-26T11:59:11Z</time>
      </trkpt>
      <trkpt lat="46.58999" lon="6.06302">
        <ele>1097.6</ele>
        <time>2021-10-26T11:59:14Z</time>
      </trkpt>
      <trkpt lat="46.58994" lon="6.06304">
        <ele>1097.8</ele>
        <time>2021-10-26T11:59:17Z</time>
      </trkpt>
      <trkpt lat="46.58989" lon="6.06306">
        <ele>1098.2</ele>
        <time>2021-10-26T11:59:21Z</time>
      </trkpt>
      <trkpt lat="46.58984" lon="6.06306">
        <ele>1098</ele>
        <time>2021-10-26T11:59:25Z</time>
      </trkpt>
      <trkpt lat="46.58983" lon="6.06298">
        <ele>1096.9</ele>
        <time>2021-10-26T11:59:30Z</time>
      </trkpt>
      <trkpt lat="46.58981" lon="6.06292">
        <ele>1094.6</ele>
        <time>2021-10-26T11:59:36Z</time>
      </trkpt>
      <trkpt lat="46.58976" lon="6.06293">
        <ele>1093.3</ele>
        <time>2021-10-26T11:59:41Z</time>
      </trkpt>
      <trkpt lat="46.5897" lon="6.06297">
        <ele>1092.6</ele>
        <time>2021-10-26T11:59:44Z</time>
      </trkpt>
      <trkpt lat="46.58964" lon="6.06299">
        <ele>1091.9</ele>
        <time>2021-10-26T11:59:47Z</time>
      </trkpt>
      <trkpt lat="46.5896" lon="6.06296">
        <ele>1090.7</ele>
        <time>2021-10-26T11:59:52Z</time>
      </trkpt>
      <trkpt lat="46.58956" lon="6.06291">
        <ele>1089.8</ele>
        <time>2021-10-26T11:59:58Z</time>
      </trkpt>
      <trkpt lat="46.58951" lon="6.06296">
        <ele>1091</ele>
        <time>2021-10-26T12:00:13Z</time>
      </trkpt>
      <trkpt lat="46.58947" lon="6.06299">
        <ele>1090.9</ele>
        <time>2021-10-26T12:00:17Z</time>
      </trkpt>
      <trkpt lat="46.58941" lon="6.06302">
        <ele>1090.8</ele>
        <time>2021-10-26T12:00:21Z</time>
      </trkpt>
      <trkpt lat="46.58936" lon="6.06304">
        <ele>1090.6</ele>
        <time>2021-10-26T12:00:24Z</time>
      </trkpt>
      <trkpt lat="46.58931" lon="6.06303">
        <ele>1090.2</ele>
        <time>2021-10-26T12:00:27Z</time>
      </trkpt>
      <trkpt lat="46.58925" lon="6.06301">
        <ele>1090.1</ele>
        <time>2021-10-26T12:00:30Z</time>
      </trkpt>
      <trkpt lat="46.5892" lon="6.06299">
        <ele>1089.9</ele>
        <time>2021-10-26T12:00:33Z</time>
      </trkpt>
      <trkpt lat="46.58915" lon="6.063">
        <ele>1090.1</ele>
        <time>2021-10-26T12:00:37Z</time>
      </trkpt>
      <trkpt lat="46.5891" lon="6.063">
        <ele>1090.8</ele>
        <time>2021-10-26T12:00:42Z</time>
      </trkpt>
      <trkpt lat="46.58906" lon="6.06297">
        <ele>1091.3</ele>
        <time>2021-10-26T12:00:47Z</time>
      </trkpt>
      <trkpt lat="46.58902" lon="6.06294">
        <ele>1091.8</ele>
        <time>2021-10-26T12:00:50Z</time>
      </trkpt>
      <trkpt lat="46.58896" lon="6.06294">
        <ele>1092.2</ele>
        <time>2021-10-26T12:00:53Z</time>
      </trkpt>
      <trkpt lat="46.58887" lon="6.06296">
        <ele>1096</ele>
        <time>2021-10-26T12:00:56Z</time>
      </trkpt>
      <trkpt lat="46.58882" lon="6.06295">
        <ele>1098</ele>
        <time>2021-10-26T12:00:59Z</time>
      </trkpt>
      <trkpt lat="46.58877" lon="6.06292">
        <ele>1100.3</ele>
        <time>2021-10-26T12:01:04Z</time>
      </trkpt>
      <trkpt lat="46.58871" lon="6.0629">
        <ele>1101.7</ele>
        <time>2021-10-26T12:01:09Z</time>
      </trkpt>
      <trkpt lat="46.58868" lon="6.06284">
        <ele>1102.9</ele>
        <time>2021-10-26T12:01:14Z</time>
      </trkpt>
      <trkpt lat="46.58864" lon="6.0628">
        <ele>1103.4</ele>
        <time>2021-10-26T12:01:19Z</time>
      </trkpt>
      <trkpt lat="46.5886" lon="6.0628">
        <ele>1102.1</ele>
        <time>2021-10-26T12:01:28Z</time>
      </trkpt>
      <trkpt lat="46.58854" lon="6.06279">
        <ele>1101</ele>
        <time>2021-10-26T12:01:35Z</time>
      </trkpt>
      <trkpt lat="46.58848" lon="6.06278">
        <ele>1100.4</ele>
        <time>2021-10-26T12:01:38Z</time>
      </trkpt>
      <trkpt lat="46.58844" lon="6.06279">
        <ele>1099.9</ele>
        <time>2021-10-26T12:01:41Z</time>
      </trkpt>
      <trkpt lat="46.58839" lon="6.06277">
        <ele>1099</ele>
        <time>2021-10-26T12:01:46Z</time>
      </trkpt>
      <trkpt lat="46.58834" lon="6.06275">
        <ele>1098.3</ele>
        <time>2021-10-26T12:01:52Z</time>
      </trkpt>
      <trkpt lat="46.5883" lon="6.06272">
        <ele>1098.1</ele>
        <time>2021-10-26T12:01:57Z</time>
      </trkpt>
      <trkpt lat="46.58827" lon="6.06266">
        <ele>1097.9</ele>
        <time>2021-10-26T12:02:01Z</time>
      </trkpt>
      <trkpt lat="46.58822" lon="6.06261">
        <ele>1097.7</ele>
        <time>2021-10-26T12:02:05Z</time>
      </trkpt>
      <trkpt lat="46.58818" lon="6.06256">
        <ele>1097.4</ele>
        <time>2021-10-26T12:02:08Z</time>
      </trkpt>
      <trkpt lat="46.58816" lon="6.06249">
        <ele>1096.9</ele>
        <time>2021-10-26T12:02:11Z</time>
      </trkpt>
      <trkpt lat="46.58814" lon="6.06242">
        <ele>1096.3</ele>
        <time>2021-10-26T12:02:14Z</time>
      </trkpt>
      <trkpt lat="46.5881" lon="6.06244">
        <ele>1094.6</ele>
        <time>2021-10-26T12:02:22Z</time>
      </trkpt>
      <trkpt lat="46.58805" lon="6.06242">
        <ele>1094.8</ele>
        <time>2021-10-26T12:02:26Z</time>
      </trkpt>
      <trkpt lat="46.588" lon="6.06243">
        <ele>1096.1</ele>
        <time>2021-10-26T12:02:30Z</time>
      </trkpt>
      <trkpt lat="46.58795" lon="6.06245">
        <ele>1097.2</ele>
        <time>2021-10-26T12:02:33Z</time>
      </trkpt>
      <trkpt lat="46.5879" lon="6.06245">
        <ele>1098.7</ele>
        <time>2021-10-26T12:02:37Z</time>
      </trkpt>
      <trkpt lat="46.58786" lon="6.06242">
        <ele>1099.3</ele>
        <time>2021-10-26T12:02:42Z</time>
      </trkpt>
      <trkpt lat="46.5878" lon="6.06242">
        <ele>1096.4</ele>
        <time>2021-10-26T12:02:57Z</time>
      </trkpt>
      <trkpt lat="46.58775" lon="6.06237">
        <ele>1095.3</ele>
        <time>2021-10-26T12:03:00Z</time>
      </trkpt>
      <trkpt lat="46.58769" lon="6.06231">
        <ele>1094.5</ele>
        <time>2021-10-26T12:03:03Z</time>
      </trkpt>
      <trkpt lat="46.58765" lon="6.06225">
        <ele>1094.4</ele>
        <time>2021-10-26T12:03:06Z</time>
      </trkpt>
      <trkpt lat="46.58763" lon="6.06218">
        <ele>1094.7</ele>
        <time>2021-10-26T12:03:09Z</time>
      </trkpt>
      <trkpt lat="46.5876" lon="6.06213">
        <ele>1095.1</ele>
        <time>2021-10-26T12:03:12Z</time>
      </trkpt>
      <trkpt lat="46.58756" lon="6.06209">
        <ele>1095.3</ele>
        <time>2021-10-26T12:03:18Z</time>
      </trkpt>
      <trkpt lat="46.58753" lon="6.06203">
        <ele>1094.3</ele>
        <time>2021-10-26T12:03:24Z</time>
      </trkpt>
      <trkpt lat="46.5875" lon="6.06197">
        <ele>1093.4</ele>
        <time>2021-10-26T12:03:28Z</time>
      </trkpt>
      <trkpt lat="46.58748" lon="6.06191">
        <ele>1092.6</ele>
        <time>2021-10-26T12:03:31Z</time>
      </trkpt>
      <trkpt lat="46.58747" lon="6.06184">
        <ele>1091.8</ele>
        <time>2021-10-26T12:03:35Z</time>
      </trkpt>
      <trkpt lat="46.58745" lon="6.06176">
        <ele>1091.1</ele>
        <time>2021-10-26T12:03:39Z</time>
      </trkpt>
      <trkpt lat="46.58743" lon="6.06168">
        <ele>1089.9</ele>
        <time>2021-10-26T12:03:44Z</time>
      </trkpt>
      <trkpt lat="46.5874" lon="6.06163">
        <ele>1088.7</ele>
        <time>2021-10-26T12:03:48Z</time>
      </trkpt>
      <trkpt lat="46.58736" lon="6.06157">
        <ele>1087</ele>
        <time>2021-10-26T12:03:53Z</time>
      </trkpt>
      <trkpt lat="46.58733" lon="6.06152">
        <ele>1085.8</ele>
        <time>2021-10-26T12:03:58Z</time>
      </trkpt>
      <trkpt lat="46.5873" lon="6.06147">
        <ele>1085.4</ele>
        <time>2021-10-26T12:04:02Z</time>
      </trkpt>
      <trkpt lat="46.58727" lon="6.06141">
        <ele>1085.2</ele>
        <time>2021-10-26T12:04:05Z</time>
      </trkpt>
      <trkpt lat="46.58724" lon="6.06135">
        <ele>1085.2</ele>
        <time>2021-10-26T12:04:09Z</time>
      </trkpt>
      <trkpt lat="46.58722" lon="6.0613">
        <ele>1085.1</ele>
        <time>2021-10-26T12:04:14Z</time>
      </trkpt>
      <trkpt lat="46.58718" lon="6.06127">
        <ele>1084.5</ele>
        <time>2021-10-26T12:04:22Z</time>
      </trkpt>
      <trkpt lat="46.58715" lon="6.06121">
        <ele>1082.9</ele>
        <time>2021-10-26T12:04:29Z</time>
      </trkpt>
      <trkpt lat="46.58713" lon="6.06114">
        <ele>1081.5</ele>
        <time>2021-10-26T12:04:34Z</time>
      </trkpt>
      <trkpt lat="46.58709" lon="6.06109">
        <ele>1079.9</ele>
        <time>2021-10-26T12:04:40Z</time>
      </trkpt>
      <trkpt lat="46.58705" lon="6.06106">
        <ele>1079.1</ele>
        <time>2021-10-26T12:04:44Z</time>
      </trkpt>
      <trkpt lat="46.58701" lon="6.06102">
        <ele>1078.4</ele>
        <time>2021-10-26T12:04:48Z</time>
      </trkpt>
      <trkpt lat="46.58696" lon="6.06096">
        <ele>1077.8</ele>
        <time>2021-10-26T12:04:51Z</time>
      </trkpt>
      <trkpt lat="46.58691" lon="6.06093">
        <ele>1077.1</ele>
        <time>2021-10-26T12:04:54Z</time>
      </trkpt>
      <trkpt lat="46.58684" lon="6.06091">
        <ele>1076.2</ele>
        <time>2021-10-26T12:04:57Z</time>
      </trkpt>
      <trkpt lat="46.58681" lon="6.06085">
        <ele>1075.4</ele>
        <time>2021-10-26T12:05:01Z</time>
      </trkpt>
      <trkpt lat="46.58676" lon="6.06081">
        <ele>1075.5</ele>
        <time>2021-10-26T12:05:10Z</time>
      </trkpt>
      <trkpt lat="46.58671" lon="6.06083">
        <ele>1076.1</ele>
        <time>2021-10-26T12:05:15Z</time>
      </trkpt>
      <trkpt lat="46.58669" lon="6.06077">
        <ele>1076.7</ele>
        <time>2021-10-26T12:05:21Z</time>
      </trkpt>
      <trkpt lat="46.58664" lon="6.06075">
        <ele>1077.1</ele>
        <time>2021-10-26T12:05:25Z</time>
      </trkpt>
      <trkpt lat="46.5866" lon="6.06077">
        <ele>1077.5</ele>
        <time>2021-10-26T12:05:29Z</time>
      </trkpt>
      <trkpt lat="46.58655" lon="6.06074">
        <ele>1077.7</ele>
        <time>2021-10-26T12:05:33Z</time>
      </trkpt>
      <trkpt lat="46.58649" lon="6.06072">
        <ele>1078.3</ele>
        <time>2021-10-26T12:05:38Z</time>
      </trkpt>
      <trkpt lat="46.58647" lon="6.06066">
        <ele>1079</ele>
        <time>2021-10-26T12:05:44Z</time>
      </trkpt>
      <trkpt lat="46.58641" lon="6.06068">
        <ele>1079.7</ele>
        <time>2021-10-26T12:05:50Z</time>
      </trkpt>
      <trkpt lat="46.58636" lon="6.06065">
        <ele>1080.1</ele>
        <time>2021-10-26T12:05:54Z</time>
      </trkpt>
      <trkpt lat="46.58633" lon="6.06061">
        <ele>1078.6</ele>
        <time>2021-10-26T12:06:10Z</time>
      </trkpt>
      <trkpt lat="46.58628" lon="6.06059">
        <ele>1078.5</ele>
        <time>2021-10-26T12:07:42Z</time>
      </trkpt>
      <trkpt lat="46.58631" lon="6.06064">
        <ele>1078.1</ele>
        <time>2021-10-26T12:08:30Z</time>
      </trkpt>
      <trkpt lat="46.58637" lon="6.06066">
        <ele>1080.6</ele>
        <time>2021-10-26T12:08:36Z</time>
      </trkpt>
      <trkpt lat="46.58641" lon="6.06065">
        <ele>1081.4</ele>
        <time>2021-10-26T12:08:40Z</time>
      </trkpt>
      <trkpt lat="46.58646" lon="6.06068">
        <ele>1078.6</ele>
        <time>2021-10-26T12:08:58Z</time>
      </trkpt>
      <trkpt lat="46.5865" lon="6.0607">
        <ele>1077.9</ele>
        <time>2021-10-26T12:09:03Z</time>
      </trkpt>
      <trkpt lat="46.58655" lon="6.06074">
        <ele>1077.9</ele>
        <time>2021-10-26T12:09:10Z</time>
      </trkpt>
      <trkpt lat="46.58659" lon="6.06076">
        <ele>1077.9</ele>
        <time>2021-10-26T12:09:16Z</time>
      </trkpt>
      <trkpt lat="46.58664" lon="6.06075">
        <ele>1077.1</ele>
        <time>2021-10-26T12:09:23Z</time>
      </trkpt>
      <trkpt lat="46.58669" lon="6.06075">
        <ele>1077.5</ele>
        <time>2021-10-26T12:09:27Z</time>
      </trkpt>
      <trkpt lat="46.58673" lon="6.06075">
        <ele>1078.5</ele>
        <time>2021-10-26T12:09:31Z</time>
      </trkpt>
      <trkpt lat="46.58677" lon="6.0608">
        <ele>1081.6</ele>
        <time>2021-10-26T12:09:39Z</time>
      </trkpt>
      <trkpt lat="46.58683" lon="6.06082">
        <ele>1081.3</ele>
        <time>2021-10-26T12:09:43Z</time>
      </trkpt>
      <trkpt lat="46.58687" lon="6.06084">
        <ele>1080</ele>
        <time>2021-10-26T12:09:46Z</time>
      </trkpt>
      <trkpt lat="46.58692" lon="6.06087">
        <ele>1078.9</ele>
        <time>2021-10-26T12:09:50Z</time>
      </trkpt>
      <trkpt lat="46.58696" lon="6.0609">
        <ele>1078.1</ele>
        <time>2021-10-26T12:09:55Z</time>
      </trkpt>
      <trkpt lat="46.58701" lon="6.06092">
        <ele>1078</ele>
        <time>2021-10-26T12:10:01Z</time>
      </trkpt>
      <trkpt lat="46.58706" lon="6.06093">
        <ele>1076.9</ele>
        <time>2021-10-26T12:10:06Z</time>
      </trkpt>
      <trkpt lat="46.5871" lon="6.06094">
        <ele>1076.3</ele>
        <time>2021-10-26T12:10:18Z</time>
      </trkpt>
      <trkpt lat="46.58715" lon="6.06089">
        <ele>1076.3</ele>
        <time>2021-10-26T12:10:22Z</time>
      </trkpt>
      <trkpt lat="46.58719" lon="6.06086">
        <ele>1076.2</ele>
        <time>2021-10-26T12:10:26Z</time>
      </trkpt>
      <trkpt lat="46.58722" lon="6.06079">
        <ele>1077.4</ele>
        <time>2021-10-26T12:10:32Z</time>
      </trkpt>
      <trkpt lat="46.58725" lon="6.06073">
        <ele>1079.8</ele>
        <time>2021-10-26T12:10:38Z</time>
      </trkpt>
      <trkpt lat="46.5873" lon="6.06069">
        <ele>1082.1</ele>
        <time>2021-10-26T12:10:42Z</time>
      </trkpt>
      <trkpt lat="46.58734" lon="6.06065">
        <ele>1084.7</ele>
        <time>2021-10-26T12:10:46Z</time>
      </trkpt>
      <trkpt lat="46.58738" lon="6.0606">
        <ele>1087.3</ele>
        <time>2021-10-26T12:10:51Z</time>
      </trkpt>
      <trkpt lat="46.58741" lon="6.06054">
        <ele>1089.4</ele>
        <time>2021-10-26T12:10:55Z</time>
      </trkpt>
      <trkpt lat="46.58745" lon="6.0605">
        <ele>1090.8</ele>
        <time>2021-10-26T12:10:58Z</time>
      </trkpt>
      <trkpt lat="46.58749" lon="6.06045">
        <ele>1092.4</ele>
        <time>2021-10-26T12:11:02Z</time>
      </trkpt>
      <trkpt lat="46.58751" lon="6.0604">
        <ele>1092.8</ele>
        <time>2021-10-26T12:11:06Z</time>
      </trkpt>
      <trkpt lat="46.58752" lon="6.06033">
        <ele>1092.4</ele>
        <time>2021-10-26T12:11:11Z</time>
      </trkpt>
      <trkpt lat="46.58755" lon="6.06027">
        <ele>1091.2</ele>
        <time>2021-10-26T12:11:16Z</time>
      </trkpt>
      <trkpt lat="46.58758" lon="6.06022">
        <ele>1090</ele>
        <time>2021-10-26T12:11:21Z</time>
      </trkpt>
      <trkpt lat="46.58761" lon="6.06016">
        <ele>1088.9</ele>
        <time>2021-10-26T12:11:26Z</time>
      </trkpt>
      <trkpt lat="46.58763" lon="6.06009">
        <ele>1088.1</ele>
        <time>2021-10-26T12:11:30Z</time>
      </trkpt>
      <trkpt lat="46.58765" lon="6.06002">
        <ele>1087.4</ele>
        <time>2021-10-26T12:11:35Z</time>
      </trkpt>
      <trkpt lat="46.58765" lon="6.05994">
        <ele>1087.7</ele>
        <time>2021-10-26T12:11:42Z</time>
      </trkpt>
      <trkpt lat="46.58765" lon="6.05987">
        <ele>1088.5</ele>
        <time>2021-10-26T12:11:47Z</time>
      </trkpt>
      <trkpt lat="46.58766" lon="6.0598">
        <ele>1088.9</ele>
        <time>2021-10-26T12:11:52Z</time>
      </trkpt>
      <trkpt lat="46.58765" lon="6.05973">
        <ele>1088.6</ele>
        <time>2021-10-26T12:11:57Z</time>
      </trkpt>
      <trkpt lat="46.58764" lon="6.05966">
        <ele>1088.2</ele>
        <time>2021-10-26T12:12:02Z</time>
      </trkpt>
      <trkpt lat="46.58764" lon="6.0596">
        <ele>1088.1</ele>
        <time>2021-10-26T12:12:05Z</time>
      </trkpt>
      <trkpt lat="46.58762" lon="6.05953">
        <ele>1087.9</ele>
        <time>2021-10-26T12:12:09Z</time>
      </trkpt>
      <trkpt lat="46.5876" lon="6.05947">
        <ele>1088.3</ele>
        <time>2021-10-26T12:12:14Z</time>
      </trkpt>
      <trkpt lat="46.58757" lon="6.05941">
        <ele>1088.7</ele>
        <time>2021-10-26T12:12:18Z</time>
      </trkpt>
      <trkpt lat="46.58754" lon="6.05935">
        <ele>1088.5</ele>
        <time>2021-10-26T12:12:22Z</time>
      </trkpt>
      <trkpt lat="46.5875" lon="6.05931">
        <ele>1087.9</ele>
        <time>2021-10-26T12:12:26Z</time>
      </trkpt>
      <trkpt lat="46.58746" lon="6.05927">
        <ele>1086.9</ele>
        <time>2021-10-26T12:12:31Z</time>
      </trkpt>
      <trkpt lat="46.58743" lon="6.05921">
        <ele>1086.6</ele>
        <time>2021-10-26T12:12:39Z</time>
      </trkpt>
      <trkpt lat="46.58743" lon="6.05913">
        <ele>1087.6</ele>
        <time>2021-10-26T12:12:44Z</time>
      </trkpt>
      <trkpt lat="46.58741" lon="6.05906">
        <ele>1088.4</ele>
        <time>2021-10-26T12:12:48Z</time>
      </trkpt>
      <trkpt lat="46.58738" lon="6.05901">
        <ele>1089.3</ele>
        <time>2021-10-26T12:12:52Z</time>
      </trkpt>
      <trkpt lat="46.58733" lon="6.05898">
        <ele>1090.6</ele>
        <time>2021-10-26T12:12:56Z</time>
      </trkpt>
      <trkpt lat="46.5873" lon="6.05892">
        <ele>1091.8</ele>
        <time>2021-10-26T12:13:01Z</time>
      </trkpt>
      <trkpt lat="46.58728" lon="6.05886">
        <ele>1092.3</ele>
        <time>2021-10-26T12:13:06Z</time>
      </trkpt>
      <trkpt lat="46.58724" lon="6.0588">
        <ele>1092.1</ele>
        <time>2021-10-26T12:13:11Z</time>
      </trkpt>
      <trkpt lat="46.58722" lon="6.05874">
        <ele>1091.7</ele>
        <time>2021-10-26T12:13:17Z</time>
      </trkpt>
      <trkpt lat="46.58722" lon="6.05867">
        <ele>1092.2</ele>
        <time>2021-10-26T12:13:22Z</time>
      </trkpt>
      <trkpt lat="46.58719" lon="6.05862">
        <ele>1092.7</ele>
        <time>2021-10-26T12:13:27Z</time>
      </trkpt>
      <trkpt lat="46.58715" lon="6.05857">
        <ele>1093</ele>
        <time>2021-10-26T12:13:33Z</time>
      </trkpt>
      <trkpt lat="46.58709" lon="6.05853">
        <ele>1093.4</ele>
        <time>2021-10-26T12:13:37Z</time>
      </trkpt>
      <trkpt lat="46.58704" lon="6.05851">
        <ele>1093.8</ele>
        <time>2021-10-26T12:13:41Z</time>
      </trkpt>
      <trkpt lat="46.58701" lon="6.05846">
        <ele>1094.9</ele>
        <time>2021-10-26T12:13:46Z</time>
      </trkpt>
      <trkpt lat="46.58697" lon="6.0584">
        <ele>1096</ele>
        <time>2021-10-26T12:13:50Z</time>
      </trkpt>
      <trkpt lat="46.58693" lon="6.05836">
        <ele>1097.7</ele>
        <time>2021-10-26T12:13:54Z</time>
      </trkpt>
      <trkpt lat="46.58689" lon="6.05832">
        <ele>1099.4</ele>
        <time>2021-10-26T12:13:58Z</time>
      </trkpt>
      <trkpt lat="46.58685" lon="6.05828">
        <ele>1101.2</ele>
        <time>2021-10-26T12:14:03Z</time>
      </trkpt>
      <trkpt lat="46.58681" lon="6.05824">
        <ele>1102.1</ele>
        <time>2021-10-26T12:14:07Z</time>
      </trkpt>
      <trkpt lat="46.58676" lon="6.05821">
        <ele>1101.8</ele>
        <time>2021-10-26T12:14:11Z</time>
      </trkpt>
      <trkpt lat="46.58673" lon="6.05817">
        <ele>1100.9</ele>
        <time>2021-10-26T12:14:18Z</time>
      </trkpt>
      <trkpt lat="46.5867" lon="6.05811">
        <ele>1100.3</ele>
        <time>2021-10-26T12:14:23Z</time>
      </trkpt>
      <trkpt lat="46.58666" lon="6.05808">
        <ele>1100.2</ele>
        <time>2021-10-26T12:14:28Z</time>
      </trkpt>
      <trkpt lat="46.58662" lon="6.05804">
        <ele>1099.7</ele>
        <time>2021-10-26T12:14:34Z</time>
      </trkpt>
      <trkpt lat="46.58658" lon="6.05799">
        <ele>1099.6</ele>
        <time>2021-10-26T12:14:40Z</time>
      </trkpt>
      <trkpt lat="46.58654" lon="6.05794">
        <ele>1099.8</ele>
        <time>2021-10-26T12:14:45Z</time>
      </trkpt>
      <trkpt lat="46.58648" lon="6.05793">
        <ele>1100.6</ele>
        <time>2021-10-26T12:14:49Z</time>
      </trkpt>
      <trkpt lat="46.58644" lon="6.0579">
        <ele>1101.6</ele>
        <time>2021-10-26T12:14:54Z</time>
      </trkpt>
      <trkpt lat="46.58641" lon="6.05784">
        <ele>1102</ele>
        <time>2021-10-26T12:15:00Z</time>
      </trkpt>
      <trkpt lat="46.58639" lon="6.05777">
        <ele>1101.6</ele>
        <time>2021-10-26T12:15:06Z</time>
      </trkpt>
      <trkpt lat="46.58639" lon="6.0577">
        <ele>1100.8</ele>
        <time>2021-10-26T12:15:11Z</time>
      </trkpt>
      <trkpt lat="46.58639" lon="6.05763">
        <ele>1100</ele>
        <time>2021-10-26T12:15:18Z</time>
      </trkpt>
      <trkpt lat="46.58639" lon="6.05756">
        <ele>1099.5</ele>
        <time>2021-10-26T12:15:22Z</time>
      </trkpt>
      <trkpt lat="46.5864" lon="6.05748">
        <ele>1099.3</ele>
        <time>2021-10-26T12:15:25Z</time>
      </trkpt>
      <trkpt lat="46.58641" lon="6.05741">
        <ele>1099.3</ele>
        <time>2021-10-26T12:15:28Z</time>
      </trkpt>
      <trkpt lat="46.58641" lon="6.05734">
        <ele>1099.8</ele>
        <time>2021-10-26T12:15:32Z</time>
      </trkpt>
      <trkpt lat="46.58642" lon="6.05727">
        <ele>1100.8</ele>
        <time>2021-10-26T12:15:37Z</time>
      </trkpt>
      <trkpt lat="46.58643" lon="6.0572">
        <ele>1102.1</ele>
        <time>2021-10-26T12:15:42Z</time>
      </trkpt>
      <trkpt lat="46.58646" lon="6.05713">
        <ele>1102.8</ele>
        <time>2021-10-26T12:15:47Z</time>
      </trkpt>
      <trkpt lat="46.58649" lon="6.05707">
        <ele>1102.3</ele>
        <time>2021-10-26T12:15:53Z</time>
      </trkpt>
      <trkpt lat="46.58649" lon="6.05701">
        <ele>1100.9</ele>
        <time>2021-10-26T12:16:00Z</time>
      </trkpt>
      <trkpt lat="46.58651" lon="6.05695">
        <ele>1099.5</ele>
        <time>2021-10-26T12:16:06Z</time>
      </trkpt>
      <trkpt lat="46.58654" lon="6.05687">
        <ele>1098.6</ele>
        <time>2021-10-26T12:16:10Z</time>
      </trkpt>
      <trkpt lat="46.58657" lon="6.0568">
        <ele>1097.4</ele>
        <time>2021-10-26T12:16:14Z</time>
      </trkpt>
      <trkpt lat="46.58659" lon="6.05674">
        <ele>1096.2</ele>
        <time>2021-10-26T12:16:18Z</time>
      </trkpt>
      <trkpt lat="46.58661" lon="6.05667">
        <ele>1094.8</ele>
        <time>2021-10-26T12:16:23Z</time>
      </trkpt>
      <trkpt lat="46.58662" lon="6.0566">
        <ele>1093.4</ele>
        <time>2021-10-26T12:16:29Z</time>
      </trkpt>
      <trkpt lat="46.5866" lon="6.05653">
        <ele>1093.4</ele>
        <time>2021-10-26T12:16:35Z</time>
      </trkpt>
      <trkpt lat="46.58658" lon="6.05646">
        <ele>1094.1</ele>
        <time>2021-10-26T12:16:41Z</time>
      </trkpt>
      <trkpt lat="46.58655" lon="6.05641">
        <ele>1094.6</ele>
        <time>2021-10-26T12:16:45Z</time>
      </trkpt>
      <trkpt lat="46.58651" lon="6.05636">
        <ele>1094.5</ele>
        <time>2021-10-26T12:16:51Z</time>
      </trkpt>
      <trkpt lat="46.58648" lon="6.05631">
        <ele>1094.1</ele>
        <time>2021-10-26T12:16:56Z</time>
      </trkpt>
      <trkpt lat="46.58644" lon="6.05626">
        <ele>1093.4</ele>
        <time>2021-10-26T12:17:02Z</time>
      </trkpt>
      <trkpt lat="46.58641" lon="6.05621">
        <ele>1093.7</ele>
        <time>2021-10-26T12:17:06Z</time>
      </trkpt>
      <trkpt lat="46.58637" lon="6.05616">
        <ele>1094.6</ele>
        <time>2021-10-26T12:17:11Z</time>
      </trkpt>
      <trkpt lat="46.58633" lon="6.05613">
        <ele>1095</ele>
        <time>2021-10-26T12:17:15Z</time>
      </trkpt>
      <trkpt lat="46.58629" lon="6.05608">
        <ele>1095.3</ele>
        <time>2021-10-26T12:17:21Z</time>
      </trkpt>
      <trkpt lat="46.58624" lon="6.05604">
        <ele>1095.1</ele>
        <time>2021-10-26T12:17:27Z</time>
      </trkpt>
      <trkpt lat="46.58621" lon="6.05599">
        <ele>1094.6</ele>
        <time>2021-10-26T12:17:32Z</time>
      </trkpt>
      <trkpt lat="46.58617" lon="6.05595">
        <ele>1094.9</ele>
        <time>2021-10-26T12:17:38Z</time>
      </trkpt>
      <trkpt lat="46.58615" lon="6.05588">
        <ele>1095.1</ele>
        <time>2021-10-26T12:17:43Z</time>
      </trkpt>
      <trkpt lat="46.58612" lon="6.05583">
        <ele>1095</ele>
        <time>2021-10-26T12:17:47Z</time>
      </trkpt>
      <trkpt lat="46.58609" lon="6.05578">
        <ele>1095.1</ele>
        <time>2021-10-26T12:17:51Z</time>
      </trkpt>
      <trkpt lat="46.58606" lon="6.05572">
        <ele>1095.7</ele>
        <time>2021-10-26T12:17:55Z</time>
      </trkpt>
      <trkpt lat="46.58603" lon="6.05566">
        <ele>1096.8</ele>
        <time>2021-10-26T12:17:59Z</time>
      </trkpt>
      <trkpt lat="46.586" lon="6.05559">
        <ele>1098.5</ele>
        <time>2021-10-26T12:18:03Z</time>
      </trkpt>
      <trkpt lat="46.58597" lon="6.05554">
        <ele>1099.4</ele>
        <time>2021-10-26T12:18:08Z</time>
      </trkpt>
      <trkpt lat="46.58594" lon="6.05548">
        <ele>1099.2</ele>
        <time>2021-10-26T12:18:13Z</time>
      </trkpt>
      <trkpt lat="46.58592" lon="6.0554">
        <ele>1099.4</ele>
        <time>2021-10-26T12:18:17Z</time>
      </trkpt>
      <trkpt lat="46.58592" lon="6.05533">
        <ele>1100.2</ele>
        <time>2021-10-26T12:18:20Z</time>
      </trkpt>
      <trkpt lat="46.58592" lon="6.05526">
        <ele>1101.7</ele>
        <time>2021-10-26T12:18:24Z</time>
      </trkpt>
      <trkpt lat="46.58591" lon="6.05518">
        <ele>1103.6</ele>
        <time>2021-10-26T12:18:29Z</time>
      </trkpt>
      <trkpt lat="46.58594" lon="6.05512">
        <ele>1106</ele>
        <time>2021-10-26T12:18:34Z</time>
      </trkpt>
      <trkpt lat="46.58599" lon="6.05508">
        <ele>1108.5</ele>
        <time>2021-10-26T12:18:38Z</time>
      </trkpt>
      <trkpt lat="46.58604" lon="6.05506">
        <ele>1111.8</ele>
        <time>2021-10-26T12:18:44Z</time>
      </trkpt>
      <trkpt lat="46.58608" lon="6.05503">
        <ele>1114.2</ele>
        <time>2021-10-26T12:18:51Z</time>
      </trkpt>
      <trkpt lat="46.58612" lon="6.05502">
        <ele>1115</ele>
        <time>2021-10-26T12:18:59Z</time>
      </trkpt>
      <trkpt lat="46.58617" lon="6.05501">
        <ele>1114.4</ele>
        <time>2021-10-26T12:19:04Z</time>
      </trkpt>
      <trkpt lat="46.58612" lon="6.05507">
        <ele>1112.5</ele>
        <time>2021-10-26T12:19:18Z</time>
      </trkpt>
      <trkpt lat="46.58605" lon="6.05511">
        <ele>1112.1</ele>
        <time>2021-10-26T12:19:21Z</time>
      </trkpt>
      <trkpt lat="46.58602" lon="6.05517">
        <ele>1110.9</ele>
        <time>2021-10-26T12:19:24Z</time>
      </trkpt>
      <trkpt lat="46.58597" lon="6.05519">
        <ele>1109.3</ele>
        <time>2021-10-26T12:19:27Z</time>
      </trkpt>
      <trkpt lat="46.58592" lon="6.05517">
        <ele>1106.7</ele>
        <time>2021-10-26T12:19:31Z</time>
      </trkpt>
      <trkpt lat="46.5859" lon="6.05511">
        <ele>1103.4</ele>
        <time>2021-10-26T12:19:36Z</time>
      </trkpt>
      <trkpt lat="46.58587" lon="6.05504">
        <ele>1101.5</ele>
        <time>2021-10-26T12:19:40Z</time>
      </trkpt>
      <trkpt lat="46.58586" lon="6.05498">
        <ele>1100.2</ele>
        <time>2021-10-26T12:19:44Z</time>
      </trkpt>
      <trkpt lat="46.58585" lon="6.0549">
        <ele>1098.7</ele>
        <time>2021-10-26T12:19:49Z</time>
      </trkpt>
      <trkpt lat="46.58586" lon="6.05483">
        <ele>1097.2</ele>
        <time>2021-10-26T12:19:53Z</time>
      </trkpt>
      <trkpt lat="46.58586" lon="6.05475">
        <ele>1095.4</ele>
        <time>2021-10-26T12:19:58Z</time>
      </trkpt>
      <trkpt lat="46.58585" lon="6.05469">
        <ele>1094.2</ele>
        <time>2021-10-26T12:20:03Z</time>
      </trkpt>
      <trkpt lat="46.58582" lon="6.05463">
        <ele>1093.7</ele>
        <time>2021-10-26T12:20:08Z</time>
      </trkpt>
      <trkpt lat="46.58578" lon="6.05458">
        <ele>1093.3</ele>
        <time>2021-10-26T12:20:12Z</time>
      </trkpt>
      <trkpt lat="46.58576" lon="6.05453">
        <ele>1093.2</ele>
        <time>2021-10-26T12:20:15Z</time>
      </trkpt>
      <trkpt lat="46.58573" lon="6.05447">
        <ele>1092.8</ele>
        <time>2021-10-26T12:20:19Z</time>
      </trkpt>
      <trkpt lat="46.58569" lon="6.05443">
        <ele>1092.7</ele>
        <time>2021-10-26T12:20:23Z</time>
      </trkpt>
      <trkpt lat="46.58564" lon="6.0544">
        <ele>1092.8</ele>
        <time>2021-10-26T12:20:26Z</time>
      </trkpt>
      <trkpt lat="46.58559" lon="6.05437">
        <ele>1092.7</ele>
        <time>2021-10-26T12:20:30Z</time>
      </trkpt>
      <trkpt lat="46.58556" lon="6.05432">
        <ele>1092.8</ele>
        <time>2021-10-26T12:20:34Z</time>
      </trkpt>
      <trkpt lat="46.58552" lon="6.05427">
        <ele>1093</ele>
        <time>2021-10-26T12:20:37Z</time>
      </trkpt>
      <trkpt lat="46.58549" lon="6.0542">
        <ele>1093.8</ele>
        <time>2021-10-26T12:20:40Z</time>
      </trkpt>
      <trkpt lat="46.58546" lon="6.05414">
        <ele>1095.3</ele>
        <time>2021-10-26T12:20:45Z</time>
      </trkpt>
      <trkpt lat="46.58546" lon="6.05407">
        <ele>1096.4</ele>
        <time>2021-10-26T12:20:49Z</time>
      </trkpt>
      <trkpt lat="46.58546" lon="6.054">
        <ele>1097.2</ele>
        <time>2021-10-26T12:20:52Z</time>
      </trkpt>
      <trkpt lat="46.58546" lon="6.05392">
        <ele>1098</ele>
        <time>2021-10-26T12:20:55Z</time>
      </trkpt>
      <trkpt lat="46.58543" lon="6.05385">
        <ele>1098.8</ele>
        <time>2021-10-26T12:20:58Z</time>
      </trkpt>
      <trkpt lat="46.58541" lon="6.0538">
        <ele>1099.4</ele>
        <time>2021-10-26T12:21:01Z</time>
      </trkpt>
      <trkpt lat="46.58537" lon="6.05374">
        <ele>1100.1</ele>
        <time>2021-10-26T12:21:05Z</time>
      </trkpt>
      <trkpt lat="46.58534" lon="6.05368">
        <ele>1100.4</ele>
        <time>2021-10-26T12:21:08Z</time>
      </trkpt>
      <trkpt lat="46.58532" lon="6.05362">
        <ele>1100.5</ele>
        <time>2021-10-26T12:21:12Z</time>
      </trkpt>
      <trkpt lat="46.5853" lon="6.05357">
        <ele>1100.7</ele>
        <time>2021-10-26T12:21:17Z</time>
      </trkpt>
      <trkpt lat="46.58528" lon="6.0535">
        <ele>1101</ele>
        <time>2021-10-26T12:21:23Z</time>
      </trkpt>
      <trkpt lat="46.58525" lon="6.05345">
        <ele>1101.1</ele>
        <time>2021-10-26T12:21:29Z</time>
      </trkpt>
      <trkpt lat="46.58521" lon="6.0534">
        <ele>1101</ele>
        <time>2021-10-26T12:21:34Z</time>
      </trkpt>
      <trkpt lat="46.58517" lon="6.05334">
        <ele>1101.1</ele>
        <time>2021-10-26T12:21:37Z</time>
      </trkpt>
      <trkpt lat="46.58514" lon="6.05329">
        <ele>1101.3</ele>
        <time>2021-10-26T12:21:40Z</time>
      </trkpt>
      <trkpt lat="46.58512" lon="6.05323">
        <ele>1101</ele>
        <time>2021-10-26T12:21:45Z</time>
      </trkpt>
      <trkpt lat="46.58511" lon="6.05316">
        <ele>1099.6</ele>
        <time>2021-10-26T12:21:51Z</time>
      </trkpt>
      <trkpt lat="46.58511" lon="6.05309">
        <ele>1098.2</ele>
        <time>2021-10-26T12:21:57Z</time>
      </trkpt>
      <trkpt lat="46.58512" lon="6.05303">
        <ele>1098.5</ele>
        <time>2021-10-26T12:22:07Z</time>
      </trkpt>
      <trkpt lat="46.58514" lon="6.05296">
        <ele>1098.8</ele>
        <time>2021-10-26T12:22:17Z</time>
      </trkpt>
      <trkpt lat="46.58517" lon="6.05289">
        <ele>1100.4</ele>
        <time>2021-10-26T12:22:23Z</time>
      </trkpt>
      <trkpt lat="46.58512" lon="6.05291">
        <ele>1103</ele>
        <time>2021-10-26T12:22:48Z</time>
      </trkpt>
      <trkpt lat="46.58512" lon="6.05298">
        <ele>1103.5</ele>
        <time>2021-10-26T12:22:55Z</time>
      </trkpt>
      <trkpt lat="46.58509" lon="6.05304">
        <ele>1104.3</ele>
        <time>2021-10-26T12:22:59Z</time>
      </trkpt>
      <trkpt lat="46.58504" lon="6.05305">
        <ele>1105.3</ele>
        <time>2021-10-26T12:23:04Z</time>
      </trkpt>
      <trkpt lat="46.585" lon="6.05304">
        <ele>1106.4</ele>
        <time>2021-10-26T12:23:09Z</time>
      </trkpt>
      <trkpt lat="46.58495" lon="6.05301">
        <ele>1107.6</ele>
        <time>2021-10-26T12:23:16Z</time>
      </trkpt>
      <trkpt lat="46.58493" lon="6.05294">
        <ele>1107.6</ele>
        <time>2021-10-26T12:23:22Z</time>
      </trkpt>
      <trkpt lat="46.58491" lon="6.05287">
        <ele>1107.4</ele>
        <time>2021-10-26T12:23:27Z</time>
      </trkpt>
      <trkpt lat="46.58489" lon="6.05281">
        <ele>1107.2</ele>
        <time>2021-10-26T12:23:31Z</time>
      </trkpt>
      <trkpt lat="46.58485" lon="6.05276">
        <ele>1106.6</ele>
        <time>2021-10-26T12:23:35Z</time>
      </trkpt>
      <trkpt lat="46.5848" lon="6.05272">
        <ele>1105.8</ele>
        <time>2021-10-26T12:23:39Z</time>
      </trkpt>
      <trkpt lat="46.58477" lon="6.05267">
        <ele>1105.5</ele>
        <time>2021-10-26T12:23:43Z</time>
      </trkpt>
      <trkpt lat="46.58472" lon="6.05262">
        <ele>1105.5</ele>
        <time>2021-10-26T12:23:47Z</time>
      </trkpt>
      <trkpt lat="46.58468" lon="6.05257">
        <ele>1105.3</ele>
        <time>2021-10-26T12:23:51Z</time>
      </trkpt>
      <trkpt lat="46.58466" lon="6.05251">
        <ele>1105.7</ele>
        <time>2021-10-26T12:23:55Z</time>
      </trkpt>
      <trkpt lat="46.58464" lon="6.05244">
        <ele>1106.2</ele>
        <time>2021-10-26T12:23:59Z</time>
      </trkpt>
      <trkpt lat="46.58461" lon="6.05238">
        <ele>1106.9</ele>
        <time>2021-10-26T12:24:02Z</time>
      </trkpt>
      <trkpt lat="46.58459" lon="6.05232">
        <ele>1108.1</ele>
        <time>2021-10-26T12:24:06Z</time>
      </trkpt>
      <trkpt lat="46.58456" lon="6.05226">
        <ele>1109.7</ele>
        <time>2021-10-26T12:24:10Z</time>
      </trkpt>
      <trkpt lat="46.58454" lon="6.05219">
        <ele>1111.6</ele>
        <time>2021-10-26T12:24:15Z</time>
      </trkpt>
      <trkpt lat="46.5845" lon="6.05214">
        <ele>1113.4</ele>
        <time>2021-10-26T12:24:20Z</time>
      </trkpt>
      <trkpt lat="46.58445" lon="6.05212">
        <ele>1114.6</ele>
        <time>2021-10-26T12:24:25Z</time>
      </trkpt>
      <trkpt lat="46.5844" lon="6.05212">
        <ele>1114.9</ele>
        <time>2021-10-26T12:24:30Z</time>
      </trkpt>
      <trkpt lat="46.58435" lon="6.05214">
        <ele>1113.6</ele>
        <time>2021-10-26T12:24:35Z</time>
      </trkpt>
      <trkpt lat="46.5843" lon="6.05213">
        <ele>1109.3</ele>
        <time>2021-10-26T12:24:42Z</time>
      </trkpt>
      <trkpt lat="46.58426" lon="6.05209">
        <ele>1105.7</ele>
        <time>2021-10-26T12:24:47Z</time>
      </trkpt>
      <trkpt lat="46.58421" lon="6.05206">
        <ele>1103.2</ele>
        <time>2021-10-26T12:24:51Z</time>
      </trkpt>
      <trkpt lat="46.58417" lon="6.05204">
        <ele>1100.7</ele>
        <time>2021-10-26T12:24:57Z</time>
      </trkpt>
      <trkpt lat="46.58412" lon="6.05202">
        <ele>1098.9</ele>
        <time>2021-10-26T12:25:02Z</time>
      </trkpt>
      <trkpt lat="46.58408" lon="6.05198">
        <ele>1097.1</ele>
        <time>2021-10-26T12:25:08Z</time>
      </trkpt>
      <trkpt lat="46.58405" lon="6.05194">
        <ele>1095.9</ele>
        <time>2021-10-26T12:25:13Z</time>
      </trkpt>
      <trkpt lat="46.58401" lon="6.05189">
        <ele>1095.1</ele>
        <time>2021-10-26T12:25:18Z</time>
      </trkpt>
      <trkpt lat="46.58396" lon="6.05185">
        <ele>1094.9</ele>
        <time>2021-10-26T12:25:22Z</time>
      </trkpt>
      <trkpt lat="46.58391" lon="6.05182">
        <ele>1095.4</ele>
        <time>2021-10-26T12:25:26Z</time>
      </trkpt>
      <trkpt lat="46.58387" lon="6.05179">
        <ele>1096.3</ele>
        <time>2021-10-26T12:25:31Z</time>
      </trkpt>
      <trkpt lat="46.58382" lon="6.05174">
        <ele>1097.1</ele>
        <time>2021-10-26T12:25:35Z</time>
      </trkpt>
      <trkpt lat="46.58377" lon="6.05172">
        <ele>1097.4</ele>
        <time>2021-10-26T12:25:39Z</time>
      </trkpt>
      <trkpt lat="46.58373" lon="6.05168">
        <ele>1097.6</ele>
        <time>2021-10-26T12:25:43Z</time>
      </trkpt>
      <trkpt lat="46.58369" lon="6.05163">
        <ele>1098.2</ele>
        <time>2021-10-26T12:25:47Z</time>
      </trkpt>
      <trkpt lat="46.58365" lon="6.0516">
        <ele>1098.5</ele>
        <time>2021-10-26T12:25:51Z</time>
      </trkpt>
      <trkpt lat="46.58361" lon="6.05156">
        <ele>1098.4</ele>
        <time>2021-10-26T12:25:55Z</time>
      </trkpt>
      <trkpt lat="46.58358" lon="6.0515">
        <ele>1098.2</ele>
        <time>2021-10-26T12:26:02Z</time>
      </trkpt>
      <trkpt lat="46.58353" lon="6.05148">
        <ele>1098.4</ele>
        <time>2021-10-26T12:26:07Z</time>
      </trkpt>
      <trkpt lat="46.58347" lon="6.05147">
        <ele>1098.4</ele>
        <time>2021-10-26T12:26:11Z</time>
      </trkpt>
      <trkpt lat="46.58343" lon="6.05146">
        <ele>1097.3</ele>
        <time>2021-10-26T12:26:16Z</time>
      </trkpt>
      <trkpt lat="46.58337" lon="6.05144">
        <ele>1096.3</ele>
        <time>2021-10-26T12:26:20Z</time>
      </trkpt>
      <trkpt lat="46.58332" lon="6.05143">
        <ele>1095</ele>
        <time>2021-10-26T12:26:24Z</time>
      </trkpt>
      <trkpt lat="46.58328" lon="6.05144">
        <ele>1093.7</ele>
        <time>2021-10-26T12:26:28Z</time>
      </trkpt>
      <trkpt lat="46.58323" lon="6.05143">
        <ele>1092.2</ele>
        <time>2021-10-26T12:26:34Z</time>
      </trkpt>
      <trkpt lat="46.58319" lon="6.05139">
        <ele>1090.9</ele>
        <time>2021-10-26T12:26:38Z</time>
      </trkpt>
      <trkpt lat="46.58315" lon="6.05134">
        <ele>1089.9</ele>
        <time>2021-10-26T12:26:42Z</time>
      </trkpt>
      <trkpt lat="46.58311" lon="6.05131">
        <ele>1089.4</ele>
        <time>2021-10-26T12:26:48Z</time>
      </trkpt>
      <trkpt lat="46.58305" lon="6.0513">
        <ele>1089.1</ele>
        <time>2021-10-26T12:26:52Z</time>
      </trkpt>
      <trkpt lat="46.583" lon="6.05127">
        <ele>1088.3</ele>
        <time>2021-10-26T12:26:56Z</time>
      </trkpt>
      <trkpt lat="46.58297" lon="6.05123">
        <ele>1087.7</ele>
        <time>2021-10-26T12:26:59Z</time>
      </trkpt>
      <trkpt lat="46.58294" lon="6.05118">
        <ele>1087.6</ele>
        <time>2021-10-26T12:27:03Z</time>
      </trkpt>
      <trkpt lat="46.58291" lon="6.05112">
        <ele>1088</ele>
        <time>2021-10-26T12:27:08Z</time>
      </trkpt>
      <trkpt lat="46.58288" lon="6.05107">
        <ele>1088.7</ele>
        <time>2021-10-26T12:27:14Z</time>
      </trkpt>
      <trkpt lat="46.58285" lon="6.05101">
        <ele>1089.3</ele>
        <time>2021-10-26T12:27:19Z</time>
      </trkpt>
      <trkpt lat="46.58281" lon="6.05098">
        <ele>1090.4</ele>
        <time>2021-10-26T12:27:24Z</time>
      </trkpt>
      <trkpt lat="46.58276" lon="6.05095">
        <ele>1091.2</ele>
        <time>2021-10-26T12:27:29Z</time>
      </trkpt>
      <trkpt lat="46.58271" lon="6.05092">
        <ele>1092.4</ele>
        <time>2021-10-26T12:27:34Z</time>
      </trkpt>
      <trkpt lat="46.58266" lon="6.05089">
        <ele>1093.6</ele>
        <time>2021-10-26T12:27:38Z</time>
      </trkpt>
      <trkpt lat="46.58262" lon="6.05086">
        <ele>1094.8</ele>
        <time>2021-10-26T12:27:42Z</time>
      </trkpt>
      <trkpt lat="46.58257" lon="6.05084">
        <ele>1095.1</ele>
        <time>2021-10-26T12:27:46Z</time>
      </trkpt>
      <trkpt lat="46.58253" lon="6.05081">
        <ele>1094.8</ele>
        <time>2021-10-26T12:27:50Z</time>
      </trkpt>
      <trkpt lat="46.58249" lon="6.05076">
        <ele>1093.4</ele>
        <time>2021-10-26T12:27:55Z</time>
      </trkpt>
      <trkpt lat="46.58245" lon="6.05073">
        <ele>1091.6</ele>
        <time>2021-10-26T12:28:00Z</time>
      </trkpt>
      <trkpt lat="46.5824" lon="6.05068">
        <ele>1090</ele>
        <time>2021-10-26T12:28:05Z</time>
      </trkpt>
      <trkpt lat="46.58236" lon="6.05066">
        <ele>1088.2</ele>
        <time>2021-10-26T12:28:11Z</time>
      </trkpt>
      <trkpt lat="46.58231" lon="6.05064">
        <ele>1088</ele>
        <time>2021-10-26T12:28:15Z</time>
      </trkpt>
      <trkpt lat="46.58227" lon="6.05061">
        <ele>1088</ele>
        <time>2021-10-26T12:28:19Z</time>
      </trkpt>
      <trkpt lat="46.58222" lon="6.05058">
        <ele>1086.6</ele>
        <time>2021-10-26T12:28:24Z</time>
      </trkpt>
      <trkpt lat="46.58218" lon="6.05054">
        <ele>1085.5</ele>
        <time>2021-10-26T12:28:28Z</time>
      </trkpt>
      <trkpt lat="46.58215" lon="6.05049">
        <ele>1085.2</ele>
        <time>2021-10-26T12:28:32Z</time>
      </trkpt>
      <trkpt lat="46.58211" lon="6.05043">
        <ele>1084.7</ele>
        <time>2021-10-26T12:28:37Z</time>
      </trkpt>
      <trkpt lat="46.58207" lon="6.05038">
        <ele>1084.3</ele>
        <time>2021-10-26T12:28:42Z</time>
      </trkpt>
      <trkpt lat="46.58203" lon="6.05034">
        <ele>1084.4</ele>
        <time>2021-10-26T12:28:46Z</time>
      </trkpt>
      <trkpt lat="46.58199" lon="6.05032">
        <ele>1084.8</ele>
        <time>2021-10-26T12:28:51Z</time>
      </trkpt>
      <trkpt lat="46.58193" lon="6.05031">
        <ele>1085.3</ele>
        <time>2021-10-26T12:28:55Z</time>
      </trkpt>
      <trkpt lat="46.58189" lon="6.05028">
        <ele>1085.8</ele>
        <time>2021-10-26T12:28:59Z</time>
      </trkpt>
      <trkpt lat="46.58184" lon="6.05025">
        <ele>1085.5</ele>
        <time>2021-10-26T12:29:04Z</time>
      </trkpt>
      <trkpt lat="46.58179" lon="6.05024">
        <ele>1084.5</ele>
        <time>2021-10-26T12:29:09Z</time>
      </trkpt>
      <trkpt lat="46.58175" lon="6.05021">
        <ele>1083.2</ele>
        <time>2021-10-26T12:29:13Z</time>
      </trkpt>
      <trkpt lat="46.58172" lon="6.05014">
        <ele>1081.1</ele>
        <time>2021-10-26T12:29:17Z</time>
      </trkpt>
      <trkpt lat="46.58169" lon="6.05008">
        <ele>1079</ele>
        <time>2021-10-26T12:29:21Z</time>
      </trkpt>
      <trkpt lat="46.58165" lon="6.05003">
        <ele>1076.7</ele>
        <time>2021-10-26T12:29:26Z</time>
      </trkpt>
      <trkpt lat="46.58161" lon="6.04998">
        <ele>1074.1</ele>
        <time>2021-10-26T12:29:32Z</time>
      </trkpt>
      <trkpt lat="46.58156" lon="6.04995">
        <ele>1073</ele>
        <time>2021-10-26T12:29:36Z</time>
      </trkpt>
      <trkpt lat="46.58152" lon="6.04992">
        <ele>1072.5</ele>
        <time>2021-10-26T12:29:40Z</time>
      </trkpt>
      <trkpt lat="46.58147" lon="6.04989">
        <ele>1071.6</ele>
        <time>2021-10-26T12:29:46Z</time>
      </trkpt>
      <trkpt lat="46.58142" lon="6.04986">
        <ele>1069.4</ele>
        <time>2021-10-26T12:29:56Z</time>
      </trkpt>
      <trkpt lat="46.58139" lon="6.0499">
        <ele>1076.2</ele>
        <time>2021-10-26T12:30:18Z</time>
      </trkpt>
      <trkpt lat="46.58134" lon="6.0499">
        <ele>1078.5</ele>
        <time>2021-10-26T12:30:24Z</time>
      </trkpt>
      <trkpt lat="46.58139" lon="6.04991">
        <ele>1077.8</ele>
        <time>2021-10-26T12:30:55Z</time>
      </trkpt>
      <trkpt lat="46.58134" lon="6.04994">
        <ele>1080.3</ele>
        <time>2021-10-26T12:31:08Z</time>
      </trkpt>
      <trkpt lat="46.58129" lon="6.04995">
        <ele>1081.2</ele>
        <time>2021-10-26T12:31:16Z</time>
      </trkpt>
      <trkpt lat="46.58125" lon="6.04998">
        <ele>1080.7</ele>
        <time>2021-10-26T12:31:21Z</time>
      </trkpt>
      <trkpt lat="46.58122" lon="6.05005">
        <ele>1079.6</ele>
        <time>2021-10-26T12:31:25Z</time>
      </trkpt>
      <trkpt lat="46.5812" lon="6.05011">
        <ele>1078.1</ele>
        <time>2021-10-26T12:31:29Z</time>
      </trkpt>
      <trkpt lat="46.58118" lon="6.05018">
        <ele>1076.9</ele>
        <time>2021-10-26T12:31:32Z</time>
      </trkpt>
      <trkpt lat="46.58115" lon="6.05025">
        <ele>1075.5</ele>
        <time>2021-10-26T12:31:35Z</time>
      </trkpt>
      <trkpt lat="46.58111" lon="6.05031">
        <ele>1074.6</ele>
        <time>2021-10-26T12:31:38Z</time>
      </trkpt>
      <trkpt lat="46.58108" lon="6.05036">
        <ele>1074.5</ele>
        <time>2021-10-26T12:31:43Z</time>
      </trkpt>
      <trkpt lat="46.58103" lon="6.05039">
        <ele>1075.3</ele>
        <time>2021-10-26T12:31:49Z</time>
      </trkpt>
      <trkpt lat="46.58098" lon="6.05042">
        <ele>1075.9</ele>
        <time>2021-10-26T12:31:54Z</time>
      </trkpt>
      <trkpt lat="46.58095" lon="6.05047">
        <ele>1075.2</ele>
        <time>2021-10-26T12:32:05Z</time>
      </trkpt>
      <trkpt lat="46.5809" lon="6.05047">
        <ele>1072.8</ele>
        <time>2021-10-26T12:32:13Z</time>
      </trkpt>
      <trkpt lat="46.58086" lon="6.0505">
        <ele>1071.5</ele>
        <time>2021-10-26T12:32:18Z</time>
      </trkpt>
      <trkpt lat="46.5808" lon="6.05053">
        <ele>1070.7</ele>
        <time>2021-10-26T12:32:22Z</time>
      </trkpt>
      <trkpt lat="46.58076" lon="6.05056">
        <ele>1070.6</ele>
        <time>2021-10-26T12:32:25Z</time>
      </trkpt>
      <trkpt lat="46.58071" lon="6.0506">
        <ele>1070.6</ele>
        <time>2021-10-26T12:32:28Z</time>
      </trkpt>
      <trkpt lat="46.58065" lon="6.05063">
        <ele>1071.2</ele>
        <time>2021-10-26T12:32:31Z</time>
      </trkpt>
      <trkpt lat="46.58061" lon="6.05065">
        <ele>1071.9</ele>
        <time>2021-10-26T12:32:34Z</time>
      </trkpt>
      <trkpt lat="46.58056" lon="6.05067">
        <ele>1073.6</ele>
        <time>2021-10-26T12:32:40Z</time>
      </trkpt>
      <trkpt lat="46.58051" lon="6.05067">
        <ele>1076.3</ele>
        <time>2021-10-26T12:32:46Z</time>
      </trkpt>
      <trkpt lat="46.58046" lon="6.05066">
        <ele>1079.5</ele>
        <time>2021-10-26T12:32:53Z</time>
      </trkpt>
      <trkpt lat="46.58041" lon="6.05069">
        <ele>1080.7</ele>
        <time>2021-10-26T12:32:57Z</time>
      </trkpt>
      <trkpt lat="46.58036" lon="6.05072">
        <ele>1081</ele>
        <time>2021-10-26T12:33:00Z</time>
      </trkpt>
      <trkpt lat="46.58032" lon="6.05075">
        <ele>1080.9</ele>
        <time>2021-10-26T12:33:03Z</time>
      </trkpt>
      <trkpt lat="46.58027" lon="6.05076">
        <ele>1080.7</ele>
        <time>2021-10-26T12:33:07Z</time>
      </trkpt>
      <trkpt lat="46.58021" lon="6.05077">
        <ele>1080.6</ele>
        <time>2021-10-26T12:33:12Z</time>
      </trkpt>
      <trkpt lat="46.58016" lon="6.05078">
        <ele>1080</ele>
        <time>2021-10-26T12:33:16Z</time>
      </trkpt>
      <trkpt lat="46.58012" lon="6.05081">
        <ele>1077.9</ele>
        <time>2021-10-26T12:33:23Z</time>
      </trkpt>
      <trkpt lat="46.58007" lon="6.05085">
        <ele>1077.1</ele>
        <time>2021-10-26T12:33:28Z</time>
      </trkpt>
      <trkpt lat="46.58005" lon="6.05091">
        <ele>1076.4</ele>
        <time>2021-10-26T12:33:34Z</time>
      </trkpt>
      <trkpt lat="46.58" lon="6.05085">
        <ele>1075.2</ele>
        <time>2021-10-26T12:33:45Z</time>
      </trkpt>
      <trkpt lat="46.57995" lon="6.05087">
        <ele>1074.8</ele>
        <time>2021-10-26T12:33:54Z</time>
      </trkpt>
      <trkpt lat="46.57992" lon="6.05093">
        <ele>1074.1</ele>
        <time>2021-10-26T12:33:58Z</time>
      </trkpt>
      <trkpt lat="46.57989" lon="6.05098">
        <ele>1073.5</ele>
        <time>2021-10-26T12:34:02Z</time>
      </trkpt>
      <trkpt lat="46.57986" lon="6.05105">
        <ele>1073.1</ele>
        <time>2021-10-26T12:34:05Z</time>
      </trkpt>
      <trkpt lat="46.57983" lon="6.05111">
        <ele>1072.7</ele>
        <time>2021-10-26T12:34:08Z</time>
      </trkpt>
      <trkpt lat="46.5798" lon="6.05117">
        <ele>1072.2</ele>
        <time>2021-10-26T12:34:11Z</time>
      </trkpt>
      <trkpt lat="46.57976" lon="6.05123">
        <ele>1071.5</ele>
        <time>2021-10-26T12:34:14Z</time>
      </trkpt>
      <trkpt lat="46.57973" lon="6.05128">
        <ele>1071.3</ele>
        <time>2021-10-26T12:34:17Z</time>
      </trkpt>
      <trkpt lat="46.57969" lon="6.05134">
        <ele>1070.8</ele>
        <time>2021-10-26T12:34:21Z</time>
      </trkpt>
      <trkpt lat="46.57966" lon="6.05139">
        <ele>1070</ele>
        <time>2021-10-26T12:34:25Z</time>
      </trkpt>
      <trkpt lat="46.57963" lon="6.05144">
        <ele>1069</ele>
        <time>2021-10-26T12:34:29Z</time>
      </trkpt>
      <trkpt lat="46.5796" lon="6.05151">
        <ele>1067.4</ele>
        <time>2021-10-26T12:34:34Z</time>
      </trkpt>
      <trkpt lat="46.57956" lon="6.05156">
        <ele>1065.7</ele>
        <time>2021-10-26T12:34:40Z</time>
      </trkpt>
      <trkpt lat="46.57952" lon="6.05162">
        <ele>1064.7</ele>
        <time>2021-10-26T12:34:45Z</time>
      </trkpt>
      <trkpt lat="46.57951" lon="6.0517">
        <ele>1062.9</ele>
        <time>2021-10-26T12:34:49Z</time>
      </trkpt>
      <trkpt lat="46.57948" lon="6.05177">
        <ele>1060.7</ele>
        <time>2021-10-26T12:34:53Z</time>
      </trkpt>
      <trkpt lat="46.57944" lon="6.05182">
        <ele>1058.2</ele>
        <time>2021-10-26T12:34:58Z</time>
      </trkpt>
      <trkpt lat="46.5794" lon="6.05186">
        <ele>1056.8</ele>
        <time>2021-10-26T12:35:02Z</time>
      </trkpt>
      <trkpt lat="46.57935" lon="6.05189">
        <ele>1055.7</ele>
        <time>2021-10-26T12:35:07Z</time>
      </trkpt>
      <trkpt lat="46.5793" lon="6.05192">
        <ele>1055.5</ele>
        <time>2021-10-26T12:35:11Z</time>
      </trkpt>
      <trkpt lat="46.57926" lon="6.0519">
        <ele>1055.1</ele>
        <time>2021-10-26T12:35:16Z</time>
      </trkpt>
      <trkpt lat="46.57922" lon="6.05185">
        <ele>1054.5</ele>
        <time>2021-10-26T12:35:21Z</time>
      </trkpt>
      <trkpt lat="46.57919" lon="6.05178">
        <ele>1054.2</ele>
        <time>2021-10-26T12:35:26Z</time>
      </trkpt>
      <trkpt lat="46.57916" lon="6.05171">
        <ele>1053.8</ele>
        <time>2021-10-26T12:35:30Z</time>
      </trkpt>
      <trkpt lat="46.57913" lon="6.05165">
        <ele>1052.9</ele>
        <time>2021-10-26T12:35:34Z</time>
      </trkpt>
      <trkpt lat="46.5791" lon="6.05159">
        <ele>1051.8</ele>
        <time>2021-10-26T12:35:38Z</time>
      </trkpt>
      <trkpt lat="46.57908" lon="6.05153">
        <ele>1050.3</ele>
        <time>2021-10-26T12:35:43Z</time>
      </trkpt>
      <trkpt lat="46.57906" lon="6.05147">
        <ele>1048.6</ele>
        <time>2021-10-26T12:35:48Z</time>
      </trkpt>
      <trkpt lat="46.57902" lon="6.05141">
        <ele>1046.9</ele>
        <time>2021-10-26T12:35:55Z</time>
      </trkpt>
      <trkpt lat="46.57899" lon="6.05134">
        <ele>1046.2</ele>
        <time>2021-10-26T12:36:00Z</time>
      </trkpt>
      <trkpt lat="46.57896" lon="6.05128">
        <ele>1045.6</ele>
        <time>2021-10-26T12:36:04Z</time>
      </trkpt>
      <trkpt lat="46.57894" lon="6.05122">
        <ele>1045.2</ele>
        <time>2021-10-26T12:36:08Z</time>
      </trkpt>
      <trkpt lat="46.57891" lon="6.05116">
        <ele>1044.9</ele>
        <time>2021-10-26T12:36:12Z</time>
      </trkpt>
      <trkpt lat="46.57887" lon="6.05111">
        <ele>1044.6</ele>
        <time>2021-10-26T12:36:16Z</time>
      </trkpt>
      <trkpt lat="46.57883" lon="6.05106">
        <ele>1044.1</ele>
        <time>2021-10-26T12:36:20Z</time>
      </trkpt>
      <trkpt lat="46.57879" lon="6.05102">
        <ele>1043.8</ele>
        <time>2021-10-26T12:36:24Z</time>
      </trkpt>
      <trkpt lat="46.57876" lon="6.05097">
        <ele>1043.7</ele>
        <time>2021-10-26T12:36:29Z</time>
      </trkpt>
      <trkpt lat="46.57873" lon="6.0509">
        <ele>1043.4</ele>
        <time>2021-10-26T12:36:34Z</time>
      </trkpt>
      <trkpt lat="46.57871" lon="6.05084">
        <ele>1043.2</ele>
        <time>2021-10-26T12:36:39Z</time>
      </trkpt>
      <trkpt lat="46.57868" lon="6.05079">
        <ele>1043.3</ele>
        <time>2021-10-26T12:36:44Z</time>
      </trkpt>
      <trkpt lat="46.57865" lon="6.05073">
        <ele>1043.1</ele>
        <time>2021-10-26T12:36:48Z</time>
      </trkpt>
      <trkpt lat="46.57863" lon="6.05067">
        <ele>1043</ele>
        <time>2021-10-26T12:36:53Z</time>
      </trkpt>
      <trkpt lat="46.5786" lon="6.05061">
        <ele>1043.1</ele>
        <time>2021-10-26T12:36:57Z</time>
      </trkpt>
      <trkpt lat="46.57855" lon="6.05058">
        <ele>1042.9</ele>
        <time>2021-10-26T12:37:05Z</time>
      </trkpt>
      <trkpt lat="46.57851" lon="6.05055">
        <ele>1043</ele>
        <time>2021-10-26T12:37:09Z</time>
      </trkpt>
      <trkpt lat="46.57846" lon="6.05056">
        <ele>1043.6</ele>
        <time>2021-10-26T12:37:13Z</time>
      </trkpt>
      <trkpt lat="46.57841" lon="6.05058">
        <ele>1045.6</ele>
        <time>2021-10-26T12:37:18Z</time>
      </trkpt>
      <trkpt lat="46.57835" lon="6.05063">
        <ele>1047.8</ele>
        <time>2021-10-26T12:37:22Z</time>
      </trkpt>
      <trkpt lat="46.57829" lon="6.05064">
        <ele>1049.6</ele>
        <time>2021-10-26T12:37:26Z</time>
      </trkpt>
      <trkpt lat="46.57824" lon="6.05065">
        <ele>1049.6</ele>
        <time>2021-10-26T12:37:31Z</time>
      </trkpt>
      <trkpt lat="46.5782" lon="6.05063">
        <ele>1047.1</ele>
        <time>2021-10-26T12:37:38Z</time>
      </trkpt>
      <trkpt lat="46.57815" lon="6.05059">
        <ele>1046.6</ele>
        <time>2021-10-26T12:37:43Z</time>
      </trkpt>
      <trkpt lat="46.57813" lon="6.05053">
        <ele>1047.1</ele>
        <time>2021-10-26T12:37:48Z</time>
      </trkpt>
      <trkpt lat="46.5781" lon="6.05047">
        <ele>1047.6</ele>
        <time>2021-10-26T12:37:52Z</time>
      </trkpt>
      <trkpt lat="46.57806" lon="6.05043">
        <ele>1047.8</ele>
        <time>2021-10-26T12:37:58Z</time>
      </trkpt>
    </trkseg>
  </trk>
</gpx>